El Austral — — position and weather

sailwx.info

Track history (hours):
 
Tides and Currents Weather Stations Pressure Air Temp Water Temp Dewpoint Dewpoint Depression Visibility Wind Speed Wind Dir Waves Ship Positions

Oceanographic research ship El Austral (Argentina)

Operator: St Marys Boatmen Association

Detailed information on ship capabilities available from University of Delaware's Ocean Information Center.

Last reported at 2017-Oct-22 06:01 UTC. Time now 2017-Oct-22 06:23 UTC.
Position N 38°58' W 076°29'.

MMSI: 19017.

AWS

Date/timePositionNaut miles runAvg speedWind from/ knotsBaromVisibWave heightAir tempDewpointWater temp
2017-Oct-22 06:01N 38°58' W 076°29'125450102.0
2017-Oct-22 06:01N 36°53' W 076°22'104477521602.0
2017-Oct-22 06:00N 01°17' E 103°59'529219050540.4
2017-Oct-22 06:00N 44°51' E 020°38'1010908639.1
2017-Oct-22 06:00N 47°45' W 003°21'47612856454.7
2017-Oct-22 06:00N 49°18' W 123°08'63261198674.3
2017-Oct-22 06:00S 23°00' W 044°19'88573188623.8
2017-Oct-22 06:00N 01°17' E 103°57'50449078748.6
2017-Oct-22 06:00N 37°56' E 023°39'858715456176.1
2017-Oct-22 06:00S 38°20' E 144°45'81183247074.2
2017-Oct-22 06:00N 44°44' E 037°47'27565957.5
2017-Oct-22 05:59N 46°50' E 031°57'47898620884.4
2017-Oct-22 05:59N 38°58' W 076°29'51192632622.9
2017-Oct-22 05:59N 44°44' E 037°47'27783173.3
2017-Oct-22 05:59N 46°56' E 031°57'1353811901.4
2017-Oct-22 05:59N 39°32' E 002°43'55883732.0
2017-Oct-22 05:58N 38°41' W 009°13'1832199805.3
2017-Oct-22 05:58N 66°10' E 012°32'52692107774.4
2017-Oct-22 05:58N 37°47' W 122°23'524218869922.4
2017-Oct-22 05:58N 68°04' E 013°32'1400280023.9
2017-Oct-22 05:57N 46°56' E 031°57'68642471200.1
2017-Oct-22 05:57N 37°52' W 122°29'57251585295.9
2017-Oct-22 05:57N 59°20' E 018°05'5654102801.2
2017-Oct-22 05:54N 01°18' E 104°05'4804190053.2
2017-Oct-22 05:52N 46°50' E 031°57'4255264128.8
2017-Oct-22 05:51N 23°05' E 113°29'9809161236.1
2017-Oct-22 05:48N 38°47' W 076°13'1657.2
2017-Oct-22 05:31N 38°58' W 076°29'125450102.0
2017-Oct-22 05:31N 36°53' W 076°22'31862867069.7
2017-Oct-22 05:30N 38°41' W 009°13'18796764859.5
2017-Oct-22 05:30N 46°56' E 031°57'4891759608.0
2017-Oct-22 05:30N 44°51' E 020°38'10101211513.4
2017-Oct-22 05:30N 47°45' W 003°21'487717555616.5
2017-Oct-22 05:30S 23°00' W 044°19'53144782658.0
2017-Oct-22 05:30N 51°54' E 004°29'546319666127.4
2017-Oct-22 05:30N 37°52' W 122°29'6872472030.1
2017-Oct-22 05:30N 49°18' W 123°08'776713980134.1
2017-Oct-22 05:30N 01°15' E 103°57'2724.8
2017-Oct-22 05:30N 01°17' E 103°58'56504068109.1
2017-Oct-22 05:30N 59°20' E 018°05'1302312526.6
2017-Oct-22 05:30N 37°56' E 023°39'858710304117.4
2017-Oct-22 05:30S 38°20' E 144°45'81185844733.6
2017-Oct-22 05:30N 44°44' E 037°47'5119921419.5
2017-Oct-22 05:29N 38°58' W 076°29'51193071396.1
2017-Oct-22 05:29N 44°44' E 037°47'27783175.5
2017-Oct-22 05:29N 46°56' E 031°57'13531217851.0
2017-Oct-22 05:29N 39°32' E 002°43'1755485935.5
2017-Oct-22 05:29N 68°04' E 013°32'1406187491.3
2017-Oct-22 05:28N 46°50' E 031°57'1327251352.1
2017-Oct-22 05:28N 66°10' E 012°32'52692371252.6
2017-Oct-22 05:28N 37°47' W 122°23'687093325.5
2017-Oct-22 05:23N 46°50' E 031°57'4803785880.3
2017-Oct-22 05:23N 01°19' E 104°04'10407116708.8
2017-Oct-22 05:18N 38°47' W 076°13'92117261.1
2017-Oct-22 05:14N 29°41' W 091°09'20316200.4
2017-Oct-22 05:14N 29°33' W 095°02'10794918.1
2017-Oct-22 05:01N 38°58' W 076°29'31443773028.9
2017-Oct-22 05:00N 38°41' W 009°13'13872496238.4
2017-Oct-22 05:00N 44°51' E 020°38'10101817271.6
2017-Oct-22 05:00N 47°45' W 003°21'476117138743.2
2017-Oct-22 05:00N 49°18' W 123°08'21803924599.5
2017-Oct-22 05:00N 36°53' W 076°22'35812148623.3
2017-Oct-22 05:00N 51°54' E 004°29'61425527676.5
2017-Oct-22 05:00N 01°19' E 104°00'968217427404.9
2017-Oct-22 05:00N 29°41' W 091°09'96882179722.2
2017-Oct-22 05:00N 01°17' E 103°55'81723677543.1
2017-Oct-22 05:00N 32°37' W 117°31'692224918558.7
2017-Oct-22 05:00N 37°56' E 023°39'756226810.4
2017-Oct-22 05:00N 44°44' E 037°47'81182656695.5
2017-Oct-22 04:59S 38°20' E 144°45'140607230999.2
2017-Oct-22 04:59N 38°58' W 076°29'51193685669.5
2017-Oct-22 04:59N 44°44' E 037°47'27790735.6
2017-Oct-22 04:59N 46°56' E 031°57'60741286235.2
2017-Oct-22 04:59N 29°33' W 095°02'4379335422.7
2017-Oct-22 04:58S 23°00' W 044°19'622022390975.1
2017-Oct-22 04:58N 66°10' E 012°32'52692371251.1
2017-Oct-22 04:58N 37°47' W 122°23'68651372985.9
2017-Oct-22 04:57N 46°56' E 031°57'896119417.6
2017-Oct-22 04:57N 59°20' E 018°05'90179117.7
2017-Oct-22 04:56N 46°50' E 031°57'1352173804.1
2017-Oct-22 04:56N 39°32' E 002°43'13528450.2
2017-Oct-22 04:46N 46°50' E 031°57'487718618.4
2017-Oct-22 04:31N 36°53' W 076°22'125450102.7
2017-Oct-22 04:31N 38°58' W 076°29'31442829772.8
2017-Oct-22 04:30N 38°41' W 009°13'13874992504.8
2017-Oct-22 04:30N 44°51' E 020°38'4891759608.0
2017-Oct-22 04:30N 46°56' E 031°57'14362585683.2
2017-Oct-22 04:30N 47°45' W 003°21'52782714211.5
2017-Oct-22 04:30N 37°52' W 122°29'54639833063.7
2017-Oct-22 04:30N 51°54' E 004°29'61391052454.6
2017-Oct-22 04:30N 01°17' E 103°55'50422016792.3
2017-Oct-22 04:30N 37°56' E 023°39'756340215.7
2017-Oct-22 04:30N 44°44' E 037°47'44901796011.1
2017-Oct-22 04:29N 01°19' E 104°00'104153124597.7
2017-Oct-22 04:29N 38°58' W 076°29'47861076925.5
2017-Oct-22 04:29N 46°56' E 031°57'61362208971.7
2017-Oct-22 04:29S 23°00' W 044°19'98002713882.1
2017-Oct-22 04:29S 38°20' E 144°45'9930851142.8
2017-Oct-22 04:28N 66°10' E 012°32'52692709999.4
2017-Oct-22 04:28N 37°47' W 122°23'52429434974.5
2017-Oct-22 04:28N 68°04' E 013°32'53844049.2
2017-Oct-22 04:27N 59°20' E 018°05'90177234.2
2017-Oct-22 04:26N 46°50' E 031°57'27565957.7
2017-Oct-22 04:26N 44°44' E 037°47'1591409170.6
2017-Oct-22 04:26N 39°32' E 002°43'48681752373.6
2017-Oct-22 04:26N 29°33' W 095°02'607756823.3
2017-Oct-22 04:19N 46°50' E 031°57'427320403.2
2017-Oct-22 04:07N 22°47' E 113°36'983795710.3
2017-Oct-22 04:01N 38°58' W 076°29'1041518746576.4
2017-Oct-22 04:00N 01°15' E 103°57'67668118948.2
2017-Oct-22 04:00N 38°41' W 009°13'18796764866.9
2017-Oct-22 04:00N 46°56' E 031°57'4891759608.0
2017-Oct-22 04:00N 44°51' E 020°38'10101817278.3
2017-Oct-22 04:00N 47°45' W 003°21'330411894277.7
2017-Oct-22 04:00N 36°53' W 076°22'104479402096.7
2017-Oct-22 04:00N 01°17' E 103°59'786128300006.8
2017-Oct-22 04:00N 37°52' W 122°29'54639833052.9
2017-Oct-22 04:00N 51°54' E 004°29'1169150256.3
2017-Oct-22 04:00N 37°56' E 023°39'756209364.3
2017-Oct-22 04:00N 44°44' E 037°47'62274483534.2
2017-Oct-22 03:59N 29°41' W 091°09'84733812702.0
2017-Oct-22 03:59S 38°20' E 144°45'846530475498.5
2017-Oct-22 03:59N 46°50' E 031°57'613222075221.1
2017-Oct-22 03:59S 23°00' W 044°19'41813762502.1
2017-Oct-22 03:59N 38°58' W 076°29'51194607094.1
2017-Oct-22 03:59N 44°44' E 037°47'27783176.3
2017-Oct-22 03:59N 46°56' E 031°57'1353695915.4
2017-Oct-22 03:59N 39°32' E 002°43'1352128087.0
2017-Oct-22 03:58N 46°50' E 031°57'6870951237.3
2017-Oct-22 03:58N 37°47' W 122°23'52426289983.0
2017-Oct-22 03:58N 68°04' E 013°32'53846146.8
2017-Oct-22 03:57N 59°20' E 018°05'5164232379.1
2017-Oct-22 03:56N 29°33' W 095°02'4855356702.8
2017-Oct-22 03:55N 66°10' E 012°32'5050308125.9
2017-Oct-22 03:54N 22°47' E 113°36'14084769.0
2017-Oct-22 03:36N 01°17' E 103°59'10446110935.7
2017-Oct-22 03:31N 36°53' W 076°22'31862293654.7
2017-Oct-22 03:30N 38°41' W 009°13'13874992498.6
2017-Oct-22 03:30N 44°51' E 020°38'4891759603.9
2017-Oct-22 03:30N 46°56' E 031°57'48028644407.3
2017-Oct-22 03:30N 01°16' E 103°58'648923360335.3
2017-Oct-22 03:30N 47°45' W 003°21'64917788898.3
2017-Oct-22 03:30N 01°18' E 104°01'886210633968.4
2017-Oct-22 03:30S 23°00' W 044°19'531419130641.6
2017-Oct-22 03:30N 51°54' E 004°29'61415527334.5
2017-Oct-22 03:30N 01°15' E 103°56'77671644771.4
2017-Oct-22 03:30N 49°18' W 123°08'64122308282.8
2017-Oct-22 03:30N 37°56' E 023°39'756181446.5
2017-Oct-22 03:29N 44°44' E 037°47'62275604411.9
2017-Oct-22 03:29N 29°41' W 091°09'589010602212.3
2017-Oct-22 03:29N 46°50' E 031°57'846510158365.0
2017-Oct-22 03:29S 38°20' E 144°44'1406010123288.3
2017-Oct-22 03:29N 38°58' W 076°29'51193071396.1
2017-Oct-22 03:29N 44°44' E 037°47'27799811.6
2017-Oct-22 03:29N 46°56' E 031°57'1353541267.7
2017-Oct-22 03:29N 39°32' E 002°43'48681752374.1
2017-Oct-22 03:29N 29°33' W 095°02'6077841421.7
2017-Oct-22 03:28N 46°50' E 031°57'1327238784.5
2017-Oct-22 03:28N 66°10' E 012°32'52692371252.6
2017-Oct-22 03:28N 37°47' W 122°23'52429434980.7
2017-Oct-22 03:28N 68°04' E 013°32'53847272.2
2017-Oct-22 03:27N 59°20' E 018°05'39078840.9
2017-Oct-22 03:01N 38°58' W 076°29'31442263820.7
2017-Oct-22 03:00N 38°41' W 009°13'13872496238.4
2017-Oct-22 03:00N 44°51' E 020°38'588021169652.2
2017-Oct-22 03:00N 49°18' W 123°08'21803924592.9
2017-Oct-22 03:00N 36°53' W 076°22'22001980061.5
2017-Oct-22 03:00N 37°52' W 122°29'546319666128.9
2017-Oct-22 03:00N 51°54' E 004°29'1116502088.7
2017-Oct-22 03:00N 46°50' E 031°57'47952877110.8
2017-Oct-22 03:00N 01°15' E 103°50'5039907002.8
2017-Oct-22 03:00N 37°56' E 023°39'85873091237.5
2017-Oct-22 03:00S 38°20' E 144°45'81187305922.9
2017-Oct-22 02:59N 44°44' E 037°47'27598937.9
2017-Oct-22 02:59N 46°50' E 031°57'47893448347.4
2017-Oct-22 02:59N 38°58' W 076°29'51191842839.6
2017-Oct-22 02:59N 44°44' E 037°47'277199626.3
2017-Oct-22 02:59N 46°56' E 031°57'1353608926.1
2017-Oct-22 02:59N 39°32' E 002°43'61421300645.2
2017-Oct-22 02:59N 01°18' E 104°03'6000539968.4
2017-Oct-22 02:58N 66°10' E 012°32'52692107777.2
2017-Oct-22 02:58N 37°47' W 122°23'59061181232.9
2017-Oct-22 02:57S 23°00' W 044°19'61361299393.6
2017-Oct-22 02:57N 46°56' E 031°57'6074245684.0
2017-Oct-22 02:56N 29°33' W 095°02'5164180488.9
2017-Oct-22 02:54N 59°20' E 018°05'39079989.9
2017-Oct-22 02:30N 38°58' W 076°29'31443773034.5
2017-Oct-22 02:30N 38°41' W 009°13'13871664158.9
2017-Oct-22 02:30N 44°51' E 020°38'10101817277.5
2017-Oct-22 02:30N 47°45' W 003°21'52783166580.1
2017-Oct-22 02:30N 37°52' W 122°29'6871236015.1
2017-Oct-22 02:30N 49°18' W 123°08'49791120276.8
2017-Oct-22 02:30N 59°20' E 018°05'901154486.6
2017-Oct-22 02:30N 46°50' E 031°57'48042882166.8
2017-Oct-22 02:30N 01°18' E 104°05'33181493099.3
2017-Oct-22 02:29S 38°20' E 144°45'84656095136.9
2017-Oct-22 02:29N 46°50' E 031°57'47895747245.7
2017-Oct-22 02:29N 38°58' W 076°29'47861076925.2
2017-Oct-22 02:29N 46°56' E 031°57'1353608925.5
2017-Oct-22 02:29N 39°32' E 002°43'1353194852.7
2017-Oct-22 02:28N 46°56' E 031°57'4874674846.8
2017-Oct-22 02:28N 36°53' W 076°22'37551931026.3
2017-Oct-22 02:28N 66°10' E 012°32'52692710001.2
2017-Oct-22 02:28N 37°47' W 122°23'524218869949.1
2017-Oct-22 02:28N 68°04' E 013°32'47301064170.6
2017-Oct-22 02:27N 29°41' W 091°09'5744449564.5
2017-Oct-22 02:27N 37°56' E 023°39'75682476.4
2017-Oct-22 02:26N 44°44' E 037°47'40062884028.5
2017-Oct-22 02:26N 22°47' E 113°37'816176506.8
2017-Oct-22 02:20N 29°33' W 095°02'945835652.9
2017-Oct-22 02:04N 01°17' E 104°06'10421194383.4
2017-Oct-22 02:01N 38°58' W 076°29'1042118757093.5
2017-Oct-22 02:01N 01°17' E 104°05'52963813441.5
2017-Oct-22 02:00N 44°51' E 020°38'1010726911.0
2017-Oct-22 02:00N 47°45' W 003°21'393353645.6
2017-Oct-22 02:00N 51°54' E 004°29'54639833064.5
2017-Oct-22 02:00N 37°52' W 122°29'687224730.0
2017-Oct-22 02:00N 49°18' W 123°08'2180654098.8
2017-Oct-22 02:00N 36°53' W 076°22'47672859975.4
2017-Oct-22 02:00N 37°56' E 023°39'50394535015.3
2017-Oct-22 02:00N 01°15' E 103°50'47953452480.3
2017-Oct-22 02:00N 46°50' E 031°57'275109832.2
2017-Oct-22 01:59N 44°44' E 037°47'81183247068.9
2017-Oct-22 01:59S 38°20' E 144°45'1406012654252.3
2017-Oct-22 01:59N 38°58' W 076°29'51191535699.1
2017-Oct-22 01:59N 44°44' E 037°47'277332705.9
2017-Oct-22 01:59N 46°56' E 031°57'1353487140.4
2017-Oct-22 01:59N 39°32' E 002°43'1353211797.1
2017-Oct-22 01:58N 46°56' E 031°57'1321144071.4
2017-Oct-22 01:58N 66°10' E 012°32'52692371251.1
2017-Oct-22 01:58N 37°47' W 122°23'52429434974.5
2017-Oct-22 01:58N 68°04' E 013°32'47301135112.2
2017-Oct-22 01:57N 29°41' W 091°09'5001620794.6
2017-Oct-22 01:57N 59°20' E 018°05'90181096.1
2017-Oct-22 01:56N 46°50' E 031°57'6077591243.6
2017-Oct-22 01:56N 29°33' W 095°02'10792569.6
2017-Oct-22 01:31N 38°58' W 076°29'1041837503535.1
2017-Oct-22 01:30N 01°17' E 104°02'67698122470.7
2017-Oct-22 01:30N 38°41' W 009°13'13872496245.7
2017-Oct-22 01:30N 44°51' E 020°38'10101211516.5
2017-Oct-22 01:30N 47°45' W 003°21'393176822.9
2017-Oct-22 01:30N 51°54' E 004°29'48621750328.0
2017-Oct-22 01:30N 49°18' W 123°08'777213989703.5
2017-Oct-22 01:30N 01°15' E 103°50'564620327324.6
2017-Oct-22 01:30N 59°20' E 018°05'401614458345.3
2017-Oct-22 01:30N 36°53' W 076°22'858515082.2
2017-Oct-22 01:30N 29°41' W 091°09'57442297773.1
2017-Oct-22 01:30N 37°56' E 023°39'648259334.5
2017-Oct-22 01:30N 46°50' E 031°57'275197685.7
2017-Oct-22 01:30N 44°44' E 037°47'27576105.9
2017-Oct-22 01:29N 46°50' E 031°57'47894310434.3
2017-Oct-22 01:29N 38°58' W 076°29'51196142792.2
2017-Oct-22 01:29N 44°44' E 037°47'277110900.7
2017-Oct-22 01:29N 46°56' E 031°57'1353405950.0
2017-Oct-22 01:29N 39°32' E 002°43'58647036405.6
2017-Oct-22 01:29N 37°52' W 122°29'72031620671.2
2017-Oct-22 01:29S 38°20' E 144°45'84697621681.6
2017-Oct-22 01:28N 46°56' E 031°57'1321139834.6
2017-Oct-22 01:28N 66°10' E 012°32'52692710001.2
2017-Oct-22 01:28N 37°47' W 122°23'52429434974.5
2017-Oct-22 01:28N 68°04' E 013°32'371552244.1
2017-Oct-22 01:23N 38°15' W 076°58'104016491.1
2017-Oct-22 01:20N 29°33' W 095°02'4379138288.3
2017-Oct-22 01:18S 23°00' W 044°19'8866186654.7
2017-Oct-22 01:15N 01°18' E 104°06'1045343552.9
2017-Oct-22 01:01N 36°53' W 076°22'125450102.7
2017-Oct-22 01:01N 38°58' W 076°29'1041437491962.9
2017-Oct-22 01:00N 01°16' E 103°58'621258.4
2017-Oct-22 01:00N 01°18' E 104°03'67708123767.8
2017-Oct-22 01:00N 38°41' W 009°13'318311458003.5
2017-Oct-22 01:00N 38°15' W 076°58'440015841407.7
2017-Oct-22 01:00N 44°51' E 020°38'528619029949.9
2017-Oct-22 01:00N 01°15' E 103°50'648323340120.8
2017-Oct-22 01:00N 47°45' W 003°21'393176823.3
2017-Oct-22 01:00N 51°54' E 004°29'641164729.4
2017-Oct-22 01:00N 59°20' E 018°05'49791194963.2
2017-Oct-22 01:00N 49°18' W 123°08'641211541406.4
2017-Oct-22 01:00N 37°56' E 023°39'648389003.2
2017-Oct-22 01:00N 46°50' E 031°57'275988412.6
2017-Oct-22 01:00N 44°44' E 037°47'27558197.6
2017-Oct-22 00:59N 46°50' E 031°57'47894310434.3
2017-Oct-22 00:59N 38°58' W 076°29'51193685672.7
2017-Oct-22 00:59N 44°44' E 037°47'27799810.5
2017-Oct-22 00:59N 46°56' E 031°57'1353487140.9
2017-Oct-22 00:59N 39°32' E 002°43'58644221842.0
2017-Oct-22 00:59N 37°52' W 122°29'68641372889.0
2017-Oct-22 00:58N 46°56' E 031°57'84684355220.5
2017-Oct-22 00:58S 38°20' E 144°45'99301323993.2
2017-Oct-22 00:58N 66°10' E 012°32'52693161668.1
2017-Oct-22 00:58N 37°47' W 122°23'52429434974.5
2017-Oct-22 00:58N 68°04' E 013°32'47301064287.0
2017-Oct-22 00:57N 29°40' W 091°07'2046866.9
2017-Oct-22 00:56N 29°33' W 095°02'9864249.6
2017-Oct-22 00:42N 34°21' W 076°31'2771477.8
2017-Oct-22 00:31N 38°58' W 076°29'125450102.7
2017-Oct-22 00:31N 36°53' W 076°22'1044437597876.9
2017-Oct-22 00:30N 01°14' E 103°53'52904760797.9
2017-Oct-22 00:30N 44°51' E 020°38'52896346445.7
2017-Oct-22 00:30N 01°15' E 103°54'648611674877.5
2017-Oct-22 00:30N 47°45' W 003°21'47612448389.9
2017-Oct-22 00:30N 49°18' W 123°08'18916807720.0
2017-Oct-22 00:30N 29°41' W 091°09'50011200206.6
2017-Oct-22 00:30N 59°20' E 018°05'60874382757.4
2017-Oct-22 00:30S 23°00' W 044°19'54512180530.5
2017-Oct-22 00:30N 37°56' E 023°39'648291752.4
2017-Oct-22 00:30N 46°50' E 031°57'275329477.2
2017-Oct-22 00:30N 44°44' E 037°47'27570669.9
2017-Oct-22 00:29N 46°50' E 031°57'47894310434.3
2017-Oct-22 00:29N 38°58' W 076°29'51192047596.0
2017-Oct-22 00:29N 44°44' E 037°47'277199619.1
2017-Oct-22 00:29N 46°56' E 031°57'1353487140.3
2017-Oct-22 00:29N 39°32' E 002°43'97181345557.7
2017-Oct-22 00:28S 38°20' E 144°45'1407410133163.8
2017-Oct-22 00:28N 38°15' W 076°58'2147227356.9
2017-Oct-22 00:28N 37°47' W 122°23'524218869961.3
2017-Oct-22 00:28N 68°04' E 013°32'5239158490.9
2017-Oct-22 00:26N 37°52' W 122°29'14581049629.1
2017-Oct-22 00:26N 29°33' W 095°02'60741561846.8
2017-Oct-22 00:25N 46°56' E 031°57'1321139834.0
2017-Oct-22 00:25N 66°10' E 012°32'3914110939.9
2017-Oct-22 00:23N 34°21' W 076°33'276746.1
2017-Oct-22 00:01N 38°58' W 076°29'31442263814.0
2017-Oct-22 00:00N 38°41' W 009°13'13874992510.0
2017-Oct-22 00:00N 44°51' E 020°38'588021169650.2
2017-Oct-22 00:00N 49°18' W 123°08'47615712914.9
2017-Oct-22 00:00N 47°45' W 003°21'649023363276.3
2017-Oct-22 00:00N 01°16' E 103°59'77915.7
2017-Oct-22 00:00N 01°14' E 103°53'104446266172.8
2017-Oct-22 00:00N 36°53' W 076°21'8591030369.6
2017-Oct-22 00:00N 29°41' W 091°09'50011636644.1
2017-Oct-22 00:00N 59°20' E 018°05'1302334850.1
2017-Oct-22 00:00N 37°56' E 023°39'648333430.0
2017-Oct-22 00:00N 46°50' E 031°57'275109825.4
2017-Oct-21 23:59N 44°44' E 037°47'81184174809.7
2017-Oct-21 23:59S 38°20' E 144°45'846510158494.7
2017-Oct-21 23:59N 46°50' E 031°57'47894310434.3
2017-Oct-21 23:59N 38°58' W 076°29'51192632633.5
2017-Oct-21 23:59N 44°44' E 037°47'277332721.5
2017-Oct-21 23:59N 46°56' E 031°57'1353347957.6
2017-Oct-21 23:59N 39°32' E 002°43'58644221842.7
2017-Oct-21 23:59N 37°52' W 122°29'68641372888.9
2017-Oct-21 23:58N 46°56' E 031°57'1321135838.7
2017-Oct-21 23:58N 66°10' E 012°32'52693794001.7
2017-Oct-21 23:58N 37°47' W 122°23'52429434980.4
2017-Oct-21 23:58N 68°04' E 013°32'4872142606.2
2017-Oct-21 23:56N 29°33' W 095°02'9813890.5
2017-Oct-21 23:41N 34°24' W 076°37'223165834.0
2017-Oct-21 23:39N 37°48' W 122°27'216316221.0
2017-Oct-21 23:31N 38°58' W 076°29'43512610543.9
2017-Oct-21 23:30N 44°51' E 020°38'10101211522.9
2017-Oct-21 23:30N 47°45' W 003°21'393282917.3
2017-Oct-21 23:30N 51°54' E 004°29'48624375824.9
2017-Oct-21 23:30N 49°18' W 123°08'21803924592.0
2017-Oct-21 23:30N 36°53' W 076°22'40161112180.8
2017-Oct-21 23:30N 59°20' E 018°05'56473387941.5
2017-Oct-21 23:30N 01°15' E 103°51'50392267556.2
2017-Oct-21 23:30N 37°56' E 023°39'648291752.4
2017-Oct-21 23:30N 46°50' E 031°57'275988439.3
2017-Oct-21 23:30N 44°44' E 037°47'62271724438.0
2017-Oct-21 23:29N 29°41' W 091°09'847310167196.0
2017-Oct-21 23:29S 38°20' E 144°45'846530475484.2
2017-Oct-21 23:29N 46°50' E 031°57'479517263565.9
2017-Oct-21 23:29N 01°15' E 103°50'104999448666.6
2017-Oct-21 23:29N 34°24' W 076°38'53281598435.2
2017-Oct-21 23:29N 44°44' E 037°47'277998116.2
2017-Oct-21 23:29N 46°56' E 031°57'1353442854.3
2017-Oct-21 23:29N 39°32' E 002°43'58647036402.2
2017-Oct-21 23:29N 37°52' W 122°29'1458749735.0
2017-Oct-21 23:29N 29°33' W 095°02'60741561846.8
2017-Oct-21 23:28N 46°56' E 031°57'1321144071.6
2017-Oct-21 23:28N 66°10' E 012°32'52692709999.4
2017-Oct-21 23:28N 37°47' W 122°23'52429434974.5
2017-Oct-21 23:28N 68°04' E 013°32'36568063.7
2017-Oct-21 23:01N 38°58' W 076°29'1039712476382.7
2017-Oct-21 23:00N 01°13' E 103°36'674812147223.5
2017-Oct-21 23:00N 38°41' W 009°13'13871664164.6
2017-Oct-21 23:00N 44°51' E 020°38'44277968447.7
2017-Oct-21 23:00N 36°53' W 076°22'35812148626.5
2017-Oct-21 23:00N 51°54' E 004°29'48628751650.6
2017-Oct-21 23:00N 49°18' W 123°08'49791120278.3
2017-Oct-21 23:00N 59°20' E 018°05'1302334849.9
2017-Oct-21 23:00N 37°56' E 023°39'648333430.0
2017-Oct-21 23:00N 46°50' E 031°57'275494227.7
2017-Oct-21 23:00N 44°44' E 037°47'81182087403.6
2017-Oct-21 22:59S 38°20' E 144°45'846510158485.1
2017-Oct-21 22:59N 46°50' E 031°57'47895747254.9
2017-Oct-21 22:59N 38°58' W 076°29'51192632625.2
2017-Oct-21 22:59N 44°44' E 037°47'277166354.3
2017-Oct-21 22:59N 46°56' E 031°57'68641453655.9
2017-Oct-21 22:59N 37°52' W 122°29'14585248155.4
2017-Oct-21 22:59N 29°33' W 095°02'20445962.5
2017-Oct-21 22:58N 29°39' W 091°07'588810598146.7
2017-Oct-21 22:58N 46°56' E 031°57'1321148573.6
2017-Oct-21 22:58N 66°10' E 012°32'39147044775.5
2017-Oct-21 22:58N 34°26' W 076°41'22241601544.0
2017-Oct-21 22:58N 37°47' W 122°23'52426289974.1
2017-Oct-21 22:58N 68°04' E 013°32'175555904.1
2017-Oct-21 22:56N 39°32' E 002°43'6133124045.4
2017-Oct-21 22:53N 01°15' E 103°50'1040927963.3
2017-Oct-21 22:31N 38°58' W 076°29'1041118739655.9
2017-Oct-21 22:31N 01°15' E 103°53'1761212.5
2017-Oct-21 22:30N 01°13' E 103°36'333311997849.6
2017-Oct-21 22:30S 38°20' E 144°45'1032918592264.6
2017-Oct-21 22:30N 38°41' W 009°13'13872496253.2
2017-Oct-21 22:30N 44°51' E 020°38'44275312293.1
2017-Oct-21 22:30N 36°53' W 076°22'35812148623.8
2017-Oct-21 22:30N 51°54' E 004°29'48628751640.2
2017-Oct-21 22:30N 49°18' W 123°08'49791120276.8
2017-Oct-21 22:30N 59°20' E 018°05'1302312526.6
2017-Oct-21 22:30N 37°56' E 023°39'648389003.2
2017-Oct-21 22:30N 46°50' E 031°57'275988442.1
2017-Oct-21 22:30N 44°44' E 037°47'27561836.8
2017-Oct-21 22:29N 46°50' E 031°57'47893448350.6
2017-Oct-21 22:29N 38°58' W 076°29'51191842838.9
2017-Oct-21 22:29N 44°44' E 037°47'277499057.0
2017-Oct-21 22:29N 46°56' E 031°57'1353374723.8
2017-Oct-21 22:29N 39°32' E 002°43'58644221842.0
2017-Oct-21 22:29N 37°52' W 122°29'1640347388.8
2017-Oct-21 22:28N 29°39' W 091°07'588821196303.8
2017-Oct-21 22:28N 46°56' E 031°57'1321139834.6
2017-Oct-21 22:28N 66°10' E 012°32'52692709997.5
2017-Oct-21 22:28N 37°47' W 122°23'52429434967.3
2017-Oct-21 22:28N 68°04' E 013°32'64734233.3
2017-Oct-21 22:27N 60°02' E 029°56'51959351266.0
2017-Oct-21 22:27N 01°15' E 103°50'10501309876.6
2017-Oct-21 22:25N 34°28' W 076°42'222569040.1
2017-Oct-21 22:23N 37°52' W 122°26'5787153177.6
2017-Oct-21 22:20N 36°32' W 001°22'4730436586.9
2017-Oct-21 22:20N 29°33' W 095°02'10793378.5
2017-Oct-21 22:01N 38°58' W 076°29'125450059.6
2017-Oct-21 22:00N 36°53' W 076°22'31862867065.8
2017-Oct-21 22:00N 38°41' W 009°13'13874992492.3
2017-Oct-21 22:00N 44°51' E 020°38'588021169652.2
2017-Oct-21 22:00N 49°18' W 123°08'47618569364.0
2017-Oct-21 22:00N 47°45' W 003°21'648723352698.3
2017-Oct-21 22:00N 01°14' E 103°54'61403157852.4
2017-Oct-21 22:00N 51°54' E 004°29'612822062168.0
2017-Oct-21 22:00N 01°12' E 103°36'56401353513.8
2017-Oct-21 22:00N 59°20' E 018°05'1302312526.6
2017-Oct-21 22:00N 37°56' E 023°39'756209361.4
2017-Oct-21 21:59N 44°44' E 037°47'27582448.0
2017-Oct-21 21:59N 46°50' E 031°57'687024731257.2
2017-Oct-21 21:59N 37°47' W 122°23'22228000456.8
2017-Oct-21 21:59N 34°28' W 076°43'53302398338.3
2017-Oct-21 21:59N 44°44' E 037°47'277142586.6
2017-Oct-21 21:59N 46°56' E 031°57'1353442854.7
2017-Oct-21 21:59N 39°32' E 002°43'58645277300.0
2017-Oct-21 21:59N 37°52' W 122°29'1640328089.6
2017-Oct-21 21:58N 29°39' W 091°07'588821196293.5
2017-Oct-21 21:58N 46°56' E 031°57'1400720060.8
2017-Oct-21 21:58N 68°04' E 013°32'993235756227.1
2017-Oct-21 21:58S 38°20' E 144°44'8266187151.7
2017-Oct-21 21:56N 29°33' W 095°02'1456163794.6
2017-Oct-21 21:55N 37°52' W 122°26'52651263667.5
2017-Oct-21 21:55N 66°10' E 012°32'132763674.5
2017-Oct-21 21:54N 46°50' E 031°57'79435277.2
2017-Oct-21 21:52N 60°00' E 029°51'6147123618.5
2017-Oct-21 21:49N 37°48' W 122°17'788025194.8
2017-Oct-21 21:31N 01°14' E 103°53'1041237482097.5
2017-Oct-21 21:31N 38°58' W 076°29'31442829781.7
2017-Oct-21 21:30N 38°41' W 009°13'13872496243.9
2017-Oct-21 21:30N 44°51' E 020°38'770277375.8
2017-Oct-21 21:30N 51°54' E 004°29'35814297247.6
2017-Oct-21 21:30N 36°53' W 076°22'40161204862.1
2017-Oct-21 21:30N 59°20' E 018°05'57231716798.9
2017-Oct-21 21:30N 37°48' W 122°19'69144977985.8
2017-Oct-21 21:30N 37°56' E 023°39'648389001.7
2017-Oct-21 21:30N 46°50' E 031°57'275164744.3
2017-Oct-21 21:30N 44°44' E 037°47'958344996.4
2017-Oct-21 21:29N 59°57' E 029°52'7911423434.0
2017-Oct-21 21:29N 46°50' E 031°57'68708243752.4
2017-Oct-21 21:29N 37°47' W 122°23'21613888908.1
2017-Oct-21 21:29N 38°58' W 076°29'51192047602.0
2017-Oct-21 21:29N 44°44' E 037°47'277249535.4
2017-Oct-21 21:29N 46°56' E 031°57'1353487140.7
2017-Oct-21 21:29N 39°32' E 002°43'58644221841.7
2017-Oct-21 21:29N 37°52' W 122°29'21311534488.2
2017-Oct-21 21:29N 38°41' W 077°15'876242594.5
2017-Oct-21 21:28N 29°39' W 091°07'588821196287.1
2017-Oct-21 21:28N 46°56' E 031°57'1321135839.1
2017-Oct-21 21:28N 66°10' E 012°32'11752440.8
2017-Oct-21 21:28N 68°04' E 013°32'99321554633.6
2017-Oct-21 21:27S 38°20' E 144°45'8266297565.0
2017-Oct-21 21:26N 29°33' W 095°02'1456163795.4
2017-Oct-21 21:25N 37°52' W 122°26'5276412873.1
2017-Oct-21 21:24N 47°45' W 003°21'139458372.9
2017-Oct-21 21:23N 46°30' E 030°45'606967430.6
2017-Oct-21 21:18S 23°00' W 044°19'418114740.6
2017-Oct-21 21:01N 38°58' W 076°29'43407811179.2
2017-Oct-21 21:00N 59°56' E 029°59'19952393541.2
2017-Oct-21 21:00N 38°41' W 009°13'13872496243.1
2017-Oct-21 21:00N 44°51' E 020°38'44275312293.1
2017-Oct-21 21:00N 36°53' W 076°22'21962634895.8
2017-Oct-21 21:00N 37°48' W 122°23'54616553740.6
2017-Oct-21 21:00N 51°54' E 004°29'48628751638.9
2017-Oct-21 21:00N 49°18' W 123°08'22572031092.3
2017-Oct-21 21:00N 34°27' W 076°43'41631362489.3
2017-Oct-21 21:00N 59°20' E 018°05'1302312526.6
2017-Oct-21 21:00N 37°56' E 023°39'47514275731.3
2017-Oct-21 21:00N 38°41' W 077°15'483617409815.9
2017-Oct-21 21:00N 46°50' E 031°57'275329485.2
2017-Oct-21 21:00N 44°44' E 037°47'27558198.6
2017-Oct-21 20:59N 46°50' E 031°57'47895747251.0
2017-Oct-21 20:59N 38°58' W 076°29'51193071398.2
2017-Oct-21 20:59N 44°44' E 037°47'277124764.7
2017-Oct-21 20:59N 46°56' E 031°57'47971918929.7
2017-Oct-21 20:59N 01°15' E 103°50'613311040036.4
2017-Oct-21 20:59N 39°32' E 002°43'1353221424.2
2017-Oct-21 20:58N 46°56' E 031°57'588821196303.8
2017-Oct-21 20:58N 29°39' W 091°07'584721049064.8
2017-Oct-21 20:58N 46°27' E 030°47'60692184757.1
2017-Oct-21 20:58S 23°00' W 044°19'980035280282.4
2017-Oct-21 20:58S 38°20' E 144°45'99301554252.9
2017-Oct-21 20:58N 66°10' E 012°32'11752440.8
2017-Oct-21 20:58N 68°04' E 013°32'4872141456.2
2017-Oct-21 20:56N 29°33' W 095°02'145829819.0
2017-Oct-21 20:53N 37°52' W 122°29'6715818.6
2017-Oct-21 20:46N 48°60' W 123°49'4557134477.8
2017-Oct-21 20:44N 63°40' E 010°37'5281500350.3
2017-Oct-21 20:43N 37°52' W 122°26'216210266.7
2017-Oct-21 20:31N 38°58' W 076°29'1040312483134.8
2017-Oct-21 20:30N 01°17' E 103°46'675412157576.2
2017-Oct-21 20:30N 38°41' W 009°13'13872496251.6
2017-Oct-21 20:30N 44°51' E 020°38'64565810113.7
2017-Oct-21 20:30N 37°50' W 122°23'688353975.0
2017-Oct-21 20:30N 49°18' W 123°08'22561624065.2
2017-Oct-21 20:30N 34°27' W 076°44'50012571911.8
2017-Oct-21 20:30N 46°56' E 031°57'8961074806.7
2017-Oct-21 20:30N 59°20' E 018°05'4016803240.7
2017-Oct-21 20:30N 36°53' W 076°22'11641627.8
2017-Oct-21 20:30N 38°41' W 077°15'3676135037.4
2017-Oct-21 20:28N 66°10' E 012°32'11752441.0
2017-Oct-21 20:28N 68°04' E 013°32'5237123229.4
2017-Oct-21 20:25N 37°52' W 122°26'5276395670.1
2017-Oct-21 20:24N 47°45' W 003°21'1025212302363.4
2017-Oct-21 20:24S 38°20' E 144°45'99585974573.2
2017-Oct-21 20:24N 51°54' E 004°29'732263688.3
2017-Oct-21 20:24N 63°40' E 010°37'528519027209.7
2017-Oct-21 20:24N 37°47' W 122°23'68652745971.7
2017-Oct-21 20:24N 46°56' E 031°57'653195998.3
2017-Oct-21 20:24N 37°56' E 023°39'648583504.8
2017-Oct-21 20:24N 46°50' E 031°57'275123553.6
2017-Oct-21 20:24N 44°44' E 037°47'27589944.1
2017-Oct-21 20:23N 46°50' E 031°57'47893448345.1
2017-Oct-21 20:23N 38°58' W 076°29'51192047597.0
2017-Oct-21 20:23N 44°44' E 037°47'1591358023.1
2017-Oct-21 20:23N 39°32' E 002°43'586421109208.4
2017-Oct-21 20:23N 37°52' W 122°29'164022626.9
2017-Oct-21 20:18N 29°39' W 091°07'2041138.4
2017-Oct-21 20:08N 29°33' W 095°02'169630986.8
2017-Oct-21 20:04N 47°44' W 122°44'208632227.1
2017-Oct-21 20:01N 38°58' W 076°29'43497827479.1
2017-Oct-21 20:00N 59°53' E 030°12'51779318904.6
2017-Oct-21 20:00N 01°15' E 103°43'675412156571.9
2017-Oct-21 20:00N 38°41' W 009°13'13874992503.2
2017-Oct-21 20:00N 44°51' E 020°38'52929525221.4
2017-Oct-21 20:00N 01°16' E 103°58'1044718803748.9
2017-Oct-21 20:00N 36°53' W 076°22'35814297251.6
2017-Oct-21 20:00N 51°54' E 004°29'48622500266.1
2017-Oct-21 20:00N 49°20' W 123°09'22598130693.6
2017-Oct-21 20:00N 34°27' W 076°42'22232000809.5
2017-Oct-21 20:00N 37°47' W 122°23'57262576851.0
2017-Oct-21 20:00N 59°20' E 018°05'8961074773.2
2017-Oct-21 20:00N 46°56' E 031°57'68604115962.2
2017-Oct-21 20:00N 37°50' W 122°21'69138296087.2
2017-Oct-21 20:00N 37°56' E 023°39'648389001.7
2017-Oct-21 20:00N 46°50' E 031°57'27589857.4
2017-Oct-21 19:59N 44°44' E 037°47'27598937.9
2017-Oct-21 19:59N 46°50' E 031°57'47894310430.4
2017-Oct-21 19:59N 38°58' W 076°29'3680529949.2
2017-Oct-21 19:59N 39°32' E 002°43'58644221842.4
2017-Oct-21 19:59N 37°52' W 122°29'14581312036.3
2017-Oct-21 19:59N 29°33' W 095°02'82661062732.0
2017-Oct-21 19:58S 38°20' E 144°45'75681513554.8
2017-Oct-21 19:58N 47°44' W 122°45'45628212209.5
2017-Oct-21 19:58N 66°10' E 012°32'158141916.3
2017-Oct-21 19:58N 63°40' E 010°37'274492619.7
2017-Oct-21 19:58N 68°04' E 013°32'1401360202.0
2017-Oct-21 19:58N 46°56' E 031°57'48391161476.4
2017-Oct-21 19:57N 38°15' W 076°58'214959958.8
2017-Oct-21 19:55N 37°52' W 122°26'7234205063.9
2017-Oct-21 19:53N 44°44' E 037°47'622781820.7
2017-Oct-21 19:48N 29°39' W 091°07'18396146.6
2017-Oct-21 19:31N 47°41' W 122°51'547419707744.2
2017-Oct-21 19:30N 59°55' E 030°14'462216638661.1
2017-Oct-21 19:30N 34°27' W 076°44'32633916182.7
2017-Oct-21 19:30N 38°41' W 009°13'13872496246.9
2017-Oct-21 19:30N 44°51' E 020°38'439615826417.6
2017-Oct-21 19:30N 38°40' W 077°14'32775898207.7
2017-Oct-21 19:30N 47°45' W 003°21'393471527.1
2017-Oct-21 19:30N 51°54' E 004°29'61302452043.7
2017-Oct-21 19:30N 01°13' E 103°39'78885679387.0
2017-Oct-21 19:30N 37°47' W 122°23'68653089218.2
2017-Oct-21 19:30N 46°56' E 031°57'653195998.3
2017-Oct-21 19:30N 37°56' E 023°39'47678579932.2
2017-Oct-21 19:30N 36°53' W 076°22'48775852450.5
2017-Oct-21 19:30N 46°50' E 031°57'275329485.2
2017-Oct-21 19:30N 44°44' E 037°47'27561837.7
2017-Oct-21 19:29N 46°50' E 031°57'47892873620.2
2017-Oct-21 19:29N 38°58' W 076°29'51192047597.4
2017-Oct-21 19:29N 44°44' E 037°47'1591409170.2
2017-Oct-21 19:29N 39°32' E 002°43'61397366473.1
2017-Oct-21 19:29N 01°17' E 103°58'602821700159.8
2017-Oct-21 19:29N 63°40' E 010°37'1241343576.5
2017-Oct-21 19:29N 46°56' E 031°57'58883028084.6
2017-Oct-21 19:28N 29°39' W 091°07'84732033556.1
2017-Oct-21 19:28S 38°20' E 144°45'99302102812.8
2017-Oct-21 19:28N 66°10' E 012°32'11738138.9
2017-Oct-21 19:28N 68°04' E 013°32'3715786735.0
2017-Oct-21 19:27N 38°15' W 076°58'2151703810.4
2017-Oct-21 19:27N 37°52' W 122°29'57251717401.8
2017-Oct-21 19:27N 59°20' E 018°05'5164223979.9
2017-Oct-21 19:26N 29°33' W 095°02'16984048.9
2017-Oct-21 19:01N 47°41' W 122°51'20727458071.7
2017-Oct-21 19:00N 38°34' W 077°14'31883825527.5
2017-Oct-21 19:00N 38°41' W 009°13'13871664163.1
2017-Oct-21 19:00N 44°51' E 020°38'10101817277.5
2017-Oct-21 19:00N 47°45' W 003°21'330411894263.6
2017-Oct-21 19:00N 36°53' W 076°22'446616076068.6
2017-Oct-21 19:00N 59°55' E 030°14'9903565174.3
2017-Oct-21 19:00N 51°54' E 004°29'54631404830.9
2017-Oct-21 19:00N 37°47' W 122°23'57262944974.5
2017-Oct-21 19:00N 59°20' E 018°05'8961612146.6
2017-Oct-21 19:00N 46°56' E 031°57'685824689307.9
2017-Oct-21 19:00N 37°50' W 122°19'52792714693.6
2017-Oct-21 19:00N 63°40' E 010°37'16211945146.0
2017-Oct-21 19:00N 37°56' E 023°39'50449079442.9
2017-Oct-21 19:00N 01°16' E 103°57'48004319619.7
2017-Oct-21 19:00N 46°50' E 031°57'275329480.7
2017-Oct-21 19:00N 44°44' E 037°47'27565959.3
2017-Oct-21 18:59N 46°50' E 031°57'47892873625.5
2017-Oct-21 18:59N 38°58' W 076°29'103986238810.0
2017-Oct-21 18:59N 01°13' E 103°36'61231160160.3
2017-Oct-21 18:59N 39°32' E 002°43'48681752374.5
2017-Oct-21 18:59N 29°33' W 095°02'20461283.2
2017-Oct-21 18:58N 29°39' W 091°07'787177168.3
2017-Oct-21 18:58N 34°27' W 076°43'228821053.6
2017-Oct-21 18:58N 38°15' W 076°58'1407450665798.8
2017-Oct-21 18:58S 38°20' E 144°45'99321430262.9
2017-Oct-21 18:58N 68°04' E 013°32'1400504056.4
2017-Oct-21 18:58N 46°56' E 031°57'68641176770.7
2017-Oct-21 18:57N 37°52' W 122°29'42533.3
2017-Oct-21 18:57N 37°49' W 122°27'7237394772.4
2017-Oct-21 18:56N 44°44' E 037°47'154780709.2
2017-Oct-21 18:55N 66°10' E 012°32'599014748.5
2017-Oct-21 18:31N 01°13' E 103°39'778328020406.8
2017-Oct-21 18:31N 49°18' W 123°08'97349707.8
2017-Oct-21 18:30N 47°41' W 122°51'50014500496.7
2017-Oct-21 18:30N 38°41' W 009°13'13874992500.1
2017-Oct-21 18:30N 44°51' E 020°38'10101211518.8
2017-Oct-21 18:30N 47°45' W 003°21'13962512134.3
2017-Oct-21 18:30N 59°55' E 030°14'440915873457.9
2017-Oct-21 18:30N 38°27' W 077°17'35513196110.5
2017-Oct-21 18:30N 51°54' E 004°29'35811841677.5
2017-Oct-21 18:30N 36°53' W 076°22'21972635898.4
2017-Oct-21 18:30N 37°47' W 122°23'68652745973.7
2017-Oct-21 18:30N 46°56' E 031°57'49991799624.9
2017-Oct-21 18:30N 34°28' W 076°42'53291198967.0
2017-Oct-21 18:29N 44°44' E 037°47'275123672.4
2017-Oct-21 18:29N 46°50' E 031°57'47892873622.9
2017-Oct-21 18:29N 38°58' W 076°29'51192047597.4
2017-Oct-21 18:29N 44°44' E 037°47'1483889954.3
2017-Oct-21 18:29N 63°40' E 010°37'1478483652.9
2017-Oct-21 18:29N 39°32' E 002°43'4673764622.6
2017-Oct-21 18:28N 29°39' W 091°07'96891395146.0
2017-Oct-21 18:28N 01°16' E 103°57'59982399362.4
2017-Oct-21 18:28N 66°10' E 012°32'11741952.6
2017-Oct-21 18:28N 68°04' E 013°32'1400560060.4
2017-Oct-21 18:28N 46°56' E 031°57'89689567.2
2017-Oct-21 18:27N 59°20' E 018°05'1302312526.6
2017-Oct-21 18:27N 37°56' E 023°39'6919168291.0
2017-Oct-21 18:24N 37°52' W 122°29'6870686960.9
2017-Oct-21 18:24N 46°50' E 031°57'607791920.9
2017-Oct-21 18:20N 29°33' W 095°02'146516532.6
2017-Oct-21 18:14N 43°35' W 070°09'4012451.5
2017-Oct-21 18:05N 38°52' W 076°26'7371.0
2017-Oct-21 18:03N 38°58' W 076°29'10399218917.0
2017-Oct-21 18:01N 01°13' E 103°38'51759314853.8
2017-Oct-21 18:00N 59°54' E 030°13'462016631133.4
2017-Oct-21 18:00N 34°28' W 076°42'32625870789.4
2017-Oct-21 18:00N 38°41' W 009°13'676524354517.7
2017-Oct-21 18:00N 01°17' E 103°57'52919523344.5
2017-Oct-21 18:00N 44°51' E 020°38'10101211518.8
2017-Oct-21 18:00N 47°45' W 003°21'47618569372.3
2017-Oct-21 18:00N 49°18' W 123°08'2217886652.0
2017-Oct-21 18:00N 43°34' W 070°10'1378724816385.2
2017-Oct-21 18:00S 38°20' E 144°45'72046483919.1
2017-Oct-21 18:00N 37°47' W 122°23'68652745975.5
2017-Oct-21 18:00N 46°56' E 031°57'653213815.6
2017-Oct-21 18:00N 37°56' E 023°39'648583502.6
2017-Oct-21 18:00N 46°50' E 031°57'47925750405.3
2017-Oct-21 18:00N 38°52' W 076°26'51212633781.0
2017-Oct-21 17:59N 44°44' E 037°47'275109929.5
2017-Oct-21 17:59N 46°50' E 031°57'47892873622.9
2017-Oct-21 17:59N 38°58' W 076°29'51192047597.0
2017-Oct-21 17:59N 44°44' E 037°47'52053123074.8
2017-Oct-21 17:59N 36°53' W 076°22'37321679184.7
2017-Oct-21 17:59N 39°32' E 002°43'48681593068.7
2017-Oct-21 17:59N 29°33' W 095°02'20456569.2
2017-Oct-21 17:58N 29°39' W 091°07'4661399475.6
2017-Oct-21 17:58N 63°40' E 010°37'274985330.2
2017-Oct-21 17:58N 68°04' E 013°32'1400504053.8
2017-Oct-21 17:58N 46°56' E 031°57'47861722873.8
2017-Oct-21 17:57N 38°58' W 076°29'2163973525.6
2017-Oct-21 17:57N 37°52' W 122°29'54636555376.8
2017-Oct-21 17:57N 51°54' E 004°29'641256247.1
2017-Oct-21 17:57N 59°20' E 018°05'43811943.2
2017-Oct-21 17:55N 66°10' E 012°32'546235882.0
2017-Oct-21 17:46N 32°37' W 117°29'20328011.2
2017-Oct-21 17:31N 38°58' W 076°29'21023784040.0
2017-Oct-21 17:30N 49°18' W 123°08'49585950051.9
2017-Oct-21 17:30N 38°41' W 009°13'52929525650.4
2017-Oct-21 17:30N 32°37' W 117°30'650723424342.9
2017-Oct-21 17:30N 44°51' E 020°38'435015661329.0
2017-Oct-21 17:30N 38°59' W 076°29'34951572924.6
2017-Oct-21 17:30N 51°54' E 004°29'99583983072.0
2017-Oct-21 17:30S 38°20' E 144°45'720425935690.1
2017-Oct-21 17:30N 37°47' W 122°23'78769451283.9
2017-Oct-21 17:30N 01°15' E 103°50'47972878421.6
2017-Oct-21 17:30N 46°56' E 031°57'48742924333.4
2017-Oct-21 17:30N 36°53' W 076°22'47672451405.1
2017-Oct-21 17:30N 37°56' E 023°39'47072118331.2
2017-Oct-21 17:30N 38°55' W 076°29'51213072884.6
2017-Oct-21 17:29N 44°44' E 037°47'275164894.7
2017-Oct-21 17:29N 46°50' E 031°57'47892463105.3
2017-Oct-21 17:29N 38°58' W 076°29'51192047597.4
2017-Oct-21 17:29N 44°44' E 037°47'1591336963.5
2017-Oct-21 17:29N 39°32' E 002°43'1478760039.1
2017-Oct-21 17:29N 63°40' E 010°37'15811353.4
2017-Oct-21 17:28N 66°10' E 012°32'11752440.8
2017-Oct-21 17:28N 68°04' E 013°32'1400630070.5
2017-Oct-21 17:28N 46°56' E 031°57'896104014.2
2017-Oct-21 17:27N 59°20' E 018°05'5164218709.9
2017-Oct-21 17:26N 29°33' W 095°02'1698359530.2
2017-Oct-21 17:25N 47°41' W 122°50'6303220302.8
2017-Oct-21 17:24N 46°50' E 031°57'6870168235.2
2017-Oct-21 17:21N 37°52' W 122°29'21646271.6
2017-Oct-21 17:01N 38°58' W 076°29'434515640366.3
2017-Oct-21 17:01N 59°54' E 030°06'19981438239.7
2017-Oct-21 17:00N 38°41' W 009°13'13872496254.0
2017-Oct-21 17:00N 44°51' E 020°38'10101817278.3
2017-Oct-21 17:00N 47°45' W 003°21'47611428227.3
2017-Oct-21 17:00N 49°18' W 123°08'21001512193.4
2017-Oct-21 17:00N 38°57' W 076°33'21587768407.9
2017-Oct-21 17:00N 37°47' W 122°23'78765670770.4
2017-Oct-21 17:00N 01°15' E 103°50'50391133753.9
2017-Oct-21 17:00N 37°56' E 023°39'648778012.2
2017-Oct-21 17:00N 46°50' E 031°57'27589860.2
2017-Oct-21 16:59N 44°44' E 037°47'73126580538.1
2017-Oct-21 16:59N 32°38' W 117°33'723913030997.0
2017-Oct-21 16:59S 38°20' E 144°45'846530475512.8
2017-Oct-21 16:59N 46°50' E 031°57'47892155219.1
2017-Oct-21 16:59N 38°58' W 076°29'51192047600.6
2017-Oct-21 16:59N 44°44' E 037°47'520518738465.1
2017-Oct-21 16:59N 36°53' W 076°22'3732959533.9
2017-Oct-21 16:59N 39°32' E 002°43'48681947082.2
2017-Oct-21 16:59N 29°33' W 095°02'4855379966.1
2017-Oct-21 16:58N 66°10' E 012°32'15863076.2
2017-Oct-21 16:58N 63°40' E 010°37'1241446581.5
2017-Oct-21 16:58N 46°56' E 031°57'68641176769.9
2017-Oct-21 16:57N 37°52' W 122°29'546319666125.9
2017-Oct-21 16:57N 51°54' E 004°29'641288276.7
2017-Oct-21 16:57N 59°20' E 018°05'896322429.6
2017-Oct-21 16:57N 46°56' E 031°57'613661024.3
2017-Oct-21 16:51S 23°00' W 044°19'4224102738.4
2017-Oct-21 16:48N 29°39' W 091°07'9163067.1
2017-Oct-21 16:31N 38°58' W 076°29'434115629012.4
2017-Oct-21 16:30N 59°55' E 030°02'19961796118.0
2017-Oct-21 16:30N 38°41' W 009°13'13874992483.0
2017-Oct-21 16:30N 44°51' E 020°38'10101817278.3
2017-Oct-21 16:30N 47°45' W 003°21'393707291.7
2017-Oct-21 16:30N 51°54' E 004°29'61317357694.8
2017-Oct-21 16:30N 01°17' E 103°46'77743109747.3
2017-Oct-21 16:30N 49°18' W 123°08'621411185100.4
2017-Oct-21 16:30N 46°56' E 031°57'686524714524.6
2017-Oct-21 16:30N 37°47' W 122°23'68652471374.5
2017-Oct-21 16:30N 46°56' E 031°57'653213816.3
2017-Oct-21 16:30N 37°56' E 023°39'6481167009.7
2017-Oct-21 16:30N 46°50' E 031°57'27558142.9
2017-Oct-21 16:29N 44°44' E 037°47'275247346.3
2017-Oct-21 16:29N 46°50' E 031°57'47892155215.7
2017-Oct-21 16:29N 38°58' W 076°29'51192303547.1
2017-Oct-21 16:29N 44°44' E 037°47'81189741236.2
2017-Oct-21 16:29S 38°20' E 144°45'97182691117.0
2017-Oct-21 16:29N 39°32' E 002°43'14781330063.8
2017-Oct-21 16:29N 63°40' E 010°37'60251204905.3
2017-Oct-21 16:28N 01°15' E 103°50'5994501847.1
2017-Oct-21 16:28N 68°04' E 013°32'5239628679.1
2017-Oct-21 16:27N 37°52' W 122°29'394141753.8
2017-Oct-21 16:27N 32°39' W 117°36'587910581429.5
2017-Oct-21 16:27N 59°20' E 018°05'5164226711.4
2017-Oct-21 16:26N 29°33' W 095°02'4855356702.8
2017-Oct-21 16:25N 66°10' E 012°32'375571143.0
2017-Oct-21 16:22N 36°53' W 076°22'63813348.8
2017-Oct-21 16:19N 27°40' W 082°38'554633839.7
2017-Oct-21 16:09N 46°26' E 030°47'475133732.6
2017-Oct-21 16:01N 38°58' W 076°29'21022522706.2
2017-Oct-21 16:00N 49°18' W 123°08'49585950055.4
2017-Oct-21 16:00N 38°41' W 009°13'13871664166.2
2017-Oct-21 16:00N 44°51' E 020°38'10101211518.8
2017-Oct-21 16:00N 47°45' W 003°21'393282916.2
2017-Oct-21 16:00N 51°54' E 004°29'42707686611.9
2017-Oct-21 16:00N 27°42' W 082°39'20951508289.9
2017-Oct-21 16:00N 37°47' W 122°23'686524714407.6
2017-Oct-21 16:00N 46°56' E 031°57'69488337249.2
2017-Oct-21 16:00N 32°38' W 117°35'69144977765.8
2017-Oct-21 16:00N 46°28' E 030°47'5667509.1
2017-Oct-21 16:00N 46°56' E 031°57'653180922.2
2017-Oct-21 16:00N 37°56' E 023°39'4706564661.1
2017-Oct-21 15:59N 38°58' W 076°29'12549951.1
2017-Oct-21 15:59N 36°53' W 076°22'520518738469.3
2017-Oct-21 15:59N 44°44' E 037°47'1591440645.1
2017-Oct-21 15:59N 39°32' E 002°43'612811030073.0
2017-Oct-21 15:59N 01°17' E 103°46'94774873885.2
2017-Oct-21 15:59N 29°33' W 095°02'481117321098.7
2017-Oct-21 15:59N 63°40' E 010°37'11634778.2
2017-Oct-21 15:58N 65°29' E 012°12'47028463377.5
2017-Oct-21 15:58N 29°40' W 091°06'96968726622.8
2017-Oct-21 15:58N 01°15' E 103°50'3325997543.3
2017-Oct-21 15:58S 38°20' E 144°45'99302102814.9
2017-Oct-21 15:58N 66°10' E 012°32'1326596698.0
2017-Oct-21 15:58N 46°50' E 031°56'14065060269.5
2017-Oct-21 15:58N 68°04' E 013°32'14065060265.7
2017-Oct-21 15:58N 46°50' E 031°56'6869852645.0
2017-Oct-21 15:57N 37°52' W 122°29'57252060886.1
2017-Oct-21 15:57N 59°20' E 018°05'1138117102.5
2017-Oct-21 15:56N 44°44' E 037°47'95721934.4
2017-Oct-21 15:54N 59°56' E 029°56'433711137.5
2017-Oct-21 15:31N 38°58' W 076°29'1040037440331.7
2017-Oct-21 15:30N 01°18' E 103°43'777627994868.3
2017-Oct-21 15:30N 49°18' W 123°08'49585950058.5
2017-Oct-21 15:30N 38°41' W 009°13'13874992489.2
2017-Oct-21 15:30N 44°51' E 020°38'770308195.4
2017-Oct-21 15:30N 51°54' E 004°29'614122106149.9
2017-Oct-21 15:30N 01°13' E 103°53'78754724998.5
2017-Oct-21 15:30N 37°47' W 122°23'20963772916.4
2017-Oct-21 15:30N 27°44' W 082°36'55851675612.6
2017-Oct-21 15:30N 46°56' E 031°57'1240446567.5
2017-Oct-21 15:30N 63°40' E 010°37'16212917744.3
2017-Oct-21 15:30N 37°56' E 023°39'756340214.0
2017-Oct-21 15:30N 44°44' E 037°47'5119921421.1
2017-Oct-21 15:29N 38°58' W 076°29'51191417568.6
2017-Oct-21 15:29N 44°44' E 037°47'520518738485.3
2017-Oct-21 15:29N 36°53' W 076°22'37321221227.7
2017-Oct-21 15:29N 39°32' E 002°43'1353405903.5
2017-Oct-21 15:29N 46°56' E 031°57'6700.1
2017-Oct-21 15:28N 46°50' E 031°57'84655079087.0
2017-Oct-21 15:28S 38°20' E 144°45'99305957978.4
2017-Oct-21 15:28N 66°10' E 012°32'11746614.2
2017-Oct-21 15:28N 68°04' E 013°32'14061012322.7
2017-Oct-21 15:28N 46°50' E 031°57'90185358.9
2017-Oct-21 15:27N 59°20' E 018°05'5000300009.7
2017-Oct-21 15:26N 29°40' W 091°06'20536948.3
2017-Oct-21 15:26N 29°33' W 095°02'458782574.4
2017-Oct-21 15:22N 52°07' E 001°32'34361374264.9
2017-Oct-21 15:22N 36°49' W 075°48'133904.5
2017-Oct-21 15:13N 38°59' W 076°24'51493.6
2017-Oct-21 15:07N 38°15' W 076°58'49437.9
2017-Oct-21 15:01N 38°58' W 076°29'21027568092.2
2017-Oct-21 15:01N 49°18' W 123°08'49584462543.4
2017-Oct-21 15:00N 38°41' W 009°13'13871664168.8
2017-Oct-21 15:00N 44°51' E 020°38'44007920707.9
2017-Oct-21 15:00N 38°15' W 076°58'87313074.2
2017-Oct-21 15:00N 36°53' W 076°22'104439398298.4
2017-Oct-21 15:00N 01°15' E 103°53'613911050719.5
2017-Oct-21 15:00N 51°54' E 004°29'546319666127.4
2017-Oct-21 15:00N 37°52' W 122°29'22217996641.6
2017-Oct-21 15:00N 36°54' W 075°55'2218887125.2
2017-Oct-21 15:00N 37°47' W 122°23'788814198704.5
2017-Oct-21 15:00N 01°12' E 103°39'47914312254.9
2017-Oct-21 15:00N 46°56' E 031°57'1240446572.2
2017-Oct-21 15:00N 63°40' E 010°37'16211945166.7
2017-Oct-21 15:00N 37°56' E 023°39'653391624.2
2017-Oct-21 15:00N 46°56' E 031°57'277332480.6
2017-Oct-21 15:00N 44°44' E 037°47'51161674339.7
2017-Oct-21 14:59N 38°58' W 076°26'47862461602.8
2017-Oct-21 14:59N 46°50' E 031°57'47895747245.7
2017-Oct-21 14:59N 38°58' W 076°29'51191535698.0
2017-Oct-21 14:59N 44°44' E 037°47'1591440644.9
2017-Oct-21 14:59N 39°32' E 002°43'1352187218.3
2017-Oct-21 14:58N 46°50' E 031°57'846510158104.5
2017-Oct-21 14:58S 38°20' E 144°45'101103308585.9
2017-Oct-21 14:58N 52°05' E 001°32'910192689.1
2017-Oct-21 14:58N 66°10' E 012°32'11759932.5
2017-Oct-21 14:58N 68°04' E 013°32'4729896098.6
2017-Oct-21 14:57N 29°40' W 091°06'42492549591.6
2017-Oct-21 14:57N 47°45' W 003°21'4432159557.6
2017-Oct-21 14:56N 29°33' W 095°02'5164180488.7
2017-Oct-21 14:54N 59°20' E 018°05'587853847.8
2017-Oct-21 14:47N 32°37' W 117°33'7227464581.3
2017-Oct-21 14:46N 45°18' E 036°29'504118962.9
2017-Oct-21 14:31N 38°58' W 076°29'31442263829.8
2017-Oct-21 14:30N 38°41' W 009°13'31445659097.7
2017-Oct-21 14:30N 38°59' W 076°29'323311638966.5
2017-Oct-21 14:30N 47°45' W 003°21'52783799896.5
2017-Oct-21 14:30N 37°52' W 122°29'54636555376.8
2017-Oct-21 14:30N 51°54' E 004°29'35654278594.1
2017-Oct-21 14:30N 36°58' W 076°04'1517651.8
2017-Oct-21 14:30N 36°53' W 076°22'40692929536.5
2017-Oct-21 14:30S 23°01' W 044°19'61362454545.6
2017-Oct-21 14:30N 46°56' E 031°57'653195996.8
2017-Oct-21 14:30N 37°56' E 023°39'727163662.7
2017-Oct-21 14:29N 45°19' E 036°31'649672.4
2017-Oct-21 14:29N 44°44' E 037°47'1591409170.3
2017-Oct-21 14:29N 39°32' E 002°43'46711528761.9
2017-Oct-21 14:29N 29°40' W 091°06'3939443165.9
2017-Oct-21 14:28N 28°16' W 016°05'2666417312.3
2017-Oct-21 14:28N 68°04' E 013°32'14001680181.1
2017-Oct-21 14:28N 46°56' E 031°57'4839512396.0
2017-Oct-21 14:27N 38°15' W 076°58'226778.0
2017-Oct-21 14:10N 34°29' W 077°14'22177.6
2017-Oct-21 14:02N 34°24' W 076°48'10512378445.1
2017-Oct-21 14:01N 01°16' E 103°56'776713980879.8
2017-Oct-21 14:00N 49°18' W 123°08'778328018296.4
2017-Oct-21 14:00N 01°14' E 103°39'52786334025.8
2017-Oct-21 14:00N 44°51' E 020°38'64591291820.9
2017-Oct-21 14:00N 37°47' W 122°23'52943811613.4
2017-Oct-21 14:00N 63°42' E 010°53'334300265.7
2017-Oct-21 14:00N 59°20' E 018°05'1139163944.1
2017-Oct-21 14:00N 44°44' E 037°47'27561836.6
2017-Oct-21 13:59N 46°50' E 031°57'47895747247.1
2017-Oct-21 13:59N 38°58' W 076°29'3205607327.0
2017-Oct-21 13:59N 43°34' W 005°41'10268626526.6
2017-Oct-21 13:58S 38°20' E 144°45'993011915951.3
2017-Oct-21 13:58N 66°10' E 012°32'132732267.4
2017-Oct-21 13:55N 46°50' E 031°57'123414704.4
2017-Oct-21 13:50N 52°06' E 001°23'4581392663.6
2017-Oct-21 13:50N 29°33' W 095°02'10793381.4
2017-Oct-21 13:31N 38°58' W 076°29'21023784059.6
2017-Oct-21 13:30N 49°18' W 123°08'523918860648.6
2017-Oct-21 13:30N 28°57' W 013°40'699825192666.1
2017-Oct-21 13:30N 01°13' E 103°39'1049937797436.2
2017-Oct-21 13:30N 34°24' W 076°48'1051237842583.8
2017-Oct-21 13:30N 01°14' E 103°54'817429424762.3
2017-Oct-21 13:30N 32°38' W 117°32'650823428433.8
2017-Oct-21 13:30N 44°51' E 020°38'44005280472.0
2017-Oct-21 13:30N 38°15' W 076°58'87313053.8
2017-Oct-21 13:30N 36°53' W 076°22'67397.0
2017-Oct-21 13:30N 36°59' W 076°19'35756435421.0
2017-Oct-21 13:30N 51°54' E 004°29'61373682009.2
2017-Oct-21 13:30N 01°14' E 103°49'629211325351.3
2017-Oct-21 13:30N 52°03' E 001°11'719323489.4
2017-Oct-21 13:30N 59°20' E 018°05'896806072.1
2017-Oct-21 13:30N 46°56' E 031°57'653261328.1
2017-Oct-21 13:30N 37°56' E 023°39'740665680.4
2017-Oct-21 13:30N 45°28' E 036°43'6313434.7
2017-Oct-21 13:29N 44°44' E 037°47'275123672.0
2017-Oct-21 13:29N 46°50' E 031°57'47898620868.6
2017-Oct-21 13:29N 38°58' W 076°29'51191228558.4
2017-Oct-21 13:29N 44°44' E 037°47'1591572838.2
2017-Oct-21 13:29N 39°32' E 002°43'1637103408.2
2017-Oct-21 13:28N 66°10' E 012°32'11752440.8
2017-Oct-21 13:28N 68°04' E 013°32'14001680181.1
2017-Oct-21 13:28N 46°56' E 031°57'6074180710.7
2017-Oct-21 13:26N 29°33' W 095°02'60771458480.1
2017-Oct-21 13:25N 46°50' E 031°57'16049772.0
2017-Oct-21 13:16N 43°39' W 005°45'325812976.3
2017-Oct-21 13:01N 36°53' W 076°22'21803924606.8
2017-Oct-21 13:00N 49°18' W 123°08'49588925079.5
2017-Oct-21 13:00N 38°41' W 009°13'52949529619.6
2017-Oct-21 13:00N 32°37' W 117°33'650923431875.9
2017-Oct-21 13:00N 44°51' E 020°38'89548059025.9
2017-Oct-21 13:00S 38°20' E 144°45'33292996243.9
2017-Oct-21 13:00N 01°12' E 103°40'788228375687.8
2017-Oct-21 13:00N 37°52' W 122°29'72618.6
2017-Oct-21 13:00N 37°47' W 122°23'57262576851.5
2017-Oct-21 13:00N 59°20' E 018°05'8961612147.8
2017-Oct-21 13:00N 46°56' E 031°57'653195996.8
2017-Oct-21 13:00N 37°56' E 023°39'756226809.3
2017-Oct-21 13:00N 44°44' E 037°47'51191023800.3
2017-Oct-21 12:59N 38°58' W 076°29'4834812.5
2017-Oct-21 12:59N 38°15' W 076°58'51724654761.8
2017-Oct-21 12:59N 44°44' E 037°47'1591409171.5
2017-Oct-21 12:59N 39°32' E 002°43'61332453342.7
2017-Oct-21 12:59N 01°15' E 103°50'5995431630.4
2017-Oct-21 12:58N 66°10' E 012°32'13261591776.2
2017-Oct-21 12:58N 46°50' E 031°57'14061687312.4
2017-Oct-21 12:58N 68°04' E 013°32'14001260141.0
2017-Oct-21 12:58N 46°56' E 031°57'4797750885.8
2017-Oct-21 12:57N 01°15' E 103°50'9696151110.3
2017-Oct-21 12:53N 29°40' W 091°06'4249121409.1
2017-Oct-21 12:51N 47°45' W 003°21'31212346.1
2017-Oct-21 12:50N 52°03' E 001°11'45731646385.0
2017-Oct-21 12:50N 29°33' W 095°02'60771458481.3
2017-Oct-21 12:49N 46°50' E 031°57'5010901717.7
2017-Oct-21 12:49N 34°23' W 076°48'526617016.5
2017-Oct-21 12:31N 45°21' E 036°39'650323409140.9
2017-Oct-21 12:31N 49°18' W 123°08'49583570032.5
2017-Oct-21 12:30N 38°41' W 009°13'529319055709.1
2017-Oct-21 12:30N 32°37' W 117°32'650823428957.8
2017-Oct-21 12:30N 44°51' E 020°38'772694392.9
2017-Oct-21 12:30N 51°55' E 004°27'613811048891.8
2017-Oct-21 12:30N 01°15' E 103°50'629211326405.5
2017-Oct-21 12:30N 52°03' E 001°11'53202393820.7
2017-Oct-21 12:30N 37°47' W 122°23'21971129670.7
2017-Oct-21 12:30N 36°53' W 076°22'40164819448.4
2017-Oct-21 12:30N 59°20' E 018°05'1302312526.4
2017-Oct-21 12:30N 37°56' E 023°39'756226810.4
2017-Oct-21 12:30N 44°44' E 037°47'2643951467.0
2017-Oct-21 12:29N 28°57' W 013°36'31871912049.0
2017-Oct-21 12:29N 38°58' W 076°29'4817404.4
2017-Oct-21 12:29N 38°15' W 076°58'517218619002.5
2017-Oct-21 12:29N 44°44' E 037°47'1591409170.0
2017-Oct-21 12:29N 39°32' E 002°43'38254589738.9
2017-Oct-21 12:29N 34°24' W 076°48'50073604780.1
2017-Oct-21 12:29N 46°56' E 031°57'47978635398.4
2017-Oct-21 12:29N 01°15' E 103°50'47951233029.1
2017-Oct-21 12:28N 46°50' E 031°57'1327149237.4
2017-Oct-21 12:28N 66°10' E 012°32'993017874016.4
2017-Oct-21 12:28S 38°20' E 144°45'846510158561.5
2017-Oct-21 12:28N 46°50' E 031°57'14061012387.4
2017-Oct-21 12:28N 68°04' E 013°32'5239628679.1
2017-Oct-21 12:27N 37°52' W 122°29'68641300629.7
2017-Oct-21 12:27N 46°56' E 031°57'5886101876.5
2017-Oct-21 12:23N 29°40' W 091°06'42893088297.5
2017-Oct-21 12:23N 43°25' W 003°47'32401457808.0
2017-Oct-21 12:23N 38°27' W 074°57'318617617.9
2017-Oct-21 12:12N 47°45' W 003°21'118127254.1
2017-Oct-21 12:10N 65°28' E 012°11'392030411.7
2017-Oct-21 12:02N 34°29' W 077°15'27110618.4
2017-Oct-21 12:01N 38°58' W 076°29'1041518746784.8
2017-Oct-21 12:00N 01°17' E 103°59'676612178916.6
2017-Oct-21 12:00N 38°41' W 009°13'52949529490.2
2017-Oct-21 12:00N 32°37' W 117°33'650923432120.3
2017-Oct-21 12:00N 44°51' E 020°38'10123644163.6
2017-Oct-21 12:00N 43°28' W 002°48'1011418205625.0
2017-Oct-21 12:00S 38°20' E 144°45'33305994023.2
2017-Oct-21 12:00N 01°18' E 103°46'78739448124.5
2017-Oct-21 12:00N 37°52' W 122°29'687412001.4
2017-Oct-21 12:00N 49°18' W 123°08'6922489772.0
2017-Oct-21 12:00N 37°47' W 122°23'57262290537.3
2017-Oct-21 12:00N 59°20' E 018°05'56462258590.8
2017-Oct-21 12:00N 01°15' E 103°50'50392591438.1
2017-Oct-21 12:00N 37°56' E 023°39'6531175978.0
2017-Oct-21 12:00N 46°56' E 031°57'214386050.6
2017-Oct-21 12:00N 45°19' E 036°33'6318887.0
2017-Oct-21 11:59N 44°44' E 037°47'53532752933.7
2017-Oct-21 11:59N 34°29' W 077°15'327911804396.7
2017-Oct-21 11:59N 28°59' W 013°19'31992303630.2
2017-Oct-21 11:59N 38°58' W 076°29'51191417566.9
2017-Oct-21 11:59N 44°44' E 037°47'1591477368.1
2017-Oct-21 11:59N 39°32' E 002°43'15952870665.9
2017-Oct-21 11:59N 65°29' E 012°12'1299212521.0
2017-Oct-21 11:58N 46°50' E 031°57'4877731556.3
2017-Oct-21 11:58N 36°53' W 076°22'48771170413.6
2017-Oct-21 11:58N 46°50' E 031°57'14062530966.1
2017-Oct-21 11:58N 68°04' E 013°32'1333199988.5
2017-Oct-21 11:57N 47°45' W 003°21'1436224842.0
2017-Oct-21 11:57N 46°56' E 031°57'132138034.9
2017-Oct-21 11:55N 66°10' E 012°32'4708199393.8
2017-Oct-21 11:53N 29°40' W 091°06'4398195470.1
2017-Oct-21 11:52N 52°03' E 001°11'3324217596.0
2017-Oct-21 11:51N 38°22' W 075°02'3157149538.4
2017-Oct-21 11:50N 43°34' W 005°41'659029469.2
2017-Oct-21 11:37N 01°16' E 103°57'622583936.8
2017-Oct-21 11:32N 41°08' E 001°13'3571139719.2
2017-Oct-21 11:31N 38°58' W 076°29'31615690536.4
2017-Oct-21 11:30N 28°42' W 014°16'522418807614.8
2017-Oct-21 11:30N 49°18' W 123°08'49588925100.9
2017-Oct-21 11:30N 38°41' W 009°13'13872496223.6
2017-Oct-21 11:30N 44°51' E 020°38'9761170961.3
2017-Oct-21 11:30N 43°24' W 001°56'1006736240262.8
2017-Oct-21 11:30S 38°20' E 144°45'72033704411.2
2017-Oct-21 11:30N 37°52' W 122°29'52786333160.2
2017-Oct-21 11:30N 47°45' W 003°21'52776332820.4
2017-Oct-21 11:30N 37°47' W 122°23'391469665.5
2017-Oct-21 11:30N 32°36' W 117°31'58783526709.1
2017-Oct-21 11:30N 59°20' E 018°05'8961074762.0
2017-Oct-21 11:30N 46°56' E 031°57'13732470950.3
2017-Oct-21 11:30N 41°05' E 001°12'15645630429.0
2017-Oct-21 11:30N 45°18' E 036°29'726261199.3
2017-Oct-21 11:30N 37°56' E 023°39'6532351956.0
2017-Oct-21 11:30N 46°56' E 031°57'27783177.6
2017-Oct-21 11:29N 44°44' E 037°47'275247110.5
2017-Oct-21 11:29N 46°50' E 031°57'48773511470.3
2017-Oct-21 11:29N 36°53' W 076°22'12574926.7
2017-Oct-21 11:29N 38°58' W 076°29'51191316312.6
2017-Oct-21 11:29N 44°44' E 037°47'1591520762.1
2017-Oct-21 11:29N 39°32' E 002°43'15955741331.1
2017-Oct-21 11:29N 65°29' E 012°12'8763152847.1
2017-Oct-21 11:29N 52°03' E 001°11'6293444207.7
2017-Oct-21 11:28N 01°13' E 103°49'59965396400.2
2017-Oct-21 11:28N 66°10' E 012°32'13261591778.1
2017-Oct-21 11:28N 46°50' E 031°57'14061265485.5
2017-Oct-21 11:28N 68°04' E 013°32'599844891.0
2017-Oct-21 11:20N 01°17' E 103°58'1053978392.0
2017-Oct-21 11:12N 34°30' W 077°16'462683680.3
2017-Oct-21 11:08N 59°57' E 029°53'461439927.7
2017-Oct-21 11:01N 34°23' W 076°48'3544240703.6
2017-Oct-21 11:01N 43°25' W 001°48'344212390099.4
2017-Oct-21 11:01N 36°53' W 076°22'104379392981.0
2017-Oct-21 11:00N 01°15' E 103°47'675724324185.9
2017-Oct-21 11:00N 38°41' W 009°13'676824365771.1
2017-Oct-21 11:00N 01°16' E 104°00'52946352406.2
2017-Oct-21 11:00N 44°51' E 020°38'45638214175.2
2017-Oct-21 11:00N 34°29' W 077°15'1401025218865.7
2017-Oct-21 11:00S 38°20' E 144°44'72035186300.4
2017-Oct-21 11:00N 37°52' W 122°29'54073893266.3
2017-Oct-21 11:00N 28°25' W 015°27'54049728074.7
2017-Oct-21 11:00N 37°47' W 122°23'61544431002.0
2017-Oct-21 11:00N 59°58' E 029°52'785403833.8
2017-Oct-21 11:00N 46°56' E 031°57'013.5
2017-Oct-21 11:00N 46°56' E 031°57'6532351964.3
2017-Oct-21 11:00N 37°56' E 023°39'756194408.7
2017-Oct-21 11:00N 44°44' E 037°47'275247113.5
2017-Oct-21 10:59N 46°50' E 031°57'695312514751.3
2017-Oct-21 10:59N 32°37' W 117°34'2035732772.8
2017-Oct-21 10:59N 38°58' W 076°29'51192303547.1
2017-Oct-21 10:59N 44°44' E 037°47'1591358024.0
2017-Oct-21 10:59N 39°32' E 002°43'15955741331.4
2017-Oct-21 10:59N 65°29' E 012°12'422624.4
2017-Oct-21 10:58N 66°10' E 012°32'1326955065.7
2017-Oct-21 10:58N 46°50' E 031°57'14061687310.8
2017-Oct-21 10:58N 68°04' E 013°32'53847272.2
2017-Oct-21 10:57N 59°20' E 018°05'4171163195.3
2017-Oct-21 10:56N 34°23' W 076°48'357058680.6
2017-Oct-21 10:52N 52°03' E 001°09'4572124697.5
2017-Oct-21 10:50N 29°33' W 095°02'4432179278.4
2017-Oct-21 10:48N 47°45' W 003°21'30741106534.3
2017-Oct-21 10:48N 40°29' W 073°59'10257170957.0
2017-Oct-21 10:44N 01°18' E 104°07'17754.9
2017-Oct-21 10:43N 01°15' E 103°50'623390109.2
2017-Oct-21 10:39N 40°60' E 000°57'527437599.8
2017-Oct-21 10:30N 49°18' W 123°08'776927967235.8
2017-Oct-21 10:30N 01°15' E 103°55'1051312615069.3
2017-Oct-21 10:30N 34°23' W 076°48'20402448008.4
2017-Oct-21 10:30N 32°36' W 117°31'52933175913.7
2017-Oct-21 10:30N 38°41' W 009°13'13871664156.3
2017-Oct-21 10:30N 44°51' E 020°38'1010908638.8
2017-Oct-21 10:30N 47°45' W 003°21'527718998461.2
2017-Oct-21 10:30N 37°47' W 122°23'57261874074.7
2017-Oct-21 10:30N 59°20' E 018°05'8961612152.5
2017-Oct-21 10:30N 46°56' E 031°57'1293665067.7
2017-Oct-21 10:30N 65°29' E 012°11'8751050128.3
2017-Oct-21 10:30N 52°03' E 001°09'12392230028.0
2017-Oct-21 10:30N 46°56' E 031°57'47972158796.7
2017-Oct-21 10:30N 01°15' E 103°50'44852306627.5
2017-Oct-21 10:29N 44°44' E 037°47'275494222.4
2017-Oct-21 10:29N 46°50' E 031°57'48773511467.1
2017-Oct-21 10:29N 36°53' W 076°22'1401225221189.4
2017-Oct-21 10:29S 38°20' E 144°45'140608436165.8
2017-Oct-21 10:29N 38°58' W 076°29'51192632625.2
2017-Oct-21 10:29N 44°44' E 037°47'44941348051.7
2017-Oct-21 10:29N 01°19' E 104°05'61445529406.9
2017-Oct-21 10:29N 39°32' E 002°43'1637101625.3
2017-Oct-21 10:28N 66°10' E 012°32'13261193832.1
2017-Oct-21 10:28N 46°50' E 031°57'14061012387.4
2017-Oct-21 10:28N 68°04' E 013°32'5239628680.0
2017-Oct-21 10:27N 37°52' W 122°29'6919858864.6
2017-Oct-21 10:27N 37°56' E 023°39'5452248425.0
2017-Oct-21 10:25S 23°00' W 044°19'437945558.7
2017-Oct-21 10:20N 29°33' W 095°02'95210137.8
2017-Oct-21 10:14N 34°30' W 077°15'7628208.0
2017-Oct-21 10:08N 29°40' W 091°06'614797912.2
2017-Oct-21 10:05N 45°20' E 036°30'504172877.1
2017-Oct-21 10:01N 38°58' W 076°29'1041137478045.2
2017-Oct-21 10:01N 01°16' E 103°53'777013985531.7
2017-Oct-21 10:00N 49°18' W 123°08'49584462546.8
2017-Oct-21 10:00N 38°41' W 009°13'13874992492.4
2017-Oct-21 10:00N 44°51' E 020°38'651011718878.1
2017-Oct-21 10:00N 32°37' W 117°35'38993447.7
2017-Oct-21 10:00N 37°47' W 122°23'57262290537.3
2017-Oct-21 10:00N 59°20' E 018°05'896214959.7
2017-Oct-21 10:00N 46°56' E 031°57'61320.2
2017-Oct-21 09:59N 46°50' E 031°57'275988428.7
2017-Oct-21 09:59N 44°44' E 037°47'81185844733.6
2017-Oct-21 09:59S 38°20' E 144°45'140608436165.8
2017-Oct-21 09:59N 38°58' W 076°29'50426049932.3
2017-Oct-21 09:59N 45°19' E 036°31'45581367546.4
2017-Oct-21 09:59N 01°16' E 103°54'61362454510.3
2017-Oct-21 09:59N 39°32' E 002°43'35281411307.6
2017-Oct-21 09:59N 40°26' W 074°01'12224397945.6
2017-Oct-21 09:59N 29°33' W 095°02'20556843.6
2017-Oct-21 09:58N 29°40' W 091°06'5889605712.2
2017-Oct-21 09:58N 46°50' E 031°57'1406843656.2
2017-Oct-21 09:58N 68°04' E 013°32'5239589386.6
2017-Oct-21 09:57N 37°52' W 122°29'52783166577.5
2017-Oct-21 09:57N 47°45' W 003°21'31262441.7
2017-Oct-21 09:57N 52°03' E 001°10'1239143850.7
2017-Oct-21 09:56N 46°56' E 031°57'27771302.7
2017-Oct-21 09:56N 44°44' E 037°47'154775255.6
2017-Oct-21 09:55N 66°10' E 012°32'391822426.5
2017-Oct-21 09:44N 34°24' W 076°47'354332457.6
2017-Oct-21 09:38N 43°21' W 001°47'338427751.8
2017-Oct-21 09:31N 38°58' W 076°29'21027568139.2
2017-Oct-21 09:30N 49°18' W 123°08'502718098368.1
2017-Oct-21 09:30N 43°23' W 002°04'430773539.3
2017-Oct-21 09:30N 38°41' W 009°13'13872496238.4
2017-Oct-21 09:30N 44°51' E 020°38'44275312298.5
2017-Oct-21 09:30N 36°53' W 076°22'22001320041.0
2017-Oct-21 09:30N 37°52' W 122°29'52783166579.1
2017-Oct-21 09:30N 47°45' W 003°21'52773166409.1
2017-Oct-21 09:30N 37°47' W 122°23'57263435806.0
2017-Oct-21 09:30N 59°20' E 018°05'1302360606.0
2017-Oct-21 09:30N 37°56' E 023°39'756181445.9
2017-Oct-21 09:29N 44°44' E 037°47'275494231.0
2017-Oct-21 09:29N 46°50' E 031°57'62810.7
2017-Oct-21 09:29N 46°56' E 031°57'1238891348.1
2017-Oct-21 09:29N 52°03' E 001°11'1523456922.8
2017-Oct-21 09:29N 44°44' E 037°47'1591440645.0
2017-Oct-21 09:29N 39°32' E 002°43'4671989198.9
2017-Oct-21 09:29N 29°40' W 091°06'84752346828.2
2017-Oct-21 09:28S 38°20' E 144°45'99301276708.3
2017-Oct-21 09:28N 66°10' E 012°32'13261591780.0
2017-Oct-21 09:28N 46°50' E 031°57'14061265485.5
2017-Oct-21 09:28N 68°04' E 013°32'140081299.4
2017-Oct-21 09:27N 46°56' E 031°57'6946211909.0
2017-Oct-21 09:25N 32°36' W 117°30'7229313549.2
2017-Oct-21 09:23N 45°14' E 036°30'4564566622.9
2017-Oct-21 09:23N 01°18' E 104°06'8867839990.4
2017-Oct-21 09:22S 23°00' W 044°19'486393120.3
2017-Oct-21 09:19N 46°09' W 001°10'455750170.7
2017-Oct-21 09:14N 29°33' W 095°02'17608030.4
2017-Oct-21 09:01N 49°18' W 123°08'49558918457.0
2017-Oct-21 09:00N 43°25' W 003°47'649723389254.6
2017-Oct-21 09:00N 01°18' E 104°05'677112188154.3
2017-Oct-21 09:00N 38°41' W 009°13'13872496244.6
2017-Oct-21 09:00N 44°51' E 020°38'528919041773.7
2017-Oct-21 09:00N 01°23' E 104°01'1018773.2
2017-Oct-21 09:00N 01°14' E 103°55'78674720202.5
2017-Oct-21 09:00N 37°52' W 122°29'54322444410.6
2017-Oct-21 09:00N 46°09' W 001°10'34241760826.6
2017-Oct-21 09:00N 36°53' W 076°22'14953466.4
2017-Oct-21 09:00N 34°25' W 076°39'48624376247.6
2017-Oct-21 09:00N 37°56' E 023°39'6532351964.3
2017-Oct-21 09:00N 46°56' E 031°57'61402.7
2017-Oct-21 08:59N 46°50' E 031°57'275988442.1
2017-Oct-21 08:59N 44°44' E 037°47'277124781.1
2017-Oct-21 08:59N 46°56' E 031°57'47863446132.4
2017-Oct-21 08:59N 38°58' W 076°29'51191417573.4
2017-Oct-21 08:59N 44°44' E 037°47'1591477370.4
2017-Oct-21 08:59N 39°32' E 002°43'48681947082.6
2017-Oct-21 08:59N 29°33' W 095°02'457316463817.2
2017-Oct-21 08:59N 52°03' E 001°11'43981439318.1
2017-Oct-21 08:58N 29°40' W 091°06'84753389933.7
2017-Oct-21 08:58S 38°20' E 144°44'8465983066.3
2017-Oct-21 08:58N 46°50' E 031°57'14061012392.6
2017-Oct-21 08:58N 68°04' E 013°32'63362073600.6
2017-Oct-21 08:58S 23°01' W 044°19'6088644565.5
2017-Oct-21 08:57N 59°20' E 018°05'5879286007.2
2017-Oct-21 08:56N 32°37' W 117°34'5465385747.9
2017-Oct-21 08:55N 66°10' E 012°32'122299948.5
2017-Oct-21 08:54N 47°45' W 003°21'32338209.1
2017-Oct-21 08:31N 38°58' W 076°29'21023784069.4
2017-Oct-21 08:30N 49°18' W 123°08'18946818750.0
2017-Oct-21 08:30N 29°40' W 091°06'440215846954.6
2017-Oct-21 08:30N 52°04' E 001°17'9173301458.4
2017-Oct-21 08:30N 38°41' W 009°13'675724323423.8
2017-Oct-21 08:30N 01°26' E 103°54'528219013561.4
2017-Oct-21 08:30N 44°51' E 020°38'52933175746.6
2017-Oct-21 08:30N 01°17' E 104°00'48044323260.5
2017-Oct-21 08:30N 46°56' E 031°57'68652471452.3
2017-Oct-21 08:30N 37°47' W 122°23'57262944972.5
2017-Oct-21 08:30N 59°20' E 018°05'1302312526.7
2017-Oct-21 08:30N 37°56' E 023°39'756209362.4
2017-Oct-21 08:29N 44°44' E 037°47'277124782.3
2017-Oct-21 08:29N 46°56' E 031°57'47862461521.5
2017-Oct-21 08:29N 38°58' W 076°29'51191535696.7
2017-Oct-21 08:29N 44°44' E 037°47'1591440643.6
2017-Oct-21 08:29N 39°32' E 002°43'135279778.9
2017-Oct-21 08:28N 46°50' E 031°57'14061687312.4
2017-Oct-21 08:28N 68°04' E 013°32'3944709842.8
2017-Oct-21 08:27N 34°22' W 076°33'1396910057339.5
2017-Oct-21 08:27S 38°20' E 144°45'72034321815.3
2017-Oct-21 08:27N 37°52' W 122°29'5267133530.7
2017-Oct-21 08:25N 66°10' E 012°32'14921790775.5
2017-Oct-21 08:25N 43°35' W 005°33'1805166614.1
2017-Oct-21 08:24N 45°14' E 036°30'63403260589.7
2017-Oct-21 08:24N 29°33' W 095°02'117152680.9
2017-Oct-21 08:23N 32°37' W 117°32'5312203442.3
2017-Oct-21 08:21N 47°45' W 003°21'4877148775.5
2017-Oct-21 08:19S 23°00' W 044°19'4069130778.1
2017-Oct-21 08:17N 36°53' W 076°22'0 0.0
2017-Oct-21 08:01N 36°53' W 076°22'104459400535.8
2017-Oct-21 08:00N 01°14' E 103°55'676512176528.7
2017-Oct-21 08:00N 38°41' W 009°13'13872496243.1
2017-Oct-21 08:00N 44°51' E 020°38'64592583659.4
2017-Oct-21 08:00N 37°52' W 122°29'52784749869.4
2017-Oct-21 08:00N 47°45' W 003°21'476117138726.7
2017-Oct-21 08:00N 49°18' W 123°08'6922489793.5
2017-Oct-21 08:00N 37°47' W 122°23'57262061480.8
2017-Oct-21 08:00N 59°20' E 018°05'60871217431.5
2017-Oct-21 08:00S 23°00' W 044°19'61361051887.9
2017-Oct-21 07:59N 46°56' E 031°57'47863446132.4
2017-Oct-21 07:59N 38°58' W 076°29'33731517844.3
2017-Oct-21 07:59N 52°05' E 001°32'15092717085.5
2017-Oct-21 07:59N 44°44' E 037°47'1591381892.2
2017-Oct-21 07:59N 39°32' E 002°43'1353973906.0
2017-Oct-21 07:59N 46°56' E 031°57'58861246461.3
2017-Oct-21 07:58N 29°40' W 091°06'84753389933.7
2017-Oct-21 07:58S 38°20' E 144°44'3331631097.1
2017-Oct-21 07:58N 01°25' E 103°54'59873079079.2
2017-Oct-21 07:58N 66°10' E 012°32'174390930.1
2017-Oct-21 07:57N 37°56' E 023°39'724434394.9
2017-Oct-21 07:57N 45°14' E 036°30'156649445.4
2017-Oct-21 07:55N 68°04' E 013°32'161577535.5
2017-Oct-21 07:53N 44°44' E 037°47'658817212.1
2017-Oct-21 07:31N 49°18' W 123°08'775813965088.8
2017-Oct-21 07:30N 01°24' E 103°58'676212170719.2
2017-Oct-21 07:30N 38°41' W 009°13'13871664164.1
2017-Oct-21 07:30N 44°51' E 020°38'529119045842.8
2017-Oct-21 07:30N 01°14' E 103°54'1041337488323.5
2017-Oct-21 07:30N 38°58' W 076°29'47863445792.7
2017-Oct-21 07:30N 46°56' E 031°57'1436646336.5
2017-Oct-21 07:30N 47°45' W 003°21'52774749614.5
2017-Oct-21 07:30N 37°47' W 122°23'21971976923.8
2017-Oct-21 07:30N 36°53' W 076°22'40164819443.9
2017-Oct-21 07:30N 59°20' E 018°05'1302334849.9
2017-Oct-21 07:30N 37°56' E 023°39'756160102.1
2017-Oct-21 07:29N 44°44' E 037°47'277142608.6
2017-Oct-21 07:29N 46°56' E 031°57'47864307658.7
2017-Oct-21 07:29N 38°58' W 076°29'51191023797.1
2017-Oct-21 07:29N 44°44' E 037°47'154787013.8
2017-Oct-21 07:28N 66°10' E 012°32'47084237099.8
2017-Oct-21 07:28N 29°40' W 091°06'47292837629.3
2017-Oct-21 07:28N 68°04' E 013°32'99321625298.8
2017-Oct-21 07:27S 38°20' E 144°45'81965900760.9
2017-Oct-21 07:27N 45°14' E 036°30'715312875174.7
2017-Oct-21 07:27N 37°52' W 122°29'5333767929.7
2017-Oct-21 07:27N 52°05' E 001°32'3573918863.9
2017-Oct-21 07:27N 34°18' W 076°26'3809311685.6
2017-Oct-21 07:26N 39°32' E 002°43'4868162257.0
2017-Oct-21 07:24N 29°33' W 095°02'947354479.9
2017-Oct-21 07:14N 01°15' E 103°51'479675718.5
2017-Oct-21 07:10N 46°50' E 031°57'622040056.3
2017-Oct-21 07:01N 49°18' W 123°08'49583570033.4
2017-Oct-21 07:00N 38°41' W 009°13'676412175372.2
2017-Oct-21 07:00N 01°13' E 103°54'106259.0
2017-Oct-21 07:00N 01°18' E 104°03'480417295934.5
2017-Oct-21 07:00N 46°56' E 031°57'1436861796.9
2017-Oct-21 07:00N 47°45' W 003°21'42495099160.4
2017-Oct-21 07:00N 29°40' W 091°06'54136495893.7
2017-Oct-21 07:00N 44°51' E 020°38'64591788675.1
2017-Oct-21 07:00N 37°47' W 122°23'69183113037.8
2017-Oct-21 07:00N 37°56' E 023°39'7241303184.8
2017-Oct-21 07:00N 45°14' E 036°30'45588204084.7
2017-Oct-21 07:00N 01°14' E 103°54'33223986583.6
2017-Oct-21 07:00S 38°20' E 144°45'101109098771.0
2017-Oct-21 07:00N 52°06' E 001°32'15101811530.5
2017-Oct-21 06:59N 44°44' E 037°47'277124780.6
2017-Oct-21 06:59N 46°56' E 031°57'47862153833.3
2017-Oct-21 06:59N 38°58' W 076°29'51191842839.2
2017-Oct-21 06:59N 44°44' E 037°47'1591409170.3
2017-Oct-21 06:59N 39°32' E 002°43'1637103408.2
2017-Oct-21 06:58N 66°10' E 012°32'11752441.0
2017-Oct-21 06:58N 68°04' E 013°32'3781544446.3
2017-Oct-21 06:57N 36°53' W 076°22'22001320041.0
2017-Oct-21 06:57N 37°52' W 122°29'1458583127.3
2017-Oct-21 06:57N 29°33' W 095°02'51643098386.1
2017-Oct-21 06:57N 59°20' E 018°05'90125146.1
2017-Oct-21 06:55N 46°50' E 031°57'16024502.5
2017-Oct-21 06:33N 43°35' W 005°40'486998470.3
2017-Oct-21 06:31N 49°18' W 123°08'777227978348.9
2017-Oct-21 06:30N 01°14' E 103°52'67636086359.8
2017-Oct-21 06:30N 38°41' W 009°13'13872496250.1
2017-Oct-21 06:30N 44°51' E 020°38'489293283.3
2017-Oct-21 06:30N 46°56' E 031°57'47992159659.3
2017-Oct-21 06:30N 01°17' E 103°55'648623348207.4
2017-Oct-21 06:30N 47°45' W 003°21'44323988943.3
2017-Oct-21 06:30N 29°33' W 095°02'1452402184.9
2017-Oct-21 06:30N 37°47' W 122°23'69184150719.9
2017-Oct-21 06:30N 37°56' E 023°39'85873091232.3
2017-Oct-21 06:30S 38°20' E 144°45'332211958337.5
2017-Oct-21 06:30N 01°18' E 103°58'44892020162.9
2017-Oct-21 06:29N 44°44' E 037°47'277142606.9
2017-Oct-21 06:29N 46°56' E 031°57'47862871777.0
2017-Oct-21 06:29N 38°58' W 076°29'50442269888.7
2017-Oct-21 06:29N 45°14' E 036°30'62111899.3
2017-Oct-21 06:29N 44°44' E 037°47'1591440644.9
2017-Oct-21 06:29N 39°32' E 002°43'46711201165.9
2017-Oct-21 06:29N 29°40' W 091°06'4708385190.9
2017-Oct-21 06:28N 66°10' E 012°32'13262387667.1
2017-Oct-21 06:28N 46°50' E 031°57'1406723133.9
2017-Oct-21 06:28N 68°04' E 013°32'5239650358.6
2017-Oct-21 06:27N 37°52' W 122°29'57252289873.4
2017-Oct-21 06:27N 59°20' E 018°05'401670186.2
2017-Oct-21 06:24N 36°53' W 076°22'406917972.1
2017-Oct-21 06:10S 23°00' W 044°19'418126220.0
2017-Oct-21 06:01N 38°58' W 076°29'21027568139.2
2017-Oct-21 06:00N 49°18' W 123°08'49585950051.9
2017-Oct-21 06:00N 38°41' W 009°13'13871664165.7
2017-Oct-21 06:00N 44°51' E 020°38'489439808.3
2017-Oct-21 06:00N 46°56' E 031°57'68648237271.2
2017-Oct-21 06:00N 37°52' W 122°29'786728322254.7
2017-Oct-21 06:00N 01°15' E 103°54'64863891724.9
2017-Oct-21 06:00N 47°45' W 003°21'44322659296.1
2017-Oct-21 06:00N 29°33' W 095°02'634011412081.5
2017-Oct-21 06:00N 45°14' E 036°30'71533218975.1
2017-Oct-21 06:00N 37°47' W 122°23'69182264027.5
2017-Oct-21 06:00N 37°56' E 023°39'85873864044.0
2017-Oct-21 06:00S 38°20' E 144°45'81185844730.2
2017-Oct-21 05:59N 44°44' E 037°47'51191151776.3
2017-Oct-21 05:59N 38°58' W 076°29'51191316313.7
2017-Oct-21 05:59N 44°44' E 037°47'1591716047.7
2017-Oct-21 05:59N 39°32' E 002°43'37321221226.8
2017-Oct-21 05:59N 36°53' W 076°22'8571028369.1
2017-Oct-21 05:59N 29°40' W 091°06'96986982690.8
2017-Oct-21 05:59N 01°14' E 103°49'88481098416.0
2017-Oct-21 05:58S 23°00' W 044°19'62202035542.3
2017-Oct-21 05:58N 66°10' E 012°32'11746614.0
2017-Oct-21 05:58N 68°04' E 013°32'3715405288.0
2017-Oct-21 05:57N 38°15' W 076°58'39641585698.1
2017-Oct-21 05:57N 59°20' E 018°05'89614523.9
2017-Oct-21 05:53N 46°56' E 031°57'6136.4
2017-Oct-21 05:51N 46°50' E 031°57'010.9
2017-Oct-21 05:49N 46°50' E 031°57'6863101680.2
2017-Oct-21 05:45N 37°58' W 122°30'21639105.8
2017-Oct-21 05:31N 38°58' W 076°29'21027568139.2
2017-Oct-21 05:31N 49°18' W 123°08'680816001.9
2017-Oct-21 05:30N 37°58' W 122°30'53329598054.6
2017-Oct-21 05:30N 38°41' W 009°13'676024336948.1
2017-Oct-21 05:30N 01°15' E 103°51'528719031455.6
2017-Oct-21 05:30N 44°51' E 020°38'44275312303.2
2017-Oct-21 05:30N 36°53' W 076°22'48748773099.2
2017-Oct-21 05:30N 46°56' E 031°57'48043459181.5
2017-Oct-21 05:30N 01°19' E 104°04'64915842258.9
2017-Oct-21 05:30N 47°45' W 003°21'44322659293.5
2017-Oct-21 05:30N 29°33' W 095°02'51644647579.2
2017-Oct-21 05:30N 59°20' E 018°05'57262576851.0
2017-Oct-21 05:30N 37°47' W 122°23'69183113037.8
2017-Oct-21 05:30N 37°56' E 023°39'85872576029.4
2017-Oct-21 05:30S 38°20' E 144°45'81184174807.3
2017-Oct-21 05:29N 44°44' E 037°47'277998258.2
2017-Oct-21 05:29N 46°56' E 031°57'47861914516.7
2017-Oct-21 05:29N 38°58' W 076°29'914329158.8
2017-Oct-21 05:29N 29°40' W 091°06'4729386950.0
2017-Oct-21 05:28N 68°04' E 013°32'3715703920.8
2017-Oct-21 05:28N 38°15' W 076°58'36921329248.2
2017-Oct-21 05:28N 66°10' E 012°32'62201243942.5
2017-Oct-21 05:28S 23°00' W 044°19'59131064379.1
2017-Oct-21 05:27N 37°52' W 122°29'7236352037.1
2017-Oct-21 05:26N 44°44' E 037°47'1591572838.3
2017-Oct-21 05:26N 39°32' E 002°43'135282483.5
2017-Oct-21 05:25N 46°50' E 031°57'0 5.6
2017-Oct-21 05:21N 46°50' E 031°57'2131524.8
2017-Oct-21 05:13N 45°22' E 036°38'504524119.3
2017-Oct-21 05:01N 38°58' W 076°29'21022522708.0
2017-Oct-21 05:00N 49°18' W 123°08'49588925085.5
2017-Oct-21 05:00N 38°41' W 009°13'533219196078.8
2017-Oct-21 05:00N 37°58' W 122°30'645423234399.7
2017-Oct-21 05:00N 44°51' E 020°38'44273984219.8
2017-Oct-21 05:00N 36°53' W 076°22'48745848723.8
2017-Oct-21 05:00N 46°56' E 031°57'48042882632.9
2017-Oct-21 05:00N 01°19' E 104°03'94596810795.8
2017-Oct-21 05:00N 29°33' W 095°02'63427610242.9
2017-Oct-21 05:00N 45°22' E 036°38'509818354128.5
2017-Oct-21 05:00N 38°15' W 076°58'8721046269.0
2017-Oct-21 05:00N 29°40' W 091°06'1636654268.4
2017-Oct-21 05:00N 37°47' W 122°23'7237930433.6
2017-Oct-21 04:59N 44°44' E 037°47'277332753.9
2017-Oct-21 04:59N 46°56' E 031°57'47864307665.6
2017-Oct-21 04:59N 38°58' W 076°29'51191316312.6
2017-Oct-21 04:59N 44°44' E 037°47'44851614641.5
2017-Oct-21 04:59N 01°15' E 103°50'613322080062.9
2017-Oct-21 04:59N 39°32' E 002°43'1755203779.4
2017-Oct-21 04:58N 68°04' E 013°32'11715538.1
2017-Oct-21 04:58N 66°10' E 012°32'13261591780.0
2017-Oct-21 04:58N 46°50' E 031°57'054.5
2017-Oct-21 04:57N 46°50' E 031°57'68701648706.0
2017-Oct-21 04:57N 37°52' W 122°29'57254121772.1
2017-Oct-21 04:57N 59°20' E 018°05'1302187515.0
2017-Oct-21 04:57N 37°56' E 023°39'132630991.6
2017-Oct-21 04:54N 47°45' W 003°21'476112069.5
2017-Oct-21 04:30N 49°18' W 123°08'77729326463.0
2017-Oct-21 04:30N 01°15' E 103°50'455516396474.6
2017-Oct-21 04:30N 45°14' E 036°30'6732422260.5
2017-Oct-21 04:30N 44°51' E 020°38'44273187379.1
2017-Oct-21 04:30N 36°53' W 076°22'31865734132.5
2017-Oct-21 04:30N 38°41' W 009°13'602309347.4
2017-Oct-21 04:30N 47°45' W 003°21'14381035452.3
2017-Oct-21 04:30N 46°50' E 031°57'60777292400.4
2017-Oct-21 04:30N 29°33' W 095°02'10403743484.0
2017-Oct-21 04:30N 38°15' W 076°58'48391340105.9
2017-Oct-21 04:30N 46°56' E 031°57'653391925.6
2017-Oct-21 04:30N 37°56' E 023°39'648583291.9
2017-Oct-21 04:30N 46°50' E 031°57'275123673.7
2017-Oct-21 04:30N 44°44' E 037°47'27799823.5
2017-Oct-21 04:29N 46°56' E 031°57'685924691133.6
2017-Oct-21 04:29N 37°58' W 122°30'720625943153.5
2017-Oct-21 04:29S 38°20' E 144°45'1406016872399.7
2017-Oct-21 04:29N 38°58' W 076°29'51191417568.6
2017-Oct-21 04:29N 44°44' E 037°47'44901243324.7
2017-Oct-21 04:29N 01°14' E 103°55'5999719832.3
2017-Oct-21 04:28N 68°04' E 013°32'4729773899.5
2017-Oct-21 04:28N 29°40' W 091°06'1641134257.6
2017-Oct-21 04:27N 37°52' W 122°29'57251472059.4
2017-Oct-21 04:27N 59°20' E 018°05'57264122961.6
2017-Oct-21 04:27N 37°47' W 122°23'5269155491.9
2017-Oct-21 04:25N 66°10' E 012°32'5997342658.2
2017-Oct-21 04:24N 01°15' E 103°52'885245009.7
2017-Oct-21 04:12S 23°00' W 044°19'406921166.6
2017-Oct-21 04:00N 36°53' W 076°22'31862867065.8
2017-Oct-21 04:00N 38°41' W 009°13'13874992492.3
2017-Oct-21 04:00N 44°51' E 020°38'52909522361.7
2017-Oct-21 04:00N 01°17' E 103°57'48015761163.9
2017-Oct-21 04:00N 46°56' E 031°57'68658237875.5
2017-Oct-21 04:00N 37°52' W 122°29'52782714211.5
2017-Oct-21 04:00N 47°45' W 003°21'44323191152.2
2017-Oct-21 04:00N 29°33' W 095°02'1040935867.1
2017-Oct-21 04:00N 38°15' W 076°58'21471104304.8
2017-Oct-21 04:00N 37°47' W 122°23'69183113037.8
2017-Oct-21 04:00N 37°56' E 023°39'691412445602.9
2017-Oct-21 04:00N 37°58' W 122°30'78674045941.6
2017-Oct-21 04:00N 01°14' E 103°53'44881468873.1
2017-Oct-21 03:59N 44°44' E 037°47'51191535700.5
2017-Oct-21 03:59N 38°58' W 076°29'50444539782.2
2017-Oct-21 03:59N 45°14' E 036°30'212382331.6
2017-Oct-21 03:59N 46°50' E 031°57'27598861.9
2017-Oct-21 03:59N 44°44' E 037°47'1591818340.2
2017-Oct-21 03:59N 39°32' E 002°43'46771295235.6
2017-Oct-21 03:59S 23°00' W 044°19'88534553222.0
2017-Oct-21 03:59N 01°16' E 103°54'33233987681.1
2017-Oct-21 03:58S 38°20' E 144°45'84751016961.5
2017-Oct-21 03:58N 29°40' W 091°06'58895300174.6
2017-Oct-21 03:58N 46°50' E 031°57'13264774612.1
2017-Oct-21 03:58N 66°10' E 012°32'132131908.2
2017-Oct-21 03:55N 46°56' E 031°57'14001008082.2
2017-Oct-21 03:55N 68°04' E 013°32'5387541.6
2017-Oct-21 03:51N 59°20' E 018°05'390711444.9
2017-Oct-21 03:31N 38°58' W 076°29'125225051.0
2017-Oct-21 03:31N 36°53' W 076°22'31862293654.0
2017-Oct-21 03:30N 38°41' W 009°13'13871664167.2
2017-Oct-21 03:30N 44°51' E 020°38'4891759332.8
2017-Oct-21 03:30N 46°56' E 031°57'68653530376.6
2017-Oct-21 03:30N 37°52' W 122°29'21512580632.3
2017-Oct-21 03:30N 38°15' W 076°58'1045637639871.7
2017-Oct-21 03:30N 01°18' E 103°60'776227944754.2
2017-Oct-21 03:30N 49°18' W 123°08'1760905139.8
2017-Oct-21 03:30N 29°33' W 095°02'607721875426.9
2017-Oct-21 03:30N 46°50' E 031°57'014.6
2017-Oct-21 03:30N 46°50' E 031°57'68696182512.7
2017-Oct-21 03:30N 37°47' W 122°23'69182767144.7
2017-Oct-21 03:30N 37°56' E 023°39'691412445619.9
2017-Oct-21 03:30N 37°58' W 122°30'16431478493.7
2017-Oct-21 03:30N 29°40' W 091°06'62262037530.5
2017-Oct-21 03:29N 44°44' E 037°47'51191842840.5
2017-Oct-21 03:29N 38°58' W 076°29'98152523757.3
2017-Oct-21 03:29N 23°05' E 113°29'398814355320.0
2017-Oct-21 03:29N 44°44' E 037°47'1591716047.9
2017-Oct-21 03:29N 39°32' E 002°43'4677990476.1
2017-Oct-21 03:29S 23°00' W 044°19'61362761208.0
2017-Oct-21 03:28N 46°56' E 031°57'84685081095.3
2017-Oct-21 03:28S 38°20' E 144°45'993211918870.1
2017-Oct-21 03:28N 68°04' E 013°32'599410789718.1
2017-Oct-21 03:28N 01°15' E 103°50'6483348360.0
2017-Oct-21 03:27N 47°45' W 003°21'1033619801.3
2017-Oct-21 03:27N 59°20' E 018°05'43812034.4
2017-Oct-21 03:25N 66°10' E 012°32'961329302.7
2017-Oct-21 03:05S 25°07' E 153°07'14232183636.9
2017-Oct-21 03:01N 38°15' W 076°58'87156537.1
2017-Oct-21 03:01N 36°53' W 076°22'21807849185.8
2017-Oct-21 03:00N 49°18' W 123°08'49584462537.4
2017-Oct-21 03:00N 38°41' W 009°13'13872496251.6
2017-Oct-21 03:00N 44°51' E 020°38'64592325277.6
2017-Oct-21 03:00N 37°47' W 122°23'52774749614.9
2017-Oct-21 03:00N 47°45' W 003°21'44322659295.8
2017-Oct-21 03:00N 29°33' W 095°02'946017028431.5
2017-Oct-21 03:00N 01°18' E 104°03'50471068873.7
2017-Oct-21 03:00N 37°56' E 023°39'69144148537.1
2017-Oct-21 03:00N 37°58' W 122°30'72312002318.1
2017-Oct-21 02:59N 44°44' E 037°47'51191535700.7
2017-Oct-21 02:59N 38°58' W 076°29'51191417567.4
2017-Oct-21 02:59N 44°44' E 037°47'1591572838.3
2017-Oct-21 02:59N 39°32' E 002°43'97572701974.5
2017-Oct-21 02:59S 25°07' E 153°07'768027648730.1
2017-Oct-21 02:59N 29°40' W 091°06'58895299955.4
2017-Oct-21 02:59N 46°50' E 031°57'63250.6
2017-Oct-21 02:58N 46°56' E 031°57'0473.9
2017-Oct-21 02:58N 46°56' E 031°57'1400840073.6
2017-Oct-21 02:58N 68°04' E 013°32'59945394859.6
2017-Oct-21 02:58N 01°15' E 103°50'59951027691.8
2017-Oct-21 02:58N 66°10' E 012°32'1490297944.9
2017-Oct-21 02:58N 45°22' E 036°38'71521225998.8
2017-Oct-21 02:57N 37°52' W 122°29'57251717400.7
2017-Oct-21 02:57N 59°20' E 018°05'90137290.0
2017-Oct-21 02:56N 46°50' E 031°57'84652031619.8
2017-Oct-21 02:55S 38°20' E 144°45'819635165.4
2017-Oct-21 02:41N 45°14' E 036°30'650435967.7
2017-Oct-21 02:31N 49°18' W 123°08'49583570032.0
2017-Oct-21 02:30N 38°41' W 009°13'1032918592362.1
2017-Oct-21 02:30S 38°20' E 144°45'895532236269.7
2017-Oct-21 02:30N 44°51' E 020°38'442715936895.4
2017-Oct-21 02:30N 36°53' W 076°22'51312052273.6
2017-Oct-21 02:30N 45°14' E 036°30'16531488051.1
2017-Oct-21 02:30N 47°45' W 003°21'64904672552.9
2017-Oct-21 02:30N 01°16' E 103°58'78694721348.2
2017-Oct-21 02:30N 37°47' W 122°23'69181915715.6
2017-Oct-21 02:30N 37°56' E 023°39'756143248.7
2017-Oct-21 02:29N 44°44' E 037°47'5119837619.3
2017-Oct-21 02:29N 38°58' W 076°29'51199213783.7
2017-Oct-21 02:29N 44°44' E 037°47'1591477363.8
2017-Oct-21 02:29N 39°32' E 002°43'1352286265.4
2017-Oct-21 02:29N 46°50' E 031°57'62841.3
2017-Oct-21 02:28N 46°56' E 031°57'12700.4
2017-Oct-21 02:28N 46°56' E 031°57'14011008558.6
2017-Oct-21 02:28N 68°04' E 013°32'59944315883.8
2017-Oct-21 02:28N 01°15' E 103°50'104493419531.4
2017-Oct-21 02:28N 38°15' W 076°58'36921208409.4
2017-Oct-21 02:28N 66°10' E 012°32'5267512470.0
2017-Oct-21 02:27N 37°52' W 122°29'16422955599.3
2017-Oct-21 02:27N 29°38' W 091°05'91556787.3
2017-Oct-21 02:26N 38°58' W 076°29'4790442123.9
2017-Oct-21 02:26N 46°50' E 031°57'6864233110.9
2017-Oct-21 02:24N 37°58' W 122°30'21635569.1
2017-Oct-21 02:01N 38°58' W 076°29'125450102.7
2017-Oct-21 02:01N 36°53' W 076°22'104469401301.2
2017-Oct-21 02:00N 01°16' E 103°58'480217288100.0
2017-Oct-21 02:00N 46°56' E 031°57'479717268719.3
2017-Oct-21 02:00N 01°14' E 103°48'528519026773.6
2017-Oct-21 02:00N 44°51' E 020°38'895516118148.0
2017-Oct-21 02:00S 38°20' E 144°45'33165969442.9
2017-Oct-21 02:00N 01°18' E 104°06'785514138248.8
2017-Oct-21 02:00N 37°52' W 122°29'687353147.2
2017-Oct-21 02:00N 49°18' W 123°08'476117138729.5
2017-Oct-21 02:00N 47°45' W 003°21'1033371882.8
2017-Oct-21 02:00N 59°20' E 018°05'57262290535.7
2017-Oct-21 02:00N 37°47' W 122°23'69183557757.5
2017-Oct-21 02:00N 37°56' E 023°39'7242606255.8
2017-Oct-21 02:00N 45°14' E 036°30'6213942.6
2017-Oct-21 01:59N 44°44' E 037°47'72308676559.0
2017-Oct-21 01:59N 37°58' W 122°30'72301239510.1
2017-Oct-21 01:59N 44°44' E 037°47'1591477366.6
2017-Oct-21 01:59N 39°32' E 002°43'1352270361.8
2017-Oct-21 01:59N 46°50' E 031°57'63791.9
2017-Oct-21 01:58N 46°56' E 031°57'1400720060.8
2017-Oct-21 01:58N 68°04' E 013°32'11716135.6
2017-Oct-21 01:58N 66°10' E 012°32'3634130816.1
2017-Oct-21 01:56N 38°58' W 076°29'4790453759.2
2017-Oct-21 01:56N 46°50' E 031°57'6077240408.7
2017-Oct-21 01:54N 29°33' W 095°02'2102583.5
2017-Oct-21 01:49N 29°37' W 091°00'9122932.2
2017-Oct-21 01:31N 38°58' W 076°29'21027568124.4
2017-Oct-21 01:31N 49°18' W 123°08'49584462542.0
2017-Oct-21 01:30N 38°41' W 009°13'13872496242.3
2017-Oct-21 01:30N 44°51' E 020°38'44273984223.9
2017-Oct-21 01:30N 36°53' W 076°22'8541536559.2
2017-Oct-21 01:30N 29°36' W 090°58'847930525163.4
2017-Oct-21 01:30S 38°20' E 144°45'72036482691.5
2017-Oct-21 01:30N 37°52' W 122°29'52784749865.8
2017-Oct-21 01:30N 47°45' W 003°21'1438739454.7
2017-Oct-21 01:30N 46°50' E 031°57'901648767.4
2017-Oct-21 01:30N 59°20' E 018°05'896806103.2
2017-Oct-21 01:30N 46°56' E 031°57'686524713928.1
2017-Oct-21 01:30N 37°47' W 122°23'69183113037.8
2017-Oct-21 01:30N 37°56' E 023°39'756143248.0
2017-Oct-21 01:29N 44°44' E 037°47'51191675308.1
2017-Oct-21 01:29N 38°58' W 076°29'51191228558.4
2017-Oct-21 01:29N 44°44' E 037°47'1591572837.8
2017-Oct-21 01:29N 39°32' E 002°43'1353194852.0
2017-Oct-21 01:28N 46°56' E 031°57'1400840070.1
2017-Oct-21 01:28N 68°04' E 013°32'5994674356.3
2017-Oct-21 01:28N 01°15' E 103°50'4552252115.2
2017-Oct-21 01:27N 45°11' E 036°32'149849038.0
2017-Oct-21 01:25N 66°10' E 012°32'132715112.6
2017-Oct-21 01:20N 46°50' E 031°57'480074802.2
2017-Oct-21 01:16N 01°15' E 103°56'3281393776.3
2017-Oct-21 01:15S 25°01' E 152°58'9023678.3
2017-Oct-21 01:01S 38°20' E 144°45'1401250442385.2
2017-Oct-21 01:01N 36°53' W 076°22'21807849185.8
2017-Oct-21 01:00N 49°18' W 123°08'49584462536.9
2017-Oct-21 01:00N 38°41' W 009°13'13874992478.3
2017-Oct-21 01:00N 44°51' E 020°38'52894760236.8
2017-Oct-21 01:00N 01°13' E 103°52'78707082965.4
2017-Oct-21 01:00N 37°52' W 122°29'78594715342.2
2017-Oct-21 01:00N 01°17' E 104°02'649123368518.8
2017-Oct-21 01:00N 47°45' W 003°21'1438862699.5
2017-Oct-21 01:00N 46°50' E 031°57'58854237553.2
2017-Oct-21 01:00N 29°33' W 090°55'58835294595.8
2017-Oct-21 01:00N 46°56' E 031°57'686512356973.0
2017-Oct-21 01:00N 37°47' W 122°23'69182490430.2
2017-Oct-21 01:00N 37°56' E 023°39'756123714.2
2017-Oct-21 00:59N 44°44' E 037°47'72318677575.7
2017-Oct-21 00:59N 37°52' W 122°23'21591942910.9
2017-Oct-21 00:59N 38°58' W 076°29'51191417566.2
2017-Oct-21 00:59N 44°44' E 037°47'1591572836.4
2017-Oct-21 00:59N 39°32' E 002°43'1353187358.3
2017-Oct-21 00:58N 46°56' E 031°57'1400840070.9
2017-Oct-21 00:58N 68°04' E 013°32'11716135.7
2017-Oct-21 00:58N 66°10' E 012°32'59953083072.2
2017-Oct-21 00:58N 01°15' E 103°50'5646451717.5
2017-Oct-21 00:57N 59°20' E 018°05'5164105030.3
2017-Oct-21 00:54N 29°33' W 095°02'607748942.3
2017-Oct-21 00:47N 46°50' E 031°57'832631156.4
2017-Oct-21 00:31S 24°59' E 152°53'1418825538243.0
2017-Oct-21 00:31N 38°58' W 076°29'1040137444411.9
2017-Oct-21 00:31N 01°14' E 103°42'778014004774.4
2017-Oct-21 00:30N 49°18' W 123°08'49585950057.6
2017-Oct-21 00:30N 38°41' W 009°13'13871664165.1
2017-Oct-21 00:30N 44°51' E 020°38'528619029903.2
2017-Oct-21 00:30N 01°15' E 103°50'78703148179.3
2017-Oct-21 00:30N 37°52' W 122°29'22002640080.5
2017-Oct-21 00:30N 36°53' W 076°22'1417525514689.5
2017-Oct-21 00:30S 24°59' E 152°53'74745381396.0
2017-Oct-21 00:30N 29°33' W 095°02'607721876011.4
2017-Oct-21 00:30N 46°50' E 031°57'9013243836.8
2017-Oct-21 00:30N 59°20' E 018°05'896644882.6
2017-Oct-21 00:30N 46°56' E 031°57'68654118988.0
2017-Oct-21 00:30N 37°47' W 122°23'69183557759.9
2017-Oct-21 00:30N 37°56' E 023°39'756170108.5
2017-Oct-21 00:29N 44°44' E 037°47'51191535700.7
2017-Oct-21 00:29N 38°58' W 076°29'51191842836.4
2017-Oct-21 00:29N 44°44' E 037°47'1591409170.3
2017-Oct-21 00:29N 39°32' E 002°43'1353187358.9
2017-Oct-21 00:28N 46°56' E 031°57'84685081090.1
2017-Oct-21 00:28S 38°20' E 144°45'993235756591.6
2017-Oct-21 00:28N 68°04' E 013°32'133371637.7
2017-Oct-21 00:27N 47°45' W 003°21'143854497.4
2017-Oct-21 00:26N 46°50' E 031°57'1327108536.3
2017-Oct-21 00:25N 66°10' E 012°32'25638472.6
2017-Oct-21 00:07N 27°55' W 015°24'312930202.8
2017-Oct-21 00:01N 38°58' W 076°29'125450102.7
2017-Oct-21 00:00N 36°53' W 076°22'31863822757.7
2017-Oct-21 00:00N 38°41' W 009°13'13872496241.5
2017-Oct-21 00:00N 44°51' E 020°38'52764748187.5
2017-Oct-21 00:00N 01°17' E 103°39'1526152.9
2017-Oct-21 00:00N 01°13' E 103°53'47991151752.3
2017-Oct-21 00:00N 46°50' E 031°57'607721876029.7
2017-Oct-21 00:00N 29°33' W 095°02'17602112002.5
2017-Oct-21 00:00N 49°18' W 123°08'497917924428.5
2017-Oct-21 00:00N 59°20' E 018°05'57262576851.0
2017-Oct-21 00:00N 37°47' W 122°23'69183113037.8
2017-Oct-21 00:00N 37°56' E 023°39'50391511671.4
2017-Oct-21 00:00N 01°15' E 103°50'44858073194.5
2017-Oct-20 23:59N 44°44' E 037°47'79829578992.5
2017-Oct-20 23:59S 24°57' E 152°50'141845106260.8
2017-Oct-20 23:59N 38°58' W 076°29'3680509567.1
2017-Oct-20 23:59N 39°32' E 002°43'1353187358.6
2017-Oct-20 23:58N 46°56' E 031°57'14001680142.7
2017-Oct-20 23:58N 68°04' E 013°32'993211918855.5
2017-Oct-20 23:58S 38°20' E 144°45'99301429914.1
2017-Oct-20 23:58N 66°10' E 012°32'5267512469.7
2017-Oct-20 23:57N 37°52' W 122°29'52783166579.9
2017-Oct-20 23:57N 47°45' W 003°21'1437344765.2
2017-Oct-20 23:57N 46°56' E 031°57'27718483.6
2017-Oct-20 23:56N 44°44' E 037°47'493471624.2
2017-Oct-20 23:52N 40°43' W 074°01'460619348.6
2017-Oct-20 23:38N 46°50' E 031°57'478940569.6
2017-Oct-20 23:31N 38°58' W 076°29'21027568123.9
2017-Oct-20 23:30N 49°18' W 123°08'49585950053.4
2017-Oct-20 23:30N 38°41' W 009°13'18793382433.5
2017-Oct-20 23:30N 46°56' E 031°57'4891759593.5
2017-Oct-20 23:30N 44°51' E 020°38'44277968455.8
2017-Oct-20 23:30N 36°53' W 076°22'2200990030.8
2017-Oct-20 23:30N 37°52' W 122°29'22571624783.4
2017-Oct-20 23:30N 40°42' W 074°02'1023412281053.6
2017-Oct-20 23:30N 01°12' E 103°39'47898620769.5
2017-Oct-20 23:30N 46°50' E 031°57'901540634.7
2017-Oct-20 23:30N 59°20' E 018°05'8963224422.5
2017-Oct-20 23:30N 46°56' E 031°57'68654118991.0
2017-Oct-20 23:30N 37°47' W 122°23'69183557759.9
2017-Oct-20 23:30N 37°56' E 023°39'50391209335.5
2017-Oct-20 23:29N 01°15' E 103°50'44858073190.4
2017-Oct-20 23:29N 44°44' E 037°47'51191675312.5
2017-Oct-20 23:29N 38°58' W 076°29'51191023800.3
2017-Oct-20 23:29N 44°44' E 037°47'1591716046.1
2017-Oct-20 23:29N 39°32' E 002°43'6133883202.3
2017-Oct-20 23:28N 01°15' E 103°50'59944315877.7
2017-Oct-20 23:28N 68°04' E 013°32'59894312268.5
2017-Oct-20 23:28N 01°17' E 103°45'3330217966.4
2017-Oct-20 23:27S 38°20' E 144°45'102523690709.2
2017-Oct-20 23:27N 47°45' W 003°21'44323191151.8
2017-Oct-20 23:27N 29°33' W 095°02'4855132412.3
2017-Oct-20 23:25N 66°10' E 012°32'132715065.0
2017-Oct-20 23:20N 46°50' E 031°57'522139566.9
2017-Oct-20 23:12N 38°19' W 085°39'1091758748.1
2017-Oct-20 23:01N 01°16' E 103°41'778014003460.9
2017-Oct-20 23:00N 49°18' W 123°08'66467974787.4
2017-Oct-20 23:00S 24°53' E 152°44'1037337343758.5
2017-Oct-20 23:00N 38°41' W 009°13'13872496250.8
2017-Oct-20 23:00N 44°51' E 020°38'89545372607.6
2017-Oct-20 23:00S 38°20' E 144°44'72038643829.4
2017-Oct-20 23:00N 37°52' W 122°29'52783799895.8
2017-Oct-20 23:00N 47°45' W 003°21'1438862699.8
2017-Oct-20 23:00N 46°50' E 031°57'48775852078.6
2017-Oct-20 23:00N 36°53' W 076°22'40167229172.7
2017-Oct-20 23:00N 59°20' E 018°05'8961612219.6
2017-Oct-20 23:00N 46°56' E 031°57'68654118987.4
2017-Oct-20 23:00N 37°47' W 122°23'69183113037.8
2017-Oct-20 23:00N 37°56' E 023°39'51586189864.9
2017-Oct-20 23:00N 38°19' W 085°39'55571538979.5
2017-Oct-20 22:59N 44°44' E 037°47'51191417569.6
2017-Oct-20 22:59N 38°58' W 076°29'51191023798.5
2017-Oct-20 22:59N 44°44' E 037°47'1591954727.9
2017-Oct-20 22:59N 39°32' E 002°43'1755203779.3
2017-Oct-20 22:58N 68°04' E 013°32'11716781.0
2017-Oct-20 22:58N 66°10' E 012°32'132734605.7
2017-Oct-20 22:56N 46°50' E 031°57'6225.3
2017-Oct-20 22:54N 46°56' E 031°57'11576302.7
2017-Oct-20 22:43N 43°24' E 005°04'532125746.0
2017-Oct-20 22:31N 49°18' W 123°08'21027568124.4
2017-Oct-20 22:30N 38°58' W 076°29'31443773027.2
2017-Oct-20 22:30N 38°41' W 009°13'13871248124.2
2017-Oct-20 22:30N 44°51' E 020°38'64592906614.5
2017-Oct-20 22:30N 37°52' W 122°29'52783799891.7
2017-Oct-20 22:30N 47°45' W 003°21'101579141552.6
2017-Oct-20 22:30S 24°52' E 152°40'831129918403.6
2017-Oct-20 22:30N 46°50' E 031°57'607721876046.4
2017-Oct-20 22:30N 29°33' W 095°02'60743644338.0
2017-Oct-20 22:30N 46°56' E 031°57'0123.7
2017-Oct-20 22:30N 46°56' E 031°57'68658237926.4
2017-Oct-20 22:30N 37°47' W 122°23'69182264027.5
2017-Oct-20 22:30N 37°56' E 023°39'756209363.2
2017-Oct-20 22:29N 44°44' E 037°47'51191228558.4
2017-Oct-20 22:29N 38°58' W 076°29'51191151773.5
2017-Oct-20 22:29N 44°44' E 037°47'1591716047.5
2017-Oct-20 22:29N 39°32' E 002°43'1352347691.8
2017-Oct-20 22:29N 46°50' E 031°57'47978634467.0
2017-Oct-20 22:29N 01°14' E 103°52'104422685047.5
2017-Oct-20 22:28N 36°53' W 076°22'1401250442358.3
2017-Oct-20 22:28S 38°20' E 144°45'99301323993.2
2017-Oct-20 22:28N 66°10' E 012°32'25707723.3
2017-Oct-20 22:08N 27°48' W 015°23'521842209.7
2017-Oct-20 22:00N 49°18' W 123°08'49584462540.9
2017-Oct-20 22:00N 38°41' W 009°13'13874992489.2
2017-Oct-20 22:00N 44°51' E 020°38'88493539411.6
2017-Oct-20 22:00S 24°50' E 152°37'101536091970.0
2017-Oct-20 22:00N 47°45' W 003°21'44327977880.4
2017-Oct-20 22:00N 29°33' W 095°02'60777292003.8
2017-Oct-20 22:00N 46°50' E 031°57'63235.6
2017-Oct-20 22:00N 46°56' E 031°57'0139.6
2017-Oct-20 22:00N 46°56' E 031°57'68656178440.3
2017-Oct-20 22:00N 37°47' W 122°23'69182490430.2
2017-Oct-20 22:00N 37°56' E 023°39'756160100.7
2017-Oct-20 21:59N 44°44' E 037°47'51191535699.1
2017-Oct-20 21:59N 38°58' W 076°29'35722143489.6
2017-Oct-20 21:59N 41°11' E 001°16'1618970572.9
2017-Oct-20 21:59N 44°44' E 037°47'1591520761.7
2017-Oct-20 21:59N 39°32' E 002°43'1755197411.2
2017-Oct-20 21:58N 68°04' E 013°32'11716135.6
2017-Oct-20 21:58N 66°10' E 012°32'37551126432.0
2017-Oct-20 21:58N 36°53' W 076°22'140122402018.0
2017-Oct-20 21:57S 38°20' E 144°45'72034321815.3
2017-Oct-20 21:57N 37°52' W 122°29'57251288051.4
2017-Oct-20 21:57N 59°20' E 018°05'14313473.5
2017-Oct-20 21:32N 38°40' W 000°05'3571123625.0
2017-Oct-20 21:31N 38°58' W 076°29'43512610550.3
2017-Oct-20 21:30N 44°51' E 020°38'588010584835.5
2017-Oct-20 21:30N 49°18' W 123°08'664911967983.0
2017-Oct-20 21:30S 24°48' E 152°34'103627460379.6
2017-Oct-20 21:30N 38°41' W 009°13'4301548382.6
2017-Oct-20 21:30N 38°36' W 000°03'98387083136.6
2017-Oct-20 21:30S 38°20' E 144°45'984117713301.2
2017-Oct-20 21:30N 41°03' E 001°11'13744944935.5
2017-Oct-20 21:30N 46°50' E 031°57'607710938014.1
2017-Oct-20 21:30N 29°33' W 095°02'51642655759.5
2017-Oct-20 21:30N 59°20' E 018°05'8963224439.3
2017-Oct-20 21:30N 46°56' E 031°57'653180919.7
2017-Oct-20 21:30N 37°56' E 023°39'756170108.7
2017-Oct-20 21:29N 44°44' E 037°47'51191535703.1
2017-Oct-20 21:29N 38°58' W 076°29'12529970.7
2017-Oct-20 21:29N 36°53' W 076°22'520518738488.8
2017-Oct-20 21:29N 44°44' E 037°47'1591572837.6
2017-Oct-20 21:29N 39°32' E 002°43'1755210572.0
2017-Oct-20 21:28N 68°04' E 013°32'11715537.2
2017-Oct-20 21:28N 66°10' E 012°32'5267498984.0
2017-Oct-20 21:27N 37°52' W 122°29'543019183.0
2017-Oct-20 21:10N 27°53' W 015°23'25281011205.6
2017-Oct-20 21:10N 46°50' E 031°57'478929934.2
2017-Oct-20 21:01N 38°58' W 076°29'31442263823.5
2017-Oct-20 21:00N 38°41' W 009°13'13872496239.2
2017-Oct-20 21:00N 44°51' E 020°38'89542149071.8
2017-Oct-20 21:00S 38°20' E 144°45'82665951296.9
2017-Oct-20 21:00N 29°33' W 095°02'60744373203.4
2017-Oct-20 21:00N 46°56' E 031°57'0109.7
2017-Oct-20 21:00N 46°56' E 031°57'68658237919.3
2017-Oct-20 21:00N 37°47' W 122°23'78763544230.2
2017-Oct-20 21:00N 01°15' E 103°50'50394535013.6
2017-Oct-20 21:00N 37°56' E 023°39'756194409.7
2017-Oct-20 20:59N 44°44' E 037°47'51191228559.5
2017-Oct-20 20:59N 38°58' W 076°29'51191228558.6
2017-Oct-20 20:59N 44°44' E 037°47'1591818343.9
2017-Oct-20 20:59N 39°32' E 002°43'1755197412.0
2017-Oct-20 20:58N 68°04' E 013°32'1406241044.4
2017-Oct-20 20:58N 46°50' E 031°57'1326955065.7
2017-Oct-20 20:58N 66°10' E 012°32'5267474034.8
2017-Oct-20 20:57N 37°52' W 122°29'174017204.1
2017-Oct-20 20:51N 38°19' W 085°39'402433377.8
2017-Oct-20 20:44N 38°32' W 000°03'15720189.9
2017-Oct-20 20:43N 40°60' E 001°07'4482610.9
2017-Oct-20 20:33N 47°45' W 003°21'323373210.7
2017-Oct-20 20:31N 38°58' W 076°29'31443773020.1
2017-Oct-20 20:30N 38°41' W 009°13'13871248128.9
2017-Oct-20 20:30N 44°51' E 020°38'997448468.7
2017-Oct-20 20:30N 39°02' W 000°17'53259584453.8
2017-Oct-20 20:30N 49°17' W 123°08'76095478695.5
2017-Oct-20 20:30S 38°20' E 144°45'82665951296.9
2017-Oct-20 20:30N 29°33' W 095°02'51644647586.2
2017-Oct-20 20:30N 59°20' E 018°05'8961074761.2
2017-Oct-20 20:30N 46°56' E 031°57'68658237920.5
2017-Oct-20 20:30N 37°47' W 122°23'78762835385.0
2017-Oct-20 20:30N 01°15' E 103°50'44851076427.3
2017-Oct-20 20:29N 44°44' E 037°47'51191316314.7
2017-Oct-20 20:29N 38°58' W 076°29'51191151773.5
2017-Oct-20 20:29N 44°44' E 037°47'1591716046.5
2017-Oct-20 20:29N 39°32' E 002°43'1755197411.3
2017-Oct-20 20:28N 68°04' E 013°32'1406253096.9
2017-Oct-20 20:28N 46°50' E 031°57'1326795888.1
2017-Oct-20 20:28N 66°10' E 012°32'3975841688.5
2017-Oct-20 20:28N 38°19' W 085°39'365334068.3
2017-Oct-20 20:21N 47°45' W 003°21'3304135162.1
2017-Oct-20 20:20N 36°53' W 076°22'125391.4
2017-Oct-20 20:01N 38°58' W 076°29'21081897297.7
2017-Oct-20 20:00N 49°20' W 123°16'496317868221.1
2017-Oct-20 20:00N 38°41' W 009°13'676412174430.3
2017-Oct-20 20:00N 01°13' E 103°53'529019043372.3
2017-Oct-20 20:00N 44°51' E 020°38'895410745215.2
2017-Oct-20 20:00S 38°20' E 144°44'980035279598.9
2017-Oct-20 20:00S 23°00' W 044°19'59135321891.2
2017-Oct-20 20:00N 37°52' W 122°29'1458437345.4
2017-Oct-20 20:00N 29°33' W 095°02'60744373201.9
2017-Oct-20 20:00N 46°56' E 031°57'8963224422.5
2017-Oct-20 20:00N 59°20' E 018°05'8961612134.6
2017-Oct-20 20:00N 46°56' E 031°57'68654942745.9
2017-Oct-20 20:00N 37°47' W 122°23'69183113037.8
2017-Oct-20 20:00N 37°56' E 023°39'47051302941.1
2017-Oct-20 19:59N 38°58' W 076°29'51183685241.9
2017-Oct-20 19:59N 44°44' E 037°47'51191675309.6
2017-Oct-20 19:59N 38°58' W 076°29'12534581.5
2017-Oct-20 19:59N 36°53' W 076°22'52054684617.3
2017-Oct-20 19:59N 44°44' E 037°47'1591818340.4
2017-Oct-20 19:59N 39°32' E 002°43'1755203779.4
2017-Oct-20 19:58N 68°04' E 013°32'140625309.7
2017-Oct-20 19:55N 46°50' E 031°57'13261193832.1
2017-Oct-20 19:55N 66°10' E 012°32'257124353.8
2017-Oct-20 19:49N 27°48' W 015°24'1326190980.9
2017-Oct-20 19:48N 47°45' W 003°21'530525983.9
2017-Oct-20 19:36N 32°38' W 117°24'6944119603.5
2017-Oct-20 19:32N 46°50' E 031°57'4789151246.6
2017-Oct-20 19:31N 38°58' W 076°29'104129371139.6
2017-Oct-20 19:30N 01°14' E 103°53'455516397418.0
2017-Oct-20 19:30N 45°22' E 036°38'20837499969.4
2017-Oct-20 19:30N 38°41' W 009°13'13872496246.9
2017-Oct-20 19:30N 44°51' E 020°38'58805291690.7
2017-Oct-20 19:30N 49°25' W 123°15'694499654.4
2017-Oct-20 19:30N 37°52' W 122°29'52784749869.8
2017-Oct-20 19:30N 47°45' W 003°21'44323191151.8
2017-Oct-20 19:30N 29°33' W 095°02'10351242212.3
2017-Oct-20 19:30N 36°53' W 076°22'48744386494.9
2017-Oct-20 19:30N 46°56' E 031°57'0161.1
2017-Oct-20 19:30N 46°56' E 031°57'68658237976.0
2017-Oct-20 19:30N 37°47' W 122°23'69182075358.5
2017-Oct-20 19:30N 37°56' E 023°39'648137294.7
2017-Oct-20 19:29N 46°50' E 031°57'275329485.2
2017-Oct-20 19:29N 44°44' E 037°47'811814611818.4
2017-Oct-20 19:29S 38°20' E 144°45'1406010123396.1
2017-Oct-20 19:29N 38°58' W 076°29'20281825646.6
2017-Oct-20 19:29N 32°39' W 117°26'73051753277.2
2017-Oct-20 19:29N 44°44' E 037°47'1591818340.7
2017-Oct-20 19:29N 39°32' E 002°43'61261378422.7
2017-Oct-20 19:29N 01°12' E 103°40'59911659023.1
2017-Oct-20 19:28N 68°04' E 013°32'1406230088.1
2017-Oct-20 19:28N 46°50' E 031°57'1326795888.1
2017-Oct-20 19:28N 66°10' E 012°32'6220508885.3
2017-Oct-20 19:27S 23°00' W 044°19'627796161.7
2017-Oct-20 19:23N 45°09' E 036°34'505013348.7
2017-Oct-20 19:01N 38°58' W 076°29'31442263823.8
2017-Oct-20 19:00N 38°41' W 009°13'13872496246.2
2017-Oct-20 19:00N 44°51' E 020°38'58802352002.6
2017-Oct-20 19:00N 49°26' W 123°17'6951251312.4
2017-Oct-20 19:00N 37°52' W 122°29'392156847.9
2017-Oct-20 19:00N 32°39' W 117°40'11772118906.6
2017-Oct-20 19:00N 29°33' W 095°02'60745466499.7
2017-Oct-20 19:00N 46°56' E 031°57'68654942785.6
2017-Oct-20 19:00N 37°47' W 122°23'69183557759.9
2017-Oct-20 19:00N 37°56' E 023°39'756123713.7
2017-Oct-20 18:59N 44°44' E 037°47'81184870606.4
2017-Oct-20 18:59S 38°20' E 144°45'1406010123397.6
2017-Oct-20 18:59N 38°58' W 076°29'51191316313.7
2017-Oct-20 18:59N 44°44' E 037°47'1591572837.7
2017-Oct-20 18:59N 39°32' E 002°43'1353211796.9
2017-Oct-20 18:58N 46°56' E 031°57'1400630051.5
2017-Oct-20 18:58N 68°04' E 013°32'3781800655.7
2017-Oct-20 18:58N 36°53' W 076°22'48775852067.9
2017-Oct-20 18:58N 46°50' E 031°57'1326795889.0
2017-Oct-20 18:58N 66°10' E 012°32'43834272.2
2017-Oct-20 18:57N 59°20' E 018°05'9015574.2
2017-Oct-20 18:47N 46°50' E 031°57'143816435.7
2017-Oct-20 18:42N 47°45' W 003°21'323316700.9
2017-Oct-20 18:31N 38°58' W 076°29'31441617014.6
2017-Oct-20 18:30N 38°41' W 009°13'13874992492.3
2017-Oct-20 18:30N 44°51' E 020°38'5603960555.5
2017-Oct-20 18:30N 29°33' W 095°02'10351242214.8
2017-Oct-20 18:30N 36°53' W 076°22'48745848722.1
2017-Oct-20 18:30N 46°56' E 031°57'686512356973.0
2017-Oct-20 18:30N 37°47' W 122°23'69182075358.5
2017-Oct-20 18:30N 37°56' E 023°39'756113405.2
2017-Oct-20 18:29N 44°44' E 037°47'51194607101.4
2017-Oct-20 18:29N 38°58' W 076°29'104093747138.1
2017-Oct-20 18:29N 01°15' E 103°50'33252992628.3
2017-Oct-20 18:29S 38°20' E 144°45'811829223685.0
2017-Oct-20 18:29N 44°44' E 037°47'1591520760.5
2017-Oct-20 18:29N 39°32' E 002°43'1353194852.6
2017-Oct-20 18:28N 46°56' E 031°57'1400840074.4
2017-Oct-20 18:28N 68°04' E 013°32'1406266417.7
2017-Oct-20 18:28N 46°50' E 031°57'1326682189.8
2017-Oct-20 18:28N 66°10' E 012°32'5267512470.0
2017-Oct-20 18:27N 37°52' W 122°29'57251373923.1
2017-Oct-20 18:27N 59°20' E 018°05'103322268.4
2017-Oct-20 18:24N 47°45' W 003°21'16589269.3
2017-Oct-20 18:13N 45°09' E 036°34'505035437.8
2017-Oct-20 18:05N 38°58' W 076°29'211328700.3
2017-Oct-20 18:01N 49°16' W 123°23'21917888044.5
2017-Oct-20 18:01N 36°53' W 076°22'31862867061.5
2017-Oct-20 18:00N 38°41' W 009°13'13871664164.1
2017-Oct-20 18:00N 44°51' E 020°38'64592583659.4
2017-Oct-20 18:00N 37°52' W 122°29'52783799895.8
2017-Oct-20 18:00N 47°45' W 003°21'648811679173.7
2017-Oct-20 18:00N 01°15' E 103°56'94698522097.9
2017-Oct-20 18:00N 29°33' W 095°02'60744373205.6
2017-Oct-20 18:00N 46°56' E 031°57'68653530563.7
2017-Oct-20 18:00N 37°47' W 122°23'69183113037.8
2017-Oct-20 18:00N 37°56' E 023°39'756118335.9
2017-Oct-20 17:59N 44°44' E 037°47'57205345.0
2017-Oct-20 17:59N 45°09' E 036°34'818929480637.9
2017-Oct-20 17:59S 38°20' E 144°45'1406012654246.9
2017-Oct-20 17:59N 38°58' W 076°29'51191023798.5
2017-Oct-20 17:59N 44°44' E 037°47'15911145670.7
2017-Oct-20 17:59N 39°32' E 002°43'1353202971.7
2017-Oct-20 17:58N 46°56' E 031°57'1400560047.3
2017-Oct-20 17:58N 68°04' E 013°32'1406281218.7
2017-Oct-20 17:58N 46°50' E 031°57'90157925.5
2017-Oct-20 17:57N 59°20' E 018°05'43812034.5
2017-Oct-20 17:55N 66°10' E 012°32'132717953.3
2017-Oct-20 17:50N 46°50' E 031°57'275827.1
2017-Oct-20 17:31N 44°44' E 037°47'659323733421.5
2017-Oct-20 17:31N 49°20' W 123°17'21087590533.7
2017-Oct-20 17:31N 38°58' W 076°29'1955.1
2017-Oct-20 17:30N 38°58' W 076°28'43507829510.3
2017-Oct-20 17:30N 44°51' E 020°38'895410745359.2
2017-Oct-20 17:30S 38°20' E 144°45'103297436904.6
2017-Oct-20 17:30N 38°41' W 009°13'676112169462.8
2017-Oct-20 17:30N 01°15' E 103°51'94733100327.2
2017-Oct-20 17:30N 29°33' W 095°02'60744373205.6
2017-Oct-20 17:30N 46°56' E 031°57'68654118991.0
2017-Oct-20 17:30N 37°47' W 122°23'69182767144.7
2017-Oct-20 17:30N 37°56' E 023°39'47678579917.7
2017-Oct-20 17:30N 36°53' W 076°22'12516055.8
2017-Oct-20 17:29N 38°58' W 076°29'51191023800.5
2017-Oct-20 17:29N 44°44' E 037°47'1591954733.1
2017-Oct-20 17:29N 39°32' E 002°43'1353202971.3
2017-Oct-20 17:28N 46°56' E 031°57'1400840063.2
2017-Oct-20 17:28N 68°04' E 013°32'1406266416.7
2017-Oct-20 17:28N 46°50' E 031°57'1326596913.5
2017-Oct-20 17:28N 66°10' E 012°32'43830911.7
2017-Oct-20 17:27N 59°20' E 018°05'11392579.4
2017-Oct-20 17:01N 44°44' E 037°47'447916124789.5
2017-Oct-20 17:01N 01°13' E 103°40'1040137442421.4
2017-Oct-20 17:01N 38°58' W 076°29'21033784981.7
2017-Oct-20 17:00N 49°17' W 123°08'777027970235.6
2017-Oct-20 17:00N 01°14' E 103°54'676424351656.7
2017-Oct-20 17:00N 38°41' W 009°13'13871664163.6
2017-Oct-20 17:00N 44°51' E 020°38'44277968447.7
2017-Oct-20 17:00N 36°53' W 076°22'22001131463.7
2017-Oct-20 17:00N 37°52' W 122°29'1458437345.4
2017-Oct-20 17:00N 29°33' W 095°02'1452522839.3
2017-Oct-20 17:00N 37°47' W 122°23'69182767144.7
2017-Oct-20 17:00N 37°56' E 023°39'653213612.4
2017-Oct-20 17:00N 46°56' E 031°57'4787906926.8
2017-Oct-20 16:59N 38°58' W 076°29'51191228560.1
2017-Oct-20 16:59N 44°44' E 037°47'1591818340.7
2017-Oct-20 16:59N 39°32' E 002°43'1353180419.7
2017-Oct-20 16:58N 46°56' E 031°57'1400840074.4
2017-Oct-20 16:58N 68°04' E 013°32'99325959426.1
2017-Oct-20 16:58S 38°20' E 144°45'84652770498.6
2017-Oct-20 16:58N 46°50' E 031°57'90154063.8
2017-Oct-20 16:57N 59°20' E 018°05'43812221.1
2017-Oct-20 16:55N 66°10' E 012°32'12223916.1
2017-Oct-20 16:36N 47°45' W 003°21'323334439.4
2017-Oct-20 16:31N 38°58' W 076°29'478617230262.5
2017-Oct-20 16:31N 46°56' E 031°57'18791691190.2
2017-Oct-20 16:30N 38°41' W 009°13'675224308250.2
2017-Oct-20 16:30N 01°12' E 103°40'44798062961.1
2017-Oct-20 16:30N 44°44' E 037°47'7302628187.8
2017-Oct-20 16:30N 44°51' E 020°38'58827058403.8
2017-Oct-20 16:30N 49°17' W 123°08'686411377.4
2017-Oct-20 16:30N 37°52' W 122°29'22003960129.3
2017-Oct-20 16:30N 36°53' W 076°22'1035532377.8
2017-Oct-20 16:30N 29°33' W 095°02'1452373456.7
2017-Oct-20 16:30N 37°47' W 122°23'69183113039.9
2017-Oct-20 16:30N 37°56' E 023°39'4706651532.5
2017-Oct-20 16:29N 38°58' W 076°29'51191084022.1
2017-Oct-20 16:29N 44°44' E 037°47'1591572837.4
2017-Oct-20 16:29N 39°32' E 002°43'1353202971.1
2017-Oct-20 16:28N 46°56' E 031°57'1400720063.1
2017-Oct-20 16:28N 68°04' E 013°32'59972159035.5
2017-Oct-20 16:28N 01°14' E 103°54'59981349539.6
2017-Oct-20 16:28N 66°10' E 012°32'99301117120.4
2017-Oct-20 16:27S 38°20' E 144°45'8465219248.3
2017-Oct-20 16:25N 46°50' E 031°57'90113745.0
2017-Oct-20 16:21N 59°20' E 018°05'1051114649.3
2017-Oct-20 16:21N 44°38' E 033°32'154438597.0
2017-Oct-20 16:18N 47°45' W 003°21'2036757.3
2017-Oct-20 16:16N 50°47' W 001°07'13265029.2
2017-Oct-20 16:01N 46°56' E 031°57'621422371330.8
2017-Oct-20 16:01N 49°18' W 123°07'49584462490.6
2017-Oct-20 16:00N 38°41' W 009°13'13871664164.1
2017-Oct-20 16:00N 44°51' E 020°38'7302628187.8
2017-Oct-20 16:00N 44°44' E 037°47'52056246160.5
2017-Oct-20 16:00N 36°53' W 076°22'1035232915.3
2017-Oct-20 16:00N 29°33' W 095°02'1452402184.1
2017-Oct-20 16:00N 37°47' W 122°23'69183557757.5
2017-Oct-20 16:00N 37°56' E 023°39'648145876.7
2017-Oct-20 15:59N 46°50' E 031°57'47901567528.8
2017-Oct-20 15:59N 38°58' W 076°29'4789907459.2
2017-Oct-20 15:59N 46°50' E 031°57'275989364.2
2017-Oct-20 15:59N 44°44' E 037°47'44785373519.6
2017-Oct-20 15:59N 01°13' E 103°38'61247349337.0
2017-Oct-20 15:59N 39°32' E 002°43'1353187358.8
2017-Oct-20 15:58N 46°56' E 031°57'14001008089.3
2017-Oct-20 15:58N 68°04' E 013°32'11715538.1
2017-Oct-20 15:58N 66°10' E 012°32'5267486189.5
2017-Oct-20 15:57N 37°52' W 122°29'57252944120.9
2017-Oct-20 15:57N 59°20' E 018°05'10513458.5
2017-Oct-20 15:39N 44°37' E 033°31'1 5.1
2017-Oct-20 15:31N 44°38' E 033°32'493317758878.5
2017-Oct-20 15:30N 38°58' W 076°29'21027568148.9
2017-Oct-20 15:30N 49°18' W 123°08'49585950055.5
2017-Oct-20 15:30N 38°41' W 009°13'13872496243.1
2017-Oct-20 15:30N 44°51' E 020°38'52782111279.6
2017-Oct-20 15:30N 01°14' E 103°39'94854268258.3
2017-Oct-20 15:30N 29°33' W 095°02'1452373457.0
2017-Oct-20 15:30N 37°47' W 122°23'69182767142.8
2017-Oct-20 15:30N 37°56' E 023°39'50392591438.3
2017-Oct-20 15:30N 01°15' E 103°50'104091703245.9
2017-Oct-20 15:29N 38°58' W 076°29'47891077609.6
2017-Oct-20 15:29N 46°50' E 031°57'275329784.1
2017-Oct-20 15:29N 44°44' E 037°47'1591954726.6
2017-Oct-20 15:29N 39°32' E 002°43'1353304396.7
2017-Oct-20 15:29N 46°55' E 031°57'1307.8
2017-Oct-20 15:28N 46°56' E 031°57'1400840070.9
2017-Oct-20 15:28N 68°04' E 013°32'11716135.7
2017-Oct-20 15:28N 66°10' E 012°32'99301083268.8
2017-Oct-20 15:27S 38°20' E 144°45'72038643639.8
2017-Oct-20 15:27N 37°52' W 122°29'6870915947.0
2017-Oct-20 15:27N 46°50' E 031°57'122813685.8
2017-Oct-20 15:21N 52°07' E 001°32'707101818.3
2017-Oct-20 15:21N 59°20' E 018°05'108916133.2
2017-Oct-20 15:17N 45°09' E 036°34'572127352.5
2017-Oct-20 15:04N 28°24' W 080°37'10824165810.3
2017-Oct-20 15:01N 01°17' E 103°53'776927968014.9
2017-Oct-20 15:00N 49°18' W 123°08'49585950056.6
2017-Oct-20 15:00N 38°41' W 009°13'13871248120.8
2017-Oct-20 15:00N 44°51' E 020°38'44277968447.7
2017-Oct-20 15:00N 36°53' W 076°22'1401225221195.8
2017-Oct-20 15:00S 38°20' E 144°45'82661983767.7
2017-Oct-20 15:00N 29°33' W 095°02'1452475308.5
2017-Oct-20 15:00N 37°47' W 122°23'69182490432.0
2017-Oct-20 15:00N 37°56' E 023°39'653335979.8
2017-Oct-20 15:00N 46°56' E 031°57'47891915507.9
2017-Oct-20 14:59N 01°13' E 103°36'103983119286.8
2017-Oct-20 14:59N 38°58' W 076°29'47891077609.6
2017-Oct-20 14:59N 46°50' E 031°57'1352608313.8
2017-Oct-20 14:59N 39°32' E 002°43'755247132.1
2017-Oct-20 14:59N 52°05' E 001°32'1225367352.5
2017-Oct-20 14:58N 46°56' E 031°57'1400560049.6
2017-Oct-20 14:58N 68°04' E 013°32'11716135.7
2017-Oct-20 14:58N 66°10' E 012°32'5267512469.7
2017-Oct-20 14:57N 37°52' W 122°29'572554520.8
2017-Oct-20 14:51N 59°20' E 018°05'91641207.1
2017-Oct-20 14:50N 50°28' W 003°32'142417795.1
2017-Oct-20 14:45N 46°50' E 031°57'148743.8
2017-Oct-20 14:33N 44°37' E 033°32'5016111474.6
2017-Oct-20 14:30N 36°53' W 076°22'140128407064.0
2017-Oct-20 14:30S 38°20' E 144°45'333311997076.1
2017-Oct-20 14:30N 01°12' E 103°36'46671527284.8
2017-Oct-20 14:30N 44°38' E 033°32'18111866.3
2017-Oct-20 14:29N 44°44' E 037°47'1707267145.6
2017-Oct-20 14:29N 50°28' W 003°32'1179282911.6
2017-Oct-20 14:28N 68°04' E 013°32'140657523.9
2017-Oct-20 14:27N 46°50' E 031°57'151113364.5
2017-Oct-20 14:20N 38°36' W 000°26'170060576.5
2017-Oct-20 14:18N 45°09' E 036°34'11614.3
2017-Oct-20 14:17N 45°19' E 036°31'504217952.3
2017-Oct-20 14:01N 38°58' W 076°29'1041318743371.9
2017-Oct-20 14:00N 01°16' E 103°56'676412175425.2
2017-Oct-20 14:00N 38°41' W 009°13'675324311998.3
2017-Oct-20 14:00N 01°15' E 103°43'528019009301.8
2017-Oct-20 14:00N 44°51' E 020°38'7302628187.8
2017-Oct-20 14:00N 44°44' E 037°47'65881581223.8
2017-Oct-20 14:00N 49°18' W 123°08'17601583994.6
2017-Oct-20 14:00N 29°33' W 095°02'51642655761.6
2017-Oct-20 14:00N 59°20' E 018°05'57265153705.4
2017-Oct-20 14:00N 37°47' W 122°23'69182490430.2
2017-Oct-20 14:00N 37°56' E 023°39'648333310.9
2017-Oct-20 14:00N 46°50' E 031°57'4789749641.4
2017-Oct-20 13:59N 38°58' W 076°29'3680576031.9
2017-Oct-20 13:59N 39°32' E 002°43'1353270634.5
2017-Oct-20 13:59N 46°56' E 031°57'019.2
2017-Oct-20 13:58N 46°56' E 031°57'1321148574.1
2017-Oct-20 13:58N 66°10' E 012°32'5267498983.3
2017-Oct-20 13:57N 37°52' W 122°29'585955651.0
2017-Oct-20 13:51N 39°34' E 002°39'367610802.1
2017-Oct-20 13:31N 38°58' W 076°29'21027568136.6
2017-Oct-20 13:31N 49°18' W 123°08'49585950054.5
2017-Oct-20 13:30N 38°41' W 009°13'639111504141.2
2017-Oct-20 13:30N 22°48' E 113°19'48068649958.8
2017-Oct-20 13:30N 44°51' E 020°38'52772374471.9
2017-Oct-20 13:30N 01°13' E 103°36'94892846592.2
2017-Oct-20 13:30N 29°33' W 095°02'51643718071.9
2017-Oct-20 13:30N 59°20' E 018°05'13301595595.7
2017-Oct-20 13:30N 39°34' E 002°39'58587029237.9
2017-Oct-20 13:30N 37°47' W 122°23'69182767142.8
2017-Oct-20 13:30N 37°56' E 023°39'648388861.2
2017-Oct-20 13:30N 46°50' E 031°57'84651792677.2
2017-Oct-20 13:29S 38°20' E 144°45'81181391605.2
2017-Oct-20 13:29N 44°44' E 037°47'1591636486.5
2017-Oct-20 13:29N 39°32' E 002°43'1353442847.8
2017-Oct-20 13:29N 46°56' E 031°57'020.3
2017-Oct-20 13:29N 46°56' E 031°57'1400336036.6
2017-Oct-20 13:28N 68°04' E 013°32'11716781.0
2017-Oct-20 13:28N 66°10' E 012°32'5267498984.0
2017-Oct-20 13:27N 37°52' W 122°29'2164132018.5
2017-Oct-20 13:26N 38°58' W 076°29'5050151514.0
2017-Oct-20 13:24N 45°09' E 036°34'2181808.7
2017-Oct-20 13:17N 46°50' E 031°57'14841010.3
2017-Oct-20 13:17N 44°38' E 033°32'144619491.5
2017-Oct-20 13:12N 41°02' E 001°03'13806988.1
2017-Oct-20 13:01N 46°56' E 031°57'478617230450.7
2017-Oct-20 13:01N 38°58' W 076°29'1039737430652.8
2017-Oct-20 13:01N 01°12' E 103°36'1139440.8
2017-Oct-20 13:00N 01°17' E 103°46'67546078728.4
2017-Oct-20 13:00N 38°41' W 009°13'13872496243.8
2017-Oct-20 13:00N 44°51' E 020°38'7302628172.4
2017-Oct-20 13:00N 44°44' E 037°47'72364341791.0
2017-Oct-20 13:00N 37°52' W 122°29'687353144.1
2017-Oct-20 13:00N 49°18' W 123°08'1760905141.5
2017-Oct-20 13:00N 29°33' W 095°02'63464569318.9
2017-Oct-20 13:00N 45°09' E 036°34'71614296574.4
2017-Oct-20 13:00N 37°47' W 122°23'69184150719.9
2017-Oct-20 13:00N 37°56' E 023°39'47331002363.3
2017-Oct-20 12:59N 22°47' E 113°22'41141645483.2
2017-Oct-20 12:59S 38°20' E 144°45'140608436168.2
2017-Oct-20 12:59N 38°58' W 076°29'51191316312.6
2017-Oct-20 12:59N 44°44' E 037°47'1591572838.2
2017-Oct-20 12:59N 39°32' E 002°43'1353487132.9
2017-Oct-20 12:59N 46°56' E 031°57'1400240021.3
2017-Oct-20 12:58N 68°04' E 013°32'1406460175.7
2017-Oct-20 12:58N 46°50' E 031°57'010.7
2017-Oct-20 12:56N 46°50' E 031°57'132754891.8
2017-Oct-20 12:55N 66°10' E 012°32'90330374.0
2017-Oct-20 12:53N 52°12' E 001°35'345899576.5
2017-Oct-20 12:51N 36°53' W 076°22'10440167786.0
2017-Oct-20 12:47N 01°15' E 103°51'597748459.8
2017-Oct-20 12:40N 66°24' E 013°08'124211121.7
2017-Oct-20 12:33N 47°45' W 003°21'323373210.5
2017-Oct-20 12:31N 38°58' W 076°29'1040018720817.9
2017-Oct-20 12:30N 01°13' E 103°39'1762412.7
2017-Oct-20 12:30N 01°17' E 103°56'67648116408.6
2017-Oct-20 12:30N 38°41' W 009°13'13874992492.3
2017-Oct-20 12:30N 44°51' E 020°38'528219014030.7
2017-Oct-20 12:30N 01°13' E 103°43'44808063703.8
2017-Oct-20 12:30N 44°43' E 037°48'659011862665.1
2017-Oct-20 12:30N 49°18' W 123°08'687824002.8
2017-Oct-20 12:30N 37°52' W 122°29'1458403703.8
2017-Oct-20 12:30N 29°33' W 095°02'48645837028.3
2017-Oct-20 12:30N 39°32' E 002°38'972217499005.1
2017-Oct-20 12:30S 38°20' E 144°45'720425935857.2
2017-Oct-20 12:30N 37°47' W 122°23'52833803719.3
2017-Oct-20 12:30N 66°24' E 013°08'1751700366.9
2017-Oct-20 12:30N 37°56' E 023°39'653335993.7
2017-Oct-20 12:30N 46°56' E 031°57'4786783219.0
2017-Oct-20 12:29N 38°58' W 076°29'50501652877.0
2017-Oct-20 12:29N 45°09' E 036°34'5729350.9
2017-Oct-20 12:29N 44°44' E 037°47'1591818340.0
2017-Oct-20 12:29N 39°32' E 002°43'1353541259.0
2017-Oct-20 12:29N 46°56' E 031°57'1400252021.3
2017-Oct-20 12:28N 68°04' E 013°32'14061265484.3
2017-Oct-20 12:28N 46°50' E 031°57'1326198972.3
2017-Oct-20 12:28N 66°10' E 012°32'1222104707.9
2017-Oct-20 12:27N 47°45' W 003°21'1033464852.5
2017-Oct-20 12:27N 59°20' E 018°05'4016101107.2
2017-Oct-20 12:25N 36°53' W 076°22'9917177611.8
2017-Oct-20 12:21N 22°44' E 113°26'426747706.1
2017-Oct-20 12:16N 46°50' E 031°57'122410513.5
2017-Oct-20 12:09N 52°23' E 001°40'337423957.0
2017-Oct-20 12:01N 38°58' W 076°29'21027568111.7
2017-Oct-20 12:00N 49°18' W 123°08'778328017022.0
2017-Oct-20 12:00N 01°12' E 103°42'67548105005.5
2017-Oct-20 12:00N 38°41' W 009°13'13872496253.2
2017-Oct-20 12:00N 44°51' E 020°38'44275312298.5
2017-Oct-20 12:00N 36°53' W 076°22'99192746847.7
2017-Oct-20 12:00N 22°44' E 113°28'57812312515.5
2017-Oct-20 12:00N 39°31' E 002°38'16571988898.1
2017-Oct-20 12:00N 66°24' E 013°08'15461112973.5
2017-Oct-20 12:00N 44°44' E 037°47'756340216.9
2017-Oct-20 12:00N 37°56' E 023°39'653335995.0
2017-Oct-20 12:00N 46°56' E 031°57'84681905397.4
2017-Oct-20 11:59S 38°20' E 144°45'1406010123398.9
2017-Oct-20 11:59N 38°58' W 076°29'47891014219.8
2017-Oct-20 11:59N 46°50' E 031°57'275197873.1
2017-Oct-20 11:59N 44°44' E 037°47'15911909461.6
2017-Oct-20 11:59N 39°32' E 002°43'1353487132.1
2017-Oct-20 11:59N 46°56' E 031°57'121965501.7
2017-Oct-20 11:58N 52°27' E 001°43'53281009501.7
2017-Oct-20 11:57N 37°52' W 122°29'71071.9
2017-Oct-20 11:57N 37°47' W 122°23'5242202902.7
2017-Oct-20 11:55N 68°04' E 013°32'140636158.1
2017-Oct-20 11:53N 46°50' E 031°57'2186071.0
2017-Oct-20 11:51N 45°09' E 036°34'150146189.3
2017-Oct-20 11:49N 66°10' E 012°32'4855349568.8
2017-Oct-20 11:48N 29°33' W 095°02'443291699.8
2017-Oct-20 11:45N 47°45' W 003°21'323313257.9
2017-Oct-20 11:31N 38°58' W 076°29'21027568111.7
2017-Oct-20 11:30N 49°18' W 123°08'658823718319.6
2017-Oct-20 11:30N 44°44' E 037°47'21373846123.1
2017-Oct-20 11:30N 38°41' W 009°13'13871664157.9
2017-Oct-20 11:30N 44°51' E 020°38'89546447215.5
2017-Oct-20 11:30S 38°20' E 144°45'103617460274.3
2017-Oct-20 11:30N 27°55' W 015°24'31355642857.5
2017-Oct-20 11:30N 36°53' W 076°22'992111905025.6
2017-Oct-20 11:30N 22°45' E 113°31'14001260235.8
2017-Oct-20 11:30N 01°19' E 104°05'56532907351.6
2017-Oct-20 11:30N 59°20' E 018°05'572620614807.8
2017-Oct-20 11:30N 37°47' W 122°23'72372605212.2
2017-Oct-20 11:30N 44°44' E 037°47'756907245.2
2017-Oct-20 11:30N 37°56' E 023°39'648333309.6
2017-Oct-20 11:30N 46°50' E 031°57'622650.0
2017-Oct-20 11:30N 46°56' E 031°57'220793186.3
2017-Oct-20 11:30N 45°09' E 036°34'5050865794.2
2017-Oct-20 11:29N 38°58' W 076°29'3680576032.6
2017-Oct-20 11:29N 39°32' E 002°43'1353405944.0
2017-Oct-20 11:29N 46°56' E 031°57'1400252022.6
2017-Oct-20 11:28N 68°04' E 013°32'1758253082.3
2017-Oct-20 11:28N 39°30' E 002°38'16405904195.2
2017-Oct-20 11:28N 66°10' E 012°32'2023844.3
2017-Oct-20 11:28N 66°24' E 013°07'5280543073.0
2017-Oct-20 11:27N 37°52' W 122°29'5328767254.1
2017-Oct-20 11:27N 52°27' E 001°44'459218637.0
2017-Oct-20 11:12N 29°33' W 095°02'10795614.6
2017-Oct-20 11:01N 38°58' W 076°29'47898620479.7
2017-Oct-20 11:00N 46°50' E 031°57'275989365.6
2017-Oct-20 11:00N 44°44' E 037°47'15472784383.1
2017-Oct-20 11:00N 66°23' E 013°02'13172370245.2
2017-Oct-20 11:00N 44°51' E 020°38'7311315587.6
2017-Oct-20 11:00N 44°43' E 037°48'520618742508.9
2017-Oct-20 11:00N 36°53' W 076°22'1401225220898.2
2017-Oct-20 11:00S 38°20' E 144°44'76113044300.1
2017-Oct-20 11:00N 49°18' W 123°08'49588925090.1
2017-Oct-20 11:00N 38°41' W 009°13'18792254796.8
2017-Oct-20 11:00N 46°56' E 031°57'896537578.8
2017-Oct-20 11:00N 59°20' E 018°05'57265153705.4
2017-Oct-20 11:00N 37°47' W 122°23'69182264027.5
2017-Oct-20 11:00N 37°56' E 023°39'1272654120.1
2017-Oct-20 11:00N 52°29' E 001°45'3376607706.2
2017-Oct-20 10:59N 38°58' W 076°29'3680490693.7
2017-Oct-20 10:59N 39°32' E 002°43'1353541257.5
2017-Oct-20 10:59N 46°56' E 031°57'1400229110.0
2017-Oct-20 10:58N 68°04' E 013°32'11715538.1
2017-Oct-20 10:58N 66°10' E 012°32'505118185312.5
2017-Oct-20 10:58N 22°44' E 113°34'7023936441.1
2017-Oct-20 10:57N 27°44' W 015°43'54191950782.6
2017-Oct-20 10:57N 37°52' W 122°29'572895918.9
2017-Oct-20 10:54N 41°07' E 001°09'5873094.7
2017-Oct-20 10:42N 50°46' W 001°07'6392500247.1
2017-Oct-20 10:41N 01°15' E 103°51'614492163.4
2017-Oct-20 10:37N 52°02' E 004°21'5538229171.4
2017-Oct-20 10:36N 32°45' W 117°53'552682548.2
2017-Oct-20 10:32S 23°00' W 044°19'4181167225.5
2017-Oct-20 10:31N 38°58' W 076°29'21027568112.2
2017-Oct-20 10:31N 49°18' W 123°08'776713979776.2
2017-Oct-20 10:30N 01°16' E 103°57'448616150835.6
2017-Oct-20 10:30N 44°42' E 037°50'21397701406.9
2017-Oct-20 10:30N 38°41' W 009°13'13871664163.6
2017-Oct-20 10:30N 44°51' E 020°38'44277968447.7
2017-Oct-20 10:30N 36°53' W 076°22'1401225221189.4
2017-Oct-20 10:30S 38°20' E 144°45'103649327194.8
2017-Oct-20 10:30N 27°55' W 015°26'25291300753.5
2017-Oct-20 10:30N 46°56' E 031°57'12181461860.6
2017-Oct-20 10:30N 52°29' E 001°45'560910095500.8
2017-Oct-20 10:30N 22°44' E 113°37'579010421262.7
2017-Oct-20 10:30N 39°30' E 002°37'58547024566.2
2017-Oct-20 10:30N 32°45' W 117°53'588321179665.9
2017-Oct-20 10:30N 59°20' E 018°05'57263435803.6
2017-Oct-20 10:30N 37°47' W 122°23'69182767144.7
2017-Oct-20 10:30N 37°56' E 023°39'1752420388.5
2017-Oct-20 10:29N 66°22' E 012°53'1033309813.4
2017-Oct-20 10:29N 50°47' W 001°07'328211816538.1
2017-Oct-20 10:29N 38°58' W 076°29'41811003333.9
2017-Oct-20 10:29S 23°00' W 044°19'46771870897.5
2017-Oct-20 10:29N 39°32' E 002°43'1353194852.5
2017-Oct-20 10:28N 46°56' E 031°57'14001008089.3
2017-Oct-20 10:28N 68°04' E 013°32'11714466.4
2017-Oct-20 10:28N 66°10' E 012°32'1326251333.1
2017-Oct-20 10:28N 46°50' E 031°57'68691545596.4
2017-Oct-20 10:27N 37°52' W 122°29'716117876.9
2017-Oct-20 10:03N 45°09' E 036°34'5050111541.0
2017-Oct-20 10:01N 38°58' W 076°29'364013103811.8
2017-Oct-20 10:01N 66°21' E 012°46'15532796148.3
2017-Oct-20 10:00N 44°42' E 037°50'21392567120.0
2017-Oct-20 10:00N 38°41' W 009°13'13874992484.6
2017-Oct-20 10:00N 44°51' E 020°38'7331318613.4
2017-Oct-20 10:00N 44°42' E 037°50'81147302769.2
2017-Oct-20 10:00S 38°20' E 144°45'33222989676.0
2017-Oct-20 10:00N 01°15' E 103°55'94703409180.2
2017-Oct-20 10:00N 29°33' W 095°02'51643098383.7
2017-Oct-20 10:00N 59°20' E 018°05'572610307403.9
2017-Oct-20 10:00N 37°47' W 122°23'71612577985.7
2017-Oct-20 10:00N 45°09' E 036°34'72428690526.7
2017-Oct-20 10:00N 32°44' W 117°48'5848809733.0
2017-Oct-20 09:59N 39°31' E 002°36'36753307313.3
2017-Oct-20 09:59N 38°58' W 076°29'3680662436.5
2017-Oct-20 09:59N 39°32' E 002°43'1755180490.3
2017-Oct-20 09:58N 68°04' E 013°32'59971199305.5
2017-Oct-20 09:58N 01°17' E 103°57'59973084319.4
2017-Oct-20 09:58N 66°10' E 012°32'885212474.5
2017-Oct-20 09:58N 52°29' E 001°45'12184385583.8
2017-Oct-20 09:58N 46°56' E 031°57'4279320902.0
2017-Oct-20 09:57N 22°43' E 113°40'4279112450.3
2017-Oct-20 09:55N 46°50' E 031°57'1438235278.7
2017-Oct-20 09:54N 47°45' W 003°21'143649250.6
2017-Oct-20 09:52N 46°56' E 031°57'4874389911.8
2017-Oct-20 09:52N 36°53' W 076°22'2200293342.5
2017-Oct-20 09:51N 37°52' W 122°29'545322511.4
2017-Oct-20 09:37N 52°05' E 004°23'82987780.7
2017-Oct-20 09:36N 38°42' W 000°31'355137821.6
2017-Oct-20 09:30N 38°58' W 076°29'355612800763.3
2017-Oct-20 09:30N 38°30' W 000°31'17606336958.7
2017-Oct-20 09:30N 44°42' E 037°50'732659153.4
2017-Oct-20 09:30N 44°51' E 020°38'7331318739.9
2017-Oct-20 09:30N 44°42' E 037°50'659211866281.6
2017-Oct-20 09:30N 49°18' W 123°08'49584462546.2
2017-Oct-20 09:30N 38°41' W 009°13'67664871317.3
2017-Oct-20 09:30N 01°15' E 103°57'311741.8
2017-Oct-20 09:30N 01°15' E 103°54'94716818830.5
2017-Oct-20 09:30N 29°33' W 095°02'1035745325.6
2017-Oct-20 09:30N 36°53' W 076°22'401614458350.6
2017-Oct-20 09:30N 59°20' E 018°05'57264122964.4
2017-Oct-20 09:30N 37°47' W 122°23'2161199431.3
2017-Oct-20 09:29N 38°58' W 076°29'3680552030.8
2017-Oct-20 09:29N 39°32' E 002°43'1353194853.2
2017-Oct-20 09:28N 46°56' E 031°57'14001008089.3
2017-Oct-20 09:28N 68°04' E 013°32'11714983.1
2017-Oct-20 09:28N 66°10' E 012°32'1321339608.0
2017-Oct-20 09:28N 46°56' E 031°57'64521.0
2017-Oct-20 09:28N 46°50' E 031°57'68691301554.8
2017-Oct-20 09:27N 37°52' W 122°29'6919830236.4
2017-Oct-20 09:27N 37°56' E 023°39'4753228123.0
2017-Oct-20 09:25N 22°41' E 113°41'26185.8
2017-Oct-20 09:17N 23°05' E 113°29'547039784.9
2017-Oct-20 09:09N 52°06' E 004°25'134235789.2
2017-Oct-20 09:07N 45°09' E 036°34'72432607529.8
2017-Oct-20 09:06N 32°42' W 117°45'5410142173.6
2017-Oct-20 09:04N 52°29' E 001°44'77865105.9
2017-Oct-20 09:03N 39°32' E 002°34'160033890.5
2017-Oct-20 09:01N 44°42' E 037°50'659211866389.9
2017-Oct-20 09:01N 49°18' W 123°08'49584462542.0
2017-Oct-20 09:00N 38°41' W 009°13'13871664161.5
2017-Oct-20 09:00N 44°51' E 020°38'44275312298.5
2017-Oct-20 09:00N 36°53' W 076°22'34611038187.4
2017-Oct-20 09:00N 52°29' E 001°44'45913305841.6
2017-Oct-20 09:00N 29°33' W 095°02'1452746913.3
2017-Oct-20 09:00N 37°47' W 122°23'52791461757.1
2017-Oct-20 09:00N 47°43' W 003°21'14371034588.6
2017-Oct-20 09:00N 46°56' E 031°57'1360349628.8
2017-Oct-20 08:59N 39°32' E 002°34'614711064125.8
2017-Oct-20 08:59N 01°18' E 103°58'61453687142.3
2017-Oct-20 08:59N 52°06' E 004°26'34916284041.9
2017-Oct-20 08:59N 38°58' W 076°29'3680552030.3
2017-Oct-20 08:59N 39°32' E 002°43'1353194853.4
2017-Oct-20 08:58N 46°56' E 031°57'1400840071.8
2017-Oct-20 08:58N 68°04' E 013°32'993217878121.5
2017-Oct-20 08:58S 38°20' E 144°44'8465743294.3
2017-Oct-20 08:58N 46°50' E 031°57'21839219.3
2017-Oct-20 08:57N 45°09' E 036°34'71618592815.7
2017-Oct-20 08:57N 37°52' W 122°29'5725404094.8
2017-Oct-20 08:56N 59°20' E 018°05'4825694800.4
2017-Oct-20 08:56N 23°05' E 113°29'5027278418.6
2017-Oct-20 08:55N 66°10' E 012°32'54671968253.6
2017-Oct-20 08:55N 32°42' W 117°47'20445068.2
2017-Oct-20 08:31N 38°58' W 076°29'1041418744815.9
2017-Oct-20 08:30N 01°16' E 103°57'480117285388.0
2017-Oct-20 08:30N 46°56' E 031°57'18796766158.9
2017-Oct-20 08:30N 38°41' W 009°14'551661100.8
2017-Oct-20 08:30N 39°30' E 002°33'8663117986.6
2017-Oct-20 08:30N 44°51' E 020°38'588010584835.5
2017-Oct-20 08:30N 49°18' W 123°08'47628572042.7
2017-Oct-20 08:30N 47°43' W 003°21'44331063821.1
2017-Oct-20 08:30N 29°33' W 095°02'1452522839.3
2017-Oct-20 08:30N 37°47' W 122°23'54543272606.0
2017-Oct-20 08:30N 52°08' E 004°28'1178847960.7
2017-Oct-20 08:30N 37°56' E 023°39'1302234393.9
2017-Oct-20 08:29N 59°20' E 018°05'39072813331.5
2017-Oct-20 08:29N 38°58' W 076°29'2048491448.0
2017-Oct-20 08:29N 32°41' W 117°52'58592636514.7
2017-Oct-20 08:29N 39°32' E 002°43'1755180490.3
2017-Oct-20 08:28N 68°04' E 013°32'1400458237.4
2017-Oct-20 08:28N 46°56' E 031°57'22079349.8
2017-Oct-20 08:28N 45°09' E 036°34'81892680043.8
2017-Oct-20 08:28S 38°20' E 144°45'84652176820.3
2017-Oct-20 08:28N 46°50' E 031°57'68691301553.7
2017-Oct-20 08:27N 37°52' W 122°29'5267133530.7
2017-Oct-20 08:25N 66°10' E 012°32'149620711.9
2017-Oct-20 08:21N 43°33' W 005°42'3262114020.0
2017-Oct-20 08:19N 36°53' W 076°22'399147580.4
2017-Oct-20 08:14N 43°29' E 010°17'93818456.5
2017-Oct-20 08:11N 46°50' E 031°57'12289801.1
2017-Oct-20 08:03N 52°06' E 001°32'151233603.2
2017-Oct-20 08:01N 44°43' E 037°49'512118436434.4
2017-Oct-20 08:01N 38°58' W 076°29'1041037477405.4
2017-Oct-20 08:00N 01°16' E 103°53'448516145762.0
2017-Oct-20 08:00N 44°42' E 037°48'21403852898.2
2017-Oct-20 08:00N 38°41' W 009°17'13892500965.6
2017-Oct-20 08:00N 44°51' E 020°38'44273187375.8
2017-Oct-20 08:00N 36°53' W 076°22'2180784919.9
2017-Oct-20 08:00N 49°18' W 123°08'621422369574.7
2017-Oct-20 08:00N 46°56' E 031°57'60744373237.8
2017-Oct-20 08:00N 29°33' W 095°02'1452435700.3
2017-Oct-20 08:00N 37°47' W 122°23'585610540960.1
2017-Oct-20 08:00N 39°29' E 002°32'556400425.0
2017-Oct-20 08:00N 47°42' W 003°22'13254771608.6
2017-Oct-20 08:00N 37°56' E 023°39'1302275757.5
2017-Oct-20 07:59N 59°20' E 018°05'630453451.6
2017-Oct-20 07:59N 52°10' E 004°27'61423684910.7
2017-Oct-20 07:59N 01°13' E 103°49'1040918736311.8
2017-Oct-20 07:59N 38°58' W 076°29'3656243718.9
2017-Oct-20 07:58N 68°04' E 013°32'1400560049.6
2017-Oct-20 07:58N 46°56' E 031°57'1321279668.1
2017-Oct-20 07:58N 66°10' E 012°32'99304468476.0
2017-Oct-20 07:58S 38°20' E 144°45'7203810339.9
2017-Oct-20 07:57N 37°52' W 122°29'5864254327.9
2017-Oct-20 07:56N 39°32' E 002°43'135264886.8
2017-Oct-20 07:55N 46°50' E 031°57'93742713.7
2017-Oct-20 07:53N 43°31' E 010°17'62314205.8
2017-Oct-20 07:51N 52°06' E 001°32'122781832.7
2017-Oct-20 07:50N 46°50' E 031°57'18855866.3
2017-Oct-20 07:30N 38°38' W 009°21'13931003079.0
2017-Oct-20 07:30N 44°51' E 020°38'7802808451.5
2017-Oct-20 07:30N 52°12' E 004°26'484617445594.4
2017-Oct-20 07:30N 49°18' W 123°08'55289950129.0
2017-Oct-20 07:30N 43°34' E 010°17'943933980537.4
2017-Oct-20 07:30S 38°20' E 144°44'846610159284.0
2017-Oct-20 07:30N 46°50' E 031°56'63714.8
2017-Oct-20 07:30N 46°56' E 031°57'277332628.0
2017-Oct-20 07:30N 44°44' E 037°47'64177700401.0
2017-Oct-20 07:30N 29°33' W 095°02'1452580934.2
2017-Oct-20 07:30N 37°47' W 122°23'72374342002.2
2017-Oct-20 07:30N 44°44' E 037°47'756907186.1
2017-Oct-20 07:30N 37°56' E 023°39'1302260438.7
2017-Oct-20 07:29N 59°20' E 018°05'1035413800.4
2017-Oct-20 07:29N 47°43' W 003°21'32342910829.3
2017-Oct-20 07:29N 38°58' W 076°29'12537465.2
2017-Oct-20 07:29N 36°53' W 076°22'37321119457.3
2017-Oct-20 07:29N 39°32' E 002°43'1352973537.9
2017-Oct-20 07:29N 46°50' E 031°57'1406194697.2
2017-Oct-20 07:28N 68°04' E 013°32'5239290160.0
2017-Oct-20 07:27N 37°52' W 122°29'6864202557.5
2017-Oct-20 07:25N 46°56' E 031°57'1321250230.3
2017-Oct-20 07:25N 66°10' E 012°32'599560964.7
2017-Oct-20 07:19N 01°15' E 103°50'14577.9
2017-Oct-20 07:18N 01°17' E 104°04'1041936702.4
2017-Oct-20 07:01N 38°58' W 076°29'21023784063.3
2017-Oct-20 07:00N 49°18' W 123°08'48455813861.3
2017-Oct-20 07:00N 52°12' E 004°25'10053616914.6
2017-Oct-20 07:00N 38°35' W 009°28'14002519203.0
2017-Oct-20 07:00N 44°51' E 020°38'44275312298.5
2017-Oct-20 07:00N 36°53' W 076°22'39884785753.2
2017-Oct-20 07:00N 43°36' E 010°17'9361684783.7
2017-Oct-20 07:00N 46°50' E 031°57'48042470813.0
2017-Oct-20 07:00N 01°18' E 104°05'44948089041.4
2017-Oct-20 07:00N 44°44' E 037°47'641711550592.4
2017-Oct-20 07:00N 29°33' W 095°02'1452475308.5
2017-Oct-20 07:00N 37°47' W 122°23'69182767144.7
2017-Oct-20 07:00N 37°56' E 023°39'7562721548.1
2017-Oct-20 07:00N 44°44' E 037°47'277332711.7
2017-Oct-20 07:00N 46°56' E 031°57'896248029.9
2017-Oct-20 06:59N 59°20' E 018°05'1034413799.2
2017-Oct-20 06:59N 47°43' W 003°21'32489662.0
2017-Oct-20 06:59N 52°05' E 001°32'755169904.7
2017-Oct-20 06:59N 39°32' E 002°43'1755210572.1
2017-Oct-20 06:58N 68°04' E 013°32'1400630055.8
2017-Oct-20 06:58N 46°56' E 031°57'1321264132.3
2017-Oct-20 06:58N 66°10' E 012°32'5267498983.7
2017-Oct-20 06:57N 37°52' W 122°29'6870277871.8
2017-Oct-20 06:56N 46°50' E 031°57'148559.4
2017-Oct-20 06:40N 44°37' E 033°31'1341106.2
2017-Oct-20 06:33N 45°09' E 036°35'210360086.0
2017-Oct-20 06:31N 38°33' W 009°38'49478904363.6
2017-Oct-20 06:30N 49°18' W 123°08'777127976473.8
2017-Oct-20 06:30N 01°15' E 103°52'52883172501.6
2017-Oct-20 06:30N 44°51' E 020°38'44277968447.7
2017-Oct-20 06:30N 36°53' W 076°22'1044918807804.4
2017-Oct-20 06:30N 01°17' E 104°02'48025762722.8
2017-Oct-20 06:30N 46°50' E 031°57'275123664.1
2017-Oct-20 06:30N 44°44' E 037°47'275494209.5
2017-Oct-20 06:30N 46°50' E 031°57'607710938581.8
2017-Oct-20 06:30N 29°33' W 095°02'64171283400.2
2017-Oct-20 06:30N 44°44' E 037°47'81187305939.4
2017-Oct-20 06:30S 38°20' E 144°45'102511604516.6
2017-Oct-20 06:29N 47°43' W 003°21'6211117444.0
2017-Oct-20 06:29N 43°39' E 010°16'39204704145.4
2017-Oct-20 06:29N 38°58' W 076°29'50512597466.0
2017-Oct-20 06:29N 45°09' E 036°35'1539395747.4
2017-Oct-20 06:29N 39°32' E 002°43'1755191429.1
2017-Oct-20 06:28N 68°04' E 013°32'1400630055.2
2017-Oct-20 06:28N 46°56' E 031°57'1321264131.7
2017-Oct-20 06:28N 66°10' E 012°32'1320339536.8
2017-Oct-20 06:28N 46°56' E 031°57'65341268.1
2017-Oct-20 06:27N 37°56' E 023°39'136644299.6
2017-Oct-20 06:25N 43°36' W 005°28'5331319842.1
2017-Oct-20 06:24N 37°47' W 122°23'5726763512.4
2017-Oct-20 06:23N 59°20' E 018°05'5725157319.4
2017-Oct-20 06:21N 37°52' W 122°29'21646271.6
2017-Oct-20 06:01N 38°58' W 076°29'104139371873.1
2017-Oct-20 06:00N 01°14' E 103°54'679524462456.4
2017-Oct-20 06:00N 38°30' W 009°48'14161699687.2
2017-Oct-20 06:00N 44°51' E 020°38'44277968447.7
2017-Oct-20 06:00N 36°53' W 076°22'1401216814126.2
2017-Oct-20 06:00S 38°20' E 144°45'72035186175.7
2017-Oct-20 06:00N 37°52' W 122°29'687494401.7
2017-Oct-20 06:00N 49°18' W 123°08'658811859143.9
2017-Oct-20 06:00N 44°44' E 037°47'44892693448.9
2017-Oct-20 06:00N 01°14' E 103°55'48001329104.0
2017-Oct-20 06:00N 46°50' E 031°57'649583668.7
2017-Oct-20 06:00N 37°56' E 023°39'1302334848.4
2017-Oct-20 05:59N 59°20' E 018°05'1034310348.4
2017-Oct-20 05:59N 47°43' W 003°21'32342910833.2
2017-Oct-20 05:59N 38°58' W 076°29'4789783674.0
2017-Oct-20 05:59N 46°50' E 031°57'13522433420.7
2017-Oct-20 05:59N 39°32' E 002°43'1755203779.3
2017-Oct-20 05:58N 68°04' E 013°32'1400840075.2
2017-Oct-20 05:58N 46°56' E 031°57'027.5
2017-Oct-20 05:58N 46°56' E 031°57'1238108683.5
2017-Oct-20 05:57N 52°03' E 001°11'1523456923.2
2017-Oct-20 05:57N 44°44' E 037°47'6417140861.0
2017-Oct-20 05:54N 29°33' W 095°02'1452871399.6
2017-Oct-20 05:54N 37°47' W 122°23'5269152983.7
2017-Oct-20 05:52N 66°10' E 012°32'15018860.1
2017-Oct-20 05:42N 45°09' E 036°35'1375.1
2017-Oct-20 05:31N 45°21' E 036°30'5039385994.0
2017-Oct-20 05:31N 38°58' W 076°29'33594030376.0
2017-Oct-20 05:30N 52°03' E 001°11'9423391117.3
2017-Oct-20 05:30N 38°28' W 009°60'680124483938.0
2017-Oct-20 05:30N 01°15' E 103°51'47965755524.8
2017-Oct-20 05:30N 46°50' E 031°56'12009.7
2017-Oct-20 05:30N 46°50' E 031°57'68694945766.3
2017-Oct-20 05:30N 37°52' W 122°29'687353144.1
2017-Oct-20 05:30N 49°18' W 123°08'658823718317.2
2017-Oct-20 05:30N 44°44' E 037°47'64174620240.4
2017-Oct-20 05:30N 29°33' W 095°02'1452580932.6
2017-Oct-20 05:30N 37°47' W 122°23'2197878633.4
2017-Oct-20 05:30N 36°53' W 076°22'520518738399.0
2017-Oct-20 05:30N 44°44' E 037°47'81184870625.8
2017-Oct-20 05:30S 38°20' E 144°45'94963418644.3
2017-Oct-20 05:29N 59°20' E 018°05'1035372420.2
2017-Oct-20 05:29N 47°43' W 003°21'1437646578.5
2017-Oct-20 05:29N 46°56' E 031°57'1353243571.1
2017-Oct-20 05:29N 39°32' E 002°43'15361842932.0
2017-Oct-20 05:29N 45°21' E 036°30'1559207840.5
2017-Oct-20 05:28N 68°04' E 013°32'1400720063.8
2017-Oct-20 05:28N 46°56' E 031°57'1321226398.6
2017-Oct-20 05:28N 66°10' E 012°32'599598547.1
2017-Oct-20 05:24N 01°15' E 103°51'10409693924.1
2017-Oct-20 05:23N 38°58' W 076°29'5051169927.7
2017-Oct-20 05:22N 45°09' E 036°35'14105.6
2017-Oct-20 05:14N 45°22' E 036°38'628886065.3
2017-Oct-20 05:09S 23°01' W 044°19'394426889.4
2017-Oct-20 05:01N 34°22' W 076°32'22671632360.0
2017-Oct-20 05:01N 49°18' W 123°08'58802646209.6
2017-Oct-20 05:00N 44°51' E 020°38'673807781.0
2017-Oct-20 05:00N 45°19' E 036°31'45563280270.7
2017-Oct-20 05:00N 01°15' E 103°50'787028333620.4
2017-Oct-20 05:00N 37°52' W 122°29'72363256337.0
2017-Oct-20 05:00N 44°44' E 037°47'631811372603.9
2017-Oct-20 05:00S 23°00' W 044°19'437915764226.9
2017-Oct-20 05:00N 29°33' W 095°02'10351863314.0
2017-Oct-20 05:00N 36°53' W 076°22'21972635892.6
2017-Oct-20 05:00N 37°47' W 122°23'69182075358.5
2017-Oct-20 05:00N 37°56' E 023°39'7561360780.9
2017-Oct-20 05:00N 44°44' E 037°47'21781568217.3
2017-Oct-20 05:00N 38°33' W 010°05'1669546188.2
2017-Oct-20 04:59N 59°20' E 018°05'1034465523.7
2017-Oct-20 04:59N 47°43' W 003°21'32342910830.0
2017-Oct-20 04:59N 38°58' W 076°29'47864307704.8
2017-Oct-20 04:59N 46°56' E 031°57'1353256390.4
2017-Oct-20 04:59N 39°32' E 002°43'1542158586.6
2017-Oct-20 04:58N 45°22' E 036°38'216129540.0
2017-Oct-20 04:58N 46°56' E 031°57'1321250230.6
2017-Oct-20 04:58N 66°10' E 012°32'99302383188.9
2017-Oct-20 04:58S 38°20' E 144°45'33255985255.8
2017-Oct-20 04:58N 01°15' E 103°50'5994157513.9
2017-Oct-20 04:55N 68°04' E 013°32'140657522.0
2017-Oct-20 04:54N 46°50' E 031°57'21839231.9
2017-Oct-20 04:54N 45°09' E 036°35'4554116260.6
2017-Oct-20 04:51N 01°17' E 103°58'1050098698.1
2017-Oct-20 04:45N 34°23' W 076°33'499928339.6
2017-Oct-20 04:34N 46°50' E 031°57'478978018.3
2017-Oct-20 04:31N 38°58' W 076°29'43512237603.2
2017-Oct-20 04:30N 44°51' E 020°38'52926350119.9
2017-Oct-20 04:30N 01°16' E 103°58'48001440111.9
2017-Oct-20 04:30N 46°50' E 031°57'275988350.8
2017-Oct-20 04:30N 44°44' E 037°47'15231827674.4
2017-Oct-20 04:30N 52°03' E 001°11'457316463820.9
2017-Oct-20 04:30N 29°33' W 095°02'1035931657.0
2017-Oct-20 04:30N 36°53' W 076°22'21971129668.3
2017-Oct-20 04:30N 37°47' W 122°23'715012870223.0
2017-Oct-20 04:30N 45°17' E 036°29'6438463.4
2017-Oct-20 04:30N 44°44' E 037°47'277499086.8
2017-Oct-20 04:30N 46°56' E 031°57'896230308.0
2017-Oct-20 04:29N 59°20' E 018°05'9013243836.8
2017-Oct-20 04:29N 46°50' E 031°57'1438575253.3
2017-Oct-20 04:29N 47°43' W 003°21'32342910830.4
2017-Oct-20 04:29N 38°58' W 076°29'47868615401.7
2017-Oct-20 04:29N 46°56' E 031°57'1353256389.7
2017-Oct-20 04:29N 39°32' E 002°43'600539922.0
2017-Oct-20 04:29N 38°41' W 010°07'68111114480.5
2017-Oct-20 04:28N 01°15' E 103°54'59963597796.6
2017-Oct-20 04:28N 68°04' E 013°32'599410789705.1
2017-Oct-20 04:28N 01°15' E 103°50'88501027786.5
2017-Oct-20 04:28S 23°01' W 044°19'98001260009.1
2017-Oct-20 04:27S 38°20' E 144°45'8587835468.5
2017-Oct-20 04:27N 37°56' E 023°39'174321560.8
2017-Oct-20 04:22N 66°10' E 012°32'5267526704.6
2017-Oct-20 04:21N 37°52' W 122°29'223379574.7
2017-Oct-20 04:20N 34°25' W 076°36'525918931164.4
2017-Oct-20 04:20N 45°09' E 036°35'505015906.8
2017-Oct-20 04:01N 38°58' W 076°29'272326422.9
2017-Oct-20 04:00N 34°26' W 076°39'1050118900940.0
2017-Oct-20 04:00N 01°16' E 103°53'52886345064.7
2017-Oct-20 04:00N 44°51' E 020°38'52919523718.8
2017-Oct-20 04:00N 01°15' E 103°56'776827965265.2
2017-Oct-20 04:00N 49°18' W 123°08'687353147.2
2017-Oct-20 04:00N 37°52' W 122°29'72365210139.2
2017-Oct-20 04:00N 44°44' E 037°47'64173850197.5
2017-Oct-20 04:00N 29°33' W 095°02'1452580932.6
2017-Oct-20 04:00N 37°47' W 122°23'59063037443.7
2017-Oct-20 04:00S 23°01' W 044°19'63187582026.5
2017-Oct-20 04:00N 44°44' E 037°47'277998186.8
2017-Oct-20 04:00N 46°56' E 031°57'12381485579.1
2017-Oct-20 04:00N 52°03' E 001°11'31453783.8
2017-Oct-20 03:59N 47°43' W 003°21'32345821660.1
2017-Oct-20 03:59N 38°58' W 076°29'3680490693.7
2017-Oct-20 03:59N 39°32' E 002°43'1353695873.4
2017-Oct-20 03:59N 46°56' E 031°57'61541.9
2017-Oct-20 03:58N 46°50' E 031°57'1406562437.5
2017-Oct-20 03:58N 68°04' E 013°32'9932595942.9
2017-Oct-20 03:57S 38°20' E 144°45'140122654861.0
2017-Oct-20 03:57N 36°53' W 076°22'4877115508.7
2017-Oct-20 03:54N 46°50' E 031°57'90154070.1
2017-Oct-20 03:53N 59°20' E 018°05'43816594.5
2017-Oct-20 03:52N 66°10' E 012°32'183434208.5
2017-Oct-20 03:49N 38°53' W 010°06'6814235863.3
2017-Oct-20 03:47N 01°16' E 103°59'1041638107.9
2017-Oct-20 03:31N 38°58' W 076°29'21022522708.8
2017-Oct-20 03:30N 49°18' W 123°08'622022392417.8
2017-Oct-20 03:30N 46°50' E 031°57'50029003673.9
2017-Oct-20 03:30N 34°28' W 076°43'454016342247.0
2017-Oct-20 03:30N 44°51' E 020°38'52909521358.8
2017-Oct-20 03:30N 01°14' E 103°54'48001728099.4
2017-Oct-20 03:30N 46°56' E 031°58'48025762576.2
2017-Oct-20 03:30N 01°16' E 103°58'94665679853.8
2017-Oct-20 03:30N 29°33' W 095°02'45731646383.2
2017-Oct-20 03:30N 52°03' E 001°11'53209575315.7
2017-Oct-20 03:30N 37°47' W 122°23'69184150717.1
2017-Oct-20 03:30N 37°56' E 023°39'1302260437.6
2017-Oct-20 03:29N 59°20' E 018°05'56514068362.9
2017-Oct-20 03:29N 01°16' E 103°58'104159373175.3
2017-Oct-20 03:29N 38°58' W 076°29'323411643334.5
2017-Oct-20 03:29N 47°43' W 003°21'55774278.4
2017-Oct-20 03:29N 39°32' E 002°43'54301396380.4
2017-Oct-20 03:29N 49°07' W 123°05'659723750455.8
2017-Oct-20 03:29N 44°44' E 037°47'275109933.2
2017-Oct-20 03:28N 46°50' E 031°57'84653809437.0
2017-Oct-20 03:28S 38°20' E 144°45'99301489492.7
2017-Oct-20 03:28N 66°10' E 012°32'15471392225.7
2017-Oct-20 03:28N 44°44' E 037°47'52051703497.2
2017-Oct-20 03:28N 36°53' W 076°22'40691220636.1
2017-Oct-20 03:27S 23°01' W 044°19'59131520533.7
2017-Oct-20 03:27N 37°52' W 122°29'6864772250.0
2017-Oct-20 03:27N 46°56' E 031°57'546126675.0
2017-Oct-20 03:14N 28°24' W 080°37'559064297.6
2017-Oct-20 03:09N 44°38' E 033°32'493334151.5
2017-Oct-20 03:01N 38°58' W 076°29'270972988.3
2017-Oct-20 03:01N 34°28' W 076°47'50054504749.6
2017-Oct-20 03:00N 46°50' E 031°57'488438880.4
2017-Oct-20 03:00N 44°51' E 020°38'8863191307.3
2017-Oct-20 03:00N 52°03' E 001°11'344312393627.1
2017-Oct-20 03:00N 36°53' W 076°22'48742506674.9
2017-Oct-20 03:00N 46°56' E 031°57'19031712727.1
2017-Oct-20 03:00N 39°07' W 010°06'490017639158.3
2017-Oct-20 03:00N 49°18' W 123°08'17601267198.1
2017-Oct-20 03:00N 29°33' W 095°02'59421069594.1
2017-Oct-20 03:00N 37°56' E 023°39'6531175994.2
2017-Oct-20 03:00N 46°56' E 031°57'48022160847.2
2017-Oct-20 03:00N 01°16' E 103°57'46808424548.8
2017-Oct-20 03:00N 44°38' E 033°32'1051945860.7
2017-Oct-20 02:59N 59°20' E 018°05'1035372420.1
2017-Oct-20 02:59N 47°43' W 003°21'32342910830.4
2017-Oct-20 02:59N 38°58' W 076°29'3680662436.4
2017-Oct-20 02:59N 39°32' E 002°43'1591358024.1
2017-Oct-20 02:59N 44°44' E 037°47'275109929.2
2017-Oct-20 02:58N 46°50' E 031°57'54633277817.1
2017-Oct-20 02:58N 28°24' W 080°37'44534007404.4
2017-Oct-20 02:58N 68°04' E 013°32'1615232603.7
2017-Oct-20 02:58N 44°44' E 037°47'8118811774.2
2017-Oct-20 02:57S 38°20' E 144°45'72038643579.6
2017-Oct-20 02:57N 37°52' W 122°29'7982.6
2017-Oct-20 02:57N 37°47' W 122°23'5269160762.6
2017-Oct-20 02:55N 66°10' E 012°32'599015524.4
2017-Oct-20 02:32N 01°17' E 103°46'5281267756.1
2017-Oct-20 02:31N 44°51' E 020°38'58807056550.7
2017-Oct-20 02:30N 49°18' W 123°08'77662795675.4
2017-Oct-20 02:30N 01°17' E 103°56'94672130138.8
2017-Oct-20 02:30N 29°33' W 095°02'10351242213.0
2017-Oct-20 02:30N 36°53' W 076°22'21971317946.3
2017-Oct-20 02:30N 37°47' W 122°23'787914182337.4
2017-Oct-20 02:30N 01°17' E 103°46'47921725179.1
2017-Oct-20 02:30N 46°56' E 031°57'896214954.2
2017-Oct-20 02:29N 59°20' E 018°05'1035413800.4
2017-Oct-20 02:29N 47°43' W 003°21'32342910829.3
2017-Oct-20 02:29N 38°58' W 076°29'3680529949.2
2017-Oct-20 02:29N 39°32' E 002°43'1353974061.7
2017-Oct-20 02:29N 46°56' E 031°57'27783134.7
2017-Oct-20 02:29N 44°44' E 037°47'275164898.3
2017-Oct-20 02:28N 46°50' E 031°57'12411488619.1
2017-Oct-20 02:28N 52°03' E 001°11'10301236229.8
2017-Oct-20 02:28N 68°04' E 013°32'44534007401.4
2017-Oct-20 02:28N 28°24' W 080°37'4417636055.3
2017-Oct-20 02:28N 66°10' E 012°32'15472784438.0
2017-Oct-20 02:28N 44°44' E 037°47'7236723631.4
2017-Oct-20 02:27N 37°52' W 122°29'21644859.2
2017-Oct-20 02:01N 38°58' W 076°29'47894310233.0
2017-Oct-20 02:00N 46°50' E 031°57'47984317911.1
2017-Oct-20 02:00N 01°15' E 103°53'47992468216.7
2017-Oct-20 02:00N 46°56' E 031°57'4891759871.0
2017-Oct-20 02:00N 44°51' E 020°38'645923252935.0
2017-Oct-20 02:00N 37°52' W 122°29'687824010.0
2017-Oct-20 02:00N 49°18' W 123°08'1760791998.8
2017-Oct-20 02:00N 29°33' W 095°02'1452653549.2
2017-Oct-20 02:00N 37°47' W 122°23'69182264027.5
2017-Oct-20 02:00N 37°56' E 023°39'6531175985.6
2017-Oct-20 02:00N 46°56' E 031°57'896230308.0
2017-Oct-20 01:59N 59°20' E 018°05'39071562962.8
2017-Oct-20 01:59N 38°58' W 076°29'32345821658.5
2017-Oct-20 01:59N 47°43' W 003°21'55774278.5
2017-Oct-20 01:59N 39°32' E 002°43'1591440646.1
2017-Oct-20 01:59N 44°44' E 037°47'1615323064.4
2017-Oct-20 01:58N 68°04' E 013°32'44531781067.3
2017-Oct-20 01:58N 28°24' W 080°37'40072884988.8
2017-Oct-20 01:58N 52°03' E 001°11'917329973.3
2017-Oct-20 01:58N 66°10' E 012°32'15471392228.0
2017-Oct-20 01:58N 44°44' E 037°47'81181328357.5
2017-Oct-20 01:57S 38°20' E 144°45'140125604732.2
2017-Oct-20 01:57N 36°53' W 076°22'10436894521.6
2017-Oct-20 01:57N 01°10' E 103°43'884197328.6
2017-Oct-20 01:51S 23°01' W 044°19'558524639.2
2017-Oct-20 01:38N 32°37' W 119°13'10168628.4
2017-Oct-20 01:31N 49°18' W 123°08'77869342633.5
2017-Oct-20 01:30N 01°12' E 103°37'52784750071.3
2017-Oct-20 01:30N 44°51' E 020°38'489251281.1
2017-Oct-20 01:30N 46°56' E 031°57'47982159229.0
2017-Oct-20 01:30N 01°13' E 103°50'629411328543.2
2017-Oct-20 01:30N 52°03' E 001°11'45735487941.9
2017-Oct-20 01:30N 29°33' W 095°02'60772734503.5
2017-Oct-20 01:30N 46°50' E 031°57'68708243757.7
2017-Oct-20 01:30N 37°47' W 122°23'69182767144.7
2017-Oct-20 01:30N 37°56' E 023°39'6532351971.1
2017-Oct-20 01:30N 46°56' E 031°57'896161215.6
2017-Oct-20 01:29N 59°20' E 018°05'390714066665.1
2017-Oct-20 01:29N 38°58' W 076°29'32342910829.7
2017-Oct-20 01:29N 47°43' W 003°21'55777135.4
2017-Oct-20 01:29N 39°32' E 002°43'1591318244.2
2017-Oct-20 01:29N 44°44' E 037°47'1615387675.9
2017-Oct-20 01:28N 68°04' E 013°32'63362851182.9
2017-Oct-20 01:28S 23°01' W 044°19'37741698398.7
2017-Oct-20 01:28N 28°24' W 080°37'44171766820.2
2017-Oct-20 01:28N 66°10' E 012°32'37556758592.2
2017-Oct-20 01:28N 36°53' W 076°22'520518738469.3
2017-Oct-20 01:28N 44°44' E 037°47'81181270602.8
2017-Oct-20 01:27S 38°20' E 144°45'72031994671.2
2017-Oct-20 01:27N 37°52' W 122°29'21644859.2
2017-Oct-20 01:01N 38°58' W 076°29'21027568111.7
2017-Oct-20 01:01N 49°18' W 123°08'77755597963.9
2017-Oct-20 01:00N 01°14' E 103°48'58725.1
2017-Oct-20 01:00N 01°15' E 103°53'528819037166.8
2017-Oct-20 01:00N 44°51' E 020°38'489439665.5
2017-Oct-20 01:00N 46°56' E 031°57'60741366670.8
2017-Oct-20 01:00N 29°33' W 095°02'60773125147.1
2017-Oct-20 01:00N 46°50' E 031°57'687024731257.2
2017-Oct-20 01:00N 37°47' W 122°23'78764725641.0
2017-Oct-20 01:00N 01°15' E 103°50'50393023339.8
2017-Oct-20 01:00N 37°56' E 023°39'653146998.7
2017-Oct-20 00:59N 46°56' E 031°57'47885746056.2
2017-Oct-20 00:59N 01°13' E 103°36'64734660612.9
2017-Oct-20 00:59N 47°43' W 003°21'32342328664.3
2017-Oct-20 00:59N 38°58' W 076°29'33591209188.1
2017-Oct-20 00:59N 52°03' E 001°11'754208714.2
2017-Oct-20 00:59N 39°32' E 002°43'1591318242.6
2017-Oct-20 00:59N 44°44' E 037°47'1615415366.2
2017-Oct-20 00:58N 68°04' E 013°32'4453667900.2
2017-Oct-20 00:58N 28°24' W 080°37'44177950690.9
2017-Oct-20 00:58N 66°10' E 012°32'15471113782.4
2017-Oct-20 00:58N 44°44' E 037°47'5205390385.1
2017-Oct-20 00:57N 36°53' W 076°22'4016390766.6
2017-Oct-20 00:56N 59°20' E 018°05'5718100902.3
2017-Oct-20 00:53N 37°52' W 122°19'686235749.2
2017-Oct-20 00:41N 46°50' E 031°57'478926283.6
2017-Oct-20 00:31N 38°58' W 076°29'21023784055.8
2017-Oct-20 00:30N 49°18' W 123°08'687412073.0
2017-Oct-20 00:30N 37°52' W 122°22'645423234996.3
2017-Oct-20 00:30N 44°51' E 020°38'4891759072.5
2017-Oct-20 00:30N 46°56' E 031°57'47991233921.5
2017-Oct-20 00:30N 01°12' E 103°49'947711372431.7
2017-Oct-20 00:30N 29°33' W 095°02'14581049629.1
2017-Oct-20 00:30N 37°52' W 122°29'686912364771.2
2017-Oct-20 00:30N 46°50' E 031°57'68704121876.2
2017-Oct-20 00:30N 37°47' W 122°23'78767088463.3
2017-Oct-20 00:30N 01°15' E 103°50'50399070032.0
2017-Oct-20 00:30N 37°56' E 023°39'50432593413.4
2017-Oct-20 00:30N 01°13' E 103°53'48011440373.0
2017-Oct-20 00:29N 46°56' E 031°57'84684355218.0
2017-Oct-20 00:29S 38°20' E 144°45'1025118451944.9
2017-Oct-20 00:29N 47°43' W 003°21'32345821661.6
2017-Oct-20 00:29N 38°58' W 076°29'335912091858.0
2017-Oct-20 00:29N 52°03' E 001°11'754113052.7
2017-Oct-20 00:29N 39°32' E 002°43'1591381892.2
2017-Oct-20 00:29N 44°44' E 037°47'1615363447.1
2017-Oct-20 00:28N 68°04' E 013°32'1615215375.3
2017-Oct-20 00:28N 44°44' E 037°47'57894168331.3
2017-Oct-20 00:28N 28°24' W 080°37'1082523820.4
2017-Oct-20 00:01N 01°14' E 103°53'77729326159.4
2017-Oct-20 00:00N 49°18' W 123°08'58803528275.0
2017-Oct-20 00:00N 44°51' E 020°38'56031120647.6
2017-Oct-20 00:00N 29°33' W 095°02'948617075301.2
2017-Oct-20 00:00N 01°11' E 103°40'47912874351.0
2017-Oct-20 00:00N 46°50' E 031°57'68706182814.3
2017-Oct-20 00:00N 37°47' W 122°23'78764725643.1
2017-Oct-20 00:00N 01°15' E 103°50'503918140069.7
2017-Oct-20 00:00N 37°56' E 023°39'653123788.0
2017-Oct-19 23:59N 46°56' E 031°57'8961074773.2
2017-Oct-19 23:59N 59°20' E 018°05'94966837291.9
2017-Oct-19 23:59S 38°20' E 144°45'1025136903893.6
2017-Oct-19 23:59N 47°43' W 003°21'32345821674.2
2017-Oct-19 23:59N 38°58' W 076°29'33591209190.3
2017-Oct-19 23:59N 52°03' E 001°11'754180884.3
2017-Oct-19 23:59N 39°32' E 002°43'1591358024.7
2017-Oct-19 23:59N 44°44' E 037°47'27766506.9
2017-Oct-19 23:58N 46°56' E 031°57'27735630.3
2017-Oct-19 23:58N 44°44' E 037°47'57891736810.7
2017-Oct-19 23:58N 28°24' W 080°37'2179201147.0
2017-Oct-19 23:57N 37°52' W 122°29'5267148135.8
2017-Oct-19 23:55N 66°10' E 012°32'36348941.0
2017-Oct-19 23:30N 38°58' W 076°29'21027568111.7
2017-Oct-19 23:30N 49°18' W 123°08'777327983353.3
2017-Oct-19 23:30N 01°14' E 103°50'52874758272.3
2017-Oct-19 23:30N 44°51' E 020°38'487125309.1
2017-Oct-19 23:30N 46°50' E 031°57'607721876011.4
2017-Oct-19 23:30N 29°33' W 095°02'45735487934.7
2017-Oct-19 23:30N 52°03' E 001°11'53193191552.1
2017-Oct-19 23:30N 37°52' W 122°29'72949.8
2017-Oct-19 23:30N 37°47' W 122°23'64822916840.7
2017-Oct-19 23:30N 23°05' E 113°29'4825868532.3
2017-Oct-19 23:29N 59°20' E 018°05'10351241400.7
2017-Oct-19 23:29N 47°43' W 003°21'1025118451946.8
2017-Oct-19 23:29S 38°20' E 144°45'1406010123398.9
2017-Oct-19 23:29N 38°58' W 076°29'3680576031.7
2017-Oct-19 23:29N 39°32' E 002°43'1591286419.9
2017-Oct-19 23:29N 44°44' E 037°47'27799810.7
2017-Oct-19 23:28N 46°56' E 031°57'14005040569.1
2017-Oct-19 23:28N 68°04' E 013°32'11715538.0
2017-Oct-19 23:28N 66°10' E 012°32'15471856265.9
2017-Oct-19 23:28N 44°44' E 037°47'57891389438.3
2017-Oct-19 23:28N 28°24' W 080°37'5268371842.9
2017-Oct-19 23:27N 37°56' E 023°39'653146999.2
2017-Oct-19 23:26N 46°56' E 031°57'2201196.6
2017-Oct-19 23:15N 45°09' E 036°34'505020382.2
2017-Oct-19 23:01N 38°58' W 076°29'21023784056.1
2017-Oct-19 23:01N 49°18' W 123°08'777527990564.5
2017-Oct-19 23:00N 01°16' E 103°46'1081738942801.9
2017-Oct-19 23:00N 28°24' W 080°37'49753581712.6
2017-Oct-19 23:00N 44°51' E 020°38'52876344203.6
2017-Oct-19 23:00N 01°12' E 103°48'94771895453.7
2017-Oct-19 23:00N 29°33' W 095°02'60774375207.8
2017-Oct-19 23:00N 46°50' E 031°57'68704121881.8
2017-Oct-19 23:00N 37°47' W 122°23'5320911934.7
2017-Oct-19 23:00N 52°03' E 001°11'12384456751.0
2017-Oct-19 22:59N 46°56' E 031°57'896537380.6
2017-Oct-19 22:59N 59°20' E 018°05'949611395483.3
2017-Oct-19 22:59S 38°20' E 144°45'102519225972.5
2017-Oct-19 22:59N 47°43' W 003°21'32345821661.6
2017-Oct-19 22:59N 38°58' W 076°29'3680552030.5
2017-Oct-19 22:59N 39°32' E 002°43'1591381894.2
2017-Oct-19 22:59N 44°44' E 037°47'27766542.1
2017-Oct-19 22:58N 46°56' E 031°57'14002520284.5
2017-Oct-19 22:58N 68°04' E 013°32'11717480.3
2017-Oct-19 22:58N 66°10' E 012°32'15471392233.0
2017-Oct-19 22:58N 44°44' E 037°47'75640622.6
2017-Oct-19 22:57N 37°56' E 023°39'6919151872.4
2017-Oct-19 22:54N 37°52' W 122°29'6870265920.5
2017-Oct-19 22:52N 46°50' E 031°57'704021209.4
2017-Oct-19 22:33N 32°34' W 119°25'6599199621.9
2017-Oct-19 22:31N 44°51' E 020°38'659923756321.3
2017-Oct-19 22:31N 32°34' W 119°25'10183664691.9
2017-Oct-19 22:31N 49°18' W 123°08'2349768856.6
2017-Oct-19 22:30N 28°24' W 080°37'54153898741.8
2017-Oct-19 22:30N 46°30' E 030°45'48431743517.2
2017-Oct-19 22:30N 01°16' E 103°52'78695665916.9
2017-Oct-19 22:30N 37°52' W 122°29'75899.6
2017-Oct-19 22:30N 37°47' W 122°23'69182264027.5
2017-Oct-19 22:30N 37°56' E 023°39'1302312526.4
2017-Oct-19 22:29N 59°20' E 018°05'94963418644.3
2017-Oct-19 22:29S 38°20' E 144°45'1025118451945.9
2017-Oct-19 22:29N 47°43' W 003°21'32343881107.2
2017-Oct-19 22:29N 38°58' W 076°29'3359711284.7
2017-Oct-19 22:29N 52°03' E 001°11'754452214.7
2017-Oct-19 22:29N 39°32' E 002°43'1591477370.2
2017-Oct-19 22:29N 44°44' E 037°47'1615290757.8
2017-Oct-19 22:28N 68°04' E 013°32'11715538.0
2017-Oct-19 22:28N 66°10' E 012°32'15475568891.8
2017-Oct-19 22:28N 44°44' E 037°47'27576104.2
2017-Oct-19 22:28N 46°50' E 031°57'6267.4
2017-Oct-19 22:26N 46°56' E 031°57'0 2.8
2017-Oct-19 22:25N 46°56' E 031°57'6128.9
2017-Oct-19 22:22N 46°50' E 031°57'2181352.6
2017-Oct-19 22:13N 45°09' E 036°34'505024635.3
2017-Oct-19 22:01N 38°58' W 076°29'21027568097.4
2017-Oct-19 22:00N 49°18' W 123°08'777627992482.6
2017-Oct-19 22:00N 01°14' E 103°47'52853170812.2
2017-Oct-19 22:00N 44°51' E 020°38'49751492380.2
2017-Oct-19 22:00N 28°24' W 080°37'108266495431.5
2017-Oct-19 22:00N 01°14' E 103°53'947234098819.6
2017-Oct-19 22:00N 29°33' W 095°02'14581312036.3
2017-Oct-19 22:00N 37°52' W 122°29'73930.5
2017-Oct-19 22:00N 37°47' W 122°23'69182490430.2
2017-Oct-19 22:00N 37°56' E 023°39'648333309.6
2017-Oct-19 22:00N 46°50' E 031°57'901360426.3
2017-Oct-19 21:59N 59°20' E 018°05'7192589421.8
2017-Oct-19 21:59N 52°03' E 001°11'314141176.8
2017-Oct-19 21:59N 47°43' W 003°21'14371034499.8
2017-Oct-19 21:59N 46°56' E 031°57'1353211797.0
2017-Oct-19 21:59N 39°32' E 002°43'1353173979.2
2017-Oct-19 21:58N 46°56' E 031°57'14001260141.0
2017-Oct-19 21:58N 68°04' E 013°32'11716135.7
2017-Oct-19 21:58N 66°10' E 012°32'1547928152.0
2017-Oct-19 21:58N 44°44' E 037°47'81181007713.1
2017-Oct-19 21:57S 38°20' E 144°45'8194526738.4
2017-Oct-19 21:56N 45°23' E 036°39'624291.0
2017-Oct-19 21:55N 44°44' E 037°47'5751364.7
2017-Oct-19 21:55N 45°09' E 036°34'5137127534.0
2017-Oct-19 21:53N 36°53' W 076°22'487718798.0
2017-Oct-19 21:37N 46°50' E 031°57'137717514.2
2017-Oct-19 21:33N 41°07' E 001°04'156947475.1
2017-Oct-19 21:31N 45°20' E 036°30'50401395732.2
2017-Oct-19 21:31N 38°58' W 076°29'21022522695.1
2017-Oct-19 21:30N 49°18' W 123°08'52713795188.6
2017-Oct-19 21:30N 41°05' E 000°59'8923210484.1
2017-Oct-19 21:30N 44°51' E 020°38'44277968439.6
2017-Oct-19 21:30N 36°53' W 076°22'1044012527822.8
2017-Oct-19 21:30N 01°15' E 103°50'94742436064.9
2017-Oct-19 21:30N 29°33' W 095°02'60775469296.1
2017-Oct-19 21:30N 46°50' E 031°57'687024730570.1
2017-Oct-19 21:30N 37°52' W 122°29'73930.5
2017-Oct-19 21:30N 37°47' W 122°23'69182767144.7
2017-Oct-19 21:30N 37°56' E 023°39'648388859.7
2017-Oct-19 21:30N 46°50' E 031°57'901294894.9
2017-Oct-19 21:29N 59°20' E 018°05'1034413799.2
2017-Oct-19 21:29N 47°43' W 003°21'14371724162.8
2017-Oct-19 21:29N 46°56' E 031°57'478617230662.5
2017-Oct-19 21:29N 38°58' W 076°29'3680576032.1
2017-Oct-19 21:29N 39°32' E 002°43'1536614442.7
2017-Oct-19 21:29N 45°20' E 036°30'14561746911.0
2017-Oct-19 21:29N 52°03' E 001°11'15231370792.1
2017-Oct-19 21:29N 44°44' E 037°47'27783179.6
2017-Oct-19 21:28N 46°56' E 031°57'14001260137.7
2017-Oct-19 21:28N 68°04' E 013°32'993335757436.1
2017-Oct-19 21:28S 38°20' E 144°45'81181217680.4
2017-Oct-19 21:28N 44°44' E 037°47'154730598.7
2017-Oct-19 21:25N 66°10' E 012°32'5997162325.8
2017-Oct-19 21:23N 01°12' E 103°49'45501092116.6
2017-Oct-19 21:22N 45°09' E 036°34'513714094.8
2017-Oct-19 21:01N 36°53' W 076°22'21792615116.0
2017-Oct-19 21:00N 49°17' W 123°06'58804233516.0
2017-Oct-19 21:00N 44°51' E 020°38'4891759501.4
2017-Oct-19 21:00N 46°56' E 031°57'12382228400.6
2017-Oct-19 21:00N 52°03' E 001°11'62924530545.7
2017-Oct-19 21:00N 01°15' E 103°50'24015.8
2017-Oct-19 21:00N 01°14' E 103°49'47981919111.3
2017-Oct-19 21:00N 46°56' E 031°57'607421865865.7
2017-Oct-19 21:00N 29°33' W 095°02'14581312036.3
2017-Oct-19 21:00N 37°52' W 122°29'77860.9
2017-Oct-19 21:00N 37°47' W 122°23'57226866224.6
2017-Oct-19 21:00N 40°57' E 000°54'1069385014.6
2017-Oct-19 21:00N 37°56' E 023°39'648388864.1
2017-Oct-19 21:00N 46°50' E 031°57'901324381.8
2017-Oct-19 20:59N 59°20' E 018°05'94963798493.7
2017-Oct-19 20:59S 38°20' E 144°45'1025136903893.6
2017-Oct-19 20:59N 47°43' W 003°21'32343881106.7
2017-Oct-19 20:59N 38°58' W 076°29'3680529949.2
2017-Oct-19 20:59N 39°32' E 002°43'42001008043.9
2017-Oct-19 20:59N 28°24' W 080°37'57896947119.9
2017-Oct-19 20:59N 44°44' E 037°47'1615447317.7
2017-Oct-19 20:58N 68°04' E 013°32'1615223659.0
2017-Oct-19 20:58N 44°44' E 037°47'738248318.9
2017-Oct-19 20:49N 32°35' W 119°01'21056946.9
2017-Oct-19 20:31N 38°58' W 076°29'125450125.9
2017-Oct-19 20:31N 36°53' W 076°22'21811570314.2
2017-Oct-19 20:30N 49°19' W 123°08'58807056105.8
2017-Oct-19 20:30N 44°51' E 020°38'48997755.8
2017-Oct-19 20:30N 46°56' E 031°57'607421865884.0
2017-Oct-19 20:30N 29°33' W 095°02'94754873111.9
2017-Oct-19 20:30N 01°14' E 103°49'787828360928.7
2017-Oct-19 20:30N 37°47' W 122°23'53203191771.0
2017-Oct-19 20:30N 52°03' E 001°11'1275765018.7
2017-Oct-19 20:30N 37°56' E 023°39'1302334849.7
2017-Oct-19 20:29N 59°20' E 018°05'1035338563.9
2017-Oct-19 20:29N 47°43' W 003°21'32342910829.7
2017-Oct-19 20:29N 38°58' W 076°29'3680552030.3
2017-Oct-19 20:29N 39°32' E 002°43'1591358025.1
2017-Oct-19 20:29N 44°44' E 037°47'57894168270.8
2017-Oct-19 20:28N 28°24' W 080°37'54612808468.6
2017-Oct-19 20:28N 46°56' E 031°57'14001260142.3
2017-Oct-19 20:28N 68°04' E 013°32'14061012387.4
2017-Oct-19 20:28N 46°50' E 031°57'1326227396.6
2017-Oct-19 20:28N 66°10' E 012°32'15475568911.9
2017-Oct-19 20:28N 44°44' E 037°47'7236500975.9
2017-Oct-19 20:27N 37°52' W 122°29'5328166779.8
2017-Oct-19 20:25N 43°34' W 005°35'68011232.6
2017-Oct-19 20:21N 51°14' E 006°46'1247195130.7
2017-Oct-19 20:21N 45°09' E 036°34'156647365.6
2017-Oct-19 20:19N 41°01' E 001°18'621520103.5
2017-Oct-19 20:01N 01°15' E 103°51'1040937473519.3
2017-Oct-19 20:01N 38°58' W 076°29'47862871727.1
2017-Oct-19 20:00N 46°56' E 031°57'489879393.0
2017-Oct-19 20:00N 44°51' E 020°38'58801323103.3
2017-Oct-19 20:00N 49°18' W 123°08'621411184613.0
2017-Oct-19 20:00N 46°56' E 031°57'68653089222.4
2017-Oct-19 20:00N 37°47' W 122°23'69181915716.9
2017-Oct-19 20:00N 37°56' E 023°39'1302312526.7
2017-Oct-19 19:59N 59°20' E 018°05'1034372419.4
2017-Oct-19 19:59N 47°43' W 003°21'32345821659.3
2017-Oct-19 19:59N 38°58' W 076°29'3061459180.2
2017-Oct-19 19:59N 28°03' W 016°43'11892139476.3
2017-Oct-19 19:59N 39°32' E 002°43'1591358025.0
2017-Oct-19 19:59N 44°44' E 037°47'1615363445.8
2017-Oct-19 19:58N 68°04' E 013°32'14062530966.1
2017-Oct-19 19:58N 46°50' E 031°57'846530475484.2
2017-Oct-19 19:58S 38°20' E 144°45'101272804294.3
2017-Oct-19 19:58N 52°03' E 001°11'917329974.5
2017-Oct-19 19:58N 66°10' E 012°32'15471856304.0
2017-Oct-19 19:58N 44°44' E 037°47'6417513361.8
2017-Oct-19 19:57N 29°33' W 095°02'14581049629.1
2017-Oct-19 19:57N 37°52' W 122°29'3643758.8
2017-Oct-19 19:51N 32°36' W 118°46'590667712.6
2017-Oct-19 19:46N 39°33' E 002°43'612823823.9
2017-Oct-19 19:31N 01°17' E 103°46'77746996943.9
2017-Oct-19 19:30N 49°18' W 123°08'621422369596.3
2017-Oct-19 19:30N 46°56' E 031°57'489586518.0
2017-Oct-19 19:30N 44°51' E 020°38'44271225915.0
2017-Oct-19 19:30N 36°53' W 076°22'48744386508.1
2017-Oct-19 19:30N 46°56' E 031°57'60747288624.4
2017-Oct-19 19:30N 29°33' W 095°02'12361483172.1
2017-Oct-19 19:30N 32°30' W 118°50'362185964.4
2017-Oct-19 19:30N 37°47' W 122°23'69182767144.7
2017-Oct-19 19:30N 37°56' E 023°39'1302275757.5
2017-Oct-19 19:29N 59°20' E 018°05'1034372418.2
2017-Oct-19 19:29N 47°43' W 003°21'32343881110.0
2017-Oct-19 19:29N 38°58' W 076°29'104092081744.2
2017-Oct-19 19:29N 01°15' E 103°50'61333680012.1
2017-Oct-19 19:29N 39°32' E 002°43'1755203779.4
2017-Oct-19 19:28N 68°04' E 013°32'993335757429.2
2017-Oct-19 19:28S 38°20' E 144°45'99301374949.0
2017-Oct-19 19:28N 66°10' E 012°32'15475568885.0
2017-Oct-19 19:28N 44°44' E 037°47'0 0.3
2017-Oct-19 19:26N 44°44' E 037°47'27547113.3
2017-Oct-19 19:25N 46°50' E 031°57'0 2.6
2017-Oct-19 19:18N 46°50' E 031°57'2121036.2
2017-Oct-19 19:06N 45°13' E 036°28'504357822.4
2017-Oct-19 19:01N 38°58' W 076°29'36803311629.2
2017-Oct-19 19:00N 39°33' E 002°43'8581029737.9
2017-Oct-19 19:00N 44°51' E 020°38'44275312298.5
2017-Oct-19 19:00N 36°53' W 076°22'48741096627.7
2017-Oct-19 19:00N 46°56' E 031°57'012.4
2017-Oct-19 19:00N 46°56' E 031°57'686512356973.0
2017-Oct-19 19:00N 37°47' W 122°23'69182490430.2
2017-Oct-19 19:00N 37°56' E 023°39'1325198765.2
2017-Oct-19 18:59N 47°43' W 003°21'32343881111.0
2017-Oct-19 18:59N 38°58' W 076°29'2098755226.5
2017-Oct-19 18:59N 49°18' W 123°01'54201219609.0
2017-Oct-19 18:59N 39°32' E 002°43'1591272780.0
2017-Oct-19 18:58N 44°44' E 037°47'1615646129.8
2017-Oct-19 18:58N 68°04' E 013°32'11715538.1
2017-Oct-19 18:58N 66°10' E 012°32'15471113783.8
2017-Oct-19 18:58N 44°44' E 037°47'81181043702.9
2017-Oct-19 18:57S 38°20' E 144°45'82661859781.0
2017-Oct-19 18:57N 29°33' W 095°02'5164464758.1
2017-Oct-19 18:56N 59°20' E 018°05'90147011.9
2017-Oct-19 18:55N 46°50' E 031°57'16034404.7
2017-Oct-19 18:33N 43°34' W 005°41'320566695.1
2017-Oct-19 18:31N 38°58' W 076°29'20923765908.4
2017-Oct-19 18:30N 49°18' W 122°53'54254882446.6
2017-Oct-19 18:30N 39°20' E 002°43'8641036908.4
2017-Oct-19 18:30N 44°51' E 020°38'52816336866.8
2017-Oct-19 18:30N 01°17' E 103°46'47921232268.6
2017-Oct-19 18:30N 46°56' E 031°57'60747288616.3
2017-Oct-19 18:30N 29°33' W 095°02'10353726644.4
2017-Oct-19 18:30N 36°53' W 076°22'48742506597.5
2017-Oct-19 18:30N 46°56' E 031°57'686524713961.8
2017-Oct-19 18:30N 37°47' W 122°23'69182490430.2
2017-Oct-19 18:30N 37°56' E 023°39'1325183475.5
2017-Oct-19 18:29N 47°43' W 003°21'32343881107.2
2017-Oct-19 18:29N 38°58' W 076°29'3680529949.2
2017-Oct-19 18:29N 39°32' E 002°43'1591272780.8
2017-Oct-19 18:28N 44°44' E 037°47'27570670.7
2017-Oct-19 18:28N 46°50' E 031°57'1326207623.2
2017-Oct-19 18:28N 66°10' E 012°32'15472784449.3
2017-Oct-19 18:28N 44°44' E 037°47'8118974123.1
2017-Oct-19 18:27S 38°20' E 144°45'3322385739.4
2017-Oct-19 18:27N 01°16' E 103°57'5997251050.9
2017-Oct-19 18:25N 68°04' E 013°32'365740257.9
2017-Oct-19 18:20N 38°55' W 076°26'3489104679.2
2017-Oct-19 18:18N 52°01' E 004°22'133561633.6
2017-Oct-19 18:17N 45°18' E 036°29'504118786.0
2017-Oct-19 18:01N 38°58' W 076°29'1039912479070.6
2017-Oct-19 18:00N 01°13' E 103°39'61227346493.9
2017-Oct-19 18:00N 39°20' E 002°44'8631553271.6
2017-Oct-19 18:00N 44°51' E 020°38'44275312303.2
2017-Oct-19 18:00N 36°53' W 076°22'21802616387.0
2017-Oct-19 18:00N 49°18' W 123°08'62141720742.9
2017-Oct-19 18:00N 46°56' E 031°57'21396057.3
2017-Oct-19 18:00N 45°19' E 036°31'213768314.3
2017-Oct-19 18:00N 46°56' E 031°57'68654942788.8
2017-Oct-19 18:00N 37°47' W 122°23'69183557757.5
2017-Oct-19 18:00N 37°56' E 023°39'1325190814.6
2017-Oct-19 17:59N 47°43' W 003°21'32342328670.0
2017-Oct-19 17:59N 38°58' W 076°29'3680552031.6
2017-Oct-19 17:59N 39°32' E 002°43'1591318244.3
2017-Oct-19 17:59N 44°44' E 037°47'1615484596.1
2017-Oct-19 17:58N 68°04' E 013°32'14061687303.8
2017-Oct-19 17:58N 46°50' E 031°57'1326198971.2
2017-Oct-19 17:58N 66°10' E 012°32'1547795558.8
2017-Oct-19 17:58N 44°44' E 037°47'448916161214.3
2017-Oct-19 17:58N 01°16' E 103°56'3322459904.4
2017-Oct-19 17:57S 38°20' E 144°45'846554809.8
2017-Oct-19 17:48N 46°50' E 031°57'124125236.1
2017-Oct-19 17:45N 52°03' E 001°11'0 0.1
2017-Oct-19 17:31N 52°03' E 001°11'335912091076.1
2017-Oct-19 17:30N 38°58' W 076°29'43512610541.0
2017-Oct-19 17:30N 44°51' E 020°38'7771399004.0
2017-Oct-19 17:30N 52°01' E 004°22'35756434612.9
2017-Oct-19 17:30N 36°53' W 076°22'21807849185.8
2017-Oct-19 17:30N 49°18' W 123°08'54386525006.8
2017-Oct-19 17:30N 39°22' E 002°48'1354443219.7
2017-Oct-19 17:30N 46°56' E 031°57'607421865856.4
2017-Oct-19 17:30N 29°33' W 095°02'1452522840.3
2017-Oct-19 17:30N 37°47' W 122°23'69182490430.2
2017-Oct-19 17:30N 37°56' E 023°39'47051411537.4
2017-Oct-19 17:30N 38°58' W 076°29'504518160634.3
2017-Oct-19 17:30N 45°20' E 036°36'1656496754.0
2017-Oct-19 17:29N 47°43' W 003°21'32342910834.7
2017-Oct-19 17:29N 38°58' W 076°29'47861013542.3
2017-Oct-19 17:29N 46°56' E 031°57'48004320158.7
2017-Oct-19 17:29N 01°17' E 103°55'61377364146.1
2017-Oct-19 17:29N 39°32' E 002°43'1591286421.9
2017-Oct-19 17:29N 44°44' E 037°47'1615581512.4
2017-Oct-19 17:28N 68°04' E 013°32'11715538.1
2017-Oct-19 17:28N 66°10' E 012°32'15471856304.0
2017-Oct-19 17:28N 44°44' E 037°47'8118942698.9
2017-Oct-19 17:27S 38°20' E 144°45'1406031458.5
2017-Oct-19 17:01N 38°58' W 076°29'1041218742238.7
2017-Oct-19 17:00N 01°17' E 103°55'52893808309.6
2017-Oct-19 17:00N 44°51' E 020°38'58804233930.4
2017-Oct-19 17:00N 49°18' W 123°08'761113699357.4
2017-Oct-19 17:00S 38°20' E 144°44'819329493249.6
2017-Oct-19 17:00N 45°23' E 036°40'45438178163.4
2017-Oct-19 17:00N 01°13' E 103°38'47901916061.1
2017-Oct-19 17:00N 46°56' E 031°57'607410932932.8
2017-Oct-19 17:00N 29°33' W 095°02'60743644648.9
2017-Oct-19 17:00N 46°56' E 031°58'68666179085.9
2017-Oct-19 17:00N 37°47' W 122°23'69182767142.8
2017-Oct-19 17:00N 37°56' E 023°39'1275327862.9
2017-Oct-19 16:59N 52°03' E 001°11'753387225.6
2017-Oct-19 16:59N 39°33' E 002°43'556400594.8
2017-Oct-19 16:59N 47°43' W 003°21'32343881106.2
2017-Oct-19 16:59N 38°58' W 076°29'12532113.0
2017-Oct-19 16:59N 36°53' W 076°22'37321492611.4
2017-Oct-19 16:59N 39°32' E 002°43'1591272780.9
2017-Oct-19 16:59N 44°44' E 037°47'1615581515.9
2017-Oct-19 16:58N 68°04' E 013°32'11716135.6
2017-Oct-19 16:58N 66°10' E 012°32'15471113782.4
2017-Oct-19 16:58N 44°44' E 037°47'736426015.6
2017-Oct-19 16:41N 32°39' W 118°42'696850880.1
2017-Oct-19 16:33N 46°26' E 030°50'4829136874.3
2017-Oct-19 16:31N 01°13' E 103°36'77879343867.2
2017-Oct-19 16:30N 49°18' W 123°08'58804233930.4
2017-Oct-19 16:30N 44°51' E 020°38'52909522398.0
2017-Oct-19 16:30N 01°17' E 103°57'48011329531.4
2017-Oct-19 16:30N 46°56' E 031°57'1419.0
2017-Oct-19 16:30N 46°57' E 031°59'68664943237.0
2017-Oct-19 16:30N 37°47' W 122°23'69183113042.0
2017-Oct-19 16:30N 37°56' E 023°39'601433069.3
2017-Oct-19 16:30N 46°26' E 030°49'48391161308.0
2017-Oct-19 16:29N 36°53' W 076°22'140128407060.8
2017-Oct-19 16:29S 38°20' E 144°45'1025136903906.4
2017-Oct-19 16:29N 47°43' W 003°21'32345821660.1
2017-Oct-19 16:29N 38°58' W 076°29'50464541366.4
2017-Oct-19 16:29N 45°26' E 036°42'1545264814.4
2017-Oct-19 16:29N 39°32' E 002°43'1591301494.7
2017-Oct-19 16:29N 44°44' E 037°47'64172566812.0
2017-Oct-19 16:28N 29°33' W 095°02'48724385141.2
2017-Oct-19 16:28N 68°04' E 013°32'11716781.1
2017-Oct-19 16:28N 66°10' E 012°32'9173299733.7
2017-Oct-19 16:28N 52°03' E 001°11'1523685395.1
2017-Oct-19 16:28N 44°44' E 037°47'2753025.6
2017-Oct-19 16:22N 46°50' E 031°57'160460158.6
2017-Oct-19 16:21N 43°38' W 005°45'531568336.4
2017-Oct-19 16:16N 37°52' W 122°26'36021600.1
2017-Oct-19 16:15N 32°42' W 118°42'208914165.9
2017-Oct-19 16:06N 38°51' W 076°27'776.0
2017-Oct-19 16:01N 38°58' W 076°29'21597773089.9
2017-Oct-19 16:00N 37°52' W 122°23'64543319406.4
2017-Oct-19 16:00N 44°51' E 020°38'44275312298.5
2017-Oct-19 16:00N 36°53' W 076°22'21807849185.8
2017-Oct-19 16:00N 49°18' W 123°08'776713980168.3
2017-Oct-19 16:00N 01°15' E 103°57'2110958.7
2017-Oct-19 16:00N 01°13' E 103°36'1039718714946.0
2017-Oct-19 16:00N 38°51' W 076°27'47934313674.3
2017-Oct-19 16:00N 46°50' E 031°57'68703533186.7
2017-Oct-19 16:00N 37°47' W 122°23'69181915715.6
2017-Oct-19 16:00N 37°56' E 023°39'1325198765.2
2017-Oct-19 15:59N 47°43' W 003°21'32341940553.4
2017-Oct-19 15:59N 38°58' W 076°29'140604218100.5
2017-Oct-19 15:59S 38°20' E 144°45'846715241360.3
2017-Oct-19 15:59N 46°56' E 031°59'1354609329.9
2017-Oct-19 15:59N 39°32' E 002°43'15462783029.6
2017-Oct-19 15:59N 45°28' E 036°44'6315075.9
2017-Oct-19 15:59N 44°44' E 037°47'1615363443.6
2017-Oct-19 15:58N 68°04' E 013°32'14061687310.8
2017-Oct-19 15:58N 46°50' E 031°57'1326207623.0
2017-Oct-19 15:58N 66°10' E 012°32'15472784456.0
2017-Oct-19 15:58N 44°44' E 037°47'277124681.6
2017-Oct-19 15:58N 46°56' E 031°57'5599791.7
2017-Oct-19 15:58N 46°30' E 030°46'1205433789.4
2017-Oct-19 15:58N 52°03' E 001°11'82221301.2
2017-Oct-19 15:55N 38°23' W 000°21'4741101599.5
2017-Oct-19 15:52N 29°33' W 095°02'12325897.8
2017-Oct-19 15:40N 32°43' W 118°44'208913430.3
2017-Oct-19 15:31N 38°58' W 076°29'43511957903.5
2017-Oct-19 15:30N 44°51' E 020°38'58803528278.5
2017-Oct-19 15:30N 49°18' W 123°08'776527955205.8
2017-Oct-19 15:30N 01°17' E 103°57'45548197356.1
2017-Oct-19 15:30N 45°28' E 036°44'21752010.2
2017-Oct-19 15:30N 46°56' E 031°57'68663530860.8
2017-Oct-19 15:30N 37°47' W 122°23'69184150714.3
2017-Oct-19 15:30N 37°56' E 023°39'47041881754.7
2017-Oct-19 15:30N 38°52' W 076°24'20942513381.6
2017-Oct-19 15:30N 32°42' W 118°45'54451400251.0
2017-Oct-19 15:29N 52°03' E 001°17'344712408163.9
2017-Oct-19 15:29N 36°53' W 076°22'33045948050.1
2017-Oct-19 15:29N 47°43' W 003°21'32343881106.7
2017-Oct-19 15:29N 38°58' W 076°29'3680529949.4
2017-Oct-19 15:29N 39°32' E 002°43'612622051847.6
2017-Oct-19 15:29N 01°13' E 103°39'44791074928.3
2017-Oct-19 15:29N 44°44' E 037°47'1615387675.5
2017-Oct-19 15:28N 68°04' E 013°32'993235756594.4
2017-Oct-19 15:28S 38°20' E 144°45'81181082359.8
2017-Oct-19 15:28N 44°44' E 037°47'277110827.8
2017-Oct-19 15:28N 46°56' E 031°57'6074157314.3
2017-Oct-19 15:25N 29°33' W 095°02'60774375202.3
2017-Oct-19 15:25N 46°50' E 031°57'4279105499.4
2017-Oct-19 15:23N 22°44' E 113°39'5055308459.3
2017-Oct-19 15:22N 66°10' E 012°32'4385838.9
2017-Oct-19 15:17N 59°20' E 018°05'8954524.4
2017-Oct-19 15:06N 46°37' E 031°01'475657256.9
2017-Oct-19 15:01N 38°58' W 076°29'21021513627.7
2017-Oct-19 15:00N 49°18' W 123°08'58805292417.8
2017-Oct-19 15:00N 44°51' E 020°38'52912116492.6
2017-Oct-19 15:00N 01°15' E 103°57'1044612534948.6
2017-Oct-19 15:00N 36°53' W 076°22'123147983.4
2017-Oct-19 15:00N 38°56' W 076°26'1041237482107.7
2017-Oct-19 15:00N 01°16' E 103°57'78702023753.1
2017-Oct-19 15:00N 37°47' W 122°23'69182767144.7
2017-Oct-19 15:00N 37°56' E 023°39'697812561293.3
2017-Oct-19 15:00N 32°42' W 118°45'69972290020.8
2017-Oct-19 15:00N 46°56' E 031°57'47911326814.8
2017-Oct-19 14:59N 01°13' E 103°39'1040112480643.7
2017-Oct-19 14:59N 38°58' W 076°29'140603163562.7
2017-Oct-19 14:59S 38°20' E 144°45'97183887169.2
2017-Oct-19 14:59N 39°32' E 002°43'1591260381.7
2017-Oct-19 14:58N 44°44' E 037°47'64174620261.5
2017-Oct-19 14:58N 29°33' W 095°02'48724385141.2
2017-Oct-19 14:58N 68°04' E 013°32'14062530968.6
2017-Oct-19 14:58N 46°50' E 031°57'1326207623.0
2017-Oct-19 14:58N 66°10' E 012°32'15471113775.7
2017-Oct-19 14:58N 44°44' E 037°47'277142492.0
2017-Oct-19 14:58N 46°56' E 031°57'8967400.0
2017-Oct-19 14:50N 59°20' E 018°05'83513795.3
2017-Oct-19 14:47N 49°02' E 002°04'1869186.9
2017-Oct-19 14:46N 52°07' E 001°32'144839479.3
2017-Oct-19 14:43N 45°28' E 036°44'2152973.6
2017-Oct-19 14:39N 46°50' E 031°57'427440383.9
2017-Oct-19 14:33N 22°44' E 113°34'9924274830.9
2017-Oct-19 14:31N 36°53' W 076°22'44271770766.2
2017-Oct-19 14:30N 44°51' E 020°38'43501043992.7
2017-Oct-19 14:30N 38°59' W 076°28'47854306480.1
2017-Oct-19 14:30N 46°56' E 031°57'699412588593.1
2017-Oct-19 14:30N 32°44' W 118°42'54529813805.8
2017-Oct-19 14:30N 52°05' E 001°32'47418534380.8
2017-Oct-19 14:30N 49°18' W 123°08'778128011226.0
2017-Oct-19 14:30N 01°14' E 103°41'788514193399.4
2017-Oct-19 14:30N 37°47' W 122°23'69182264027.5
2017-Oct-19 14:30N 37°56' E 023°39'740444082.0
2017-Oct-19 14:30N 45°28' E 036°44'1076276666.9
2017-Oct-19 14:29N 59°20' E 018°05'1035620700.2
2017-Oct-19 14:29N 47°43' W 003°21'32345821660.9
2017-Oct-19 14:29N 38°58' W 076°29'3680509566.6
2017-Oct-19 14:29N 39°32' E 002°43'571342396.7
2017-Oct-19 14:29N 49°02' E 002°04'1488446278.0
2017-Oct-19 14:29N 44°44' E 037°47'64172310130.8
2017-Oct-19 14:28N 29°33' W 095°02'487217540564.7
2017-Oct-19 14:28N 68°04' E 013°32'14061265479.1
2017-Oct-19 14:28N 46°50' E 031°57'84651523776.2
2017-Oct-19 14:28S 38°20' E 144°45'99307149570.8
2017-Oct-19 14:28N 66°10' E 012°32'1321475664.2
2017-Oct-19 14:28N 46°56' E 031°57'6538.9
2017-Oct-19 14:27N 46°50' E 031°57'2757214.8
2017-Oct-19 14:25N 44°44' E 037°47'4004655273.3
2017-Oct-19 14:24N 22°45' E 113°33'141012623.3
2017-Oct-19 14:18N 01°17' E 103°46'1081690765.1
2017-Oct-19 14:11N 28°24' W 080°37'443834433.5
2017-Oct-19 14:03N 66°24' E 013°08'365293238.5
2017-Oct-19 14:00N 38°58' W 076°29'104046242682.9
2017-Oct-19 14:00N 01°16' E 103°46'528319017073.2
2017-Oct-19 14:00N 44°51' E 020°38'58804233934.2
2017-Oct-19 14:00N 49°18' W 123°08'64984678821.7
2017-Oct-19 14:00N 45°28' E 036°44'14471736425.4
2017-Oct-19 14:00N 52°05' E 001°32'12251102261.2
2017-Oct-19 14:00N 46°56' E 031°57'68652246844.6
2017-Oct-19 14:00N 37°47' W 122°23'69182490430.2
2017-Oct-19 14:00N 37°56' E 023°39'1302213086.2
2017-Oct-19 13:59N 59°20' E 018°05'445801627.6
2017-Oct-19 13:59N 66°24' E 013°08'377413585582.8
2017-Oct-19 13:59N 36°53' W 076°22'33045948051.7
2017-Oct-19 13:59N 47°43' W 003°21'32342910834.0
2017-Oct-19 13:59N 38°58' W 076°29'3444729234.9
2017-Oct-19 13:59N 49°02' E 002°04'564310156727.8
2017-Oct-19 13:59N 22°45' E 113°31'57795200653.2
2017-Oct-19 13:59N 39°32' E 002°43'1591318244.4
2017-Oct-19 13:59N 44°44' E 037°47'64172566812.0
2017-Oct-19 13:58N 29°33' W 095°02'82667439128.7
2017-Oct-19 13:58S 38°20' E 144°45'973611682692.8
2017-Oct-19 13:58N 39°33' E 002°23'1605251255.0
2017-Oct-19 13:58N 44°44' E 037°47'27799746.4
2017-Oct-19 13:58N 46°56' E 031°57'69938391059.6
2017-Oct-19 13:58N 32°43' W 118°40'6997662838.2
2017-Oct-19 13:57N 46°50' E 031°57'4801523758.7
2017-Oct-19 13:56N 01°18' E 104°01'4801240072.5
2017-Oct-19 13:55N 46°50' E 031°57'4871181.4
2017-Oct-19 13:31N 44°51' E 020°38'43517831622.9
2017-Oct-19 13:31N 38°58' W 076°29'21023784042.6
2017-Oct-19 13:30N 49°18' W 123°08'49111767822.4
2017-Oct-19 13:30N 49°02' E 002°03'62312039224.4
2017-Oct-19 13:30N 01°12' E 103°51'48004320297.1
2017-Oct-19 13:30N 46°56' E 031°57'12254410237.7
2017-Oct-19 13:30N 52°05' E 001°32'345712443978.7
2017-Oct-19 13:30N 36°53' W 076°22'21971317945.5
2017-Oct-19 13:30N 37°47' W 122°23'69182075358.5
2017-Oct-19 13:30N 37°56' E 023°39'47402437724.7
2017-Oct-19 13:30N 22°44' E 113°28'59191121520.3
2017-Oct-19 13:29N 47°43' W 003°21'32343881106.7
2017-Oct-19 13:29N 38°58' W 076°29'104152499680.5
2017-Oct-19 13:29N 01°16' E 103°58'33212390847.0
2017-Oct-19 13:29S 38°20' E 144°45'97186996904.6
2017-Oct-19 13:29N 39°32' E 002°43'1591286419.9
2017-Oct-19 13:28N 44°44' E 037°47'27598936.8
2017-Oct-19 13:28N 46°50' E 031°57'14065061937.2
2017-Oct-19 13:28N 68°04' E 013°32'101362613.1
2017-Oct-19 13:28N 66°24' E 013°08'14851782185.3
2017-Oct-19 13:28N 45°28' E 036°44'1486243145.3
2017-Oct-19 13:28N 66°10' E 012°32'15475568871.7
2017-Oct-19 13:28N 44°44' E 037°47'277124677.2
2017-Oct-19 13:28N 46°56' E 031°57'89641363.7
2017-Oct-19 13:26N 59°20' E 018°05'5918234136.8
2017-Oct-19 13:25N 32°43' W 118°43'123124761.5
2017-Oct-19 13:22N 29°33' W 095°02'607753100.0
2017-Oct-19 13:15N 46°50' E 031°57'5023904175.8
2017-Oct-19 13:15N 34°25' W 077°08'359615210.8
2017-Oct-19 13:01N 52°03' E 001°29'33716067770.0
2017-Oct-19 13:01N 38°58' W 076°29'34446199449.3
2017-Oct-19 13:00N 49°00' E 002°04'49138843589.1
2017-Oct-19 13:00N 49°18' W 123°08'58807056550.7
2017-Oct-19 13:00N 44°51' E 020°38'8733144042.2
2017-Oct-19 13:00N 59°20' E 018°05'59172130122.8
2017-Oct-19 13:00N 32°43' W 118°41'69933596500.4
2017-Oct-19 13:00N 46°56' E 031°57'48742924342.5
2017-Oct-19 13:00N 36°53' W 076°22'51333695958.6
2017-Oct-19 13:00N 45°28' E 036°44'14861783044.6
2017-Oct-19 13:00N 66°22' E 013°02'59807175786.2
2017-Oct-19 13:00N 01°15' E 103°50'50394535013.2
2017-Oct-19 13:00N 37°56' E 023°39'1325176680.2
2017-Oct-19 12:59N 47°43' W 003°21'32342910830.0
2017-Oct-19 12:59N 38°58' W 076°29'140602410333.8
2017-Oct-19 12:59S 38°20' E 144°45'971817492260.6
2017-Oct-19 12:59N 39°32' E 002°43'1591272780.8
2017-Oct-19 12:58N 44°44' E 037°47'4485489284.6
2017-Oct-19 12:58N 01°15' E 103°50'59955395377.7
2017-Oct-19 12:58N 66°10' E 012°32'15471856310.7
2017-Oct-19 12:58N 44°44' E 037°47'1944777775.1
2017-Oct-19 12:58N 36°45' W 003°40'1705170472.6
2017-Oct-19 12:57N 46°50' E 031°57'140648674.3
2017-Oct-19 12:55N 68°04' E 013°32'1401136291.6
2017-Oct-19 12:55N 46°56' E 031°57'6865504397.0
2017-Oct-19 12:54N 37°47' W 122°23'6870254961.4
2017-Oct-19 12:52N 46°50' E 031°57'6077109380.1
2017-Oct-19 12:49N 29°33' W 095°02'948130861.7
2017-Oct-19 12:31N 01°13' E 103°43'1040437453775.9
2017-Oct-19 12:31N 38°58' W 076°29'21021892031.1
2017-Oct-19 12:30N 49°18' W 123°08'58805292413.0
2017-Oct-19 12:30N 44°51' E 020°38'6822454804.7
2017-Oct-19 12:30N 45°28' E 036°44'45502339876.8
2017-Oct-19 12:30N 01°13' E 103°48'31483.1
2017-Oct-19 12:30N 01°15' E 103°50'104404697932.2
2017-Oct-19 12:30N 36°53' W 076°22'21973953845.2
2017-Oct-19 12:30N 37°47' W 122°23'52763799016.7
2017-Oct-19 12:30N 66°20' E 012°54'1750899783.6
2017-Oct-19 12:30N 37°56' E 023°39'1325170370.2
2017-Oct-19 12:29N 47°43' W 003°21'32343881106.7
2017-Oct-19 12:29N 38°58' W 076°29'3680529949.1
2017-Oct-19 12:29N 39°32' E 002°43'1591409171.5
2017-Oct-19 12:29N 44°44' E 037°47'1615387677.3
2017-Oct-19 12:28N 68°04' E 013°32'1400387734.5
2017-Oct-19 12:28N 46°56' E 031°57'60741987819.6
2017-Oct-19 12:28N 29°33' W 095°02'64173300182.7
2017-Oct-19 12:28N 44°44' E 037°47'277142493.3
2017-Oct-19 12:28N 46°56' E 031°57'896537727.6
2017-Oct-19 12:28N 59°20' E 018°05'90123677.6
2017-Oct-19 12:25N 46°50' E 031°57'4263279015.9
2017-Oct-19 12:24N 22°47' E 113°22'5041120188.2
2017-Oct-19 12:22N 66°10' E 012°32'5498282775.1
2017-Oct-19 12:21N 32°41' W 118°37'6995449647.4
2017-Oct-19 12:20N 46°57' E 032°01'7256.3
2017-Oct-19 12:18N 46°50' E 031°57'478916343.2
2017-Oct-19 12:01N 38°58' W 076°29'21022522708.1
2017-Oct-19 12:00N 49°18' W 123°08'621622377272.1
2017-Oct-19 12:00N 46°56' E 032°01'491353590.9
2017-Oct-19 12:00N 44°51' E 020°38'6822454804.7
2017-Oct-19 12:00N 45°28' E 036°44'14465205366.5
2017-Oct-19 12:00N 52°06' E 001°34'18952411.6
2017-Oct-19 12:00N 48°58' E 002°11'56275063896.2
2017-Oct-19 12:00N 22°48' E 113°20'1411564547.5
2017-Oct-19 12:00N 01°12' E 103°47'788128370554.5
2017-Oct-19 12:00N 37°47' W 122°23'69182490430.2
2017-Oct-19 12:00N 37°56' E 023°39'1749286195.9
2017-Oct-19 11:59N 66°19' E 012°47'12351111124.4
2017-Oct-19 11:59N 47°43' W 003°21'32342910829.7
2017-Oct-19 11:59N 38°58' W 076°29'3680552030.4
2017-Oct-19 11:59N 39°32' E 002°43'1591358024.0
2017-Oct-19 11:59N 44°44' E 037°47'27582446.9
2017-Oct-19 11:58N 46°50' E 031°57'47958631779.1
2017-Oct-19 11:58N 01°15' E 103°50'332511970544.2
2017-Oct-19 11:58S 38°20' E 144°45'140122802355.4
2017-Oct-19 11:58N 36°53' W 076°22'20961886535.0
2017-Oct-19 11:58N 32°40' W 118°35'12244405735.2
2017-Oct-19 11:58N 29°33' W 095°02'48555826146.3
2017-Oct-19 11:58N 66°10' E 012°32'15472784456.0
2017-Oct-19 11:58N 44°44' E 037°47'277124681.6
2017-Oct-19 11:58N 46°56' E 031°57'1634.3
2017-Oct-19 11:58N 46°56' E 031°57'8961612211.2
2017-Oct-19 11:58N 59°20' E 018°05'1611105450.4
2017-Oct-19 11:57N 36°45' W 003°39'170439071.5
2017-Oct-19 11:54N 46°50' E 031°57'478912202.4
2017-Oct-19 11:31N 38°58' W 076°29'1041437491262.8
2017-Oct-19 11:31N 01°17' E 103°58'776513976817.3
2017-Oct-19 11:30N 49°18' W 123°08'49205903555.6
2017-Oct-19 11:30N 48°56' E 002°09'557120054708.9
2017-Oct-19 11:30N 32°37' W 118°33'655611800362.9
2017-Oct-19 11:30N 44°51' E 020°38'1010726883.9
2017-Oct-19 11:30N 47°43' W 003°21'64832593264.5
2017-Oct-19 11:30N 01°13' E 103°48'62744517384.8
2017-Oct-19 11:30N 52°07' E 001°35'53342400316.0
2017-Oct-19 11:30N 37°47' W 122°23'527418987482.6
2017-Oct-19 11:30N 66°18' E 012°48'443531340.9
2017-Oct-19 11:30N 59°20' E 018°05'1302585987.3
2017-Oct-19 11:30N 37°56' E 023°39'4706564662.0
2017-Oct-19 11:29N 38°58' W 076°29'3680576032.9
2017-Oct-19 11:29N 39°32' E 002°43'1591286419.1
2017-Oct-19 11:29N 44°44' E 037°47'1615581513.3
2017-Oct-19 11:28N 68°04' E 013°32'11715538.0
2017-Oct-19 11:28N 66°10' E 012°32'15471392228.0
2017-Oct-19 11:28N 44°44' E 037°47'277199490.6
2017-Oct-19 11:28N 46°56' E 031°57'1319.8
2017-Oct-19 11:28N 46°56' E 031°57'84681604547.3
2017-Oct-19 11:27S 38°20' E 144°45'84671016038.6
2017-Oct-19 11:27N 46°57' E 031°60'6075705521.8
2017-Oct-19 11:26N 29°33' W 095°02'6077165736.2
2017-Oct-19 11:24N 46°50' E 031°57'1 4.1
2017-Oct-19 11:05N 46°50' E 031°55'478861780.0
2017-Oct-19 11:01N 38°58' W 076°29'43511957905.5
2017-Oct-19 11:00N 44°51' E 020°38'13142364932.7
2017-Oct-19 11:00N 66°18' E 012°47'992217859089.3
2017-Oct-19 11:00S 38°20' E 144°45'332211959151.5
2017-Oct-19 11:00N 01°22' E 104°03'775727924429.9
2017-Oct-19 11:00N 49°18' W 123°08'492117713906.3
2017-Oct-19 11:00N 48°53' E 002°07'1208395264.2
2017-Oct-19 11:00N 46°50' E 031°57'47982467496.5
2017-Oct-19 11:00N 01°17' E 103°56'78705666163.9
2017-Oct-19 11:00N 37°47' W 122°23'68663531156.7
2017-Oct-19 11:00N 46°57' E 031°60'4788522288.5
2017-Oct-19 10:59N 38°58' W 076°29'3680552030.9
2017-Oct-19 10:59N 39°32' E 002°43'1591272779.3
2017-Oct-19 10:58N 44°44' E 037°47'1615726892.7
2017-Oct-19 10:58N 68°04' E 013°32'11714983.1
2017-Oct-19 10:58N 66°10' E 012°32'15472784466.0
2017-Oct-19 10:58N 44°44' E 037°47'277124683.0
2017-Oct-19 10:58N 46°56' E 031°57'1426.4
2017-Oct-19 10:58N 46°56' E 031°57'65345230.3
2017-Oct-19 10:57N 37°56' E 023°39'6489518.9
2017-Oct-19 10:53N 46°50' E 031°55'6075152947.7
2017-Oct-19 10:50N 29°33' W 095°02'948186631.8
2017-Oct-19 10:44N 01°13' E 103°43'812975616.6
2017-Oct-19 10:37N 32°36' W 118°31'8120254184.8
2017-Oct-19 10:35N 01°16' E 103°52'6220153365.7
2017-Oct-19 10:33N 41°10' E 001°14'357189277.1
2017-Oct-19 10:31N 38°58' W 076°29'43511957905.5
2017-Oct-19 10:30N 44°51' E 020°38'58805292413.0
2017-Oct-19 10:30N 49°18' W 123°08'761127398119.5
2017-Oct-19 10:30S 38°20' E 144°45'983611803196.7
2017-Oct-19 10:30N 41°12' E 001°21'621311183615.7
2017-Oct-19 10:30N 01°12' E 103°48'47968632605.1
2017-Oct-19 10:30N 46°50' E 031°57'13282391028.8
2017-Oct-19 10:30N 66°16' E 012°43'52731265425.1
2017-Oct-19 10:30N 37°47' W 122°23'68663531159.0
2017-Oct-19 10:30N 46°57' E 031°60'72109.1
2017-Oct-19 10:30N 46°50' E 031°57'47982878703.0
2017-Oct-19 10:29N 01°15' E 103°54'62253201596.2
2017-Oct-19 10:29N 48°52' E 002°08'34491552218.4
2017-Oct-19 10:29N 38°58' W 076°29'3680602215.2
2017-Oct-19 10:29N 39°32' E 002°43'1591301493.6
2017-Oct-19 10:29N 44°44' E 037°47'15091358536.2
2017-Oct-19 10:28N 52°05' E 001°32'1024368586.8
2017-Oct-19 10:28N 68°04' E 013°32'54874938011.4
2017-Oct-19 10:28N 32°36' W 118°31'5500990055.0
2017-Oct-19 10:28N 66°10' E 012°32'1547795558.8
2017-Oct-19 10:28N 44°44' E 037°47'277199490.6
2017-Oct-19 10:28N 46°56' E 031°57'1634.3
2017-Oct-19 10:28N 46°56' E 031°57'21765103.3
2017-Oct-19 10:27N 45°28' E 036°44'107622651.4
2017-Oct-19 10:25N 59°20' E 018°05'130291919.6
2017-Oct-19 10:24N 37°56' E 023°39'170635712.9
2017-Oct-19 10:21N 65°28' E 012°11'4850498814.7
2017-Oct-19 10:20N 29°33' W 095°02'14587584.0
2017-Oct-19 10:09N 37°52' W 122°29'216415736.0
2017-Oct-19 10:01N 38°58' W 076°29'1041312495419.4
2017-Oct-19 10:00N 01°13' E 103°54'52904761030.4
2017-Oct-19 10:00N 44°51' E 020°38'58803528275.4
2017-Oct-19 10:00N 49°18' W 123°08'77614656670.1
2017-Oct-19 10:00N 01°26' E 103°53'78671416020.7
2017-Oct-19 10:00N 37°47' W 122°23'686612359056.4
2017-Oct-19 10:00N 46°57' E 031°60'71322.4
2017-Oct-19 10:00N 46°50' E 031°57'47901077678.1
2017-Oct-19 09:59N 38°58' W 076°29'50464541501.5
2017-Oct-19 09:59N 45°28' E 036°44'21551556.0
2017-Oct-19 09:59N 46°50' E 031°57'1352811243.2
2017-Oct-19 09:59N 39°32' E 002°43'1353405962.4
2017-Oct-19 09:59N 46°56' E 031°57'277124755.1
2017-Oct-19 09:58N 44°44' E 037°47'1615528650.9
2017-Oct-19 09:58N 68°04' E 013°32'993217878121.5
2017-Oct-19 09:58S 38°20' E 144°44'99271880928.4
2017-Oct-19 09:58N 65°29' E 012°12'4250768.0
2017-Oct-19 09:58N 66°10' E 012°32'1547696114.0
2017-Oct-19 09:58N 44°44' E 037°47'15095434050.9
2017-Oct-19 09:58N 52°05' E 001°32'708364008.6
2017-Oct-19 09:58N 59°20' E 018°05'130285234.1
2017-Oct-19 09:57N 37°56' E 023°39'114472244.9
2017-Oct-19 09:56N 48°52' E 002°09'120466709.0
2017-Oct-19 09:55N 46°56' E 031°57'48741462240.7
2017-Oct-19 09:54N 36°53' W 076°22'103514847.1
2017-Oct-19 09:50N 29°33' W 095°02'4429261397.5
2017-Oct-19 09:49N 47°39' W 003°27'535317811.2
2017-Oct-19 09:31N 32°37' W 118°29'2079166341.2
2017-Oct-19 09:31N 38°58' W 076°29'50469082596.1
2017-Oct-19 09:30N 45°28' E 036°44'45535463749.4
2017-Oct-19 09:30N 01°16' E 103°55'52906347610.1
2017-Oct-19 09:30N 44°51' E 020°38'8733144040.8
2017-Oct-19 09:30N 59°20' E 018°05'564120307513.3
2017-Oct-19 09:30N 01°25' E 103°55'77609312073.4
2017-Oct-19 09:30N 49°18' W 123°08'62142796248.1
2017-Oct-19 09:30N 46°56' E 031°57'68651647624.0
2017-Oct-19 09:30N 37°47' W 122°23'36469003.7
2017-Oct-19 09:30N 32°37' W 118°29'69941398879.3
2017-Oct-19 09:29N 46°50' E 031°57'01139.8
2017-Oct-19 09:29N 46°50' E 031°57'47898620884.4
2017-Oct-19 09:29N 38°58' W 076°29'3680576032.1
2017-Oct-19 09:29N 39°32' E 002°43'1591260383.2
2017-Oct-19 09:28N 44°44' E 037°47'1615528651.9
2017-Oct-19 09:28N 68°04' E 013°32'15928592.4
2017-Oct-19 09:28N 65°29' E 012°12'4230461.1
2017-Oct-19 09:28N 66°10' E 012°32'1547556890.5
2017-Oct-19 09:28N 44°44' E 037°47'277997452.9
2017-Oct-19 09:28N 46°56' E 031°57'2138.7
2017-Oct-19 09:27N 46°57' E 031°60'655589266.8
2017-Oct-19 09:27N 37°56' E 023°39'5942891328.4
2017-Oct-19 09:26N 29°33' W 095°02'4760118190.5
2017-Oct-19 09:24N 41°02' E 001°09'362584743.4
2017-Oct-19 09:21N 36°53' W 076°22'125360.4
2017-Oct-19 09:01N 38°58' W 076°29'104066243680.7
2017-Oct-19 09:00N 01°25' E 103°56'52836339755.7
2017-Oct-19 09:00N 44°51' E 020°38'1010908985.5
2017-Oct-19 09:00N 47°37' W 003°22'476617158753.0
2017-Oct-19 09:00N 49°18' W 123°08'4482806786.4
2017-Oct-19 09:00N 65°28' E 012°11'52806336466.6
2017-Oct-19 09:00N 37°47' W 122°23'68663089764.1
2017-Oct-19 09:00N 46°57' E 031°60'655785689.0
2017-Oct-19 09:00N 37°56' E 023°39'653587895.1
2017-Oct-19 09:00N 46°56' E 031°57'61063.6
2017-Oct-19 08:59N 46°50' E 031°57'0564.6
2017-Oct-19 08:59N 46°50' E 031°57'47908621422.1
2017-Oct-19 08:59N 38°58' W 076°29'3680552030.5
2017-Oct-19 08:59N 39°32' E 002°43'1591272783.0
2017-Oct-19 08:58N 44°44' E 037°47'1615581517.1
2017-Oct-19 08:58N 68°04' E 013°32'11716135.7
2017-Oct-19 08:58N 66°10' E 012°32'1547795558.8
2017-Oct-19 08:58N 44°44' E 037°47'81189741226.8
2017-Oct-19 08:58S 38°20' E 144°45'846830485622.1
2017-Oct-19 08:58N 46°56' E 031°57'6074254263.7
2017-Oct-19 08:56N 29°33' W 095°02'5164184062.5
2017-Oct-19 08:55N 59°20' E 018°05'482541856.7
2017-Oct-19 08:48N 23°05' E 113°29'480216814.9
2017-Oct-19 08:31N 44°51' E 020°38'435115663243.8
2017-Oct-19 08:31N 38°58' W 076°29'47898620471.9
2017-Oct-19 08:30N 46°50' E 031°57'622022391506.8
2017-Oct-19 08:30N 49°18' W 123°08'777513995164.6
2017-Oct-19 08:30N 01°16' E 103°46'1761812.3
2017-Oct-19 08:30N 01°22' E 104°02'48011152256.5
2017-Oct-19 08:30N 46°56' E 031°57'47982878635.0
2017-Oct-19 08:30N 01°16' E 103°51'78753150194.1
2017-Oct-19 08:30N 37°47' W 122°23'68662746454.6
2017-Oct-19 08:30N 46°57' E 031°60'655785686.0
2017-Oct-19 08:30N 37°56' E 023°39'5942855676.0
2017-Oct-19 08:29N 29°33' W 095°02'443315957758.1
2017-Oct-19 08:29N 47°40' W 003°22'14402591383.3
2017-Oct-19 08:29N 46°50' E 031°57'479017242844.2
2017-Oct-19 08:29N 38°58' W 076°29'3680529949.2
2017-Oct-19 08:29N 39°32' E 002°43'1591272780.9
2017-Oct-19 08:28N 44°44' E 037°47'81182922365.1
2017-Oct-19 08:28S 38°20' E 144°45'8468871017.8
2017-Oct-19 08:28N 46°56' E 031°57'277997466.1
2017-Oct-19 08:28N 44°44' E 037°47'1138585509.9
2017-Oct-19 08:28N 59°20' E 018°05'5917332837.4
2017-Oct-19 08:27N 32°38' W 118°33'5499199963.8
2017-Oct-19 08:25N 66°10' E 012°32'526716531.3
2017-Oct-19 08:06N 37°52' W 122°29'787190240.5
2017-Oct-19 08:01N 01°14' E 103°51'1040918736875.2
2017-Oct-19 08:00N 38°58' W 076°29'478917240943.7
2017-Oct-19 08:00N 46°50' E 031°57'622022391485.6
2017-Oct-19 08:00N 49°18' W 123°08'778028008247.1
2017-Oct-19 08:00N 01°13' E 103°43'52823802770.1
2017-Oct-19 08:00N 44°51' E 020°38'1010909135.1
2017-Oct-19 08:00N 47°42' W 003°22'1438862603.5
2017-Oct-19 08:00N 46°56' E 031°57'68651235765.2
2017-Oct-19 08:00N 37°47' W 122°23'68666179528.2
2017-Oct-19 08:00N 46°57' E 031°60'68668238781.6
2017-Oct-19 08:00N 37°52' W 122°29'691912453537.1
2017-Oct-19 08:00N 37°56' E 023°39'64893361.1
2017-Oct-19 07:59N 46°50' E 031°57'607721877218.0
2017-Oct-19 07:59N 29°33' W 095°02'10793884667.4
2017-Oct-19 07:59N 38°58' W 076°29'3680552030.5
2017-Oct-19 07:59N 39°32' E 002°43'97182691115.5
2017-Oct-19 07:59S 38°20' E 144°45'81183247074.2
2017-Oct-19 07:58N 44°44' E 037°47'1615528650.3
2017-Oct-19 07:58N 68°04' E 013°32'11716135.6
2017-Oct-19 07:58N 66°10' E 012°32'15472784462.6
2017-Oct-19 07:58N 44°44' E 037°47'277110829.3
2017-Oct-19 07:58N 46°56' E 031°57'896645276.5
2017-Oct-19 07:58N 59°20' E 018°05'5642216091.8
2017-Oct-19 07:56N 01°16' E 103°46'182120.7
2017-Oct-19 07:56N 01°18' E 104°03'8106108079.7
2017-Oct-19 07:51N 32°36' W 118°33'699820431.8
2017-Oct-19 07:30N 46°50' E 031°57'47882872799.5
2017-Oct-19 07:30N 01°18' E 103°44'527819002361.0
2017-Oct-19 07:30N 44°51' E 020°38'52799502093.1
2017-Oct-19 07:30N 01°12' E 103°39'2645994.3
2017-Oct-19 07:30N 01°18' E 104°04'775927932498.2
2017-Oct-19 07:30N 49°18' W 123°08'622022392396.6
2017-Oct-19 07:30N 46°50' E 031°57'65638.8
2017-Oct-19 07:30N 46°56' E 031°57'47971569806.9
2017-Oct-19 07:30N 01°14' E 103°48'78795673149.5
2017-Oct-19 07:30N 37°47' W 122°23'68662746457.0
2017-Oct-19 07:30N 46°57' E 031°60'47878617371.0
2017-Oct-19 07:30N 38°58' W 076°29'47058469575.4
2017-Oct-19 07:30N 37°56' E 023°39'5942792291.9
2017-Oct-19 07:29N 29°33' W 095°02'10791294884.1
2017-Oct-19 07:29N 38°58' W 076°29'3680602215.9
2017-Oct-19 07:29N 39°32' E 002°43'97182498892.9
2017-Oct-19 07:29S 38°20' E 144°45'41164939673.0
2017-Oct-19 07:29N 22°47' E 113°17'399014363534.5
2017-Oct-19 07:29N 44°44' E 037°47'1615387676.5
2017-Oct-19 07:28N 68°04' E 013°32'11717480.3
2017-Oct-19 07:28N 66°10' E 012°32'12232202187.7
2017-Oct-19 07:28N 47°43' W 003°21'17172060459.0
2017-Oct-19 07:28N 44°44' E 037°47'277142493.3
2017-Oct-19 07:28N 46°56' E 031°57'896806593.8
2017-Oct-19 07:28N 59°20' E 018°05'401621973.2
2017-Oct-19 07:17N 36°53' W 076°22'220070716.5
2017-Oct-19 07:15N 37°52' W 122°29'647530956.5
2017-Oct-19 07:02N 23°05' E 113°29'9814336493.3
2017-Oct-19 07:01N 38°58' W 076°29'125450124.3
2017-Oct-19 07:00N 36°53' W 076°22'1042937544209.2
2017-Oct-19 07:00N 01°13' E 103°37'52773166213.2
2017-Oct-19 07:00N 44°51' E 020°38'58805292417.8
2017-Oct-19 07:00N 49°18' W 123°08'620111161925.6
2017-Oct-19 07:00N 22°48' E 113°19'42595111394.0
2017-Oct-19 07:00N 46°56' E 031°57'48081442503.2
2017-Oct-19 07:00N 01°18' E 104°07'48065767551.2
2017-Oct-19 07:00N 46°50' E 031°57'687012365628.6
2017-Oct-19 07:00N 37°47' W 122°23'68662471811.3
2017-Oct-19 07:00N 46°57' E 031°60'655785689.0
2017-Oct-19 07:00N 37°56' E 023°39'648137295.8
2017-Oct-19 06:59N 46°50' E 031°57'47901436906.3
2017-Oct-19 06:59N 38°58' W 076°29'3680576032.1
2017-Oct-19 06:59N 39°32' E 002°43'1755421144.0
2017-Oct-19 06:59N 68°04' E 013°32'16151453788.4
2017-Oct-19 06:59N 44°44' E 037°47'1717150765.8
2017-Oct-19 06:58N 47°43' W 003°21'17171545343.9
2017-Oct-19 06:58N 44°44' E 037°47'277498726.4
2017-Oct-19 06:58N 46°56' E 031°57'47901014282.5
2017-Oct-19 06:57N 01°18' E 103°43'9479473935.8
2017-Oct-19 06:56N 29°33' W 095°02'4855208076.5
2017-Oct-19 06:55N 66°10' E 012°32'5500133781.8
2017-Oct-19 06:52N 32°37' W 118°32'8123198941.0
2017-Oct-19 06:50N 01°18' E 103°45'142620530.0
2017-Oct-19 06:46N 23°05' E 113°29'48251579138.6
2017-Oct-19 06:46N 59°20' E 018°05'390715525.2
2017-Oct-19 06:31N 38°58' W 076°29'1040018719811.0
2017-Oct-19 06:30N 01°18' E 103°43'27812.6
2017-Oct-19 06:30N 01°17' E 103°45'14095071278.1
2017-Oct-19 06:30N 22°47' E 113°22'48084327294.5
2017-Oct-19 06:30N 44°51' E 020°38'52926350530.8
2017-Oct-19 06:30N 01°18' E 104°00'776213972033.3
2017-Oct-19 06:30N 49°18' W 123°08'62145592169.4
2017-Oct-19 06:30N 46°56' E 031°57'68651300696.4
2017-Oct-19 06:30N 37°47' W 122°23'68663089766.1
2017-Oct-19 06:30N 46°57' E 031°60'655785689.0
2017-Oct-19 06:30N 37°56' E 023°39'4706584132.7
2017-Oct-19 06:29N 38°58' W 076°29'3680529949.4
2017-Oct-19 06:29N 39°32' E 002°43'1591272779.9
2017-Oct-19 06:28N 44°44' E 037°47'1615581515.3
2017-Oct-19 06:28N 68°04' E 013°32'11716781.0
2017-Oct-19 06:28N 66°10' E 012°32'12232202187.9
2017-Oct-19 06:28N 47°43' W 003°21'17171545348.3
2017-Oct-19 06:28N 44°44' E 037°47'81181007713.1
2017-Oct-19 06:27S 38°20' E 144°45'7190718981.8
2017-Oct-19 06:27N 32°37' W 118°34'1223169364.7
2017-Oct-19 06:26N 29°33' W 095°02'6077428941.4
2017-Oct-19 06:25N 46°50' E 031°57'057.7
2017-Oct-19 06:25N 46°50' E 031°57'699.2
2017-Oct-19 06:22N 46°56' E 031°57'896403295.7
2017-Oct-19 06:22N 59°20' E 018°05'401611520.6
2017-Oct-19 06:01N 36°53' W 076°22'12545012.4
2017-Oct-19 06:01N 38°58' W 076°29'43511957905.5
2017-Oct-19 06:00N 44°51' E 020°38'489293103.6
2017-Oct-19 06:00N 46°55' E 031°57'48015761000.4
2017-Oct-19 06:00N 01°16' E 103°56'1403631440.2
2017-Oct-19 06:00N 22°45' E 113°24'62002480003.1
2017-Oct-19 06:00N 49°18' W 123°08'692829931.2
2017-Oct-19 06:00N 37°47' W 122°23'69182490430.2
2017-Oct-19 06:00N 37°56' E 023°39'50321006400.9
2017-Oct-19 05:59N 01°13' E 103°41'104012880372.6
2017-Oct-19 05:59N 38°58' W 076°29'3680576031.6
2017-Oct-19 05:59N 39°32' E 002°43'1591249061.0
2017-Oct-19 05:58N 44°44' E 037°47'275989389.6
2017-Oct-19 05:58N 46°50' E 031°57'1406632742.2
2017-Oct-19 05:58N 68°04' E 013°32'1406421844.0
2017-Oct-19 05:58N 46°50' E 031°57'1327397965.4
2017-Oct-19 05:58N 66°10' E 012°32'15471392224.6
2017-Oct-19 05:58N 44°44' E 037°47'277110828.1
2017-Oct-19 05:58N 46°56' E 031°57'84683810702.8
2017-Oct-19 05:58S 38°20' E 144°45'33322399138.9
2017-Oct-19 05:57N 01°18' E 103°43'4788420435.9
2017-Oct-19 05:57N 46°57' E 031°60'6075705521.3
2017-Oct-19 05:56N 29°33' W 095°02'633779763.8
2017-Oct-19 05:52N 45°20' E 036°30'512797664.7
2017-Oct-19 05:48N 36°53' W 076°22'401642275.9
2017-Oct-19 05:43N 59°20' E 018°05'390719321.2
2017-Oct-19 05:31N 38°58' W 076°29'1041237481749.6
2017-Oct-19 05:31N 01°14' E 103°53'1018494.5
2017-Oct-19 05:30N 01°18' E 103°43'14075064912.9
2017-Oct-19 05:30N 22°44' E 113°27'48143466411.3
2017-Oct-19 05:30N 44°51' E 020°38'58805292402.6
2017-Oct-19 05:30N 49°18' W 123°08'69295761.3
2017-Oct-19 05:30N 37°47' W 122°23'68664943622.6
2017-Oct-19 05:30N 46°57' E 031°60'655589266.8
2017-Oct-19 05:30N 37°56' E 023°39'5942763995.8
2017-Oct-19 05:29N 29°33' W 095°02'10791942328.9
2017-Oct-19 05:29N 38°58' W 076°29'3680602215.3
2017-Oct-19 05:29N 39°32' E 002°43'1591249060.2
2017-Oct-19 05:28N 44°44' E 037°47'275494688.1
2017-Oct-19 05:28N 46°50' E 031°57'1406632741.5
2017-Oct-19 05:28N 68°04' E 013°32'1406460193.0
2017-Oct-19 05:28N 46°50' E 031°57'1327318372.7
2017-Oct-19 05:28N 66°10' E 012°32'12234404375.8
2017-Oct-19 05:28N 47°43' W 003°21'17171236278.7
2017-Oct-19 05:28N 44°44' E 037°47'52052676924.2
2017-Oct-19 05:28N 36°53' W 076°22'40163614586.3
2017-Oct-19 05:28N 59°20' E 018°05'94968546614.9
2017-Oct-19 05:28S 38°20' E 144°45'8468180388.3
2017-Oct-19 05:25N 46°56' E 031°57'6990629106.2
2017-Oct-19 05:24N 32°37' W 118°29'7274363683.7
2017-Oct-19 05:23N 45°28' E 036°44'16176.4
2017-Oct-19 05:18N 45°17' E 036°29'715049121.6
2017-Oct-19 05:09N 37°52' W 122°29'787057239.6
2017-Oct-19 05:01N 01°15' E 103°50'14095071144.4
2017-Oct-19 05:01N 22°45' E 113°31'983435403776.4
2017-Oct-19 05:00N 38°58' W 076°29'21027568112.2
2017-Oct-19 05:00N 49°18' W 123°08'64987798029.1
2017-Oct-19 05:00N 45°28' E 036°44'6821227391.4
2017-Oct-19 05:00N 44°51' E 020°38'44273984219.1
2017-Oct-19 05:00N 36°53' W 076°22'2090301012.3
2017-Oct-19 05:00N 32°37' W 118°27'69893145178.1
2017-Oct-19 05:00N 46°57' E 031°60'655785689.0
2017-Oct-19 05:00N 37°56' E 023°39'4706564661.5
2017-Oct-19 04:59N 38°58' W 076°29'3680552031.0
2017-Oct-19 04:59N 39°32' E 002°43'1591286419.7
2017-Oct-19 04:58N 44°44' E 037°47'275329796.5
2017-Oct-19 04:58N 46°50' E 031°57'1406723133.9
2017-Oct-19 04:58N 68°04' E 013°32'11715538.1
2017-Oct-19 04:58N 66°10' E 012°32'12232202185.7
2017-Oct-19 04:58N 47°43' W 003°21'17171030232.5
2017-Oct-19 04:58N 44°44' E 037°47'277332484.3
2017-Oct-19 04:58N 46°56' E 031°57'47901436898.8
2017-Oct-19 04:57N 01°18' E 103°43'7881746582.0
2017-Oct-19 04:57N 37°47' W 122°23'1452149382.7
2017-Oct-19 04:56N 29°33' W 095°02'6077312531.4
2017-Oct-19 04:55N 46°50' E 031°57'901124777.9
2017-Oct-19 04:55N 59°20' E 018°05'572549779.8
2017-Oct-19 04:48N 37°52' W 122°29'787527338.4
2017-Oct-19 04:30N 01°18' E 103°43'77769330715.1
2017-Oct-19 04:30N 49°18' W 123°08'58807056536.9
2017-Oct-19 04:30N 44°51' E 020°38'89545372687.6
2017-Oct-19 04:30S 38°20' E 144°45'719812956358.7
2017-Oct-19 04:30N 32°37' W 118°24'81254178645.1
2017-Oct-19 04:30N 01°16' E 103°53'4797822428.1
2017-Oct-19 04:30N 46°57' E 031°60'655589271.1
2017-Oct-19 04:30N 37°56' E 023°39'47678579934.9
2017-Oct-19 04:30N 36°53' W 076°22'4877975345.5
2017-Oct-19 04:29N 46°50' E 031°57'47891724173.7
2017-Oct-19 04:29N 38°58' W 076°29'47908621422.1
2017-Oct-19 04:29N 46°50' E 031°57'21564427.1
2017-Oct-19 04:29N 45°28' E 036°44'40542432314.7
2017-Oct-19 04:29N 22°44' E 113°34'578210407168.2
2017-Oct-19 04:29N 39°32' E 002°43'1591238682.4
2017-Oct-19 04:28N 44°44' E 037°47'1615646127.5
2017-Oct-19 04:28N 68°04' E 013°32'1335200268.9
2017-Oct-19 04:28N 47°43' W 003°21'1717618140.3
2017-Oct-19 04:28N 44°44' E 037°47'277498738.5
2017-Oct-19 04:28N 46°56' E 031°57'896537730.4
2017-Oct-19 04:28N 59°20' E 018°05'5164232379.0
2017-Oct-19 04:26N 29°33' W 095°02'4855208076.5
2017-Oct-19 04:25N 66°10' E 012°32'5269321525.4
2017-Oct-19 04:24N 37°47' W 122°23'21615543.9
2017-Oct-19 04:01N 38°58' W 076°29'20731243929.8
2017-Oct-19 04:00N 32°37' W 118°21'20861501939.4
2017-Oct-19 04:00N 36°53' W 076°22'21803924592.9
2017-Oct-19 04:00N 49°18' W 123°08'58803528268.4
2017-Oct-19 04:00N 44°51' E 020°38'48231085141.1
2017-Oct-19 04:00N 22°44' E 113°38'14091268192.9
2017-Oct-19 04:00N 01°16' E 103°55'47994318793.3
2017-Oct-19 04:00N 46°57' E 031°60'84671524058.8
2017-Oct-19 03:59S 38°20' E 144°45'846510158508.2
2017-Oct-19 03:59N 46°50' E 031°57'47891567429.6
2017-Oct-19 03:59N 38°58' W 076°29'3680552030.6
2017-Oct-19 03:59N 39°32' E 002°43'1755203779.3
2017-Oct-19 03:58N 68°04' E 013°32'11716781.9
2017-Oct-19 03:58N 66°10' E 012°32'12231468118.6
2017-Oct-19 03:58N 47°43' W 003°21'1437574749.0
2017-Oct-19 03:58N 46°56' E 031°57'47901326369.4
2017-Oct-19 03:57N 01°18' E 103°43'5031402482.0
2017-Oct-19 03:57N 37°56' E 023°39'5942822765.4
2017-Oct-19 03:56N 29°33' W 095°02'6077284119.4
2017-Oct-19 03:55N 46°50' E 031°57'901162209.2
2017-Oct-19 03:55N 59°20' E 018°05'5726420710.9
2017-Oct-19 03:54N 37°47' W 122°23'765.0
2017-Oct-19 03:48N 37°52' W 122°29'615332624.0
2017-Oct-19 03:36N 60°02' E 029°58'96110238.9
2017-Oct-19 03:31N 44°44' E 037°47'0 3.1
2017-Oct-19 03:31N 44°44' E 037°47'0 1.0
2017-Oct-19 03:31N 44°44' E 037°47'511918427625.7
2017-Oct-19 03:31N 38°58' W 076°29'435115663249.4
2017-Oct-19 03:30N 44°51' E 020°38'527819001829.6
2017-Oct-19 03:30N 01°18' E 103°43'104315364644.1
2017-Oct-19 03:30N 36°53' W 076°22'1401212610594.4
2017-Oct-19 03:30S 38°20' E 144°45'72021728515.6
2017-Oct-19 03:30N 32°36' W 118°18'68306146674.4
2017-Oct-19 03:30N 22°42' E 113°41'64883336497.6
2017-Oct-19 03:30N 37°47' W 122°23'68664943618.3
2017-Oct-19 03:30N 46°57' E 031°60'686624716344.7
2017-Oct-19 03:30N 37°52' W 122°29'69198302363.8
2017-Oct-19 03:30N 37°56' E 023°39'648129619.9
2017-Oct-19 03:29N 46°50' E 031°57'60772734501.4
2017-Oct-19 03:29N 29°33' W 095°02'10791942333.7
2017-Oct-19 03:29N 38°58' W 076°29'3680529949.2
2017-Oct-19 03:29N 39°32' E 002°43'1755203779.4
2017-Oct-19 03:28N 68°04' E 013°32'1406266426.4
2017-Oct-19 03:28N 46°50' E 031°57'1438739764.6
2017-Oct-19 03:28N 47°43' W 003°21'1717883056.0
2017-Oct-19 03:28N 44°44' E 037°47'277997456.6
2017-Oct-19 03:28N 46°56' E 031°57'78910331.5
2017-Oct-19 03:23N 60°02' E 029°58'9078482.9
2017-Oct-19 03:17N 45°28' E 036°44'10766381.1
2017-Oct-19 03:07N 59°20' E 018°05'5641126930.4
2017-Oct-19 03:04N 01°17' E 103°46'528191839.0
2017-Oct-19 03:01N 44°51' E 020°38'58801764137.7
2017-Oct-19 03:00N 49°18' W 123°08'2180436065.9
2017-Oct-19 03:00N 36°53' W 076°22'2197988459.7
2017-Oct-19 03:00N 37°47' W 122°23'68664943619.0
2017-Oct-19 03:00N 46°57' E 031°60'686612358163.4
2017-Oct-19 03:00N 37°52' W 122°29'69198302358.1
2017-Oct-19 03:00N 37°56' E 023°39'5942930082.4
2017-Oct-19 02:59N 29°33' W 095°02'826629756511.9
2017-Oct-19 02:59S 38°20' E 144°45'1406010123403.3
2017-Oct-19 02:59N 38°58' W 076°29'3680576031.6
2017-Oct-19 02:59N 39°32' E 002°43'5883814590.6
2017-Oct-19 02:58N 32°35' W 118°16'54793944922.4
2017-Oct-19 02:58N 68°04' E 013°32'59894312292.9
2017-Oct-19 02:58N 01°17' E 103°46'47901231690.6
2017-Oct-19 02:58N 46°50' E 031°57'1438575373.4
2017-Oct-19 02:58N 47°43' W 003°21'1717772674.5
2017-Oct-19 02:58N 44°44' E 037°47'277498734.2
2017-Oct-19 02:58N 46°56' E 031°57'47901326369.5
2017-Oct-19 02:57N 01°18' E 103°43'5639120121.1
2017-Oct-19 02:55N 59°20' E 018°05'107912945.7
2017-Oct-19 02:50N 45°22' E 036°38'2145785.3
2017-Oct-19 02:47N 46°50' E 031°57'425631984.2
2017-Oct-19 02:39N 23°05' E 113°29'398826782.4
2017-Oct-19 02:31N 44°44' E 037°47'7302628187.8
2017-Oct-19 02:31N 44°51' E 020°38'527819001830.7
2017-Oct-19 02:30N 01°18' E 103°43'777613996079.0
2017-Oct-19 02:30N 49°18' W 123°08'77724663171.7
2017-Oct-19 02:30N 01°15' E 103°51'814622.4
2017-Oct-19 02:30N 01°15' E 103°42'45442726609.3
2017-Oct-19 02:30N 45°28' E 036°44'86818.3
2017-Oct-19 02:30N 45°22' E 036°38'71521609239.8
2017-Oct-19 02:30N 37°47' W 122°23'3691326624.6
2017-Oct-19 02:30N 32°36' W 118°22'69878384828.1
2017-Oct-19 02:30N 46°57' E 031°60'68666179086.2
2017-Oct-19 02:30N 37°52' W 122°29'691912453545.7
2017-Oct-19 02:30N 37°56' E 023°39'47678579926.3
2017-Oct-19 02:30N 36°53' W 076°22'48771170414.6
2017-Oct-19 02:29N 46°50' E 031°57'47891436814.1
2017-Oct-19 02:29N 38°58' W 076°29'3680529949.5
2017-Oct-19 02:29N 39°32' E 002°43'1755210572.0
2017-Oct-19 02:28N 68°04' E 013°32'993235756610.4
2017-Oct-19 02:28S 38°20' E 144°45'99301374917.5
2017-Oct-19 02:28N 66°10' E 012°32'12232202187.9
2017-Oct-19 02:28N 47°43' W 003°21'17171030229.8
2017-Oct-19 02:28N 44°44' E 037°47'277332484.3
2017-Oct-19 02:28N 46°56' E 031°57'6074260317.6
2017-Oct-19 02:26N 29°33' W 095°02'9456740064.6
2017-Oct-19 02:26N 01°18' E 104°07'5656370213.9
2017-Oct-19 02:25N 59°20' E 018°05'90120930.4
2017-Oct-19 02:22N 46°50' E 031°57'613218505.0
2017-Oct-19 02:02S 23°00' W 044°19'4181155157.8
2017-Oct-19 02:01N 38°58' W 076°29'435115663243.8
2017-Oct-19 02:01N 44°51' E 020°38'52792375602.1
2017-Oct-19 02:00N 01°14' E 103°40'1043212517802.7
2017-Oct-19 02:00N 36°53' W 076°22'21807849185.8
2017-Oct-19 02:00N 49°18' W 123°08'692108251.9
2017-Oct-19 02:00N 37°47' W 122°23'68662746457.0
2017-Oct-19 02:00N 46°57' E 031°60'47971569861.2
2017-Oct-19 02:00N 01°12' E 103°48'47961918547.9
2017-Oct-19 01:59N 46°50' E 031°57'60772187601.1
2017-Oct-19 01:59N 29°33' W 095°02'10791942333.7
2017-Oct-19 01:59N 38°58' W 076°29'50466055320.5
2017-Oct-19 01:59N 45°28' E 036°44'629522662464.0
2017-Oct-19 01:59S 23°00' W 044°19'4677841903.1
2017-Oct-19 01:59N 39°32' E 002°43'1352243384.7
2017-Oct-19 01:59N 46°50' E 031°57'1406421842.3
2017-Oct-19 01:58N 68°04' E 013°32'993217878305.2
2017-Oct-19 01:58S 38°20' E 144°45'71951850152.4
2017-Oct-19 01:58N 32°36' W 118°27'54981979315.7
2017-Oct-19 01:58N 66°10' E 012°32'12232202188.4
2017-Oct-19 01:58N 47°43' W 003°21'17171030232.7
2017-Oct-19 01:58N 44°44' E 037°47'277498726.4
2017-Oct-19 01:58N 46°56' E 031°57'896460911.8
2017-Oct-19 01:58N 59°20' E 018°05'56393383412.1
2017-Oct-19 01:57N 01°18' E 103°43'4545861069.6
2017-Oct-19 01:57N 45°22' E 036°38'73394279.5
2017-Oct-19 01:57N 37°56' E 023°39'13487212.9
2017-Oct-19 01:45N 60°02' E 029°58'615329185.4
2017-Oct-19 01:33N 37°52' W 122°29'7238186129.5
2017-Oct-19 01:31N 44°43' E 037°49'512118434049.7
2017-Oct-19 01:30N 38°58' W 076°29'1040037440036.0
2017-Oct-19 01:30N 01°18' E 103°44'52782111348.9
2017-Oct-19 01:30N 44°51' E 020°38'588010584826.1
2017-Oct-19 01:30N 49°18' W 123°08'77586981846.3
2017-Oct-19 01:30N 01°18' E 104°05'3012009.6
2017-Oct-19 01:30N 01°12' E 103°35'104289385322.2
2017-Oct-19 01:30N 36°53' W 076°22'2197988459.7
2017-Oct-19 01:30N 37°47' W 122°23'68664943622.6
2017-Oct-19 01:30N 46°57' E 031°60'68668238781.6
2017-Oct-19 01:30N 37°52' W 122°29'691912453545.7
2017-Oct-19 01:30N 37°56' E 023°39'648137245.1
2017-Oct-19 01:29N 46°50' E 031°57'47964316599.8
2017-Oct-19 01:29N 01°13' E 103°49'104099368255.8
2017-Oct-19 01:29N 38°58' W 076°29'3680490693.8
2017-Oct-19 01:29N 39°32' E 002°43'1755197411.2
2017-Oct-19 01:28N 68°04' E 013°32'993217878314.6
2017-Oct-19 01:28S 38°20' E 144°45'99301429914.9
2017-Oct-19 01:28N 66°10' E 012°32'12234404376.3
2017-Oct-19 01:28N 47°43' W 003°21'1437862124.5
2017-Oct-19 01:28N 46°56' E 031°57'896358485.1
2017-Oct-19 01:28N 59°20' E 018°05'5919355142.1
2017-Oct-19 01:27N 32°36' W 118°33'1222231524.8
2017-Oct-19 01:26N 29°33' W 095°02'94741033481.6
2017-Oct-19 01:26N 01°15' E 103°50'47951327875.0
2017-Oct-19 01:26N 46°50' E 031°57'6112.7
2017-Oct-19 01:22N 46°56' E 031°57'2161233.7
2017-Oct-19 01:12N 45°22' E 036°38'504527147.6
2017-Oct-19 01:01N 38°58' W 076°29'512218439960.7
2017-Oct-19 01:01N 44°42' E 037°50'0529.4
2017-Oct-19 01:01N 44°42' E 037°50'7332637221.8
2017-Oct-19 01:00N 44°51' E 020°38'527818999389.9
2017-Oct-19 01:00N 01°13' E 103°37'159292.6
2017-Oct-19 01:00N 01°16' E 103°52'77705594577.3
2017-Oct-19 01:00N 49°18' W 123°08'62145592772.7
2017-Oct-19 01:00N 46°56' E 031°57'48741349745.6
2017-Oct-19 01:00N 36°53' W 076°22'21971129668.3
2017-Oct-19 01:00N 37°47' W 122°23'68664119685.5
2017-Oct-19 01:00N 46°57' E 031°60'6551178533.5
2017-Oct-19 01:00N 37°56' E 023°39'69758370378.2
2017-Oct-19 01:00N 32°38' W 118°38'70001574919.1
2017-Oct-19 00:59N 46°50' E 031°57'47891436812.8
2017-Oct-19 00:59N 38°58' W 076°29'3680529949.4
2017-Oct-19 00:59N 39°32' E 002°43'1352270427.5
2017-Oct-19 00:59N 46°50' E 031°57'1406389394.5
2017-Oct-19 00:58N 68°04' E 013°32'1335178016.6
2017-Oct-19 00:58N 47°43' W 003°21'1437517274.7
2017-Oct-19 00:58N 46°56' E 031°57'896537726.4
2017-Oct-19 00:58N 59°20' E 018°05'94962010969.6
2017-Oct-19 00:57S 38°20' E 144°45'8266479943.7
2017-Oct-19 00:56N 29°33' W 095°02'642114950.8
2017-Oct-19 00:31N 44°42' E 037°50'7332637150.2
2017-Oct-19 00:30N 44°51' E 020°38'58807056557.0
2017-Oct-19 00:30N 49°18' W 123°08'77837004641.1
2017-Oct-19 00:30N 01°11' E 103°41'2327351.6
2017-Oct-19 00:30N 01°17' E 104°04'48063460439.1
2017-Oct-19 00:30N 46°56' E 031°57'699412589118.7
2017-Oct-19 00:30N 32°44' W 118°42'35360462.2
2017-Oct-19 00:30N 37°47' W 122°23'69182767144.7
2017-Oct-19 00:30N 37°56' E 023°39'757136318.9
2017-Oct-19 00:29N 44°42' E 037°50'51222048950.4
2017-Oct-19 00:29N 38°58' W 076°29'3680576031.9
2017-Oct-19 00:29N 39°32' E 002°43'1755203779.3
2017-Oct-19 00:28N 68°04' E 013°32'993235756610.4
2017-Oct-19 00:28S 38°20' E 144°45'140122802355.1
2017-Oct-19 00:28N 36°53' W 076°22'33041321788.9
2017-Oct-19 00:28N 47°43' W 003°21'14385178357.6
2017-Oct-19 00:28N 46°50' E 031°57'62492.6
2017-Oct-19 00:28N 46°56' E 031°57'896460910.7
2017-Oct-19 00:28N 59°20' E 018°05'89665820.8
2017-Oct-19 00:27N 46°57' E 031°60'71285.1
2017-Oct-19 00:26N 46°50' E 031°57'132651347.7
2017-Oct-19 00:25N 66°10' E 012°32'4855180190.1
2017-Oct-19 00:23N 29°33' W 095°02'634330610.6
2017-Oct-19 00:11N 45°28' E 036°44'2572396.3
2017-Oct-19 00:04N 46°30' E 030°45'6833251007.7
2017-Oct-19 00:03N 37°52' W 122°29'64751165539.5
2017-Oct-19 00:02N 23°05' E 113°29'9814304575.7
2017-Oct-19 00:01N 38°58' W 076°29'125450124.3
2017-Oct-19 00:00N 36°53' W 076°22'1044512533671.0
2017-Oct-19 00:00N 01°16' E 103°56'1720294.9
2017-Oct-19 00:00N 01°12' E 103°39'52809503758.1
2017-Oct-19 00:00N 44°51' E 020°38'588010584835.5
2017-Oct-19 00:00N 49°18' W 123°08'6215677955.9
2017-Oct-19 00:00N 46°57' E 031°60'6551178537.6
2017-Oct-19 00:00N 37°56' E 023°39'69802792071.1
2017-Oct-19 00:00N 32°43' W 118°48'70033151402.3
2017-Oct-18 23:59N 46°50' E 031°57'60771988729.8
2017-Oct-18 23:59N 29°33' W 095°02'10791942328.9
2017-Oct-18 23:59N 38°58' W 076°29'4181627084.1
2017-Oct-18 23:59S 23°00' W 044°19'467716838081.4
2017-Oct-18 23:59N 39°32' E 002°43'1299194917.3
2017-Oct-18 23:58N 46°30' E 030°46'85114377189.3
2017-Oct-18 23:58S 38°20' E 144°45'99301374917.5
2017-Oct-18 23:58N 66°10' E 012°32'1321528303.6
2017-Oct-18 23:58N 46°56' E 031°57'12587.7
2017-Oct-18 23:58N 46°56' E 031°57'896460908.0
2017-Oct-18 23:58N 59°20' E 018°05'5726468518.1
2017-Oct-18 23:57N 37°47' W 122°23'6870206102.4
2017-Oct-18 23:55N 46°50' E 031°57'2153289.9
2017-Oct-18 23:51N 45°28' E 036°44'454469904.6
2017-Oct-18 23:47N 01°13' E 103°40'7882208642.5
2017-Oct-18 23:45N 37°52' W 122°29'21649110.3
2017-Oct-18 23:31N 38°58' W 076°29'125450146.7
2017-Oct-18 23:31N 36°53' W 076°22'520918751492.0
2017-Oct-18 23:30N 44°42' E 037°51'278500110.6
2017-Oct-18 23:30N 46°50' E 031°57'487292394.0
2017-Oct-18 23:30N 44°51' E 020°38'656011807489.2
2017-Oct-18 23:30N 32°43' W 118°45'69975037815.1
2017-Oct-18 23:30N 46°56' E 031°57'47921916698.2
2017-Oct-18 23:30N 01°14' E 103°42'44761151025.7
2017-Oct-18 23:30N 44°42' E 037°51'279200995.2
2017-Oct-18 23:30N 46°57' E 031°60'6551178529.0
2017-Oct-18 23:30N 37°56' E 023°39'5028624176.5
2017-Oct-18 23:29N 01°13' E 103°36'1039718714823.1
2017-Oct-18 23:29N 38°58' W 076°29'3680576032.0
2017-Oct-18 23:29N 39°32' E 002°43'1755210572.0
2017-Oct-18 23:28N 68°04' E 013°32'99327151318.9
2017-Oct-18 23:28S 38°20' E 144°45'102511604518.2
2017-Oct-18 23:28N 47°43' W 003°21'12234404375.3
2017-Oct-18 23:28N 66°10' E 012°32'1321475663.6
2017-Oct-18 23:28N 46°56' E 031°57'896645276.5
2017-Oct-18 23:28N 59°20' E 018°05'60871289040.8
2017-Oct-18 23:27S 23°00' W 044°19'5913626102.1
2017-Oct-18 23:27N 37°52' W 122°29'1458187433.9
2017-Oct-18 23:26N 29°33' W 095°02'6077347257.2
2017-Oct-18 23:25N 46°50' E 031°57'4881182.2
2017-Oct-18 23:00N 44°51' E 020°38'588010584835.5
2017-Oct-18 23:00N 49°18' W 123°08'622022391521.3
2017-Oct-18 23:00N 46°50' E 031°57'2781000197.2
2017-Oct-18 23:00N 44°42' E 037°51'44765371230.0
2017-Oct-18 23:00N 01°13' E 103°41'1043237556115.1
2017-Oct-18 23:00N 36°53' W 076°22'520918751431.4
2017-Oct-18 23:00N 44°42' E 037°51'280168064.0
2017-Oct-18 23:00N 46°56' E 031°57'68651176919.2
2017-Oct-18 23:00N 37°47' W 122°23'68663531159.0
2017-Oct-18 23:00N 46°57' E 031°60'655785689.0
2017-Oct-18 23:00N 37°56' E 023°39'5942792291.9
2017-Oct-18 22:59N 29°33' W 095°02'10791942333.7
2017-Oct-18 22:59N 38°58' W 076°29'104024160883.7
2017-Oct-18 22:59N 01°18' E 103°45'61271575587.1
2017-Oct-18 22:59N 39°32' E 002°43'61244409545.4
2017-Oct-18 22:59N 01°13' E 103°38'2238711.9
2017-Oct-18 22:59N 01°16' E 103°60'5999830668.9
2017-Oct-18 22:58N 68°04' E 013°32'14061265532.0
2017-Oct-18 22:58N 46°50' E 031°57'1327217072.3
2017-Oct-18 22:58N 66°10' E 012°32'12234404374.8
2017-Oct-18 22:58N 47°43' W 003°21'1437574749.2
2017-Oct-18 22:58N 46°56' E 031°57'896460911.8
2017-Oct-18 22:58N 59°20' E 018°05'94962010970.2
2017-Oct-18 22:57S 38°20' E 144°45'819329493626.2
2017-Oct-18 22:57N 45°28' E 036°44'7151212755.5
2017-Oct-18 22:55N 37°52' W 122°29'5913709585.5
2017-Oct-18 22:55S 23°00' W 044°19'55631430613.3
2017-Oct-18 22:55N 32°45' W 118°40'535618053.6
2017-Oct-18 22:37N 27°55' W 015°24'312930203.5
2017-Oct-18 22:31N 38°58' W 076°29'478917242078.2
2017-Oct-18 22:31N 46°50' E 031°57'0378.8
2017-Oct-18 22:30N 46°50' E 031°57'25344561682.3
2017-Oct-18 22:30N 27°47' W 015°27'52162682286.5
2017-Oct-18 22:30N 49°18' W 123°08'621411185392.7
2017-Oct-18 22:30N 46°56' E 031°57'61363155462.4
2017-Oct-18 22:30S 23°00' W 044°19'59061328885.4
2017-Oct-18 22:30N 37°47' W 122°23'68664119685.5
2017-Oct-18 22:30N 46°57' E 031°60'655471413.4
2017-Oct-18 22:30N 37°56' E 023°39'756123714.2
2017-Oct-18 22:29N 44°44' E 037°47'51193071398.2
2017-Oct-18 22:29N 38°58' W 076°29'50464541486.4
2017-Oct-18 22:29N 45°28' E 036°44'72781378997.0
2017-Oct-18 22:29N 32°44' W 118°43'589821234510.5
2017-Oct-18 22:29N 39°32' E 002°43'1755203779.3
2017-Oct-18 22:28N 68°04' E 013°32'52396286790.9
2017-Oct-18 22:28N 37°52' W 122°29'72038643639.8
2017-Oct-18 22:28S 38°20' E 144°45'102511757329.6
2017-Oct-18 22:28N 47°43' W 003°21'12234404370.8
2017-Oct-18 22:28N 66°10' E 012°32'438105100.3
2017-Oct-18 22:28N 59°20' E 018°05'5164229510.3
2017-Oct-18 22:26N 29°33' W 095°02'6074237681.3
2017-Oct-18 22:25N 46°56' E 031°57'48745848952.3
2017-Oct-18 22:25N 36°53' W 076°22'487712116.9
2017-Oct-18 22:01N 46°50' E 031°57'478917242082.2
2017-Oct-18 22:01N 38°58' W 076°29'435115663275.8
2017-Oct-18 22:00N 44°51' E 020°38'487877181.9
2017-Oct-18 22:00N 46°50' E 031°57'48772926034.0
2017-Oct-18 22:00N 36°53' W 076°22'21801962300.2
2017-Oct-18 22:00N 49°18' W 123°08'649823394072.6
2017-Oct-18 22:00N 45°28' E 036°44'72825242706.2
2017-Oct-18 22:00N 32°43' W 118°46'81194175476.8
2017-Oct-18 22:00N 01°13' E 103°39'44782303204.6
2017-Oct-18 22:00N 44°44' E 037°47'72374342020.7
2017-Oct-18 22:00N 37°47' W 122°23'68666179528.2
2017-Oct-18 22:00N 46°57' E 031°60'655471413.4
2017-Oct-18 22:00N 37°56' E 023°39'756123714.2
2017-Oct-18 21:59N 44°44' E 037°47'64177700430.2
2017-Oct-18 21:59N 29°33' W 095°02'10791294885.9
2017-Oct-18 21:59N 38°58' W 076°29'4786717951.5
2017-Oct-18 21:59N 46°56' E 031°57'13534871419.0
2017-Oct-18 21:59N 39°32' E 002°43'1755210572.0
2017-Oct-18 21:58N 68°04' E 013°32'11715538.0
2017-Oct-18 21:58N 66°10' E 012°32'12234404375.8
2017-Oct-18 21:58N 47°43' W 003°21'1437574749.5
2017-Oct-18 21:58N 46°56' E 031°57'896537729.2
2017-Oct-18 21:58N 59°20' E 018°05'94961799286.5
2017-Oct-18 21:57S 38°20' E 144°45'8509319092.1
2017-Oct-18 21:56N 46°29' E 030°48'249466005.9
2017-Oct-18 21:53N 27°45' W 015°43'92210608.1
2017-Oct-18 21:48N 37°20' W 001°28'5753180100.1
2017-Oct-18 21:46N 37°52' W 122°29'591948760.2
2017-Oct-18 21:39S 23°03' W 044°14'5221.5
2017-Oct-18 21:38S 23°00' W 044°19'613352069.4
2017-Oct-18 21:31N 46°50' E 031°57'0379.9
2017-Oct-18 21:30N 46°50' E 031°57'47898619312.2
2017-Oct-18 21:30N 01°13' E 103°39'778014004198.3
2017-Oct-18 21:30N 49°17' W 123°12'58845295641.9
2017-Oct-18 21:30N 44°51' E 020°38'65592951544.5
2017-Oct-18 21:30N 32°43' W 118°44'2103688186.9
2017-Oct-18 21:30N 36°53' W 076°22'52059369240.7
2017-Oct-18 21:30N 44°44' E 037°47'72375210428.1
2017-Oct-18 21:30N 37°47' W 122°23'71518581663.7
2017-Oct-18 21:30N 45°28' E 036°44'216388459.4
2017-Oct-18 21:30N 46°57' E 031°60'655392843.0
2017-Oct-18 21:30N 37°56' E 023°39'756118335.7
2017-Oct-18 21:29N 44°44' E 037°47'64177700431.9
2017-Oct-18 21:29N 29°33' W 095°02'60745466669.2
2017-Oct-18 21:29N 46°56' E 031°57'1353221385.5
2017-Oct-18 21:29N 39°32' E 002°43'13531623811.8
2017-Oct-18 21:29N 46°56' E 031°57'1400173812.9
2017-Oct-18 21:28N 68°04' E 013°32'99323972952.5
2017-Oct-18 21:28S 38°20' E 144°45'97935875937.9
2017-Oct-18 21:28S 23°03' W 044°14'62212035808.8
2017-Oct-18 21:28N 66°10' E 012°32'12232202175.9
2017-Oct-18 21:28N 47°43' W 003°21'48752507234.2
2017-Oct-18 21:28S 23°00' W 044°19'60873130650.8
2017-Oct-18 21:28N 59°20' E 018°05'239993887.7
2017-Oct-18 21:26N 27°44' W 015°45'95219811.2
2017-Oct-18 21:23N 37°36' W 000°59'15654145.1
2017-Oct-18 21:01N 46°50' E 031°57'488877758.8
2017-Oct-18 21:01N 44°51' E 020°38'487584787.9
2017-Oct-18 21:00N 46°50' E 031°57'622222397450.1
2017-Oct-18 21:00N 49°20' W 123°14'6590878688.4
2017-Oct-18 21:00N 44°44' E 037°47'72373256517.6
2017-Oct-18 21:00N 37°47' W 122°23'68664943622.6
2017-Oct-18 21:00N 46°57' E 031°60'655785689.0
2017-Oct-18 21:00N 37°56' E 023°39'50339060297.0
2017-Oct-18 21:00N 01°17' E 103°46'4480733081.2
2017-Oct-18 20:59N 44°44' E 037°47'51193071398.7
2017-Oct-18 20:59N 38°58' W 076°29'41851255643.6
2017-Oct-18 20:59S 23°03' W 044°14'46771403152.2
2017-Oct-18 20:59N 39°32' E 002°43'13532435710.3
2017-Oct-18 20:59N 46°56' E 031°57'1400180020.1
2017-Oct-18 20:58N 68°04' E 013°32'993235756556.9
2017-Oct-18 20:58S 38°20' E 144°45'102511476155.7
2017-Oct-18 20:58N 47°43' W 003°21'1034206899.6
2017-Oct-18 20:58N 59°20' E 018°05'4016413095.2
2017-Oct-18 20:57N 36°53' W 076°22'51331319984.1
2017-Oct-18 20:57N 45°28' E 036°44'6343787431.3
2017-Oct-18 20:56N 29°33' W 095°02'60747288895.9
2017-Oct-18 20:56N 46°56' E 031°57'61361840713.1
2017-Oct-18 20:56S 23°00' W 044°19'445651914.7
2017-Oct-18 20:51N 37°34' W 000°60'537015820.0
2017-Oct-18 20:31N 49°20' W 123°12'58821764488.2
2017-Oct-18 20:30N 44°51' E 020°38'6459930111.0
2017-Oct-18 20:30N 37°47' W 122°23'71514290834.5
2017-Oct-18 20:30N 45°28' E 036°44'740888159.8
2017-Oct-18 20:30N 37°56' E 023°39'756113405.1
2017-Oct-18 20:29N 44°44' E 037°47'51192632625.2
2017-Oct-18 20:29N 38°58' W 076°29'478717231609.7
2017-Oct-18 20:29N 46°56' E 031°57'84685080935.1
2017-Oct-18 20:29S 38°20' E 144°45'140122967197.5
2017-Oct-18 20:29N 36°53' W 076°22'373213433477.5
2017-Oct-18 20:29N 39°32' E 002°43'13532435709.5
2017-Oct-18 20:29N 46°56' E 031°57'216388617.2
2017-Oct-18 20:29N 45°22' E 036°38'62871508922.2
2017-Oct-18 20:29S 23°00' W 044°19'63362073454.7
2017-Oct-18 20:28N 68°04' E 013°32'11715538.8
2017-Oct-18 20:28N 66°10' E 012°32'12234404356.8
2017-Oct-18 20:28N 47°43' W 003°21'1034232762.0
2017-Oct-18 20:28N 59°20' E 018°05'901463406.3
2017-Oct-18 20:27N 46°50' E 031°57'27535335.3
2017-Oct-18 20:27N 44°44' E 037°47'27676473.5
2017-Oct-18 20:27N 46°57' E 031°60'6075705522.4
2017-Oct-18 20:26N 29°33' W 095°02'607777032.4
2017-Oct-18 20:22N 46°50' E 031°57'626129973.5
2017-Oct-18 20:09N 48°51' W 123°30'626144283.1
2017-Oct-18 20:01N 46°50' E 031°57'4881755521.4
2017-Oct-18 20:01N 44°51' E 020°38'487877181.9
2017-Oct-18 20:00N 46°50' E 031°57'62202035593.5
2017-Oct-18 20:00N 49°18' W 123°08'65881317687.7
2017-Oct-18 20:00N 44°44' E 037°47'72373256517.6
2017-Oct-18 20:00N 37°47' W 122°23'69183113042.0
2017-Oct-18 20:00N 37°56' E 023°39'756108868.3
2017-Oct-18 19:59N 44°44' E 037°47'641711550630.9
2017-Oct-18 19:59N 29°33' W 095°02'10791294889.1
2017-Oct-18 19:59N 38°58' W 076°29'478717231609.7
2017-Oct-18 19:59N 46°56' E 031°57'84684355087.2
2017-Oct-18 19:59S 38°20' E 144°45'97182186531.4
2017-Oct-18 19:59N 39°32' E 002°43'1755210572.0
2017-Oct-18 19:58N 68°04' E 013°32'4452843628.0
2017-Oct-18 19:58N 48°50' W 123°27'45052027321.6
2017-Oct-18 19:58N 66°10' E 012°32'12232202187.4
2017-Oct-18 19:58N 47°43' W 003°21'1035310350.1
2017-Oct-18 19:58N 59°20' E 018°05'60872739206.7
2017-Oct-18 19:58S 23°00' W 044°19'62957554121.8
2017-Oct-18 19:57N 45°28' E 036°44'21618949.4
2017-Oct-18 19:57N 46°57' E 031°60'21525763.2
2017-Oct-18 19:56N 45°22' E 036°38'21627751.7
2017-Oct-18 19:56N 46°56' E 031°57'48742193271.4
2017-Oct-18 19:56N 36°53' W 076°22'125298.3
2017-Oct-18 19:31N 38°58' W 076°29'435115663243.8
2017-Oct-18 19:31N 44°51' E 020°38'527919006078.4
2017-Oct-18 19:30N 01°13' E 103°40'478917242018.7
2017-Oct-18 19:30N 46°50' E 031°57'47965755344.2
2017-Oct-18 19:30N 01°15' E 103°51'77721554340.8
2017-Oct-18 19:30N 49°18' W 123°08'2917639.1
2017-Oct-18 19:30N 48°51' W 123°26'66277952959.3
2017-Oct-18 19:30N 44°44' E 037°47'72376513035.2
2017-Oct-18 19:30N 37°47' W 122°23'68663531156.7
2017-Oct-18 19:30N 46°57' E 031°60'655589264.5
2017-Oct-18 19:30N 37°56' E 023°39'756136086.1
2017-Oct-18 19:29N 44°44' E 037°47'277110828.5
2017-Oct-18 19:29N 46°56' E 031°57'1353194819.0
2017-Oct-18 19:29N 39°32' E 002°43'13534871407.7
2017-Oct-18 19:29N 46°56' E 031°57'216776784.4
2017-Oct-18 19:29N 45°22' E 036°38'62881191345.1
2017-Oct-18 19:28S 23°00' W 044°19'63362280902.5
2017-Oct-18 19:28N 68°04' E 013°32'993235756556.9
2017-Oct-18 19:28S 38°20' E 144°45'99301429912.7
2017-Oct-18 19:28N 66°10' E 012°32'438105101.5
2017-Oct-18 19:28N 59°20' E 018°05'4016850492.0
2017-Oct-18 19:27N 36°53' W 076°22'103557332.7
2017-Oct-18 19:26N 29°33' W 095°02'6077212400.0
2017-Oct-18 19:25N 46°50' E 031°57'699884257.8
2017-Oct-18 19:20N 32°39' W 118°36'20849756.2
2017-Oct-18 19:07N 38°59' W 076°29'69840.1
2017-Oct-18 19:02N 38°59' W 075°01'4284195236.8
2017-Oct-18 19:01N 44°51' E 020°38'4871754363.7
2017-Oct-18 19:00N 46°50' E 031°57'47241545918.8
2017-Oct-18 19:00N 38°60' W 075°01'21627782447.4
2017-Oct-18 19:00N 49°18' W 123°08'77721216495.9
2017-Oct-18 19:00N 01°15' E 103°50'787628353844.8
2017-Oct-18 19:00N 37°47' W 122°23'68663531156.7
2017-Oct-18 19:00N 46°57' E 031°60'61381163014.7
2017-Oct-18 18:59S 23°00' W 044°19'43791751622.6
2017-Oct-18 18:59N 29°33' W 095°02'641711550639.4
2017-Oct-18 18:59N 44°44' E 037°47'277498728.3
2017-Oct-18 18:59N 46°56' E 031°57'1103.2
2017-Oct-18 18:59N 46°56' E 031°57'4874626648.4
2017-Oct-18 18:58N 36°53' W 076°22'37816805573.2
2017-Oct-18 18:58N 68°04' E 013°32'11715538.0
2017-Oct-18 18:58N 66°10' E 012°32'12232202187.4
2017-Oct-18 18:58N 47°43' W 003°21'16562981147.9
2017-Oct-18 18:58N 45°22' E 036°38'50456053411.0
2017-Oct-18 18:58N 38°59' W 076°29'39071406368.9
2017-Oct-18 18:58N 59°20' E 018°05'94962010968.2
2017-Oct-18 18:57S 38°20' E 144°45'71901522648.7
2017-Oct-18 18:57N 32°38' W 118°34'73598830831.3
2017-Oct-18 18:57N 44°44' E 037°47'756170107.0
2017-Oct-18 18:57N 37°56' E 023°39'6487602.7
2017-Oct-18 18:52N 46°50' E 031°57'687026004.8
2017-Oct-18 18:36N 37°52' W 122°29'216424806.8
2017-Oct-18 18:31N 38°58' W 076°29'43517831629.9
2017-Oct-18 18:30N 44°51' E 020°38'588010584826.1
2017-Oct-18 18:30N 49°18' W 123°08'21801308200.1
2017-Oct-18 18:30N 36°53' W 076°22'126150976.9
2017-Oct-18 18:30N 38°59' W 076°29'5118921300.3
2017-Oct-18 18:30N 44°44' E 037°47'72378684041.5
2017-Oct-18 18:30N 37°47' W 122°23'72358.3
2017-Oct-18 18:30N 37°52' W 122°29'72361042029.9
2017-Oct-18 18:29N 44°44' E 037°47'51194607098.1
2017-Oct-18 18:29N 38°58' W 076°29'478717231625.7
2017-Oct-18 18:29N 46°56' E 031°57'1107.6
2017-Oct-18 18:29N 46°56' E 031°57'4791958225.3
2017-Oct-18 18:29N 01°13' E 103°39'813214637806.4
2017-Oct-18 18:29N 32°37' W 118°32'54861645831.2
2017-Oct-18 18:28N 68°04' E 013°32'993235756234.0
2017-Oct-18 18:28S 38°20' E 144°44'81941092519.6
2017-Oct-18 18:28N 45°22' E 036°38'21434974.4
2017-Oct-18 18:27N 46°50' E 031°57'4795431589.3
2017-Oct-18 18:27N 01°15' E 103°50'47968632540.6
2017-Oct-18 18:27N 46°57' E 031°60'132141707.1
2017-Oct-18 18:25N 66°10' E 012°32'438121270.9
2017-Oct-18 18:25N 59°20' E 018°05'90117348.7
2017-Oct-18 18:22N 46°50' E 031°57'6132525631.1
2017-Oct-18 18:21S 23°00' W 044°19'437940012.3
2017-Oct-18 18:14N 29°33' W 095°02'169119324.8
2017-Oct-18 18:09N 46°09' W 123°53'643745347.1
2017-Oct-18 18:01N 46°50' E 031°57'487584792.8
2017-Oct-18 18:00N 44°51' E 020°38'65547864582.1
2017-Oct-18 18:00N 32°36' W 118°30'1023613757.4
2017-Oct-18 18:00N 49°18' W 123°08'777227979405.4
2017-Oct-18 18:00N 01°15' E 103°50'77503487628.0
2017-Oct-18 18:00N 46°09' W 123°53'68061884773.2
2017-Oct-18 18:00N 44°44' E 037°47'72375210424.9
2017-Oct-18 18:00N 37°47' W 122°23'68666179523.7
2017-Oct-18 18:00N 46°57' E 031°60'655589271.1
2017-Oct-18 18:00N 37°56' E 023°39'5032905692.8
2017-Oct-18 17:59N 01°12' E 103°39'44792303634.2
2017-Oct-18 17:59N 44°44' E 037°47'277997441.0
2017-Oct-18 17:59N 46°56' E 031°57'1353187326.5
2017-Oct-18 17:59N 39°32' E 002°43'13534871437.4
2017-Oct-18 17:59N 46°56' E 031°57'1400173812.2
2017-Oct-18 17:58N 68°04' E 013°32'99321881925.9
2017-Oct-18 17:58S 38°20' E 144°45'102514100434.0
2017-Oct-18 17:58N 47°43' W 003°21'16565962297.3
2017-Oct-18 17:58N 45°22' E 036°38'21345203.1
2017-Oct-18 17:58N 46°50' E 031°57'61321471768.3
2017-Oct-18 17:57S 23°00' W 044°19'4379254272.5
2017-Oct-18 17:56N 29°33' W 095°02'5164187781.0
2017-Oct-18 17:55N 59°20' E 018°05'385152915.2
2017-Oct-18 17:50N 39°08' W 075°13'60181.8
2017-Oct-18 17:31N 38°58' W 076°29'478917240932.0
2017-Oct-18 17:30N 46°50' E 031°57'487877183.7
2017-Oct-18 17:30N 44°51' E 020°38'52873806653.6
2017-Oct-18 17:30N 01°16' E 103°52'1044137587415.2
2017-Oct-18 17:30N 36°53' W 076°22'12865893.9
2017-Oct-18 17:30N 39°01' W 076°23'5363480.5
2017-Oct-18 17:30N 39°11' W 075°16'21451930713.0
2017-Oct-18 17:30N 49°18' W 123°08'191687246.8
2017-Oct-18 17:30N 46°09' W 123°53'77625588960.0
2017-Oct-18 17:30N 01°12' E 103°40'44803225560.3
2017-Oct-18 17:30N 44°44' E 037°47'72375210424.9
2017-Oct-18 17:30N 37°47' W 122°23'69183557759.9
2017-Oct-18 17:30N 37°56' E 023°39'5942855676.6
2017-Oct-18 17:29N 29°33' W 095°02'64177700430.5
2017-Oct-18 17:29N 44°44' E 037°47'277997473.4
2017-Oct-18 17:29N 46°56' E 031°57'47878615801.0
2017-Oct-18 17:29N 38°58' W 076°29'4786717951.0
2017-Oct-18 17:29N 46°56' E 031°57'1400162598.2
2017-Oct-18 17:28N 68°04' E 013°32'993317878766.4
2017-Oct-18 17:28S 38°20' E 144°45'99301429951.3
2017-Oct-18 17:28N 66°10' E 012°32'12234404374.8
2017-Oct-18 17:28N 47°43' W 003°21'143882183.0
2017-Oct-18 17:27N 46°57' E 031°60'89625395.3
2017-Oct-18 17:25N 59°20' E 018°05'591667187.2
2017-Oct-18 17:19N 32°36' W 118°28'209310551.4
2017-Oct-18 17:07N 36°57' W 076°20'1211043.9
2017-Oct-18 17:01N 38°58' W 076°29'47898620487.6
2017-Oct-18 17:00N 46°50' E 031°57'4871754363.7
2017-Oct-18 17:00N 44°51' E 020°38'529019045364.2
2017-Oct-18 17:00N 01°14' E 103°55'104452506706.2
2017-Oct-18 17:00N 36°53' W 076°22'2206992772.1
2017-Oct-18 17:00N 46°09' W 123°53'77635589154.0
2017-Oct-18 17:00N 01°13' E 103°38'44788060088.5
2017-Oct-18 17:00N 44°44' E 037°47'723726052124.5
2017-Oct-18 17:00N 37°47' W 122°23'68662471811.3
2017-Oct-18 17:00N 46°57' E 031°60'655785689.0
2017-Oct-18 17:00N 37°56' E 023°39'756104681.6
2017-Oct-18 16:59N 44°44' E 037°47'51194607094.1
2017-Oct-18 16:59N 38°58' W 076°29'4786717950.8
2017-Oct-18 16:59N 46°56' E 031°57'1400162598.8
2017-Oct-18 16:58N 68°04' E 013°32'11716135.7
2017-Oct-18 16:58N 66°10' E 012°32'12234404375.3
2017-Oct-18 16:58N 47°43' W 003°21'53572410587.0
2017-Oct-18 16:58N 32°36' W 118°29'7193995976.4
2017-Oct-18 16:57S 38°20' E 144°45'8468491703.5
2017-Oct-18 16:56N 46°56' E 031°57'2162414.4
2017-Oct-18 16:51N 45°23' E 036°39'62887545773.6
2017-Oct-18 16:51S 23°00' W 044°19'4379463673.0
2017-Oct-18 16:50N 29°33' W 095°02'5164195687.8
2017-Oct-18 16:49N 59°20' E 018°05'3844384381.5
2017-Oct-18 16:48N 39°33' W 075°38'427121686.6
2017-Oct-18 16:36N 60°02' E 029°58'433745251.5
2017-Oct-18 16:31N 38°58' W 076°29'478917240943.7
2017-Oct-18 16:31N 46°50' E 031°57'487877181.9
2017-Oct-18 16:30N 44°51' E 020°38'42891102931.3
2017-Oct-18 16:30N 39°20' W 075°25'50551299872.7
2017-Oct-18 16:30N 44°44' E 037°47'52054684620.3
2017-Oct-18 16:30N 36°53' W 076°22'1401250442364.7
2017-Oct-18 16:30S 38°20' E 144°45'81947374713.2
2017-Oct-18 16:30N 45°22' E 036°38'215193195.8
2017-Oct-18 16:30N 46°57' E 031°60'655589271.1
2017-Oct-18 16:30N 37°56' E 023°39'65921825414.6
2017-Oct-18 16:30N 46°09' W 123°53'68062227457.2
2017-Oct-18 16:29N 44°44' E 037°47'277199493.2
2017-Oct-18 16:29N 46°56' E 031°57'1106.7
2017-Oct-18 16:29N 46°56' E 031°57'480117284941.2
2017-Oct-18 16:29N 01°14' E 103°55'5998696540.1
2017-Oct-18 16:28N 68°04' E 013°32'1335178016.8
2017-Oct-18 16:28N 47°43' W 003°21'48752193741.9
2017-Oct-18 16:28S 23°00' W 044°19'4379183312.6
2017-Oct-18 16:26N 29°33' W 095°02'5164195687.8
2017-Oct-18 16:25N 59°20' E 018°05'5016273607.4
2017-Oct-18 16:24N 48°53' W 123°25'27570.3
2017-Oct-18 16:21N 49°18' W 123°08'209649649.8
2017-Oct-18 16:18N 39°11' W 076°27'10043397.2
2017-Oct-18 16:01N 30°04' W 093°30'9961793661.0
2017-Oct-18 16:00N 38°58' W 076°29'43517831629.9
2017-Oct-18 16:00N 44°51' E 020°38'42901930486.8
2017-Oct-18 16:00N 39°24' W 075°29'1401225221866.3
2017-Oct-18 16:00S 38°20' E 144°45'84652031699.7
2017-Oct-18 16:00N 46°50' E 031°57'275197877.1
2017-Oct-18 16:00N 44°44' E 037°47'72374342020.7
2017-Oct-18 16:00N 37°47' W 122°23'692829931.2
2017-Oct-18 16:00N 49°18' W 123°08'621522372545.7
2017-Oct-18 16:00N 46°57' E 031°60'655589262.3
2017-Oct-18 16:00N 37°56' E 023°39'64453314606.2
2017-Oct-18 16:00N 48°51' W 123°25'16373261.9
2017-Oct-18 15:59N 46°09' W 123°53'68062227459.2
2017-Oct-18 15:59N 44°44' E 037°47'277332492.4
2017-Oct-18 15:59N 46°56' E 031°57'1353211760.0
2017-Oct-18 15:59N 39°32' E 002°43'13534871407.7
2017-Oct-18 15:59N 46°56' E 031°57'1400157517.0
2017-Oct-18 15:58N 68°04' E 013°32'11716781.1
2017-Oct-18 15:58N 66°10' E 012°32'12231468123.3
2017-Oct-18 15:58N 47°43' W 003°21'48752507133.9
2017-Oct-18 15:58S 23°00' W 044°19'4379181205.5
2017-Oct-18 15:56N 29°33' W 095°02'5164197769.6
2017-Oct-18 15:55N 59°20' E 018°05'389595395.3
2017-Oct-18 15:52N 39°12' W 076°31'5033953534.5
2017-Oct-18 15:52N 45°19' E 036°31'21134448.2
2017-Oct-18 15:52N 46°50' E 031°57'6922336769.0
2017-Oct-18 15:50N 33°42' W 118°15'66314.9
2017-Oct-18 15:38N 32°36' W 118°23'207517016.9
2017-Oct-18 15:31N 38°58' W 076°29'9983594307.2
2017-Oct-18 15:31N 30°04' W 093°32'955117192029.2
2017-Oct-18 15:30N 01°14' E 103°53'528919041493.5
2017-Oct-18 15:30N 44°51' E 020°38'58801924513.8
2017-Oct-18 15:30N 49°18' W 123°08'20893760765.0
2017-Oct-18 15:30N 39°15' W 076°34'4925055.5
2017-Oct-18 15:30N 39°28' W 075°33'50561516651.2
2017-Oct-18 15:30N 44°44' E 037°47'72375210424.9
2017-Oct-18 15:30N 37°47' W 122°23'68666179528.2
2017-Oct-18 15:30N 46°57' E 031°60'655471413.4
2017-Oct-18 15:30N 37°56' E 023°39'65921318355.0
2017-Oct-18 15:29N 46°09' W 123°53'68063500289.9
2017-Oct-18 15:29N 44°44' E 037°47'277332488.7
2017-Oct-18 15:29N 46°56' E 031°57'62544502631.8
2017-Oct-18 15:29N 48°52' W 123°28'1002450953.9
2017-Oct-18 15:29N 32°36' W 118°23'69862286229.8
2017-Oct-18 15:29N 46°56' E 031°57'13534871402.7
2017-Oct-18 15:29N 39°32' E 002°43'1755203779.3
2017-Oct-18 15:28N 68°04' E 013°32'1335178016.6
2017-Oct-18 15:28N 47°43' W 003°21'48753509987.5
2017-Oct-18 15:28S 23°00' W 044°19'61322207654.0
2017-Oct-18 15:28N 46°50' E 031°57'0288.6
2017-Oct-18 15:28N 46°50' E 031°57'6077287842.3
2017-Oct-18 15:26N 29°33' W 095°02'4855208076.5
2017-Oct-18 15:25N 66°10' E 012°32'438131376.9
2017-Oct-18 15:25N 59°20' E 018°05'585825623.3
2017-Oct-18 15:11N 32°40' W 117°07'203637215.2
2017-Oct-18 15:08N 36°58' W 076°07'410051785.5
2017-Oct-18 15:03N 41°57' E 012°09'4051100566.7
2017-Oct-18 15:01N 38°58' W 076°29'43515221081.3
2017-Oct-18 15:00N 44°51' E 020°38'42872572417.0
2017-Oct-18 15:00N 39°32' W 075°33'156562516.3
2017-Oct-18 15:00N 36°58' W 076°05'969183523.9
2017-Oct-18 15:00N 30°04' W 093°35'1507904103.0
2017-Oct-18 15:00N 37°47' W 122°23'50750680.6
2017-Oct-18 14:59N 46°09' W 123°53'16913043649.5
2017-Oct-18 14:59N 29°33' W 095°02'10791294889.1
2017-Oct-18 14:59N 38°58' W 076°29'4786783218.3
2017-Oct-18 14:59N 46°56' E 031°57'13531623801.4
2017-Oct-18 14:59N 39°32' E 002°43'1755210572.0
2017-Oct-18 14:58N 68°04' E 013°32'1401630348.1
2017-Oct-18 14:58N 46°56' E 031°57'1437246321.2
2017-Oct-18 14:58N 47°43' W 003°21'1438369881.2
2017-Oct-18 14:58N 46°50' E 031°57'0281.3
2017-Oct-18 14:58N 46°50' E 031°57'898293835.3
2017-Oct-18 14:57N 41°57' E 012°09'90195417.6
2017-Oct-18 14:57N 46°57' E 031°60'655589266.8
2017-Oct-18 14:57N 37°56' E 023°39'174357561.2
2017-Oct-18 14:55N 66°10' E 012°32'37551039783.4
2017-Oct-18 14:55N 36°53' W 076°22'401677733.1
2017-Oct-18 14:52N 59°20' E 018°05'5725404095.0
2017-Oct-18 14:51N 37°52' W 122°29'787357377.3
2017-Oct-18 14:43N 01°17' E 103°46'47906845.9
2017-Oct-18 14:01N 46°50' E 031°57'487584792.8
2017-Oct-18 14:00N 44°51' E 020°38'44052265555.9
2017-Oct-18 14:00N 36°55' W 075°55'157188860.3
2017-Oct-18 14:00N 39°32' W 075°44'21147608993.5
2017-Oct-18 14:00N 49°18' W 123°08'77841868073.0
2017-Oct-18 14:00N 01°13' E 103°39'44783224462.7
2017-Oct-18 14:00N 44°44' E 037°47'723726052140.7
2017-Oct-18 14:00N 37°47' W 122°23'68662471811.3
2017-Oct-18 14:00N 46°57' E 031°60'6551178533.5
2017-Oct-18 14:00N 37°56' E 023°39'85871236495.5
2017-Oct-18 13:59S 38°20' E 144°45'811814611861.4
2017-Oct-18 13:59N 44°44' E 037°47'51194607094.1
2017-Oct-18 13:59N 38°58' W 076°29'10041807737.3
2017-Oct-18 13:59N 30°03' W 093°41'954834372232.6
2017-Oct-18 13:59N 01°17' E 103°46'775313955023.2
2017-Oct-18 13:59N 46°09' W 123°53'64311361850.3
2017-Oct-18 13:59N 46°56' E 031°57'13532435702.8
2017-Oct-18 13:59N 39°32' E 002°43'1755210572.1
2017-Oct-18 13:58N 68°04' E 013°32'1401630350.0
2017-Oct-18 13:58N 46°56' E 031°57'48021234787.0
2017-Oct-18 13:58N 01°17' E 103°59'59985398454.2
2017-Oct-18 13:58N 66°10' E 012°32'12234404370.3
2017-Oct-18 13:58N 47°43' W 003°21'1035232762.6
2017-Oct-18 13:58N 59°20' E 018°05'9013244211.9
2017-Oct-18 13:58N 46°50' E 031°57'898107768.9
2017-Oct-18 13:57N 41°57' E 012°09'5272395398.1
2017-Oct-18 13:56N 29°33' W 095°02'121522096.2
2017-Oct-18 13:53N 33°28' W 118°21'20535475.8
2017-Oct-18 13:30N 38°58' W 076°29'435115663257.7
2017-Oct-18 13:30N 44°51' E 020°38'528519025910.1
2017-Oct-18 13:30N 01°13' E 103°47'648211667606.9
2017-Oct-18 13:30N 47°43' W 003°21'47622143073.3
2017-Oct-18 13:30N 49°18' W 123°08'77844003152.4
2017-Oct-18 13:30N 01°13' E 103°38'44781239994.2
2017-Oct-18 13:30N 44°44' E 037°47'723726052119.6
2017-Oct-18 13:30N 37°47' W 122°23'69181778877.5
2017-Oct-18 13:30N 37°56' E 023°39'648145823.0
2017-Oct-18 13:29N 46°50' E 031°57'84653386169.7
2017-Oct-18 13:29S 38°20' E 144°45'81187305931.9
2017-Oct-18 13:29N 44°44' E 037°47'68062722448.4
2017-Oct-18 13:29N 46°09' W 123°53'64311780879.5
2017-Oct-18 13:29N 46°56' E 031°57'48001571022.4
2017-Oct-18 13:29N 01°17' E 103°56'59961136142.8
2017-Oct-18 13:28N 68°04' E 013°32'36003239671.0
2017-Oct-18 13:28N 39°32' W 075°49'47322839276.0
2017-Oct-18 13:28N 46°56' E 031°57'1321279803.0
2017-Oct-18 13:28N 66°10' E 012°32'3739897268.3
2017-Oct-18 13:28N 36°52' W 075°51'48554369305.6
2017-Oct-18 13:28N 46°50' E 031°57'135246359.0
2017-Oct-18 13:26N 39°32' E 002°43'45333969.7
2017-Oct-18 13:25N 41°57' E 012°09'5272180751.9
2017-Oct-18 13:23N 29°33' W 095°02'6075145808.0
2017-Oct-18 13:21N 46°57' E 031°60'136423061.7
2017-Oct-18 13:17N 39°28' E 002°31'66729285.9
2017-Oct-18 13:16N 49°16' W 004°50'524560710.4
2017-Oct-18 13:11N 32°37' W 118°26'207712218.5
2017-Oct-18 13:00N 38°58' W 076°29'43517831628.9
2017-Oct-18 13:00N 44°51' E 020°38'528119010587.5
2017-Oct-18 13:00N 01°17' E 103°46'62917.2
2017-Oct-18 13:00N 01°11' E 103°46'78831493687.1
2017-Oct-18 13:00N 37°47' W 122°23'72376513035.2
2017-Oct-18 13:00N 44°44' E 037°47'276110463.1
2017-Oct-18 13:00N 46°57' E 031°60'655785686.0
2017-Oct-18 13:00N 37°56' E 023°39'1326954368.3
2017-Oct-18 13:00N 47°43' W 003°22'1438647311.3
2017-Oct-18 13:00N 46°50' E 031°57'27582447.1
2017-Oct-18 12:59N 44°44' E 037°47'51194607094.1
2017-Oct-18 12:59N 38°58' W 076°29'2139549963.0
2017-Oct-18 12:59N 46°09' W 123°53'55831827324.8
2017-Oct-18 12:59N 39°32' E 002°43'96614.9
2017-Oct-18 12:59N 39°28' E 002°32'1363213264.8
2017-Oct-18 12:58N 46°56' E 031°57'14002520271.7
2017-Oct-18 12:58N 68°04' E 013°32'1401720400.8
2017-Oct-18 12:58N 46°56' E 031°57'1476379526.3
2017-Oct-18 12:58N 49°19' W 004°43'1152691177.1
2017-Oct-18 12:58N 66°10' E 012°32'1327298474.7
2017-Oct-18 12:58N 46°50' E 031°57'89897977.8
2017-Oct-18 12:57N 41°57' E 012°09'5272403805.3
2017-Oct-18 12:56N 29°33' W 095°02'449013710.4
2017-Oct-18 12:37N 50°48' W 001°07'537075509.1
2017-Oct-18 12:32N 32°37' W 118°29'5370174147.1
2017-Oct-18 12:31N 50°48' W 001°07'9461702660.4
2017-Oct-18 12:30N 44°51' E 020°38'52812715780.2
2017-Oct-18 12:30N 01°17' E 103°46'63596.7
2017-Oct-18 12:30N 01°13' E 103°50'64853335206.2
2017-Oct-18 12:30N 47°41' W 003°22'53562754530.9
2017-Oct-18 12:30N 32°37' W 118°29'52566307043.2
2017-Oct-18 12:30N 49°24' W 004°33'17536309159.6
2017-Oct-18 12:30N 44°44' E 037°47'72378684046.9
2017-Oct-18 12:30N 37°47' W 122°23'68663531159.0
2017-Oct-18 12:30N 46°57' E 031°60'655589266.8
2017-Oct-18 12:30N 37°56' E 023°39'648259240.8
2017-Oct-18 12:30N 46°50' E 031°57'27582446.9
2017-Oct-18 12:29N 44°44' E 037°47'64174620254.7
2017-Oct-18 12:29N 29°33' W 095°02'1079971163.0
2017-Oct-18 12:29N 38°58' W 076°29'2139452909.8
2017-Oct-18 12:29N 46°09' W 123°53'55832871510.2
2017-Oct-18 12:29N 39°32' E 002°43'97185830755.6
2017-Oct-18 12:29S 38°20' E 144°45'84681385746.8
2017-Oct-18 12:28N 46°56' E 031°57'14001680179.5
2017-Oct-18 12:28N 68°04' E 013°32'1401720400.0
2017-Oct-18 12:28N 46°56' E 031°57'1321250350.4
2017-Oct-18 12:28N 66°10' E 012°32'59985398126.9
2017-Oct-18 12:28N 01°19' E 104°00'48001570894.4
2017-Oct-18 12:28N 46°50' E 031°57'9011622101.2
2017-Oct-18 12:28N 59°20' E 018°05'608756771.2
2017-Oct-18 12:21S 23°00' W 044°19'885525771.7
2017-Oct-18 12:01N 01°16' E 103°56'614322114243.8
2017-Oct-18 12:01N 39°26' E 002°36'15995754601.1
2017-Oct-18 12:01N 44°44' E 037°47'730876062.6
2017-Oct-18 12:00N 44°51' E 020°38'9463405315.6
2017-Oct-18 12:00N 50°48' W 001°07'20941716.7
2017-Oct-18 12:00N 47°40' W 003°25'52781727270.1
2017-Oct-18 12:00N 37°47' W 122°23'68662247099.2
2017-Oct-18 12:00N 46°57' E 031°60'655785689.0
2017-Oct-18 12:00N 37°56' E 023°39'69688361256.5
2017-Oct-18 12:00N 32°36' W 118°27'69936293659.2
2017-Oct-18 12:00N 46°50' E 031°57'47901916088.1
2017-Oct-18 11:59N 01°17' E 103°46'33301712561.7
2017-Oct-18 11:59S 38°20' E 144°45'140608436168.3
2017-Oct-18 11:59N 38°58' W 076°29'4787820558.3
2017-Oct-18 11:59N 46°55' E 031°57'643211576776.2
2017-Oct-18 11:59N 46°09' W 123°53'558320100572.8
2017-Oct-18 11:59N 39°32' E 002°43'6141690828.0
2017-Oct-18 11:58N 01°18' E 104°01'5999899855.2
2017-Oct-18 11:58N 66°10' E 012°32'1321475665.1
2017-Oct-18 11:58N 46°56' E 031°57'62487.2
2017-Oct-18 11:58N 46°50' E 031°57'27535301.0
2017-Oct-18 11:57N 44°44' E 037°47'113828072.3
2017-Oct-18 11:55N 59°20' E 018°05'516469888.6
2017-Oct-18 11:50N 29°33' W 095°02'4365523840.6
2017-Oct-18 11:50N 49°32' W 004°18'5174152674.5
2017-Oct-18 11:48N 37°52' W 122°29'210220562.5
2017-Oct-18 11:42N 32°45' W 080°01'556230111.0
2017-Oct-18 11:31N 44°43' E 037°50'512218438621.4
2017-Oct-18 11:31N 38°58' W 076°29'43517831628.9
2017-Oct-18 11:30N 44°51' E 020°38'7332637429.0
2017-Oct-18 11:30N 44°43' E 037°50'16135807392.4
2017-Oct-18 11:30N 50°48' W 001°07'13822572.8
2017-Oct-18 11:30N 49°36' W 004°10'51782071025.4
2017-Oct-18 11:30N 37°47' W 122°23'52772110826.5
2017-Oct-18 11:30N 47°39' W 003°26'13271592637.7
2017-Oct-18 11:30N 37°56' E 023°39'50432593394.8
2017-Oct-18 11:30N 01°16' E 103°55'104131629832.0
2017-Oct-18 11:29N 38°58' W 076°29'3680602214.9
2017-Oct-18 11:29N 39°32' E 002°43'55835025142.0
2017-Oct-18 11:29N 46°09' W 123°53'74584474541.6
2017-Oct-18 11:29S 38°20' E 144°45'99321625301.3
2017-Oct-18 11:28N 68°04' E 013°32'59941541387.2
2017-Oct-18 11:28N 01°15' E 103°50'59951660116.2
2017-Oct-18 11:28N 66°10' E 012°32'43898532.6
2017-Oct-18 11:28N 59°20' E 018°05'9836702.8
2017-Oct-18 11:19N 43°41' E 010°16'6043345288.2
2017-Oct-18 11:18N 37°52' W 122°29'145813596.2
2017-Oct-18 11:11N 29°33' W 095°02'1219151377.4
2017-Oct-18 11:11N 32°36' W 118°30'736142812.8
2017-Oct-18 11:01N 44°42' E 037°51'0473.0
2017-Oct-18 11:01N 44°42' E 037°50'733879235.8
2017-Oct-18 11:00N 44°51' E 020°38'9461702792.2
2017-Oct-18 11:00N 50°48' W 001°07'631378408.8
2017-Oct-18 11:00N 43°41' E 010°16'578120812366.4
2017-Oct-18 11:00N 01°15' E 103°53'13590.5
2017-Oct-18 11:00N 01°16' E 103°53'52056.7
2017-Oct-18 11:00N 01°14' E 103°48'78803545878.8
2017-Oct-18 11:00N 37°47' W 122°23'71814.1
2017-Oct-18 11:00N 37°52' W 122°29'69198302363.8
2017-Oct-18 11:00N 37°56' E 023°39'4706564662.0
2017-Oct-18 10:59N 38°58' W 076°29'3680552030.9
2017-Oct-18 10:59N 39°32' E 002°43'97184997790.5
2017-Oct-18 10:59S 38°20' E 144°45'745826847249.3
2017-Oct-18 10:59N 46°09' W 123°53'8513062187.0
2017-Oct-18 10:59N 32°36' W 118°31'5487858804.1
2017-Oct-18 10:58N 68°04' E 013°32'11716135.7
2017-Oct-18 10:58N 66°10' E 012°32'43892735.4
2017-Oct-18 10:58N 59°20' E 018°05'9609115.8
2017-Oct-18 10:51N 49°40' W 003°52'4383276829.9
2017-Oct-18 10:50N 29°33' W 095°02'10793270.4
2017-Oct-18 10:31N 38°58' W 076°29'512118436404.7
2017-Oct-18 10:31N 44°43' E 037°49'659111864250.2
2017-Oct-18 10:30N 49°18' W 123°08'588021169652.2
2017-Oct-18 10:30N 44°51' E 020°38'9441699002.1
2017-Oct-18 10:30N 50°45' W 001°05'16105796191.6
2017-Oct-18 10:30N 44°43' E 037°48'4488950298.6
2017-Oct-18 10:30N 01°14' E 103°53'78742577100.8
2017-Oct-18 10:30N 37°47' W 122°23'58693521541.3
2017-Oct-18 10:30N 39°23' E 002°44'425765626.2
2017-Oct-18 10:30N 43°43' E 010°14'700504305.6
2017-Oct-18 10:30N 37°56' E 023°39'69731793144.5
2017-Oct-18 10:29N 32°36' W 118°33'71901991054.7
2017-Oct-18 10:29S 38°20' E 144°45'1406016872338.9
2017-Oct-18 10:29N 38°58' W 076°29'3680602215.2
2017-Oct-18 10:29N 39°32' E 002°43'55831827324.9
2017-Oct-18 10:29N 46°09' W 123°53'4666799901.8
2017-Oct-18 10:28N 68°04' E 013°32'1673501789.0
2017-Oct-18 10:28N 41°08' E 001°12'1270147451.6
2017-Oct-18 10:28N 59°20' E 018°05'5164232379.1
2017-Oct-18 10:26N 29°33' W 095°02'4392329377.7
2017-Oct-18 10:25N 49°42' W 003°40'111518575.5
2017-Oct-18 10:22N 66°10' E 012°32'6226128817.7
2017-Oct-18 10:19S 23°05' W 044°22'591484489.5
2017-Oct-18 10:15N 37°52' W 122°29'21649110.4
2017-Oct-18 10:01N 38°58' W 076°29'43515221085.9
2017-Oct-18 10:00N 44°51' E 020°38'8843181891.2
2017-Oct-18 10:00N 41°04' E 001°11'5841051828.8
2017-Oct-18 10:00N 50°41' W 000°58'63887665880.1
2017-Oct-18 10:00N 01°15' E 103°55'77691165350.2
2017-Oct-18 10:00N 49°18' W 123°08'6921244886.0
2017-Oct-18 10:00N 37°47' W 122°23'7872914178.1
2017-Oct-18 09:59N 01°16' E 103°54'448816155028.2
2017-Oct-18 09:59N 44°44' E 037°47'51194607097.3
2017-Oct-18 09:59N 38°58' W 076°29'39157046600.1
2017-Oct-18 09:59N 43°45' E 010°12'42152211.9
2017-Oct-18 09:59N 39°32' E 002°43'58962358441.6
2017-Oct-18 09:59N 32°35' W 118°32'851437505.5
2017-Oct-18 09:59N 46°09' W 123°53'46661119862.5
2017-Oct-18 09:58N 68°04' E 013°32'993217878314.6
2017-Oct-18 09:58S 38°20' E 144°45'81182247977.7
2017-Oct-18 09:58N 44°44' E 037°47'1547506266.6
2017-Oct-18 09:58N 66°10' E 012°32'43898532.4
2017-Oct-18 09:58N 59°20' E 018°05'130290151.5
2017-Oct-18 09:57N 37°56' E 023°39'11824947.5
2017-Oct-18 09:42N 52°12' E 004°25'348917614.4
2017-Oct-18 09:31N 38°58' W 076°29'43515221085.9
2017-Oct-18 09:30N 44°51' E 020°38'52929525903.9
2017-Oct-18 09:30N 01°16' E 103°59'614811066933.4
2017-Oct-18 09:30N 52°12' E 004°25'224268502.8
2017-Oct-18 09:30N 50°35' W 000°58'47185661479.2
2017-Oct-18 09:30N 49°18' W 123°08'551119839433.0
2017-Oct-18 09:30N 43°47' E 010°10'61051292833.0
2017-Oct-18 09:30N 32°35' W 118°30'57736927771.4
2017-Oct-18 09:30N 41°05' E 001°15'1054291824.6
2017-Oct-18 09:30N 37°56' E 023°39'756129605.2
2017-Oct-18 09:29N 44°44' E 037°47'44865382652.6
2017-Oct-18 09:29N 01°13' E 103°48'104096245254.6
2017-Oct-18 09:29N 38°58' W 076°29'2139171099.8
2017-Oct-18 09:28N 46°09' W 123°53'74582440659.0
2017-Oct-18 09:28S 38°20' E 144°45'72034321819.9
2017-Oct-18 09:28N 37°52' W 122°29'72362170898.6
2017-Oct-18 09:28N 44°44' E 037°47'1547696116.2
2017-Oct-18 09:28N 66°10' E 012°32'43898531.6
2017-Oct-18 09:28N 59°20' E 018°05'133045181.9
2017-Oct-18 09:26N 39°32' E 002°43'135569676.2
2017-Oct-18 09:25N 46°57' E 031°60'2766.4
2017-Oct-18 09:25N 46°56' E 031°57'0252.0
2017-Oct-18 09:24N 46°56' E 031°57'6386.6
2017-Oct-18 09:24N 46°50' E 031°57'010.0
2017-Oct-18 09:22N 46°50' E 031°57'6077263580.4
2017-Oct-18 09:20N 29°33' W 095°02'562827982.9
2017-Oct-18 09:08N 60°02' E 029°58'7896176.5
2017-Oct-18 09:01N 46°56' E 031°57'478617230831.5
2017-Oct-18 09:01N 38°58' W 076°29'1041337488464.9
2017-Oct-18 09:00N 01°16' E 103°57'648523347612.9
2017-Oct-18 09:00N 49°56' W 003°05'10103637711.6
2017-Oct-18 09:00N 44°51' E 020°38'45540955.3
2017-Oct-18 09:00N 43°49' E 010°08'708636856.1
2017-Oct-18 09:00N 37°56' E 023°39'655589271.1
2017-Oct-18 09:00N 46°57' E 031°60'1118447086.0
2017-Oct-18 09:00N 52°11' E 004°26'1400630219.8
2017-Oct-18 08:59N 44°44' E 037°47'81184870620.5
2017-Oct-18 08:59S 38°20' E 144°45'1406016872338.9
2017-Oct-18 08:59N 38°58' W 076°29'3680630891.9
2017-Oct-18 08:59N 39°32' E 002°43'5583744465.5
2017-Oct-18 08:58N 46°09' W 123°53'46663359587.5
2017-Oct-18 08:58N 68°04' E 013°32'1400229072.8
2017-Oct-18 08:58N 46°56' E 031°57'277998970.3
2017-Oct-18 08:58N 44°44' E 037°47'15471113791.8
2017-Oct-18 08:58N 66°10' E 012°32'54992474465.5
2017-Oct-18 08:58N 32°36' W 118°27'69954196772.3
2017-Oct-18 08:58N 46°50' E 031°57'79560873.6
2017-Oct-18 08:57N 60°02' E 029°58'795178822.8
2017-Oct-18 08:57N 46°50' E 031°57'6870159556.5
2017-Oct-18 08:54N 37°47' W 122°23'728.5
2017-Oct-18 08:40N 37°52' W 122°29'216413360.8
2017-Oct-18 08:31N 38°58' W 076°29'43517831636.9
2017-Oct-18 08:30N 44°51' E 020°38'65535897722.2
2017-Oct-18 08:30N 32°36' W 118°29'636811462868.2
2017-Oct-18 08:30N 60°02' E 029°58'51946232861.5
2017-Oct-18 08:30N 01°14' E 103°48'57896946447.2
2017-Oct-18 08:30N 43°52' E 010°06'9411129195.5
2017-Oct-18 08:30N 46°57' E 031°60'48013457010.9
2017-Oct-18 08:30N 01°16' E 103°59'48031921221.4
2017-Oct-18 08:30N 46°56' E 031°57'68656178298.3
2017-Oct-18 08:30N 37°47' W 122°23'692355684.8
2017-Oct-18 08:30N 49°18' W 123°08'641223082812.7
2017-Oct-18 08:30N 37°56' E 023°39'58744229274.5
2017-Oct-18 08:30N 30°01' W 094°02'6346993331.1
2017-Oct-18 08:29N 44°44' E 037°47'51193071398.2
2017-Oct-18 08:29N 38°58' W 076°29'32211449361.0
2017-Oct-18 08:29N 49°60' W 002°51'671150983.5
2017-Oct-18 08:29N 39°32' E 002°43'97182186531.5
2017-Oct-18 08:29S 38°20' E 144°45'99323250597.5
2017-Oct-18 08:28N 68°04' E 013°32'466616797937.3
2017-Oct-18 08:28N 46°09' W 123°53'502180552.2
2017-Oct-18 08:28N 37°52' W 122°29'72362605074.6
2017-Oct-18 08:28N 44°44' E 037°47'27542975.6
2017-Oct-18 08:28N 46°50' E 031°57'9011081402.4
2017-Oct-18 08:28N 59°20' E 018°05'896645281.8
2017-Oct-18 08:28N 46°56' E 031°57'132130297.2
2017-Oct-18 08:25N 66°10' E 012°32'132737019.9
2017-Oct-18 08:23N 46°50' E 031°57'132110247.5
2017-Oct-18 08:15N 50°30' W 000°55'450372696.2
2017-Oct-18 08:11N 29°33' W 095°02'607433849.4
2017-Oct-18 08:01N 46°56' E 031°57'478617230831.5
2017-Oct-18 08:01N 38°58' W 076°29'43515221085.9
2017-Oct-18 08:00N 44°51' E 020°38'52834754749.4
2017-Oct-18 08:00N 01°16' E 103°47'77755598080.1
2017-Oct-18 08:00N 49°18' W 123°08'776227944010.8
2017-Oct-18 08:00N 01°17' E 104°00'579820874200.6
2017-Oct-18 08:00N 43°54' E 010°03'9421130396.4
2017-Oct-18 08:00N 46°57' E 031°60'2642.2
2017-Oct-18 08:00N 46°56' E 031°57'68654943058.0
2017-Oct-18 08:00N 37°47' W 122°23'69182075358.5
2017-Oct-18 08:00N 37°56' E 023°39'756129604.7
2017-Oct-18 07:59N 44°44' E 037°47'13981677663.5
2017-Oct-18 07:59N 52°08' E 004°29'34932095638.8
2017-Oct-18 07:59N 38°58' W 076°29'3680576032.1
2017-Oct-18 07:59N 39°32' E 002°43'97181749225.2
2017-Oct-18 07:59S 38°20' E 144°45'99322979714.4
2017-Oct-18 07:58N 68°04' E 013°32'46668398968.6
2017-Oct-18 07:58N 46°09' W 123°53'56063363470.6
2017-Oct-18 07:58N 60°02' E 029°58'961314613.3
2017-Oct-18 07:58N 44°44' E 037°47'1547696116.5
2017-Oct-18 07:58N 66°10' E 012°32'43898531.1
2017-Oct-18 07:58N 59°20' E 018°05'108186447.8
2017-Oct-18 07:57N 45°16' E 036°28'727167635.6
2017-Oct-18 07:50N 32°35' W 118°26'1217547492.5
2017-Oct-18 07:50N 29°33' W 095°02'6077705716.2
2017-Oct-18 07:50N 46°50' E 031°57'0 0.0
2017-Oct-18 07:46N 46°50' E 031°57'479618951.9
2017-Oct-18 07:30N 01°12' E 103°48'528719031938.6
2017-Oct-18 07:30N 44°51' E 020°38'52891730925.6
2017-Oct-18 07:30N 01°14' E 103°52'47994318811.1
2017-Oct-18 07:30N 46°57' E 031°60'788945657.6
2017-Oct-18 07:30N 60°02' E 029°58'1215874765.6
2017-Oct-18 07:30N 43°56' E 010°00'60192407737.3
2017-Oct-18 07:30N 37°47' W 122°23'2161777808.4
2017-Oct-18 07:30N 38°58' W 076°29'47055646381.8
2017-Oct-18 07:30N 37°56' E 023°39'5942855675.3
2017-Oct-18 07:29N 29°33' W 095°02'1079776933.5
2017-Oct-18 07:29N 38°58' W 076°29'47871325508.4
2017-Oct-18 07:29N 46°56' E 031°57'1353695773.8
2017-Oct-18 07:29N 39°32' E 002°43'1352695384.7
2017-Oct-18 07:29N 46°50' E 031°57'1406194696.2
2017-Oct-18 07:28N 68°04' E 013°32'993211918852.3
2017-Oct-18 07:28S 38°20' E 144°45'74588949067.6
2017-Oct-18 07:28N 46°09' W 123°53'68063062758.3
2017-Oct-18 07:28N 44°44' E 037°47'1547397781.3
2017-Oct-18 07:28N 66°10' E 012°32'1327341113.6
2017-Oct-18 07:28N 46°50' E 031°57'9011622113.2
2017-Oct-18 07:28N 59°20' E 018°05'896537735.6
2017-Oct-18 07:28N 46°56' E 031°57'27714048.5
2017-Oct-18 07:26N 44°44' E 037°47'7354300827.8
2017-Oct-18 07:25N 32°35' W 118°24'20765118.8
2017-Oct-18 07:01N 38°58' W 076°29'43515221085.9
2017-Oct-18 07:00N 44°51' E 020°38'52852718184.3
2017-Oct-18 07:00N 01°14' E 103°48'47958630156.0
2017-Oct-18 07:00N 46°50' E 031°57'622011196187.1
2017-Oct-18 07:00N 49°18' W 123°08'621411185738.8
2017-Oct-18 07:00N 46°56' E 031°57'69864191719.2
2017-Oct-18 07:00N 32°35' W 118°21'60824379123.7
2017-Oct-18 07:00N 43°58' E 009°58'60162406309.0
2017-Oct-18 07:00N 37°47' W 122°23'69182075358.5
2017-Oct-18 07:00N 37°56' E 023°39'6552357067.0
2017-Oct-18 07:00N 46°57' E 031°60'27647338.9
2017-Oct-18 06:59N 44°44' E 037°47'511918428376.2
2017-Oct-18 06:59N 38°58' W 076°29'3680427378.6
2017-Oct-18 06:59N 39°32' E 002°43'1353286553.6
2017-Oct-18 06:59N 46°56' E 031°57'846810162129.2
2017-Oct-18 06:58S 38°20' E 144°45'99323250597.5
2017-Oct-18 06:58N 68°04' E 013°32'46662099738.8
2017-Oct-18 06:58N 46°09' W 123°53'68064900405.9
2017-Oct-18 06:58N 44°44' E 037°47'1547464077.7
2017-Oct-18 06:58N 66°10' E 012°32'1327341113.6
2017-Oct-18 06:58N 46°50' E 031°57'6077260442.9
2017-Oct-18 06:56N 29°33' W 095°02'10792516.4
2017-Oct-18 06:31N 38°58' W 076°29'20717457349.2
2017-Oct-18 06:31N 32°35' W 118°18'65457854591.9
2017-Oct-18 06:30N 44°51' E 020°38'489146558.3
2017-Oct-18 06:30N 46°56' E 031°57'68651300813.4
2017-Oct-18 06:30N 37°47' W 122°23'787628353849.0
2017-Oct-18 06:30N 01°15' E 103°50'479517263586.1
2017-Oct-18 06:30N 46°50' E 031°57'62203198860.0
2017-Oct-18 06:30N 49°18' W 123°08'62154474613.0
2017-Oct-18 06:30N 46°57' E 031°60'945425193.9
2017-Oct-18 06:30N 44°01' E 009°55'94704261663.2
2017-Oct-18 06:29S 38°20' E 144°45'81184870615.5
2017-Oct-18 06:29N 44°44' E 037°47'51194607090.9
2017-Oct-18 06:29N 38°58' W 076°29'3680490693.7
2017-Oct-18 06:29N 39°32' E 002°43'1755203779.3
2017-Oct-18 06:28N 68°04' E 013°32'46661292146.9
2017-Oct-18 06:28N 46°09' W 123°53'680624502044.8
2017-Oct-18 06:28N 44°44' E 037°47'1547464078.2
2017-Oct-18 06:28N 66°10' E 012°32'1327397965.9
2017-Oct-18 06:28N 46°50' E 031°57'62805.3
2017-Oct-18 06:28N 46°56' E 031°57'131145819.3
2017-Oct-18 06:26N 50°31' W 000°43'129136892.5
2017-Oct-18 06:24N 37°56' E 023°39'594237728.2
2017-Oct-18 06:14N 29°33' W 095°02'562829150.5
2017-Oct-18 06:03N 60°02' E 029°58'4337119173.8
2017-Oct-18 06:01N 38°58' W 076°29'21043787976.3
2017-Oct-18 06:00N 49°19' W 123°11'588121172731.7
2017-Oct-18 06:00N 44°51' E 020°38'489175870.0
2017-Oct-18 06:00N 46°56' E 031°57'21912.7
2017-Oct-18 06:00N 46°57' E 031°60'47962466441.4
2017-Oct-18 06:00N 01°15' E 103°50'51943739633.6
2017-Oct-18 06:00N 60°02' E 029°58'635911446929.4
2017-Oct-18 06:00N 32°36' W 118°16'370444539.5
2017-Oct-18 06:00N 37°47' W 122°23'687012365628.6
2017-Oct-18 06:00N 46°50' E 031°57'648212105.3
2017-Oct-18 06:00N 37°56' E 023°39'756118335.1
2017-Oct-18 05:59N 44°44' E 037°47'811814611840.2
2017-Oct-18 05:59S 38°20' E 144°45'1406010123397.6
2017-Oct-18 05:59N 38°58' W 076°29'3680576032.1
2017-Oct-18 05:59N 39°32' E 002°43'675269847.8
2017-Oct-18 05:59N 50°31' W 000°42'1140186589.4
2017-Oct-18 05:58N 68°04' E 013°32'1615363447.1
2017-Oct-18 05:58N 44°44' E 037°47'680612251033.1
2017-Oct-18 05:58N 46°09' W 123°53'47132120917.4
2017-Oct-18 05:58N 66°10' E 012°32'1327341113.6
2017-Oct-18 05:58N 46°50' E 031°57'63740.4
2017-Oct-18 05:58N 46°56' E 031°57'944121434.5
2017-Oct-18 05:57N 44°04' E 009°53'511445014.7
2017-Oct-18 05:50N 29°33' W 095°02'566584269.7
2017-Oct-18 05:46N 59°47' E 030°44'639724394.7
2017-Oct-18 05:31N 32°39' W 118°16'814129307314.9
2017-Oct-18 05:30N 01°10' E 103°47'777727996919.4
2017-Oct-18 05:30N 49°19' W 123°09'588021169111.0
2017-Oct-18 05:30N 44°51' E 020°38'972699865.2
2017-Oct-18 05:30N 60°02' E 029°58'51943116379.1
2017-Oct-18 05:30N 01°15' E 103°51'479717270155.5
2017-Oct-18 05:30N 46°56' E 031°57'23825.4
2017-Oct-18 05:30N 46°57' E 031°60'68661454006.6
2017-Oct-18 05:30N 37°47' W 122°23'687024731273.2
2017-Oct-18 05:30N 46°50' E 031°57'648179475.1
2017-Oct-18 05:30N 37°56' E 023°39'85871626965.9
2017-Oct-18 05:29S 38°20' E 144°45'811814611848.7
2017-Oct-18 05:29N 44°44' E 037°47'63184549004.3
2017-Oct-18 05:29S 23°00' W 044°19'4677623631.7
2017-Oct-18 05:29N 39°32' E 002°43'1755203779.4
2017-Oct-18 05:28N 68°04' E 013°32'1615306060.4
2017-Oct-18 05:28N 44°44' E 037°47'680624502051.1
2017-Oct-18 05:28N 46°09' W 123°53'47132827889.9
2017-Oct-18 05:28N 66°10' E 012°32'1327367353.1
2017-Oct-18 05:28N 46°50' E 031°57'63740.4
2017-Oct-18 05:28N 46°56' E 031°57'6074287710.5
2017-Oct-18 05:26N 29°33' W 095°02'10791942333.7
2017-Oct-18 05:26N 38°58' W 076°29'3890378523.6
2017-Oct-18 05:26N 44°04' E 009°50'600738341.0
2017-Oct-18 05:16N 37°52' W 122°29'16036482.9
2017-Oct-18 05:01N 41°31' W 088°06'55436903.8
2017-Oct-18 05:01N 38°58' W 076°29'43517831628.9
2017-Oct-18 05:00N 44°51' E 020°38'490117702.2
2017-Oct-18 05:00N 46°57' E 031°60'62143195951.1
2017-Oct-18 05:00N 49°18' W 123°07'692248963.5
2017-Oct-18 05:00N 37°47' W 122°23'687012365637.5
2017-Oct-18 05:00N 46°50' E 031°57'7951430593.7
2017-Oct-18 05:00N 60°02' E 029°58'1348606786.7
2017-Oct-18 05:00N 37°56' E 023°39'503318120598.2
2017-Oct-18 05:00N 01°17' E 103°46'52686.7
2017-Oct-18 05:00N 01°15' E 103°50'44851153315.3
2017-Oct-18 04:59N 44°44' E 037°47'81185844738.9
2017-Oct-18 04:59S 38°20' E 144°45'1406016872331.7
2017-Oct-18 04:59N 38°58' W 076°29'3680529949.8
2017-Oct-18 04:59N 39°32' E 002°43'4144596689.7
2017-Oct-18 04:58N 41°31' W 088°06'38602316182.3
2017-Oct-18 04:58N 68°04' E 013°32'52392694342.8
2017-Oct-18 04:58N 37°52' W 122°29'72362894531.5
2017-Oct-18 04:58N 44°44' E 037°47'16211458936.5
2017-Oct-18 04:58N 50°19' W 001°22'49032941646.0
2017-Oct-18 04:58N 46°09' W 123°53'64372317330.0
2017-Oct-18 04:58N 46°50' E 031°57'62491.2
2017-Oct-18 04:58N 46°56' E 031°57'1151.7
2017-Oct-18 04:57N 46°56' E 031°57'132133032.3
2017-Oct-18 04:55N 66°10' E 012°32'5484987033.9
2017-Oct-18 04:55N 32°44' W 118°18'12097068.5
2017-Oct-18 04:44N 29°33' W 095°02'8156543738.8
2017-Oct-18 04:43N 23°05' E 113°29'9863328777.9
2017-Oct-18 04:42S 23°00' W 044°19'418122700.3
2017-Oct-18 04:31N 38°58' W 076°29'43513915818.4
2017-Oct-18 04:30N 44°51' E 020°38'52813802119.1
2017-Oct-18 04:30N 01°17' E 103°46'47922875211.9
2017-Oct-18 04:30N 46°56' E 031°57'22554.7
2017-Oct-18 04:30N 46°57' E 031°60'69742282280.6
2017-Oct-18 04:30N 32°43' W 118°13'366263544.7
2017-Oct-18 04:30N 37°47' W 122°23'69182075358.5
2017-Oct-18 04:30N 37°56' E 023°39'5161977917.3
2017-Oct-18 04:29N 41°31' W 088°06'55169929297.7
2017-Oct-18 04:29N 44°44' E 037°47'51191675307.0
2017-Oct-18 04:29N 38°58' W 076°29'41811254169.8
2017-Oct-18 04:29S 23°00' W 044°19'46772104760.5
2017-Oct-18 04:29N 39°32' E 002°43'1352167839.2
2017-Oct-18 04:28N 46°50' E 031°57'1406843627.8
2017-Oct-18 04:28N 68°04' E 013°32'993211918742.4
2017-Oct-18 04:28S 38°20' E 144°44'81182247942.6
2017-Oct-18 04:28N 44°44' E 037°47'275329708.3
2017-Oct-18 04:28N 46°50' E 031°57'1326682147.6
2017-Oct-18 04:28N 66°10' E 012°32'471316967339.2
2017-Oct-18 04:28N 46°09' W 123°53'64311361849.0
2017-Oct-18 04:28N 46°56' E 031°57'6074280333.3
2017-Oct-18 04:26N 29°33' W 095°02'8156184666.7
2017-Oct-18 04:24N 23°05' E 113°29'6475274246.1
2017-Oct-18 04:22N 37°52' W 122°29'530159269.3
2017-Oct-18 04:17N 50°30' W 000°33'1891.1
2017-Oct-18 04:05N 50°22' W 000°58'329544589.4
2017-Oct-18 04:01N 38°58' W 076°29'43515221091.2
2017-Oct-18 04:00N 44°51' E 020°38'607821879247.4
2017-Oct-18 04:00N 46°09' W 123°53'191687246.8
2017-Oct-18 04:00N 49°18' W 123°08'76112739810.3
2017-Oct-18 04:00S 38°20' E 144°45'846830485596.0
2017-Oct-18 04:00N 46°56' E 031°57'23825.4
2017-Oct-18 04:00N 46°57' E 031°60'69692280645.1
2017-Oct-18 04:00N 32°43' W 118°07'369265697.6
2017-Oct-18 04:00N 37°47' W 122°23'72602178037.9
2017-Oct-18 04:00S 42°54' E 147°21'886015948637.7
2017-Oct-18 04:00N 37°56' E 023°39'54511509599.3
2017-Oct-18 04:00S 23°00' W 044°19'63183249291.1
2017-Oct-18 03:59N 44°44' E 037°47'55162482326.6
2017-Oct-18 03:59N 41°31' W 088°06'5531992452.2
2017-Oct-18 03:59N 38°58' W 076°29'104133407772.7
2017-Oct-18 03:59N 01°17' E 103°56'61371841140.6
2017-Oct-18 03:59N 39°32' E 002°43'1755197411.2
2017-Oct-18 03:58N 68°04' E 013°32'14061265485.5
2017-Oct-18 03:58N 46°50' E 031°57'68698243179.0
2017-Oct-18 03:58N 37°52' W 122°29'68643530119.7
2017-Oct-18 03:58N 46°56' E 031°57'6074202452.8
2017-Oct-18 03:56N 29°33' W 095°02'4855208076.5
2017-Oct-18 03:55N 66°10' E 012°32'102551235.4
2017-Oct-18 03:54N 50°31' W 000°29'16155.5
2017-Oct-18 03:48N 50°23' W 000°50'131810116.9
2017-Oct-18 03:40N 46°50' E 031°57'7956607.5
2017-Oct-18 03:33N 60°02' E 029°58'4337123902.9
2017-Oct-18 03:31N 38°58' W 076°29'1040518729636.1
2017-Oct-18 03:30N 01°15' E 103°47'528319019988.0
2017-Oct-18 03:30N 44°51' E 020°38'60784375849.5
2017-Oct-18 03:30N 46°09' W 123°53'191114537.6
2017-Oct-18 03:30N 49°18' W 123°08'658823718342.7
2017-Oct-18 03:30N 44°44' E 037°47'277997467.5
2017-Oct-18 03:30N 46°56' E 031°57'21277.4
2017-Oct-18 03:30N 46°57' E 031°60'21497.3
2017-Oct-18 03:30N 46°56' E 031°57'480417293221.5
2017-Oct-18 03:30N 01°17' E 104°00'63647636770.4
2017-Oct-18 03:30N 50°31' W 000°26'53066367007.0
2017-Oct-18 03:30N 37°47' W 122°23'61553693167.0
2017-Oct-18 03:30N 60°02' E 029°58'1348539365.7
2017-Oct-18 03:30N 37°56' E 023°39'756123713.4
2017-Oct-18 03:29N 44°44' E 037°47'51192303545.1
2017-Oct-18 03:29N 38°58' W 076°29'553996222.8
2017-Oct-18 03:29N 41°31' W 088°06'4144785110.0
2017-Oct-18 03:29N 39°32' E 002°43'1755191429.1
2017-Oct-18 03:28N 68°04' E 013°32'993235756629.1
2017-Oct-18 03:28S 38°20' E 144°45'846510158509.0
2017-Oct-18 03:28N 46°50' E 031°57'1326207622.2
2017-Oct-18 03:28N 66°10' E 012°32'6220414647.6
2017-Oct-18 03:27S 23°00' W 044°19'97231750132.5
2017-Oct-18 03:27S 42°54' E 147°21'82481349738.5
2017-Oct-18 03:26N 29°33' W 095°02'6077254386.1
2017-Oct-18 03:25N 46°50' E 031°57'4877234097.8
2017-Oct-18 03:24N 36°53' W 076°22'2066126044.9
2017-Oct-18 03:23N 32°43' W 117°59'3796692.8
2017-Oct-18 03:19N 37°52' W 122°29'21646954.8
2017-Oct-18 03:01N 38°58' W 076°29'43513132652.0
2017-Oct-18 03:00N 44°51' E 020°38'7302628187.8
2017-Oct-18 03:00N 44°44' E 037°47'68062722451.8
2017-Oct-18 03:00N 46°09' W 123°53'493317757284.5
2017-Oct-18 03:00N 50°27' W 000°28'13014684655.7
2017-Oct-18 03:00N 46°56' E 031°57'22550.3
2017-Oct-18 03:00N 46°57' E 031°60'68661544882.0
2017-Oct-18 03:00N 37°47' W 122°23'61554431803.2
2017-Oct-18 03:00N 60°02' E 029°58'1348693470.6
2017-Oct-18 03:00N 37°56' E 023°39'653261295.4
2017-Oct-18 03:00N 46°56' E 031°57'27771328.7
2017-Oct-18 02:59N 44°44' E 037°47'51192632627.5
2017-Oct-18 02:59N 38°58' W 076°29'39071562965.6
2017-Oct-18 02:59N 59°20' E 018°05'41977555375.3
2017-Oct-18 02:59N 41°31' W 088°06'41441065499.3
2017-Oct-18 02:59N 39°32' E 002°43'1755203779.3
2017-Oct-18 02:58N 68°04' E 013°32'14065061937.2
2017-Oct-18 02:58N 46°50' E 031°57'48011329592.7
2017-Oct-18 02:58N 01°18' E 104°01'88614557073.4
2017-Oct-18 02:58S 23°00' W 044°19'62204478197.1
2017-Oct-18 02:58N 66°10' E 012°32'4855182067.3
2017-Oct-18 02:56N 29°33' W 095°02'145882002.4
2017-Oct-18 02:55N 37°52' W 122°29'68701177647.1
2017-Oct-18 02:55N 46°50' E 031°57'12975896.8
2017-Oct-18 02:42N 50°32' W 000°19'478351242.2
2017-Oct-18 02:36N 48°51' W 123°30'211722889.7
2017-Oct-18 02:31N 38°58' W 076°29'1040937472198.4
2017-Oct-18 02:30N 01°15' E 103°51'634822851811.9
2017-Oct-18 02:30N 50°30' W 000°14'9083269422.0
2017-Oct-18 02:30N 44°51' E 020°38'7302628187.8
2017-Oct-18 02:30N 44°44' E 037°47'1578811378.7
2017-Oct-18 02:30N 50°32' W 000°16'12942328601.5
2017-Oct-18 02:30N 46°56' E 031°57'69595010271.2
2017-Oct-18 02:30N 32°44' W 117°57'696012527381.8
2017-Oct-18 02:30N 46°57' E 031°60'48042470881.8
2017-Oct-18 02:30N 01°18' E 104°04'77595586157.1
2017-Oct-18 02:30N 49°18' W 123°08'692622443.0
2017-Oct-18 02:30N 37°47' W 122°23'16005760041.3
2017-Oct-18 02:30N 41°31' W 088°06'51721095270.6
2017-Oct-18 02:30N 46°56' E 031°57'84681524329.3
2017-Oct-18 02:29S 38°20' E 144°45'1406025308504.9
2017-Oct-18 02:29N 38°58' W 076°29'39071562965.0
2017-Oct-18 02:29N 59°20' E 018°05'1330299331.0
2017-Oct-18 02:29N 39°32' E 002°43'1755217833.1
2017-Oct-18 02:28N 68°04' E 013°32'14061265479.1
2017-Oct-18 02:28N 46°50' E 031°57'61321003420.5
2017-Oct-18 02:28S 23°00' W 044°19'622022390995.6
2017-Oct-18 02:28N 66°10' E 012°32'13272387795.1
2017-Oct-18 02:28N 46°50' E 031°57'64834323.8
2017-Oct-18 02:27N 37°56' E 023°39'756108868.3
2017-Oct-18 02:26N 44°44' E 037°47'641711550630.9
2017-Oct-18 02:26N 29°33' W 095°02'1757486435.6
2017-Oct-18 02:26N 48°50' W 123°28'776048331.6
2017-Oct-18 02:16N 01°18' E 103°46'815130792.1
2017-Oct-18 02:01N 32°43' W 118°02'54019721228.0
2017-Oct-18 02:01N 50°33' E 000°02'15661878861.3
2017-Oct-18 02:00N 44°44' E 037°47'7302628187.8
2017-Oct-18 02:00N 44°51' E 020°38'4871754363.7
2017-Oct-18 02:00N 46°50' E 031°57'62202798935.7
2017-Oct-18 02:00N 49°18' W 123°08'621422371477.7
2017-Oct-18 02:00N 46°56' E 031°57'21275.1
2017-Oct-18 02:00N 46°57' E 031°60'64327718295.6
2017-Oct-18 02:00N 46°09' W 123°53'77369283695.4
2017-Oct-18 02:00N 01°17' E 104°05'78623537792.4
2017-Oct-18 02:00N 37°47' W 122°23'1600480003.3
2017-Oct-18 02:00N 41°31' W 088°06'51619290151.8
2017-Oct-18 02:00N 37°56' E 023°39'756143248.5
2017-Oct-18 01:59N 44°44' E 037°47'81184174817.5
2017-Oct-18 01:59S 38°20' E 144°45'1406016872338.9
2017-Oct-18 01:59N 38°58' W 076°29'39072009524.5
2017-Oct-18 01:59N 59°20' E 018°05'60871992160.4
2017-Oct-18 01:59S 23°00' W 044°19'46773367611.9
2017-Oct-18 01:59N 39°32' E 002°43'1755197411.2
2017-Oct-18 01:58N 68°04' E 013°32'1401458434.4
2017-Oct-18 01:58N 46°56' E 031°57'1321317108.5
2017-Oct-18 01:58N 66°10' E 012°32'4855182067.1
2017-Oct-18 01:56N 29°33' W 095°02'145821597.3
2017-Oct-18 01:52N 37°52' W 122°29'6870122428.7
2017-Oct-18 01:49N 46°50' E 031°57'7953307.6
2017-Oct-18 01:34N 60°02' E 029°58'127854784.2
2017-Oct-18 01:33N 42°03' E 011°46'5268177248.4
2017-Oct-18 01:31N 23°05' E 113°29'9814802996.3
2017-Oct-18 01:31N 38°58' W 076°29'1040418727533.2
2017-Oct-18 01:30N 01°14' E 103°45'47928625666.3
2017-Oct-18 01:30N 46°50' E 031°57'275989386.8
2017-Oct-18 01:30N 44°44' E 037°47'73356601304.1
2017-Oct-18 01:30N 32°39' W 118°04'69711930304.8
2017-Oct-18 01:30N 46°57' E 031°60'64323307841.0
2017-Oct-18 01:30N 46°09' W 123°53'507260639.9
2017-Oct-18 01:30N 37°47' W 122°23'69181915715.6
2017-Oct-18 01:30N 37°56' E 023°39'51614645101.9
2017-Oct-18 01:30N 41°31' W 088°06'44681608393.7
2017-Oct-18 01:29N 42°03' E 011°45'1146687617.9
2017-Oct-18 01:29N 44°44' E 037°47'64173850216.1
2017-Oct-18 01:29N 29°33' W 095°02'826629757119.8
2017-Oct-18 01:29S 38°20' E 144°44'1406025308220.8
2017-Oct-18 01:29N 38°58' W 076°29'2164865453.3
2017-Oct-18 01:29N 37°52' W 122°29'58641407279.7
2017-Oct-18 01:29N 39°32' E 002°43'1621253678.0
2017-Oct-18 01:28N 60°02' E 029°58'647291327.6
2017-Oct-18 01:28N 68°04' E 013°32'1400458226.3
2017-Oct-18 01:28N 46°56' E 031°57'1321297149.4
2017-Oct-18 01:28N 66°10' E 012°32'13274775590.2
2017-Oct-18 01:28N 46°50' E 031°57'6415.0
2017-Oct-18 01:27N 46°56' E 031°57'89657613.9
2017-Oct-18 01:26N 59°20' E 018°05'401636977.9
2017-Oct-18 01:20N 36°53' W 076°22'10440379631.0
2017-Oct-18 01:18N 01°15' E 103°50'484229748.8
2017-Oct-18 01:08N 46°30' E 030°45'4312304411.4
2017-Oct-18 01:07N 23°05' E 113°29'981486175.0
2017-Oct-18 01:00N 38°58' W 076°29'335312072160.4
2017-Oct-18 01:00N 50°39' E 000°33'8823173932.5
2017-Oct-18 01:00N 44°51' E 020°38'4871754363.7
2017-Oct-18 01:00N 46°50' E 031°57'275989376.2
2017-Oct-18 01:00N 44°44' E 037°47'65882964792.8
2017-Oct-18 01:00N 49°18' W 123°08'1027739301.1
2017-Oct-18 01:00N 32°36' W 118°07'69758370170.4
2017-Oct-18 01:00N 46°57' E 031°60'788709243.2
2017-Oct-18 01:00N 60°02' E 029°58'7891420594.9
2017-Oct-18 01:00N 46°56' E 031°57'51736207023.7
2017-Oct-18 01:00N 41°31' W 088°06'15742832640.6
2017-Oct-18 01:00N 46°09' W 123°53'507456125.2
2017-Oct-18 01:00N 37°47' W 122°23'78765670765.9
2017-Oct-18 01:00N 01°15' E 103°50'50393023340.0
2017-Oct-18 01:00N 37°56' E 023°39'756118335.7
2017-Oct-18 00:59N 44°44' E 037°47'51193685678.5
2017-Oct-18 00:59N 38°58' W 076°29'1406016872336.6
2017-Oct-18 00:59S 38°20' E 144°45'851110212647.0
2017-Oct-18 00:59N 46°30' E 030°46'897806870.9
2017-Oct-18 00:59N 59°20' E 018°05'1330319285.3
2017-Oct-18 00:59N 39°32' E 002°43'1755197411.2
2017-Oct-18 00:58N 68°04' E 013°32'11716781.0
2017-Oct-18 00:58N 66°10' E 012°32'1321339614.9
2017-Oct-18 00:58N 46°56' E 031°57'6074273321.2
2017-Oct-18 00:56N 29°33' W 095°02'607734836.3
2017-Oct-18 00:46N 46°50' E 031°57'4255806256.0
2017-Oct-18 00:46N 23°05' E 113°29'680288397.2
2017-Oct-18 00:41N 33°24' W 118°22'205611821.7
2017-Oct-18 00:30N 38°58' W 076°29'435115663259.8
2017-Oct-18 00:30N 44°51' E 020°38'487877189.2
2017-Oct-18 00:30N 46°50' E 031°57'275989362.8
2017-Oct-18 00:30N 44°44' E 037°47'11534151857.0
2017-Oct-18 00:30N 42°01' E 011°36'62197462896.3
2017-Oct-18 00:30N 32°36' W 118°10'1026923831.0
2017-Oct-18 00:30N 49°18' W 123°08'62143728493.1
2017-Oct-18 00:30N 46°56' E 031°57'47973454045.1
2017-Oct-18 00:30N 01°15' E 103°50'77502536455.4
2017-Oct-18 00:30N 46°09' W 123°53'5071824500.7
2017-Oct-18 00:30N 37°47' W 122°23'69182490430.2
2017-Oct-18 00:30N 37°56' E 023°39'655471411.6
2017-Oct-18 00:30N 46°57' E 031°60'27652322.7
2017-Oct-18 00:29N 44°44' E 037°47'51192632622.9
2017-Oct-18 00:29N 38°58' W 076°29'1406025308508.3
2017-Oct-18 00:29S 38°20' E 144°45'94966837296.7
2017-Oct-18 00:29N 59°20' E 018°05'1330281722.3
2017-Oct-18 00:29N 39°32' E 002°43'1755210572.0
2017-Oct-18 00:28N 68°04' E 013°32'11716135.7
2017-Oct-18 00:28N 66°10' E 012°32'132195133.1
2017-Oct-18 00:27N 46°56' E 031°57'6940254933.1
2017-Oct-18 00:25N 33°24' W 118°22'6944757524.7
2017-Oct-18 00:25N 46°50' E 031°57'607779265.2
2017-Oct-18 00:20N 29°33' W 095°02'56656797734.5
2017-Oct-18 00:20N 59°47' E 030°44'417923654.8
2017-Oct-18 00:10N 40°43' W 074°01'215918778.2
2017-Oct-18 00:03N 48°53' W 123°25'211458088.6
2017-Oct-18 00:01N 38°58' W 076°29'1040737465180.1
2017-Oct-18 00:01N 01°14' E 103°48'47943451964.8
2017-Oct-18 00:00N 46°50' E 031°57'9221106460.3
2017-Oct-18 00:00N 41°59' E 011°32'56663399386.7
2017-Oct-18 00:00N 49°18' W 123°08'658811859178.7
2017-Oct-18 00:00N 44°44' E 037°47'734426439624.8
2017-Oct-18 00:00N 32°35' W 118°12'69805025616.9
2017-Oct-18 00:00N 46°57' E 031°60'21530.2
2017-Oct-18 00:00N 46°56' E 031°57'46032367090.0
2017-Oct-18 00:00N 40°43' W 074°01'22548115984.3
2017-Oct-18 00:00N 37°47' W 122°23'507304083.5
2017-Oct-18 00:00N 46°09' W 123°53'15741133048.7
2017-Oct-18 00:00N 41°31' W 088°06'51616193526.0
2017-Oct-18 00:00N 37°56' E 023°39'4706584133.3
2017-Oct-17 23:59N 38°58' W 076°29'20542464377.6
2017-Oct-17 23:59N 33°26' W 118°20'58567027742.8
2017-Oct-17 23:59N 59°20' E 018°05'56512543027.0
2017-Oct-17 23:59N 01°17' E 103°59'61402762997.2
2017-Oct-17 23:59N 39°32' E 002°43'1755191429.2
2017-Oct-17 23:58N 68°04' E 013°32'993217878315.9
2017-Oct-17 23:58S 38°20' E 144°45'99301554256.8
2017-Oct-17 23:58N 66°10' E 012°32'13274775596.0
2017-Oct-17 23:58N 46°50' E 031°57'61868.4
2017-Oct-17 23:58N 46°56' E 031°57'1242186270.5
2017-Oct-17 23:57N 50°50' E 001°03'152693099.6
2017-Oct-17 23:56N 44°44' E 037°47'6624152862.3
2017-Oct-17 23:54N 48°53' W 123°24'1756263379.2
2017-Oct-17 23:53N 29°33' W 095°02'566532786.5
2017-Oct-17 23:43N 59°47' E 030°44'7783759.0
2017-Oct-17 23:31N 46°50' E 031°57'487584787.9
2017-Oct-17 23:30N 44°51' E 020°38'7302628187.8
2017-Oct-17 23:30N 44°44' E 037°47'73478816950.9
2017-Oct-17 23:30N 32°29' W 118°09'636311452793.6
2017-Oct-17 23:30N 60°02' E 029°58'11194029105.9
2017-Oct-17 23:30N 50°54' E 001°16'32081650024.2
2017-Oct-17 23:30N 40°42' W 074°02'1024318437178.8
2017-Oct-17 23:30N 01°12' E 103°49'47978634921.2
2017-Oct-17 23:30N 46°57' E 031°60'21093.0
2017-Oct-17 23:30N 46°56' E 031°57'68652746163.6
2017-Oct-17 23:30N 37°47' W 122°23'507182450.1
2017-Oct-17 23:30N 46°09' W 123°53'68061289580.5
2017-Oct-17 23:29N 44°44' E 037°47'51192047597.4
2017-Oct-17 23:29N 38°58' W 076°29'140606327127.1
2017-Oct-17 23:29S 38°20' E 144°45'949617093246.6
2017-Oct-17 23:29N 59°20' E 018°05'1330319286.5
2017-Oct-17 23:29N 39°32' E 002°43'41442131032.8
2017-Oct-17 23:29N 41°30' W 088°06'3860555906.7
2017-Oct-17 23:28N 68°04' E 013°32'11716135.6
2017-Oct-17 23:28N 66°10' E 012°32'1321432225.2
2017-Oct-17 23:28N 46°56' E 031°57'6074257247.2
2017-Oct-17 23:26N 29°33' W 095°02'1035186331.4
2017-Oct-17 23:26N 36°53' W 076°22'40812448581.1
2017-Oct-17 23:26N 41°58' E 011°27'56972278672.3
2017-Oct-17 23:26N 48°51' W 123°26'66179291.2
2017-Oct-17 23:25N 37°52' W 122°29'68701301609.0
2017-Oct-17 23:25N 46°50' E 031°57'77873691.5
2017-Oct-17 23:24N 59°47' E 030°44'113727279.5
2017-Oct-17 23:22N 50°58' E 001°14'1027.7
2017-Oct-17 23:01N 51°02' E 001°28'338512186497.3
2017-Oct-17 23:01N 38°58' W 076°29'1041418744369.0
2017-Oct-17 23:00N 01°17' E 103°57'448916159989.5
2017-Oct-17 23:00N 44°44' E 037°47'275989389.6
2017-Oct-17 23:00N 46°50' E 031°57'71713.7
2017-Oct-17 23:00N 46°57' E 031°60'788567394.6
2017-Oct-17 23:00N 60°02' E 029°58'789947056.1
2017-Oct-17 23:00N 46°56' E 031°57'68654119242.5
2017-Oct-17 23:00N 37°47' W 122°23'1600411431.8
2017-Oct-17 23:00N 41°31' W 088°06'15385535232.2
2017-Oct-17 23:00N 32°25' W 118°05'8671561477.2
2017-Oct-17 23:00N 46°09' W 123°53'798479024.5
2017-Oct-17 23:00N 33°34' W 118°17'1213242615.7
2017-Oct-17 22:59N 29°33' W 095°02'10791942333.7
2017-Oct-17 22:59N 38°58' W 076°29'3382716274.2
2017-Oct-17 22:59N 51°02' E 001°23'34646234616.3
2017-Oct-17 22:59N 36°53' W 076°22'37322238915.2
2017-Oct-17 22:59N 39°32' E 002°43'1631225829.7
2017-Oct-17 22:58N 59°47' E 030°44'673606025.0
2017-Oct-17 22:58N 68°04' E 013°32'993217878314.6
2017-Oct-17 22:58S 38°20' E 144°45'8468846844.5
2017-Oct-17 22:58N 46°56' E 031°57'931209543.3
2017-Oct-17 22:57N 41°56' E 011°22'116559895.2
2017-Oct-17 22:56N 44°44' E 037°47'1138512323.0
2017-Oct-17 22:56N 59°20' E 018°05'90143256.3
2017-Oct-17 22:55N 46°50' E 031°57'13274775567.0
2017-Oct-17 22:55N 66°10' E 012°32'5994337157.9
2017-Oct-17 22:54N 01°14' E 103°47'7875103086.6
2017-Oct-17 22:49N 37°52' W 122°29'6612490.5
2017-Oct-17 22:33N 48°52' W 123°28'4827105307.7
2017-Oct-17 22:31N 51°10' E 001°40'339212209726.2
2017-Oct-17 22:31N 38°58' W 076°29'33896100907.4
2017-Oct-17 22:30N 51°07' E 001°36'12234401788.9
2017-Oct-17 22:30N 46°50' E 031°57'4871754378.3
2017-Oct-17 22:30N 44°51' E 020°38'65457854456.7
2017-Oct-17 22:30N 32°22' W 118°03'1041749500.0
2017-Oct-17 22:30N 49°17' W 123°08'62161491828.4
2017-Oct-17 22:30N 46°56' E 031°57'68652471545.5
2017-Oct-17 22:30N 37°47' W 122°23'69182490432.0
2017-Oct-17 22:30N 37°56' E 023°39'65922966300.7
2017-Oct-17 22:30N 46°09' W 123°53'15745665405.3
2017-Oct-17 22:30N 41°31' W 088°06'55161654882.1
2017-Oct-17 22:29N 44°44' E 037°47'51192303545.1
2017-Oct-17 22:29N 38°58' W 076°29'437115737019.1
2017-Oct-17 22:29N 59°47' E 030°44'386198454.3
2017-Oct-17 22:29N 59°20' E 018°05'949617093246.6
2017-Oct-17 22:29S 38°20' E 144°45'97182332302.5
2017-Oct-17 22:29N 39°32' E 002°43'1355487733.7
2017-Oct-17 22:29N 46°57' E 031°60'1400240014.8
2017-Oct-17 22:28N 68°04' E 013°32'44518011477.6
2017-Oct-17 22:28N 48°52' W 123°27'62591024215.5
2017-Oct-17 22:28N 46°50' E 031°57'13272387792.2
2017-Oct-17 22:28N 66°10' E 012°32'1321432227.1
2017-Oct-17 22:28N 46°56' E 031°57'6864164747.9
2017-Oct-17 22:25N 37°52' W 122°29'220077649.6
2017-Oct-17 22:23N 36°53' W 076°22'1035310554.6
2017-Oct-17 22:23N 29°33' W 095°02'523037959.7
2017-Oct-17 22:15N 41°54' E 011°16'401116597.8
2017-Oct-17 22:01N 38°58' W 076°29'554996304.9
2017-Oct-17 22:00N 41°31' W 088°06'517618633704.1
2017-Oct-17 22:00N 46°50' E 031°57'4871754363.7
2017-Oct-17 22:00N 44°51' E 020°38'7302628187.8
2017-Oct-17 22:00N 44°44' E 037°47'73528822102.2
2017-Oct-17 22:00N 32°20' W 118°03'1042750441.5
2017-Oct-17 22:00N 49°17' W 123°08'62162486501.1
2017-Oct-17 22:00N 46°57' E 031°60'21277.4
2017-Oct-17 22:00N 46°56' E 031°57'68652471547.3
2017-Oct-17 22:00N 37°47' W 122°23'69182264027.5
2017-Oct-17 22:00N 37°56' E 023°39'65923390055.7
2017-Oct-17 22:00N 46°09' W 123°53'68062041835.8
2017-Oct-17 21:59N 44°44' E 037°47'51192047599.1
2017-Oct-17 21:59N 38°58' W 076°29'39071562963.5
2017-Oct-17 21:59N 59°20' E 018°05'1330299330.7
2017-Oct-17 21:59N 39°32' E 002°43'1755203779.4
2017-Oct-17 21:58N 68°04' E 013°32'993217878306.6
2017-Oct-17 21:58S 38°20' E 144°45'1401216814132.7
2017-Oct-17 21:58N 36°53' W 076°22'3755643675.4
2017-Oct-17 21:58N 66°10' E 012°32'1321432227.1
2017-Oct-17 21:58N 46°56' E 031°57'939375478.9
2017-Oct-17 21:58N 41°54' E 011°13'5720502247.1
2017-Oct-17 21:57N 01°19' E 104°00'94631001936.6
2017-Oct-17 21:56N 29°33' W 095°02'6077270088.7
2017-Oct-17 21:55N 46°50' E 031°57'13717423.2
2017-Oct-17 21:44N 41°04' E 001°14'573451736.3
2017-Oct-17 21:37N 37°52' W 122°29'216419424.7
2017-Oct-17 21:31N 38°58' W 076°29'33976113810.4
2017-Oct-17 21:30N 51°23' E 001°52'12134365772.8
2017-Oct-17 21:30N 46°50' E 031°57'4871754363.7
2017-Oct-17 21:30N 44°51' E 020°38'7302628172.4
2017-Oct-17 21:30N 44°44' E 037°47'1493767887.9
2017-Oct-17 21:30N 51°26' E 001°55'47898619637.0
2017-Oct-17 21:30N 49°17' W 123°08'1043938606.5
2017-Oct-17 21:30N 32°20' W 118°02'698712576743.5
2017-Oct-17 21:30N 46°57' E 031°60'68661647874.2
2017-Oct-17 21:30N 37°47' W 122°23'69182490430.2
2017-Oct-17 21:30N 37°56' E 023°39'65921078654.1
2017-Oct-17 21:29N 46°09' W 123°53'2139855498.0
2017-Oct-17 21:29N 38°58' W 076°29'39071406665.8
2017-Oct-17 21:29N 59°20' E 018°05'1330319284.9
2017-Oct-17 21:29N 39°32' E 002°43'3732671673.6
2017-Oct-17 21:29N 36°53' W 076°22'37811237378.0
2017-Oct-17 21:28N 68°04' E 013°32'993211918871.0
2017-Oct-17 21:28S 38°20' E 144°45'99301489494.7
2017-Oct-17 21:28N 66°10' E 012°32'38583471781.9
2017-Oct-17 21:28N 41°31' W 088°06'46168308780.8
2017-Oct-17 21:28N 60°02' E 029°58'789567742.2
2017-Oct-17 21:28N 46°56' E 031°57'165.7
2017-Oct-17 21:27N 46°56' E 031°57'27721683.6
2017-Oct-17 21:26N 44°44' E 037°47'7236407042.4
2017-Oct-17 21:25N 37°52' W 122°29'68701301609.8
2017-Oct-17 21:25N 46°50' E 031°57'48011728257.5
2017-Oct-17 21:25N 01°16' E 103°58'6223122410.9
2017-Oct-17 21:22N 41°01' E 001°16'3481722.0
2017-Oct-17 21:10N 43°31' W 005°49'315457052.9
2017-Oct-17 21:06N 39°32' W 075°49'46481.8
2017-Oct-17 21:00N 38°58' W 076°29'21027568065.2
2017-Oct-17 21:00N 49°18' W 123°08'622022391485.6
2017-Oct-17 21:00N 46°50' E 031°57'4871754363.7
2017-Oct-17 21:00N 44°51' E 020°38'9723499325.9
2017-Oct-17 21:00N 60°02' E 029°58'63687641099.4
2017-Oct-17 21:00N 32°20' W 118°00'54806575475.5
2017-Oct-17 21:00N 51°34' E 002°02'33502010081.5
2017-Oct-17 21:00N 39°32' W 075°49'47334259878.3
2017-Oct-17 21:00N 46°57' E 031°60'21093.0
2017-Oct-17 21:00N 46°56' E 031°57'68653530779.3
2017-Oct-17 21:00N 37°47' W 122°23'69182075358.5
2017-Oct-17 21:00N 37°56' E 023°39'50459081107.3
2017-Oct-17 21:00N 01°19' E 104°00'4490850727.8
2017-Oct-17 20:59N 44°44' E 037°47'680624502029.1
2017-Oct-17 20:59N 46°09' W 123°53'2139962435.2
2017-Oct-17 20:59N 38°58' W 076°29'39071758331.5
2017-Oct-17 20:59N 59°20' E 018°05'94966837298.6
2017-Oct-17 20:59S 38°20' E 144°45'97184373065.9
2017-Oct-17 20:59N 39°32' E 002°43'1755197411.3
2017-Oct-17 20:58N 68°04' E 013°32'38602316149.7
2017-Oct-17 20:58N 41°31' W 088°06'16031923344.4
2017-Oct-17 20:58N 37°52' W 122°29'68701648705.7
2017-Oct-17 20:58N 46°50' E 031°57'13274775590.2
2017-Oct-17 20:58N 66°10' E 012°32'1321365730.6
2017-Oct-17 20:58N 46°56' E 031°57'120532851.8
2017-Oct-17 20:56N 51°32' E 002°02'4617124980.9
2017-Oct-17 20:53N 29°33' W 095°02'4757518919.3
2017-Oct-17 20:53N 38°42' E 000°06'39610626.5
2017-Oct-17 20:51N 43°45' W 005°32'310150513.8
2017-Oct-17 20:47N 39°20' W 074°20'348413371.0
2017-Oct-17 20:31N 40°44' E 001°29'3593315488.1
2017-Oct-17 20:31N 38°58' W 076°29'21027568077.4
2017-Oct-17 20:30N 49°18' W 123°08'588010584826.1
2017-Oct-17 20:30N 44°51' E 020°38'7301314086.2
2017-Oct-17 20:30N 44°44' E 037°47'73476612157.3
2017-Oct-17 20:30N 32°21' W 117°58'63654582940.7
2017-Oct-17 20:30N 60°02' E 029°58'42792567380.3
2017-Oct-17 20:30N 39°32' W 075°49'47322839278.0
2017-Oct-17 20:30N 46°56' E 031°57'68653089431.4
2017-Oct-17 20:30N 37°47' W 122°23'69181915714.3
2017-Oct-17 20:30N 37°56' E 023°39'6552357067.0
2017-Oct-17 20:30N 46°57' E 031°60'13714936621.3
2017-Oct-17 20:30N 40°47' E 001°28'621122358626.2
2017-Oct-17 20:30N 01°19' E 104°00'3321519833.7
2017-Oct-17 20:29S 38°20' E 144°44'74588949287.8
2017-Oct-17 20:29N 46°09' W 123°53'21397699481.9
2017-Oct-17 20:29N 38°58' W 076°29'39071758331.5
2017-Oct-17 20:29N 59°20' E 018°05'1330299330.6
2017-Oct-17 20:29N 39°32' E 002°43'1755217833.1
2017-Oct-17 20:28N 68°04' E 013°32'3860772059.5
2017-Oct-17 20:28N 41°31' W 088°06'38581262463.0
2017-Oct-17 20:28N 66°10' E 012°32'1326207623.0
2017-Oct-17 20:27N 46°50' E 031°57'119988082.3
2017-Oct-17 20:27N 51°43' E 002°15'1481280596.2
2017-Oct-17 20:26N 44°44' E 037°47'27710396.8
2017-Oct-17 20:25N 46°56' E 031°57'4874132925.7
2017-Oct-17 20:23N 36°53' W 076°22'103527810.7
2017-Oct-17 20:20N 29°33' W 095°02'145880740.7
2017-Oct-17 20:19N 37°52' W 122°29'6870124274.3
2017-Oct-17 20:16N 46°50' E 031°57'466431445.9
2017-Oct-17 20:07N 39°28' W 074°08'387584548.5
2017-Oct-17 20:04N 41°49' E 010°56'90428538.3
2017-Oct-17 20:02N 46°29' E 030°53'4754154180.0
2017-Oct-17 20:01N 38°58' W 076°29'478917241042.7
2017-Oct-17 20:00N 46°50' E 031°57'487877198.3
2017-Oct-17 20:00N 44°51' E 020°38'7312629978.2
2017-Oct-17 20:00N 44°43' E 037°48'73496614279.6
2017-Oct-17 20:00N 32°21' W 118°00'10431877190.4
2017-Oct-17 20:00N 49°18' W 123°08'77636986949.3
2017-Oct-17 20:00N 01°17' E 103°59'1099939596758.5
2017-Oct-17 20:00N 41°31' W 088°06'574187829.6
2017-Oct-17 20:00N 39°32' W 075°47'47318515117.6
2017-Oct-17 20:00N 46°56' E 031°57'277997447.0
2017-Oct-17 20:00N 44°44' E 037°47'81189741231.5
2017-Oct-17 20:00S 38°20' E 144°45'33303995946.5
2017-Oct-17 20:00N 01°17' E 103°46'787928364673.4
2017-Oct-17 20:00N 37°47' W 122°23'69182264027.5
2017-Oct-17 20:00N 37°56' E 023°39'6552357067.0
2017-Oct-17 20:00N 46°57' E 031°60'4788638352.6
2017-Oct-17 19:59N 38°58' W 076°29'39071406667.1
2017-Oct-17 19:59N 59°20' E 018°05'1330299329.9
2017-Oct-17 19:59N 39°32' E 002°43'1755210572.0
2017-Oct-17 19:58N 68°04' E 013°32'11714983.1
2017-Oct-17 19:58N 66°10' E 012°32'91897149.0
2017-Oct-17 19:57N 51°48' E 002°21'4627273086.9
2017-Oct-17 19:56N 29°33' W 095°02'1691676368.3
2017-Oct-17 19:56N 46°09' W 123°53'50232828.1
2017-Oct-17 19:55N 37°52' W 122°29'6864852144.3
2017-Oct-17 19:55N 46°56' E 031°57'6132.7
2017-Oct-17 19:52N 46°50' E 031°57'9547260.5
2017-Oct-17 19:44N 41°48' E 010°53'568072252.9
2017-Oct-17 19:39N 48°52' W 123°24'623162655.7
2017-Oct-17 19:33N 46°30' E 030°48'4750100587.1
2017-Oct-17 19:31N 38°58' W 076°29'47898620519.3
2017-Oct-17 19:30N 46°50' E 031°57'4871754363.7
2017-Oct-17 19:30N 44°51' E 020°38'7331318509.9
2017-Oct-17 19:30N 44°42' E 037°50'735426473987.1
2017-Oct-17 19:30N 32°21' W 118°02'735426473714.1
2017-Oct-17 19:30N 44°42' E 037°50'65924746456.3
2017-Oct-17 19:30N 49°18' W 123°08'21167618330.6
2017-Oct-17 19:30N 39°33' W 075°40'2191358594.9
2017-Oct-17 19:30N 37°47' W 122°23'68653089434.1
2017-Oct-17 19:30N 46°56' E 031°57'653587403.5
2017-Oct-17 19:30N 37°56' E 023°39'6551178529.0
2017-Oct-17 19:30N 46°57' E 031°60'788472828.8
2017-Oct-17 19:30N 60°02' E 029°58'812208897.6
2017-Oct-17 19:29N 46°30' E 030°47'47493419582.2
2017-Oct-17 19:29N 38°58' W 076°29'2139699953.8
2017-Oct-17 19:29N 46°09' W 123°53'774213935898.1
2017-Oct-17 19:29N 01°16' E 103°59'622522409705.0
2017-Oct-17 19:29N 37°29' E 000°55'14941309.7
2017-Oct-17 19:29N 39°32' E 002°43'1755203779.4
2017-Oct-17 19:28N 68°04' E 013°32'11716135.7
2017-Oct-17 19:28N 66°10' E 012°32'1321679213.1
2017-Oct-17 19:28N 46°56' E 031°57'119014322.4
2017-Oct-17 19:23N 51°59' E 002°27'4247.9
2017-Oct-17 19:22N 52°03' E 002°30'119112046.0
2017-Oct-17 19:16N 46°50' E 031°57'622024208.0
2017-Oct-17 19:00N 49°18' W 123°08'622022391485.6
2017-Oct-17 19:00N 46°50' E 031°57'4871754363.7
2017-Oct-17 19:00N 44°51' E 020°38'7331318558.5
2017-Oct-17 19:00N 44°42' E 037°50'50546065385.3
2017-Oct-17 19:00N 39°34' W 075°33'47201307127.7
2017-Oct-17 19:00N 46°57' E 031°60'1510906069.2
2017-Oct-17 19:00N 37°57' E 000°08'58042984673.7
2017-Oct-17 19:00N 37°47' W 122°23'720412967921.9
2017-Oct-17 19:00S 38°20' E 144°45'84685080933.1
2017-Oct-17 19:00N 46°56' E 031°57'69873593277.3
2017-Oct-17 19:00N 32°20' W 118°03'6987898268.1
2017-Oct-17 18:59N 46°56' E 031°57'64321653998.9
2017-Oct-17 18:59N 46°09' W 123°55'55852233954.0
2017-Oct-17 18:59N 39°32' E 002°43'1755197411.3
2017-Oct-17 18:58N 68°04' E 013°32'1406210920.9
2017-Oct-17 18:58N 46°50' E 031°57'13272387782.0
2017-Oct-17 18:58N 66°10' E 012°32'1549398430.5
2017-Oct-17 18:58N 44°42' E 037°50'4483212335.5
2017-Oct-17 18:56N 01°12' E 103°48'5039115540.0
2017-Oct-17 18:54N 37°56' E 023°39'1302117196.9
2017-Oct-17 18:53N 59°20' E 018°05'5164110002.0
2017-Oct-17 18:50N 29°33' W 095°02'175543282.6
2017-Oct-17 18:48N 48°52' W 123°24'567683737.8
2017-Oct-17 18:44N 41°45' E 010°43'399036552.1
2017-Oct-17 18:37N 38°58' W 076°29'0 4.0
2017-Oct-17 18:32N 38°58' W 076°29'4789169036.6
2017-Oct-17 18:31N 46°50' E 031°57'699225172286.2
2017-Oct-17 18:31N 32°19' W 118°04'735726485897.1
2017-Oct-17 18:30N 44°42' E 037°50'732878991.3
2017-Oct-17 18:30N 44°51' E 020°38'52816337723.1
2017-Oct-17 18:30N 01°15' E 103°44'103396203131.2
2017-Oct-17 18:30N 39°40' W 075°33'1402050473103.4
2017-Oct-17 18:30S 38°20' E 144°45'84675080191.2
2017-Oct-17 18:30N 46°57' E 031°60'68661647873.1
2017-Oct-17 18:30N 37°47' W 122°23'692414965.6
2017-Oct-17 18:30N 49°18' W 123°08'621411185750.0
2017-Oct-17 18:30N 46°56' E 031°57'653587403.5
2017-Oct-17 18:30N 37°56' E 023°39'64431656803.0
2017-Oct-17 18:29N 48°53' W 123°25'1757486448.7
2017-Oct-17 18:29N 29°33' W 095°02'10791942333.7
2017-Oct-17 18:29N 38°58' W 076°29'104202084021.1
2017-Oct-17 18:29N 01°18' E 104°05'773613925035.4
2017-Oct-17 18:29N 46°09' W 123°53'55834020114.2
2017-Oct-17 18:29N 39°32' E 002°43'13531217851.9
2017-Oct-17 18:29N 46°56' E 031°57'1400186686.3
2017-Oct-17 18:28N 68°04' E 013°32'1406220091.7
2017-Oct-17 18:28N 46°50' E 031°57'13271591861.5
2017-Oct-17 18:28N 66°10' E 012°32'4381328.1
2017-Oct-17 18:08N 59°20' E 018°05'146025773.5
2017-Oct-17 18:05N 38°18' W 000°34'355851237.8
2017-Oct-17 18:01N 38°58' W 076°29'47898620487.6
2017-Oct-17 18:00N 46°50' E 031°57'487877181.9
2017-Oct-17 18:00N 44°51' E 020°38'654711784779.4
2017-Oct-17 18:00N 32°19' W 118°02'21121900937.2
2017-Oct-17 18:00N 39°45' W 075°29'1034837252474.2
2017-Oct-17 18:00N 01°16' E 104°01'77502790148.4
2017-Oct-17 18:00N 48°53' W 123°25'625022500232.0
2017-Oct-17 18:00N 46°57' E 031°60'276497059.8
2017-Oct-17 18:00N 44°44' E 037°47'011.5
2017-Oct-17 18:00N 44°44' E 037°47'72373721734.4
2017-Oct-17 18:00N 37°47' W 122°23'72046483957.5
2017-Oct-17 18:00S 38°20' E 144°45'846810161866.2
2017-Oct-17 18:00N 46°56' E 031°57'1514194634.4
2017-Oct-17 17:59N 38°24' W 000°21'1451474747.6
2017-Oct-17 17:59N 59°20' E 018°05'5217894318.7
2017-Oct-17 17:59N 46°09' W 123°53'64315787863.6
2017-Oct-17 17:59N 46°56' E 031°57'1400201622.6
2017-Oct-17 17:58N 68°04' E 013°32'1406202484.9
2017-Oct-17 17:58N 46°50' E 031°57'13271591861.5
2017-Oct-17 17:58N 66°10' E 012°32'59891134797.1
2017-Oct-17 17:58N 01°14' E 103°39'5030385298.9
2017-Oct-17 17:57N 37°56' E 023°39'4706513328.2
2017-Oct-17 17:56N 38°58' W 076°29'216432319.9
2017-Oct-17 17:52N 37°52' W 122°29'145817790.3
2017-Oct-17 17:47N 29°33' W 095°02'520021791.2
2017-Oct-17 17:33N 41°41' E 010°32'398398221.4
2017-Oct-17 17:31N 38°58' W 076°29'478917240991.2
2017-Oct-17 17:31N 46°50' E 031°57'487584787.9
2017-Oct-17 17:30N 44°51' E 020°38'52933176073.6
2017-Oct-17 17:30N 01°16' E 103°60'77649316748.9
2017-Oct-17 17:30N 49°18' W 123°08'62144474045.4
2017-Oct-17 17:30N 46°56' E 031°57'470116923150.0
2017-Oct-17 17:30N 39°49' W 075°23'47028463777.5
2017-Oct-17 17:30N 46°57' E 031°60'276248536.0
2017-Oct-17 17:30N 44°44' E 037°47'44814032765.3
2017-Oct-17 17:30N 01°15' E 103°44'44815377017.5
2017-Oct-17 17:30N 44°44' E 037°47'72376513035.2
2017-Oct-17 17:30N 37°47' W 122°23'69181915716.9
2017-Oct-17 17:30N 37°56' E 023°39'85871144901.3
2017-Oct-17 17:29S 38°20' E 144°45'1406025308493.9
2017-Oct-17 17:29N 38°58' W 076°29'3680552030.8
2017-Oct-17 17:29N 39°32' E 002°43'55833350094.9
2017-Oct-17 17:29N 46°09' W 123°53'4666646074.5
2017-Oct-17 17:28N 68°04' E 013°32'52393772074.5
2017-Oct-17 17:28N 37°52' W 122°29'68701373920.5
2017-Oct-17 17:28N 46°50' E 031°57'6259204835.9
2017-Oct-17 17:26N 48°51' W 123°26'567310210753.0
2017-Oct-17 17:26N 41°41' E 010°31'147174576.4
2017-Oct-17 17:25N 66°10' E 012°32'132174323.0
2017-Oct-17 17:24N 46°56' E 031°57'89689622.8
2017-Oct-17 17:23N 59°20' E 018°05'564794120.8
2017-Oct-17 17:20N 01°17' E 103°54